<?xml version="1.0" encoding="UTF-8"?>
<gpx version="1.0" creator="Gaggle https://github.com/geeksville/Gaggle" xmlns:xsi="http://www.w3.org/2001/XMLSchema-instance" xmlns="http://www.topografix.com/GPX/1/0" xsi:schemaLocation="http://www.topografix.com/GPX/1/0 http://www.topografix.com/GPX/1/0/gpx.xsd">
<trk>
	<name>Jorgev's flight</name>
	<desc>
	Pilot name:	Jorgev
	Pilot ID:	
	Glider type:	Rush 2
	</desc>
	<trkseg>
		<trkpt lat="42.874323" lon="-5.373879">
			<ele>1629.000000</ele>
		<time>2015-12-06T12:16:50Z</time>
		</trkpt>

		<trkpt lat="42.874192" lon="-5.373367">
			<ele>1630.000000</ele>
		<time>2015-12-06T12:30:31Z</time>
		</trkpt>

		<trkpt lat="42.874288" lon="-5.373069">
			<ele>1628.000000</ele>
		<time>2015-12-06T12:30:34Z</time>
		</trkpt>

		<trkpt lat="42.874299" lon="-5.372743">
			<ele>1627.000000</ele>
		<time>2015-12-06T12:30:37Z</time>
		</trkpt>

		<trkpt lat="42.874185" lon="-5.372595">
			<ele>1628.000000</ele>
		<time>2015-12-06T12:30:40Z</time>
		</trkpt>

		<trkpt lat="42.874063" lon="-5.372653">
			<ele>1627.000000</ele>
		<time>2015-12-06T12:30:43Z</time>
		</trkpt>

		<trkpt lat="42.873959" lon="-5.372688">
			<ele>1628.000000</ele>
		<time>2015-12-06T12:30:46Z</time>
		</trkpt>

		<trkpt lat="42.873871" lon="-5.372859">
			<ele>1629.000000</ele>
		<time>2015-12-06T12:30:49Z</time>
		</trkpt>

		<trkpt lat="42.873842" lon="-5.373077">
			<ele>1630.000000</ele>
		<time>2015-12-06T12:30:52Z</time>
		</trkpt>

		<trkpt lat="42.873836" lon="-5.373302">
			<ele>1629.000000</ele>
		<time>2015-12-06T12:30:55Z</time>
		</trkpt>

		<trkpt lat="42.873790" lon="-5.373553">
			<ele>1627.000000</ele>
		<time>2015-12-06T12:30:58Z</time>
		</trkpt>

		<trkpt lat="42.873716" lon="-5.373807">
			<ele>1625.000000</ele>
		<time>2015-12-06T12:31:01Z</time>
		</trkpt>

		<trkpt lat="42.873623" lon="-5.374092">
			<ele>1624.000000</ele>
		<time>2015-12-06T12:31:04Z</time>
		</trkpt>

		<trkpt lat="42.873503" lon="-5.374285">
			<ele>1623.000000</ele>
		<time>2015-12-06T12:31:07Z</time>
		</trkpt>

		<trkpt lat="42.873387" lon="-5.374444">
			<ele>1622.000000</ele>
		<time>2015-12-06T12:31:10Z</time>
		</trkpt>

		<trkpt lat="42.873218" lon="-5.374561">
			<ele>1619.000000</ele>
		<time>2015-12-06T12:31:13Z</time>
		</trkpt>

		<trkpt lat="42.873087" lon="-5.374712">
			<ele>1626.000000</ele>
		<time>2015-12-06T12:31:16Z</time>
		</trkpt>

		<trkpt lat="42.872949" lon="-5.374822">
			<ele>1622.000000</ele>
		<time>2015-12-06T12:31:19Z</time>
		</trkpt>

		<trkpt lat="42.872864" lon="-5.374738">
			<ele>1619.000000</ele>
		<time>2015-12-06T12:31:22Z</time>
		</trkpt>

		<trkpt lat="42.872990" lon="-5.374479">
			<ele>1616.000000</ele>
		<time>2015-12-06T12:31:25Z</time>
		</trkpt>

		<trkpt lat="42.873261" lon="-5.374343">
			<ele>1617.000000</ele>
		<time>2015-12-06T12:31:28Z</time>
		</trkpt>

		<trkpt lat="42.873537" lon="-5.374257">
			<ele>1617.000000</ele>
		<time>2015-12-06T12:31:31Z</time>
		</trkpt>

		<trkpt lat="42.873712" lon="-5.374058">
			<ele>1613.000000</ele>
		<time>2015-12-06T12:31:34Z</time>
		</trkpt>

		<trkpt lat="42.873678" lon="-5.373892">
			<ele>1613.000000</ele>
		<time>2015-12-06T12:31:37Z</time>
		</trkpt>

		<trkpt lat="42.873566" lon="-5.373978">
			<ele>1613.000000</ele>
		<time>2015-12-06T12:31:40Z</time>
		</trkpt>

		<trkpt lat="42.873457" lon="-5.374162">
			<ele>1612.000000</ele>
		<time>2015-12-06T12:31:43Z</time>
		</trkpt>

		<trkpt lat="42.873350" lon="-5.374364">
			<ele>1615.000000</ele>
		<time>2015-12-06T12:31:46Z</time>
		</trkpt>

		<trkpt lat="42.873241" lon="-5.374571">
			<ele>1613.000000</ele>
		<time>2015-12-06T12:31:49Z</time>
		</trkpt>

		<trkpt lat="42.873118" lon="-5.374787">
			<ele>1612.000000</ele>
		<time>2015-12-06T12:31:52Z</time>
		</trkpt>

		<trkpt lat="42.872992" lon="-5.375002">
			<ele>1610.000000</ele>
		<time>2015-12-06T12:31:55Z</time>
		</trkpt>

		<trkpt lat="42.872893" lon="-5.375214">
			<ele>1606.000000</ele>
		<time>2015-12-06T12:31:58Z</time>
		</trkpt>

		<trkpt lat="42.872768" lon="-5.375439">
			<ele>1604.000000</ele>
		<time>2015-12-06T12:32:01Z</time>
		</trkpt>

		<trkpt lat="42.872591" lon="-5.375494">
			<ele>1603.000000</ele>
		<time>2015-12-06T12:32:04Z</time>
		</trkpt>

		<trkpt lat="42.872463" lon="-5.375385">
			<ele>1602.000000</ele>
		<time>2015-12-06T12:32:07Z</time>
		</trkpt>

		<trkpt lat="42.872484" lon="-5.375195">
			<ele>1598.000000</ele>
		<time>2015-12-06T12:32:10Z</time>
		</trkpt>

		<trkpt lat="42.872607" lon="-5.374916">
			<ele>1598.000000</ele>
		<time>2015-12-06T12:32:13Z</time>
		</trkpt>

		<trkpt lat="42.872776" lon="-5.374728">
			<ele>1599.000000</ele>
		<time>2015-12-06T12:32:16Z</time>
		</trkpt>

		<trkpt lat="42.872967" lon="-5.374530">
			<ele>1600.000000</ele>
		<time>2015-12-06T12:32:19Z</time>
		</trkpt>

		<trkpt lat="42.873126" lon="-5.374384">
			<ele>1602.000000</ele>
		<time>2015-12-06T12:32:22Z</time>
		</trkpt>

		<trkpt lat="42.873243" lon="-5.374147">
			<ele>1603.000000</ele>
		<time>2015-12-06T12:32:25Z</time>
		</trkpt>

		<trkpt lat="42.873398" lon="-5.373985">
			<ele>1603.000000</ele>
		<time>2015-12-06T12:32:28Z</time>
		</trkpt>

		<trkpt lat="42.873506" lon="-5.373749">
			<ele>1605.000000</ele>
		<time>2015-12-06T12:32:31Z</time>
		</trkpt>

		<trkpt lat="42.873466" lon="-5.373578">
			<ele>1607.000000</ele>
		<time>2015-12-06T12:32:34Z</time>
		</trkpt>

		<trkpt lat="42.873441" lon="-5.373468">
			<ele>1600.000000</ele>
		<time>2015-12-06T12:32:37Z</time>
		</trkpt>

		<trkpt lat="42.873411" lon="-5.373258">
			<ele>1597.000000</ele>
		<time>2015-12-06T12:32:40Z</time>
		</trkpt>

		<trkpt lat="42.873439" lon="-5.373049">
			<ele>1594.000000</ele>
		<time>2015-12-06T12:32:43Z</time>
		</trkpt>

		<trkpt lat="42.873493" lon="-5.372744">
			<ele>1590.000000</ele>
		<time>2015-12-06T12:32:46Z</time>
		</trkpt>

		<trkpt lat="42.873563" lon="-5.372428">
			<ele>1588.000000</ele>
		<time>2015-12-06T12:32:49Z</time>
		</trkpt>

		<trkpt lat="42.873520" lon="-5.372107">
			<ele>1587.000000</ele>
		<time>2015-12-06T12:32:52Z</time>
		</trkpt>

		<trkpt lat="42.873357" lon="-5.371979">
			<ele>1586.000000</ele>
		<time>2015-12-06T12:32:55Z</time>
		</trkpt>

		<trkpt lat="42.873205" lon="-5.372006">
			<ele>1584.000000</ele>
		<time>2015-12-06T12:32:58Z</time>
		</trkpt>

		<trkpt lat="42.873065" lon="-5.372123">
			<ele>1585.000000</ele>
		<time>2015-12-06T12:33:01Z</time>
		</trkpt>

		<trkpt lat="42.872969" lon="-5.372295">
			<ele>1585.000000</ele>
		<time>2015-12-06T12:33:04Z</time>
		</trkpt>

		<trkpt lat="42.872881" lon="-5.372535">
			<ele>1585.000000</ele>
		<time>2015-12-06T12:33:07Z</time>
		</trkpt>

		<trkpt lat="42.872782" lon="-5.372784">
			<ele>1587.000000</ele>
		<time>2015-12-06T12:33:10Z</time>
		</trkpt>

		<trkpt lat="42.872679" lon="-5.372985">
			<ele>1587.000000</ele>
		<time>2015-12-06T12:33:13Z</time>
		</trkpt>

		<trkpt lat="42.872532" lon="-5.373057">
			<ele>1586.000000</ele>
		<time>2015-12-06T12:33:16Z</time>
		</trkpt>

		<trkpt lat="42.872399" lon="-5.372998">
			<ele>1585.000000</ele>
		<time>2015-12-06T12:33:19Z</time>
		</trkpt>

		<trkpt lat="42.872297" lon="-5.372826">
			<ele>1585.000000</ele>
		<time>2015-12-06T12:33:22Z</time>
		</trkpt>

		<trkpt lat="42.872291" lon="-5.372575">
			<ele>1581.000000</ele>
		<time>2015-12-06T12:33:25Z</time>
		</trkpt>

		<trkpt lat="42.872323" lon="-5.372306">
			<ele>1583.000000</ele>
		<time>2015-12-06T12:33:28Z</time>
		</trkpt>

		<trkpt lat="42.872441" lon="-5.372113">
			<ele>1583.000000</ele>
		<time>2015-12-06T12:33:31Z</time>
		</trkpt>

		<trkpt lat="42.872498" lon="-5.371909">
			<ele>1582.000000</ele>
		<time>2015-12-06T12:33:34Z</time>
		</trkpt>

		<trkpt lat="42.872396" lon="-5.371730">
			<ele>1582.000000</ele>
		<time>2015-12-06T12:33:37Z</time>
		</trkpt>

		<trkpt lat="42.872262" lon="-5.371823">
			<ele>1584.000000</ele>
		<time>2015-12-06T12:33:40Z</time>
		</trkpt>

		<trkpt lat="42.872137" lon="-5.371993">
			<ele>1583.000000</ele>
		<time>2015-12-06T12:33:43Z</time>
		</trkpt>

		<trkpt lat="42.872030" lon="-5.372236">
			<ele>1581.000000</ele>
		<time>2015-12-06T12:33:46Z</time>
		</trkpt>

		<trkpt lat="42.871954" lon="-5.372512">
			<ele>1579.000000</ele>
		<time>2015-12-06T12:33:49Z</time>
		</trkpt>

		<trkpt lat="42.871933" lon="-5.372810">
			<ele>1579.000000</ele>
		<time>2015-12-06T12:33:52Z</time>
		</trkpt>

		<trkpt lat="42.871931" lon="-5.373157">
			<ele>1581.000000</ele>
		<time>2015-12-06T12:33:55Z</time>
		</trkpt>

		<trkpt lat="42.871913" lon="-5.373485">
			<ele>1581.000000</ele>
		<time>2015-12-06T12:33:58Z</time>
		</trkpt>

		<trkpt lat="42.871895" lon="-5.373789">
			<ele>1581.000000</ele>
		<time>2015-12-06T12:34:01Z</time>
		</trkpt>

		<trkpt lat="42.871820" lon="-5.374088">
			<ele>1581.000000</ele>
		<time>2015-12-06T12:34:04Z</time>
		</trkpt>

		<trkpt lat="42.871683" lon="-5.374336">
			<ele>1580.000000</ele>
		<time>2015-12-06T12:34:07Z</time>
		</trkpt>

		<trkpt lat="42.871544" lon="-5.374268">
			<ele>1581.000000</ele>
		<time>2015-12-06T12:34:10Z</time>
		</trkpt>

		<trkpt lat="42.871531" lon="-5.374046">
			<ele>1581.000000</ele>
		<time>2015-12-06T12:34:13Z</time>
		</trkpt>

		<trkpt lat="42.871589" lon="-5.373799">
			<ele>1580.000000</ele>
		<time>2015-12-06T12:34:16Z</time>
		</trkpt>

		<trkpt lat="42.871672" lon="-5.373523">
			<ele>1579.000000</ele>
		<time>2015-12-06T12:34:19Z</time>
		</trkpt>

		<trkpt lat="42.871747" lon="-5.373308">
			<ele>1577.000000</ele>
		<time>2015-12-06T12:34:22Z</time>
		</trkpt>

		<trkpt lat="42.871883" lon="-5.373007">
			<ele>1579.000000</ele>
		<time>2015-12-06T12:34:25Z</time>
		</trkpt>

		<trkpt lat="42.872116" lon="-5.372805">
			<ele>1578.000000</ele>
		<time>2015-12-06T12:34:28Z</time>
		</trkpt>

		<trkpt lat="42.872332" lon="-5.372567">
			<ele>1572.000000</ele>
		<time>2015-12-06T12:34:31Z</time>
		</trkpt>

		<trkpt lat="42.872550" lon="-5.372306">
			<ele>1568.000000</ele>
		<time>2015-12-06T12:34:34Z</time>
		</trkpt>

		<trkpt lat="42.872685" lon="-5.372049">
			<ele>1564.000000</ele>
		<time>2015-12-06T12:34:37Z</time>
		</trkpt>

		<trkpt lat="42.872685" lon="-5.371822">
			<ele>1561.000000</ele>
		<time>2015-12-06T12:34:40Z</time>
		</trkpt>

		<trkpt lat="42.872610" lon="-5.371692">
			<ele>1560.000000</ele>
		<time>2015-12-06T12:34:43Z</time>
		</trkpt>

		<trkpt lat="42.872459" lon="-5.371707">
			<ele>1556.000000</ele>
		<time>2015-12-06T12:34:46Z</time>
		</trkpt>

		<trkpt lat="42.872372" lon="-5.371874">
			<ele>1554.000000</ele>
		<time>2015-12-06T12:34:49Z</time>
		</trkpt>

		<trkpt lat="42.872265" lon="-5.372138">
			<ele>1550.000000</ele>
		<time>2015-12-06T12:34:52Z</time>
		</trkpt>

		<trkpt lat="42.872120" lon="-5.372314">
			<ele>1548.000000</ele>
		<time>2015-12-06T12:34:55Z</time>
		</trkpt>

		<trkpt lat="42.872040" lon="-5.372480">
			<ele>1540.000000</ele>
		<time>2015-12-06T12:34:58Z</time>
		</trkpt>

		<trkpt lat="42.871922" lon="-5.372663">
			<ele>1535.000000</ele>
		<time>2015-12-06T12:35:01Z</time>
		</trkpt>

		<trkpt lat="42.871790" lon="-5.372799">
			<ele>1532.000000</ele>
		<time>2015-12-06T12:35:04Z</time>
		</trkpt>

		<trkpt lat="42.871665" lon="-5.372892">
			<ele>1528.000000</ele>
		<time>2015-12-06T12:35:07Z</time>
		</trkpt>

		<trkpt lat="42.871521" lon="-5.373036">
			<ele>1524.000000</ele>
		<time>2015-12-06T12:35:10Z</time>
		</trkpt>

		<trkpt lat="42.871378" lon="-5.373192">
			<ele>1522.000000</ele>
		<time>2015-12-06T12:35:13Z</time>
		</trkpt>

		<trkpt lat="42.871261" lon="-5.373383">
			<ele>1521.000000</ele>
		<time>2015-12-06T12:35:16Z</time>
		</trkpt>

		<trkpt lat="42.871145" lon="-5.373581">
			<ele>1518.000000</ele>
		<time>2015-12-06T12:35:19Z</time>
		</trkpt>

		<trkpt lat="42.871019" lon="-5.373787">
			<ele>1514.000000</ele>
		<time>2015-12-06T12:35:22Z</time>
		</trkpt>

		<trkpt lat="42.870891" lon="-5.373945">
			<ele>1511.000000</ele>
		<time>2015-12-06T12:35:25Z</time>
		</trkpt>

		<trkpt lat="42.870766" lon="-5.374170">
			<ele>1513.000000</ele>
		<time>2015-12-06T12:35:28Z</time>
		</trkpt>

		<trkpt lat="42.870631" lon="-5.374403">
			<ele>1512.000000</ele>
		<time>2015-12-06T12:35:31Z</time>
		</trkpt>

		<trkpt lat="42.870463" lon="-5.374406">
			<ele>1510.000000</ele>
		<time>2015-12-06T12:35:34Z</time>
		</trkpt>

		<trkpt lat="42.870351" lon="-5.374181">
			<ele>1506.000000</ele>
		<time>2015-12-06T12:35:37Z</time>
		</trkpt>

		<trkpt lat="42.870426" lon="-5.373945">
			<ele>1503.000000</ele>
		<time>2015-12-06T12:35:40Z</time>
		</trkpt>

		<trkpt lat="42.870408" lon="-5.373711">
			<ele>1497.000000</ele>
		<time>2015-12-06T12:35:43Z</time>
		</trkpt>

		<trkpt lat="42.870230" lon="-5.373592">
			<ele>1493.000000</ele>
		<time>2015-12-06T12:35:46Z</time>
		</trkpt>

		<trkpt lat="42.870056" lon="-5.373704">
			<ele>1496.000000</ele>
		<time>2015-12-06T12:35:49Z</time>
		</trkpt>

		<trkpt lat="42.869942" lon="-5.374001">
			<ele>1495.000000</ele>
		<time>2015-12-06T12:35:52Z</time>
		</trkpt>

		<trkpt lat="42.869960" lon="-5.374357">
			<ele>1497.000000</ele>
		<time>2015-12-06T12:35:55Z</time>
		</trkpt>

		<trkpt lat="42.870015" lon="-5.374656">
			<ele>1497.000000</ele>
		<time>2015-12-06T12:35:58Z</time>
		</trkpt>

		<trkpt lat="42.870019" lon="-5.374981">
			<ele>1494.000000</ele>
		<time>2015-12-06T12:36:01Z</time>
		</trkpt>

		<trkpt lat="42.869852" lon="-5.375165">
			<ele>1493.000000</ele>
		<time>2015-12-06T12:36:04Z</time>
		</trkpt>

		<trkpt lat="42.869695" lon="-5.375079">
			<ele>1493.000000</ele>
		<time>2015-12-06T12:36:07Z</time>
		</trkpt>

		<trkpt lat="42.869624" lon="-5.374912">
			<ele>1494.000000</ele>
		<time>2015-12-06T12:36:10Z</time>
		</trkpt>

		<trkpt lat="42.869671" lon="-5.374657">
			<ele>1494.000000</ele>
		<time>2015-12-06T12:36:13Z</time>
		</trkpt>

		<trkpt lat="42.869864" lon="-5.374467">
			<ele>1496.000000</ele>
		<time>2015-12-06T12:36:16Z</time>
		</trkpt>

		<trkpt lat="42.870047" lon="-5.374305">
			<ele>1492.000000</ele>
		<time>2015-12-06T12:36:19Z</time>
		</trkpt>

		<trkpt lat="42.870050" lon="-5.374056">
			<ele>1489.000000</ele>
		<time>2015-12-06T12:36:22Z</time>
		</trkpt>

		<trkpt lat="42.869923" lon="-5.374059">
			<ele>1489.000000</ele>
		<time>2015-12-06T12:36:25Z</time>
		</trkpt>

		<trkpt lat="42.869798" lon="-5.374248">
			<ele>1484.000000</ele>
		<time>2015-12-06T12:36:28Z</time>
		</trkpt>

		<trkpt lat="42.869781" lon="-5.374606">
			<ele>1483.000000</ele>
		<time>2015-12-06T12:36:31Z</time>
		</trkpt>

		<trkpt lat="42.869816" lon="-5.374926">
			<ele>1482.000000</ele>
		<time>2015-12-06T12:36:34Z</time>
		</trkpt>

		<trkpt lat="42.869900" lon="-5.375315">
			<ele>1480.000000</ele>
		<time>2015-12-06T12:36:37Z</time>
		</trkpt>

		<trkpt lat="42.869856" lon="-5.375680">
			<ele>1479.000000</ele>
		<time>2015-12-06T12:36:40Z</time>
		</trkpt>

		<trkpt lat="42.869692" lon="-5.375840">
			<ele>1483.000000</ele>
		<time>2015-12-06T12:36:43Z</time>
		</trkpt>

		<trkpt lat="42.869597" lon="-5.375834">
			<ele>1479.000000</ele>
		<time>2015-12-06T12:36:46Z</time>
		</trkpt>

		<trkpt lat="42.869531" lon="-5.375692">
			<ele>1477.000000</ele>
		<time>2015-12-06T12:36:49Z</time>
		</trkpt>

		<trkpt lat="42.869629" lon="-5.375477">
			<ele>1478.000000</ele>
		<time>2015-12-06T12:36:52Z</time>
		</trkpt>

		<trkpt lat="42.869767" lon="-5.375296">
			<ele>1478.000000</ele>
		<time>2015-12-06T12:36:55Z</time>
		</trkpt>

		<trkpt lat="42.869883" lon="-5.375082">
			<ele>1475.000000</ele>
		<time>2015-12-06T12:36:58Z</time>
		</trkpt>

		<trkpt lat="42.869902" lon="-5.374839">
			<ele>1472.000000</ele>
		<time>2015-12-06T12:37:01Z</time>
		</trkpt>

		<trkpt lat="42.869722" lon="-5.374766">
			<ele>1472.000000</ele>
		<time>2015-12-06T12:37:04Z</time>
		</trkpt>

		<trkpt lat="42.869593" lon="-5.374716">
			<ele>1471.000000</ele>
		<time>2015-12-06T12:37:07Z</time>
		</trkpt>

		<trkpt lat="42.869437" lon="-5.374692">
			<ele>1472.000000</ele>
		<time>2015-12-06T12:37:10Z</time>
		</trkpt>

		<trkpt lat="42.869364" lon="-5.374487">
			<ele>1472.000000</ele>
		<time>2015-12-06T12:37:13Z</time>
		</trkpt>

		<trkpt lat="42.869375" lon="-5.374272">
			<ele>1472.000000</ele>
		<time>2015-12-06T12:37:16Z</time>
		</trkpt>

		<trkpt lat="42.869422" lon="-5.374006">
			<ele>1472.000000</ele>
		<time>2015-12-06T12:37:19Z</time>
		</trkpt>

		<trkpt lat="42.869352" lon="-5.373834">
			<ele>1471.000000</ele>
		<time>2015-12-06T12:37:22Z</time>
		</trkpt>

		<trkpt lat="42.869197" lon="-5.373959">
			<ele>1469.000000</ele>
		<time>2015-12-06T12:37:25Z</time>
		</trkpt>

		<trkpt lat="42.869144" lon="-5.374266">
			<ele>1469.000000</ele>
		<time>2015-12-06T12:37:28Z</time>
		</trkpt>

		<trkpt lat="42.869198" lon="-5.374601">
			<ele>1468.000000</ele>
		<time>2015-12-06T12:37:31Z</time>
		</trkpt>

		<trkpt lat="42.869229" lon="-5.374922">
			<ele>1466.000000</ele>
		<time>2015-12-06T12:37:34Z</time>
		</trkpt>

		<trkpt lat="42.869076" lon="-5.375141">
			<ele>1464.000000</ele>
		<time>2015-12-06T12:37:37Z</time>
		</trkpt>

		<trkpt lat="42.868891" lon="-5.375087">
			<ele>1463.000000</ele>
		<time>2015-12-06T12:37:40Z</time>
		</trkpt>

		<trkpt lat="42.868875" lon="-5.374801">
			<ele>1463.000000</ele>
		<time>2015-12-06T12:37:43Z</time>
		</trkpt>

		<trkpt lat="42.868934" lon="-5.374580">
			<ele>1464.000000</ele>
		<time>2015-12-06T12:37:46Z</time>
		</trkpt>

		<trkpt lat="42.869052" lon="-5.374379">
			<ele>1465.000000</ele>
		<time>2015-12-06T12:37:49Z</time>
		</trkpt>

		<trkpt lat="42.869210" lon="-5.374152">
			<ele>1462.000000</ele>
		<time>2015-12-06T12:37:52Z</time>
		</trkpt>

		<trkpt lat="42.869289" lon="-5.373883">
			<ele>1462.000000</ele>
		<time>2015-12-06T12:37:55Z</time>
		</trkpt>

		<trkpt lat="42.869365" lon="-5.373629">
			<ele>1461.000000</ele>
		<time>2015-12-06T12:37:58Z</time>
		</trkpt>

		<trkpt lat="42.869514" lon="-5.373408">
			<ele>1461.000000</ele>
		<time>2015-12-06T12:38:01Z</time>
		</trkpt>

		<trkpt lat="42.869638" lon="-5.373209">
			<ele>1463.000000</ele>
		<time>2015-12-06T12:38:04Z</time>
		</trkpt>

		<trkpt lat="42.869826" lon="-5.372967">
			<ele>1465.000000</ele>
		<time>2015-12-06T12:38:07Z</time>
		</trkpt>

		<trkpt lat="42.869934" lon="-5.372702">
			<ele>1463.000000</ele>
		<time>2015-12-06T12:38:10Z</time>
		</trkpt>

		<trkpt lat="42.869930" lon="-5.372495">
			<ele>1463.000000</ele>
		<time>2015-12-06T12:38:13Z</time>
		</trkpt>

		<trkpt lat="42.869878" lon="-5.372251">
			<ele>1464.000000</ele>
		<time>2015-12-06T12:38:16Z</time>
		</trkpt>

		<trkpt lat="42.869861" lon="-5.372005">
			<ele>1466.000000</ele>
		<time>2015-12-06T12:38:19Z</time>
		</trkpt>

		<trkpt lat="42.869868" lon="-5.371724">
			<ele>1466.000000</ele>
		<time>2015-12-06T12:38:22Z</time>
		</trkpt>

		<trkpt lat="42.869805" lon="-5.371617">
			<ele>1463.000000</ele>
		<time>2015-12-06T12:38:25Z</time>
		</trkpt>

		<trkpt lat="42.869637" lon="-5.371711">
			<ele>1454.000000</ele>
		<time>2015-12-06T12:38:28Z</time>
		</trkpt>

		<trkpt lat="42.869555" lon="-5.371922">
			<ele>1446.000000</ele>
		<time>2015-12-06T12:38:31Z</time>
		</trkpt>

		<trkpt lat="42.869474" lon="-5.372142">
			<ele>1440.000000</ele>
		<time>2015-12-06T12:38:34Z</time>
		</trkpt>

		<trkpt lat="42.869319" lon="-5.372216">
			<ele>1436.000000</ele>
		<time>2015-12-06T12:38:37Z</time>
		</trkpt>

		<trkpt lat="42.869238" lon="-5.372036">
			<ele>1434.000000</ele>
		<time>2015-12-06T12:38:40Z</time>
		</trkpt>

		<trkpt lat="42.869212" lon="-5.371769">
			<ele>1433.000000</ele>
		<time>2015-12-06T12:38:43Z</time>
		</trkpt>

		<trkpt lat="42.869200" lon="-5.371511">
			<ele>1432.000000</ele>
		<time>2015-12-06T12:38:46Z</time>
		</trkpt>

		<trkpt lat="42.869201" lon="-5.371244">
			<ele>1428.000000</ele>
		<time>2015-12-06T12:38:49Z</time>
		</trkpt>

		<trkpt lat="42.869164" lon="-5.370988">
			<ele>1427.000000</ele>
		<time>2015-12-06T12:38:52Z</time>
		</trkpt>

		<trkpt lat="42.869141" lon="-5.370759">
			<ele>1429.000000</ele>
		<time>2015-12-06T12:38:55Z</time>
		</trkpt>

		<trkpt lat="42.869125" lon="-5.370525">
			<ele>1432.000000</ele>
		<time>2015-12-06T12:38:58Z</time>
		</trkpt>

		<trkpt lat="42.869124" lon="-5.370274">
			<ele>1435.000000</ele>
		<time>2015-12-06T12:39:01Z</time>
		</trkpt>

		<trkpt lat="42.869183" lon="-5.370047">
			<ele>1437.000000</ele>
		<time>2015-12-06T12:39:04Z</time>
		</trkpt>

		<trkpt lat="42.869296" lon="-5.369774">
			<ele>1444.000000</ele>
		<time>2015-12-06T12:39:07Z</time>
		</trkpt>

		<trkpt lat="42.869423" lon="-5.369534">
			<ele>1447.000000</ele>
		<time>2015-12-06T12:39:10Z</time>
		</trkpt>

		<trkpt lat="42.869552" lon="-5.369312">
			<ele>1448.000000</ele>
		<time>2015-12-06T12:39:13Z</time>
		</trkpt>

		<trkpt lat="42.869551" lon="-5.369092">
			<ele>1447.000000</ele>
		<time>2015-12-06T12:39:16Z</time>
		</trkpt>

		<trkpt lat="42.869438" lon="-5.369034">
			<ele>1431.000000</ele>
		<time>2015-12-06T12:39:19Z</time>
		</trkpt>

		<trkpt lat="42.869326" lon="-5.369202">
			<ele>1432.000000</ele>
		<time>2015-12-06T12:39:22Z</time>
		</trkpt>

		<trkpt lat="42.869248" lon="-5.369470">
			<ele>1432.000000</ele>
		<time>2015-12-06T12:39:25Z</time>
		</trkpt>

		<trkpt lat="42.869127" lon="-5.369724">
			<ele>1440.000000</ele>
		<time>2015-12-06T12:39:28Z</time>
		</trkpt>

		<trkpt lat="42.869042" lon="-5.369896">
			<ele>1448.000000</ele>
		<time>2015-12-06T12:39:31Z</time>
		</trkpt>

		<trkpt lat="42.868898" lon="-5.370009">
			<ele>1448.000000</ele>
		<time>2015-12-06T12:39:34Z</time>
		</trkpt>

		<trkpt lat="42.868787" lon="-5.369899">
			<ele>1447.000000</ele>
		<time>2015-12-06T12:39:37Z</time>
		</trkpt>

		<trkpt lat="42.868771" lon="-5.369647">
			<ele>1448.000000</ele>
		<time>2015-12-06T12:39:40Z</time>
		</trkpt>

		<trkpt lat="42.868884" lon="-5.369367">
			<ele>1445.000000</ele>
		<time>2015-12-06T12:39:43Z</time>
		</trkpt>

		<trkpt lat="42.869090" lon="-5.369129">
			<ele>1445.000000</ele>
		<time>2015-12-06T12:39:46Z</time>
		</trkpt>

		<trkpt lat="42.869309" lon="-5.368961">
			<ele>1445.000000</ele>
		<time>2015-12-06T12:39:49Z</time>
		</trkpt>

		<trkpt lat="42.869476" lon="-5.368703">
			<ele>1447.000000</ele>
		<time>2015-12-06T12:39:52Z</time>
		</trkpt>

		<trkpt lat="42.869646" lon="-5.368463">
			<ele>1448.000000</ele>
		<time>2015-12-06T12:39:55Z</time>
		</trkpt>

		<trkpt lat="42.869847" lon="-5.368226">
			<ele>1451.000000</ele>
		<time>2015-12-06T12:39:58Z</time>
		</trkpt>

		<trkpt lat="42.869987" lon="-5.367956">
			<ele>1451.000000</ele>
		<time>2015-12-06T12:40:01Z</time>
		</trkpt>

		<trkpt lat="42.870038" lon="-5.367673">
			<ele>1449.000000</ele>
		<time>2015-12-06T12:40:04Z</time>
		</trkpt>

		<trkpt lat="42.869973" lon="-5.367478">
			<ele>1451.000000</ele>
		<time>2015-12-06T12:40:07Z</time>
		</trkpt>

		<trkpt lat="42.869834" lon="-5.367473">
			<ele>1452.000000</ele>
		<time>2015-12-06T12:40:10Z</time>
		</trkpt>

		<trkpt lat="42.869707" lon="-5.367668">
			<ele>1448.000000</ele>
		<time>2015-12-06T12:40:13Z</time>
		</trkpt>

		<trkpt lat="42.869678" lon="-5.367922">
			<ele>1447.000000</ele>
		<time>2015-12-06T12:40:16Z</time>
		</trkpt>

		<trkpt lat="42.869666" lon="-5.368219">
			<ele>1446.000000</ele>
		<time>2015-12-06T12:40:19Z</time>
		</trkpt>

		<trkpt lat="42.869580" lon="-5.368458">
			<ele>1445.000000</ele>
		<time>2015-12-06T12:40:22Z</time>
		</trkpt>

		<trkpt lat="42.869495" lon="-5.368585">
			<ele>1447.000000</ele>
		<time>2015-12-06T12:40:25Z</time>
		</trkpt>

		<trkpt lat="42.869382" lon="-5.368829">
			<ele>1446.000000</ele>
		<time>2015-12-06T12:40:28Z</time>
		</trkpt>

		<trkpt lat="42.869307" lon="-5.369028">
			<ele>1448.000000</ele>
		<time>2015-12-06T12:40:31Z</time>
		</trkpt>

		<trkpt lat="42.869249" lon="-5.369246">
			<ele>1450.000000</ele>
		<time>2015-12-06T12:40:34Z</time>
		</trkpt>

		<trkpt lat="42.869154" lon="-5.369450">
			<ele>1447.000000</ele>
		<time>2015-12-06T12:40:37Z</time>
		</trkpt>

		<trkpt lat="42.868990" lon="-5.369409">
			<ele>1447.000000</ele>
		<time>2015-12-06T12:40:40Z</time>
		</trkpt>

		<trkpt lat="42.868897" lon="-5.369190">
			<ele>1447.000000</ele>
		<time>2015-12-06T12:40:43Z</time>
		</trkpt>

		<trkpt lat="42.868963" lon="-5.368851">
			<ele>1445.000000</ele>
		<time>2015-12-06T12:40:46Z</time>
		</trkpt>

		<trkpt lat="42.869130" lon="-5.368616">
			<ele>1442.000000</ele>
		<time>2015-12-06T12:40:49Z</time>
		</trkpt>

		<trkpt lat="42.869362" lon="-5.368389">
			<ele>1444.000000</ele>
		<time>2015-12-06T12:40:52Z</time>
		</trkpt>

		<trkpt lat="42.869599" lon="-5.368175">
			<ele>1445.000000</ele>
		<time>2015-12-06T12:40:55Z</time>
		</trkpt>

		<trkpt lat="42.869816" lon="-5.367938">
			<ele>1446.000000</ele>
		<time>2015-12-06T12:40:58Z</time>
		</trkpt>

		<trkpt lat="42.869981" lon="-5.367646">
			<ele>1449.000000</ele>
		<time>2015-12-06T12:41:01Z</time>
		</trkpt>

		<trkpt lat="42.870147" lon="-5.367375">
			<ele>1451.000000</ele>
		<time>2015-12-06T12:41:04Z</time>
		</trkpt>

		<trkpt lat="42.870160" lon="-5.367093">
			<ele>1453.000000</ele>
		<time>2015-12-06T12:41:07Z</time>
		</trkpt>

		<trkpt lat="42.870051" lon="-5.366974">
			<ele>1456.000000</ele>
		<time>2015-12-06T12:41:10Z</time>
		</trkpt>

		<trkpt lat="42.869914" lon="-5.366959">
			<ele>1457.000000</ele>
		<time>2015-12-06T12:41:13Z</time>
		</trkpt>

		<trkpt lat="42.869810" lon="-5.367216">
			<ele>1457.000000</ele>
		<time>2015-12-06T12:41:16Z</time>
		</trkpt>

		<trkpt lat="42.869828" lon="-5.367469">
			<ele>1462.000000</ele>
		<time>2015-12-06T12:41:19Z</time>
		</trkpt>

		<trkpt lat="42.869896" lon="-5.367752">
			<ele>1462.000000</ele>
		<time>2015-12-06T12:41:22Z</time>
		</trkpt>

		<trkpt lat="42.869904" lon="-5.368037">
			<ele>1464.000000</ele>
		<time>2015-12-06T12:41:25Z</time>
		</trkpt>

		<trkpt lat="42.869789" lon="-5.368078">
			<ele>1461.000000</ele>
		<time>2015-12-06T12:41:28Z</time>
		</trkpt>

		<trkpt lat="42.869762" lon="-5.367808">
			<ele>1461.000000</ele>
		<time>2015-12-06T12:41:31Z</time>
		</trkpt>

		<trkpt lat="42.869900" lon="-5.367499">
			<ele>1463.000000</ele>
		<time>2015-12-06T12:41:34Z</time>
		</trkpt>

		<trkpt lat="42.870121" lon="-5.367254">
			<ele>1467.000000</ele>
		<time>2015-12-06T12:41:37Z</time>
		</trkpt>

		<trkpt lat="42.870362" lon="-5.367014">
			<ele>1472.000000</ele>
		<time>2015-12-06T12:41:40Z</time>
		</trkpt>

		<trkpt lat="42.870604" lon="-5.366849">
			<ele>1477.000000</ele>
		<time>2015-12-06T12:41:43Z</time>
		</trkpt>

		<trkpt lat="42.870858" lon="-5.366672">
			<ele>1482.000000</ele>
		<time>2015-12-06T12:41:46Z</time>
		</trkpt>

		<trkpt lat="42.871096" lon="-5.366527">
			<ele>1487.000000</ele>
		<time>2015-12-06T12:41:49Z</time>
		</trkpt>

		<trkpt lat="42.871183" lon="-5.366255">
			<ele>1487.000000</ele>
		<time>2015-12-06T12:41:52Z</time>
		</trkpt>

		<trkpt lat="42.871154" lon="-5.366082">
			<ele>1488.000000</ele>
		<time>2015-12-06T12:41:55Z</time>
		</trkpt>

		<trkpt lat="42.871126" lon="-5.365851">
			<ele>1490.000000</ele>
		<time>2015-12-06T12:41:58Z</time>
		</trkpt>

		<trkpt lat="42.871032" lon="-5.365729">
			<ele>1492.000000</ele>
		<time>2015-12-06T12:42:01Z</time>
		</trkpt>

		<trkpt lat="42.870922" lon="-5.365883">
			<ele>1494.000000</ele>
		<time>2015-12-06T12:42:04Z</time>
		</trkpt>

		<trkpt lat="42.870859" lon="-5.366105">
			<ele>1494.000000</ele>
		<time>2015-12-06T12:42:07Z</time>
		</trkpt>

		<trkpt lat="42.870802" lon="-5.366411">
			<ele>1496.000000</ele>
		<time>2015-12-06T12:42:10Z</time>
		</trkpt>

		<trkpt lat="42.870768" lon="-5.366710">
			<ele>1496.000000</ele>
		<time>2015-12-06T12:42:13Z</time>
		</trkpt>

		<trkpt lat="42.870740" lon="-5.367036">
			<ele>1498.000000</ele>
		<time>2015-12-06T12:42:16Z</time>
		</trkpt>

		<trkpt lat="42.870795" lon="-5.367354">
			<ele>1502.000000</ele>
		<time>2015-12-06T12:42:19Z</time>
		</trkpt>

		<trkpt lat="42.870878" lon="-5.367645">
			<ele>1508.000000</ele>
		<time>2015-12-06T12:42:22Z</time>
		</trkpt>

		<trkpt lat="42.870879" lon="-5.367941">
			<ele>1508.000000</ele>
		<time>2015-12-06T12:42:25Z</time>
		</trkpt>

		<trkpt lat="42.870807" lon="-5.368164">
			<ele>1509.000000</ele>
		<time>2015-12-06T12:42:28Z</time>
		</trkpt>

		<trkpt lat="42.870695" lon="-5.368073">
			<ele>1510.000000</ele>
		<time>2015-12-06T12:42:31Z</time>
		</trkpt>

		<trkpt lat="42.870715" lon="-5.367817">
			<ele>1510.000000</ele>
		<time>2015-12-06T12:42:34Z</time>
		</trkpt>

		<trkpt lat="42.870857" lon="-5.367638">
			<ele>1511.000000</ele>
		<time>2015-12-06T12:42:37Z</time>
		</trkpt>

		<trkpt lat="42.871089" lon="-5.367444">
			<ele>1510.000000</ele>
		<time>2015-12-06T12:42:40Z</time>
		</trkpt>

		<trkpt lat="42.871289" lon="-5.367230">
			<ele>1513.000000</ele>
		<time>2015-12-06T12:42:43Z</time>
		</trkpt>

		<trkpt lat="42.871441" lon="-5.366982">
			<ele>1513.000000</ele>
		<time>2015-12-06T12:42:46Z</time>
		</trkpt>

		<trkpt lat="42.871497" lon="-5.366687">
			<ele>1511.000000</ele>
		<time>2015-12-06T12:42:49Z</time>
		</trkpt>

		<trkpt lat="42.871400" lon="-5.366579">
			<ele>1510.000000</ele>
		<time>2015-12-06T12:42:52Z</time>
		</trkpt>

		<trkpt lat="42.871289" lon="-5.366584">
			<ele>1510.000000</ele>
		<time>2015-12-06T12:42:55Z</time>
		</trkpt>

		<trkpt lat="42.871218" lon="-5.366750">
			<ele>1512.000000</ele>
		<time>2015-12-06T12:42:58Z</time>
		</trkpt>

		<trkpt lat="42.871157" lon="-5.366929">
			<ele>1514.000000</ele>
		<time>2015-12-06T12:43:01Z</time>
		</trkpt>

		<trkpt lat="42.871124" lon="-5.367170">
			<ele>1518.000000</ele>
		<time>2015-12-06T12:43:04Z</time>
		</trkpt>

		<trkpt lat="42.871109" lon="-5.367440">
			<ele>1521.000000</ele>
		<time>2015-12-06T12:43:07Z</time>
		</trkpt>

		<trkpt lat="42.871124" lon="-5.367703">
			<ele>1522.000000</ele>
		<time>2015-12-06T12:43:10Z</time>
		</trkpt>

		<trkpt lat="42.871099" lon="-5.367946">
			<ele>1522.000000</ele>
		<time>2015-12-06T12:43:13Z</time>
		</trkpt>

		<trkpt lat="42.870979" lon="-5.368065">
			<ele>1528.000000</ele>
		<time>2015-12-06T12:43:16Z</time>
		</trkpt>

		<trkpt lat="42.870846" lon="-5.367951">
			<ele>1530.000000</ele>
		<time>2015-12-06T12:43:19Z</time>
		</trkpt>

		<trkpt lat="42.870790" lon="-5.367728">
			<ele>1537.000000</ele>
		<time>2015-12-06T12:43:22Z</time>
		</trkpt>

		<trkpt lat="42.870842" lon="-5.367501">
			<ele>1534.000000</ele>
		<time>2015-12-06T12:43:25Z</time>
		</trkpt>

		<trkpt lat="42.870936" lon="-5.367244">
			<ele>1536.000000</ele>
		<time>2015-12-06T12:43:28Z</time>
		</trkpt>

		<trkpt lat="42.870905" lon="-5.367027">
			<ele>1538.000000</ele>
		<time>2015-12-06T12:43:31Z</time>
		</trkpt>

		<trkpt lat="42.870748" lon="-5.367055">
			<ele>1539.000000</ele>
		<time>2015-12-06T12:43:34Z</time>
		</trkpt>

		<trkpt lat="42.870690" lon="-5.367340">
			<ele>1545.000000</ele>
		<time>2015-12-06T12:43:37Z</time>
		</trkpt>

		<trkpt lat="42.870682" lon="-5.367668">
			<ele>1548.000000</ele>
		<time>2015-12-06T12:43:40Z</time>
		</trkpt>

		<trkpt lat="42.870827" lon="-5.368029">
			<ele>1551.000000</ele>
		<time>2015-12-06T12:43:43Z</time>
		</trkpt>

		<trkpt lat="42.870935" lon="-5.368358">
			<ele>1548.000000</ele>
		<time>2015-12-06T12:43:46Z</time>
		</trkpt>

		<trkpt lat="42.870859" lon="-5.368603">
			<ele>1551.000000</ele>
		<time>2015-12-06T12:43:49Z</time>
		</trkpt>

		<trkpt lat="42.870753" lon="-5.368599">
			<ele>1549.000000</ele>
		<time>2015-12-06T12:43:52Z</time>
		</trkpt>

		<trkpt lat="42.870696" lon="-5.368370">
			<ele>1547.000000</ele>
		<time>2015-12-06T12:43:55Z</time>
		</trkpt>

		<trkpt lat="42.870740" lon="-5.368130">
			<ele>1552.000000</ele>
		<time>2015-12-06T12:43:58Z</time>
		</trkpt>

		<trkpt lat="42.870913" lon="-5.367940">
			<ele>1554.000000</ele>
		<time>2015-12-06T12:44:01Z</time>
		</trkpt>

		<trkpt lat="42.871163" lon="-5.367808">
			<ele>1556.000000</ele>
		<time>2015-12-06T12:44:04Z</time>
		</trkpt>

		<trkpt lat="42.871474" lon="-5.367715">
			<ele>1561.000000</ele>
		<time>2015-12-06T12:44:07Z</time>
		</trkpt>

		<trkpt lat="42.871795" lon="-5.367699">
			<ele>1568.000000</ele>
		<time>2015-12-06T12:44:10Z</time>
		</trkpt>

		<trkpt lat="42.872071" lon="-5.367593">
			<ele>1569.000000</ele>
		<time>2015-12-06T12:44:13Z</time>
		</trkpt>

		<trkpt lat="42.872210" lon="-5.367353">
			<ele>1569.000000</ele>
		<time>2015-12-06T12:44:16Z</time>
		</trkpt>

		<trkpt lat="42.872126" lon="-5.367261">
			<ele>1567.000000</ele>
		<time>2015-12-06T12:44:19Z</time>
		</trkpt>

		<trkpt lat="42.872002" lon="-5.367366">
			<ele>1572.000000</ele>
		<time>2015-12-06T12:44:22Z</time>
		</trkpt>

		<trkpt lat="42.871988" lon="-5.367494">
			<ele>1574.000000</ele>
		<time>2015-12-06T12:44:25Z</time>
		</trkpt>

		<trkpt lat="42.871878" lon="-5.367685">
			<ele>1575.000000</ele>
		<time>2015-12-06T12:44:28Z</time>
		</trkpt>

		<trkpt lat="42.871778" lon="-5.367843">
			<ele>1579.000000</ele>
		<time>2015-12-06T12:44:31Z</time>
		</trkpt>

		<trkpt lat="42.871708" lon="-5.368028">
			<ele>1579.000000</ele>
		<time>2015-12-06T12:44:34Z</time>
		</trkpt>

		<trkpt lat="42.871647" lon="-5.368267">
			<ele>1582.000000</ele>
		<time>2015-12-06T12:44:37Z</time>
		</trkpt>

		<trkpt lat="42.871706" lon="-5.368596">
			<ele>1581.000000</ele>
		<time>2015-12-06T12:44:40Z</time>
		</trkpt>

		<trkpt lat="42.872014" lon="-5.368798">
			<ele>1578.000000</ele>
		<time>2015-12-06T12:44:43Z</time>
		</trkpt>

		<trkpt lat="42.872314" lon="-5.368526">
			<ele>1575.000000</ele>
		<time>2015-12-06T12:44:46Z</time>
		</trkpt>

		<trkpt lat="42.872393" lon="-5.368249">
			<ele>1575.000000</ele>
		<time>2015-12-06T12:44:49Z</time>
		</trkpt>

		<trkpt lat="42.872302" lon="-5.368049">
			<ele>1575.000000</ele>
		<time>2015-12-06T12:44:52Z</time>
		</trkpt>

		<trkpt lat="42.872218" lon="-5.367828">
			<ele>1580.000000</ele>
		<time>2015-12-06T12:44:55Z</time>
		</trkpt>

		<trkpt lat="42.872195" lon="-5.367606">
			<ele>1585.000000</ele>
		<time>2015-12-06T12:44:58Z</time>
		</trkpt>

		<trkpt lat="42.872150" lon="-5.367392">
			<ele>1583.000000</ele>
		<time>2015-12-06T12:45:01Z</time>
		</trkpt>

		<trkpt lat="42.872116" lon="-5.367201">
			<ele>1583.000000</ele>
		<time>2015-12-06T12:45:04Z</time>
		</trkpt>

		<trkpt lat="42.872045" lon="-5.367007">
			<ele>1578.000000</ele>
		<time>2015-12-06T12:45:07Z</time>
		</trkpt>

		<trkpt lat="42.871918" lon="-5.366971">
			<ele>1578.000000</ele>
		<time>2015-12-06T12:45:10Z</time>
		</trkpt>

		<trkpt lat="42.871796" lon="-5.367117">
			<ele>1578.000000</ele>
		<time>2015-12-06T12:45:13Z</time>
		</trkpt>

		<trkpt lat="42.871711" lon="-5.367388">
			<ele>1575.000000</ele>
		<time>2015-12-06T12:45:16Z</time>
		</trkpt>

		<trkpt lat="42.871697" lon="-5.367723">
			<ele>1569.000000</ele>
		<time>2015-12-06T12:45:19Z</time>
		</trkpt>

		<trkpt lat="42.871699" lon="-5.368178">
			<ele>1572.000000</ele>
		<time>2015-12-06T12:45:22Z</time>
		</trkpt>

		<trkpt lat="42.871745" lon="-5.368555">
			<ele>1574.000000</ele>
		<time>2015-12-06T12:45:25Z</time>
		</trkpt>

		<trkpt lat="42.871790" lon="-5.368963">
			<ele>1580.000000</ele>
		<time>2015-12-06T12:45:28Z</time>
		</trkpt>

		<trkpt lat="42.871765" lon="-5.369309">
			<ele>1585.000000</ele>
		<time>2015-12-06T12:45:31Z</time>
		</trkpt>

		<trkpt lat="42.871660" lon="-5.369484">
			<ele>1600.000000</ele>
		<time>2015-12-06T12:45:34Z</time>
		</trkpt>

		<trkpt lat="42.871613" lon="-5.369605">
			<ele>1601.000000</ele>
		<time>2015-12-06T12:45:37Z</time>
		</trkpt>

		<trkpt lat="42.871537" lon="-5.369463">
			<ele>1602.000000</ele>
		<time>2015-12-06T12:45:40Z</time>
		</trkpt>

		<trkpt lat="42.871608" lon="-5.369192">
			<ele>1603.000000</ele>
		<time>2015-12-06T12:45:43Z</time>
		</trkpt>

		<trkpt lat="42.871763" lon="-5.368922">
			<ele>1601.000000</ele>
		<time>2015-12-06T12:45:46Z</time>
		</trkpt>

		<trkpt lat="42.872014" lon="-5.368692">
			<ele>1603.000000</ele>
		<time>2015-12-06T12:45:49Z</time>
		</trkpt>

		<trkpt lat="42.872356" lon="-5.368616">
			<ele>1605.000000</ele>
		<time>2015-12-06T12:45:52Z</time>
		</trkpt>

		<trkpt lat="42.872705" lon="-5.368795">
			<ele>1608.000000</ele>
		<time>2015-12-06T12:45:55Z</time>
		</trkpt>

		<trkpt lat="42.872913" lon="-5.369210">
			<ele>1616.000000</ele>
		<time>2015-12-06T12:45:58Z</time>
		</trkpt>

		<trkpt lat="42.872929" lon="-5.369553">
			<ele>1620.000000</ele>
		<time>2015-12-06T12:46:01Z</time>
		</trkpt>

		<trkpt lat="42.872953" lon="-5.369973">
			<ele>1622.000000</ele>
		<time>2015-12-06T12:46:04Z</time>
		</trkpt>

		<trkpt lat="42.872925" lon="-5.370222">
			<ele>1625.000000</ele>
		<time>2015-12-06T12:46:07Z</time>
		</trkpt>

		<trkpt lat="42.872796" lon="-5.370247">
			<ele>1625.000000</ele>
		<time>2015-12-06T12:46:10Z</time>
		</trkpt>

		<trkpt lat="42.872700" lon="-5.370104">
			<ele>1623.000000</ele>
		<time>2015-12-06T12:46:13Z</time>
		</trkpt>

		<trkpt lat="42.872646" lon="-5.369889">
			<ele>1625.000000</ele>
		<time>2015-12-06T12:46:16Z</time>
		</trkpt>

		<trkpt lat="42.872651" lon="-5.369659">
			<ele>1625.000000</ele>
		<time>2015-12-06T12:46:19Z</time>
		</trkpt>

		<trkpt lat="42.872589" lon="-5.369451">
			<ele>1626.000000</ele>
		<time>2015-12-06T12:46:22Z</time>
		</trkpt>

		<trkpt lat="42.872476" lon="-5.369506">
			<ele>1628.000000</ele>
		<time>2015-12-06T12:46:25Z</time>
		</trkpt>

		<trkpt lat="42.872512" lon="-5.369781">
			<ele>1628.000000</ele>
		<time>2015-12-06T12:46:28Z</time>
		</trkpt>

		<trkpt lat="42.872666" lon="-5.370081">
			<ele>1626.000000</ele>
		<time>2015-12-06T12:46:31Z</time>
		</trkpt>

		<trkpt lat="42.872941" lon="-5.370342">
			<ele>1626.000000</ele>
		<time>2015-12-06T12:46:34Z</time>
		</trkpt>

		<trkpt lat="42.873229" lon="-5.370536">
			<ele>1627.000000</ele>
		<time>2015-12-06T12:46:37Z</time>
		</trkpt>

		<trkpt lat="42.873454" lon="-5.370825">
			<ele>1624.000000</ele>
		<time>2015-12-06T12:46:40Z</time>
		</trkpt>

		<trkpt lat="42.873508" lon="-5.371167">
			<ele>1620.000000</ele>
		<time>2015-12-06T12:46:43Z</time>
		</trkpt>

		<trkpt lat="42.873421" lon="-5.371377">
			<ele>1621.000000</ele>
		<time>2015-12-06T12:46:46Z</time>
		</trkpt>

		<trkpt lat="42.873314" lon="-5.371386">
			<ele>1621.000000</ele>
		<time>2015-12-06T12:46:49Z</time>
		</trkpt>

		<trkpt lat="42.873243" lon="-5.371241">
			<ele>1622.000000</ele>
		<time>2015-12-06T12:46:52Z</time>
		</trkpt>

		<trkpt lat="42.873234" lon="-5.370996">
			<ele>1626.000000</ele>
		<time>2015-12-06T12:46:55Z</time>
		</trkpt>

		<trkpt lat="42.873183" lon="-5.370842">
			<ele>1630.000000</ele>
		<time>2015-12-06T12:46:58Z</time>
		</trkpt>

		<trkpt lat="42.873141" lon="-5.370698">
			<ele>1627.000000</ele>
		<time>2015-12-06T12:47:01Z</time>
		</trkpt>

		<trkpt lat="42.872994" lon="-5.370681">
			<ele>1622.000000</ele>
		<time>2015-12-06T12:47:04Z</time>
		</trkpt>

		<trkpt lat="42.872943" lon="-5.370966">
			<ele>1618.000000</ele>
		<time>2015-12-06T12:47:07Z</time>
		</trkpt>

		<trkpt lat="42.873043" lon="-5.371294">
			<ele>1615.000000</ele>
		<time>2015-12-06T12:47:10Z</time>
		</trkpt>

		<trkpt lat="42.873320" lon="-5.371570">
			<ele>1616.000000</ele>
		<time>2015-12-06T12:47:13Z</time>
		</trkpt>

		<trkpt lat="42.873612" lon="-5.371702">
			<ele>1617.000000</ele>
		<time>2015-12-06T12:47:16Z</time>
		</trkpt>

		<trkpt lat="42.873928" lon="-5.371921">
			<ele>1617.000000</ele>
		<time>2015-12-06T12:47:19Z</time>
		</trkpt>

		<trkpt lat="42.874173" lon="-5.372221">
			<ele>1620.000000</ele>
		<time>2015-12-06T12:47:22Z</time>
		</trkpt>

		<trkpt lat="42.874242" lon="-5.372508">
			<ele>1620.000000</ele>
		<time>2015-12-06T12:47:25Z</time>
		</trkpt>

		<trkpt lat="42.874169" lon="-5.372722">
			<ele>1618.000000</ele>
		<time>2015-12-06T12:47:28Z</time>
		</trkpt>

		<trkpt lat="42.874101" lon="-5.372812">
			<ele>1616.000000</ele>
		<time>2015-12-06T12:47:31Z</time>
		</trkpt>

		<trkpt lat="42.874003" lon="-5.372951">
			<ele>1615.000000</ele>
		<time>2015-12-06T12:47:34Z</time>
		</trkpt>

		<trkpt lat="42.873901" lon="-5.373088">
			<ele>1619.000000</ele>
		<time>2015-12-06T12:47:37Z</time>
		</trkpt>

		<trkpt lat="42.873805" lon="-5.373254">
			<ele>1618.000000</ele>
		<time>2015-12-06T12:47:40Z</time>
		</trkpt>

		<trkpt lat="42.873690" lon="-5.373449">
			<ele>1620.000000</ele>
		<time>2015-12-06T12:47:43Z</time>
		</trkpt>

		<trkpt lat="42.873629" lon="-5.373605">
			<ele>1623.000000</ele>
		<time>2015-12-06T12:47:46Z</time>
		</trkpt>

		<trkpt lat="42.873514" lon="-5.373714">
			<ele>1618.000000</ele>
		<time>2015-12-06T12:47:49Z</time>
		</trkpt>

		<trkpt lat="42.873385" lon="-5.373513">
			<ele>1621.000000</ele>
		<time>2015-12-06T12:47:52Z</time>
		</trkpt>

		<trkpt lat="42.873474" lon="-5.373256">
			<ele>1622.000000</ele>
		<time>2015-12-06T12:47:55Z</time>
		</trkpt>

		<trkpt lat="42.873713" lon="-5.373075">
			<ele>1624.000000</ele>
		<time>2015-12-06T12:47:58Z</time>
		</trkpt>

		<trkpt lat="42.874042" lon="-5.372964">
			<ele>1625.000000</ele>
		<time>2015-12-06T12:48:01Z</time>
		</trkpt>

		<trkpt lat="42.874326" lon="-5.372791">
			<ele>1625.000000</ele>
		<time>2015-12-06T12:48:04Z</time>
		</trkpt>

		<trkpt lat="42.874448" lon="-5.372528">
			<ele>1628.000000</ele>
		<time>2015-12-06T12:48:07Z</time>
		</trkpt>

		<trkpt lat="42.874372" lon="-5.372378">
			<ele>1628.000000</ele>
		<time>2015-12-06T12:48:10Z</time>
		</trkpt>

		<trkpt lat="42.874286" lon="-5.372557">
			<ele>1629.000000</ele>
		<time>2015-12-06T12:48:13Z</time>
		</trkpt>

		<trkpt lat="42.874265" lon="-5.372806">
			<ele>1628.000000</ele>
		<time>2015-12-06T12:48:16Z</time>
		</trkpt>

		<trkpt lat="42.874253" lon="-5.373100">
			<ele>1631.000000</ele>
		<time>2015-12-06T12:48:19Z</time>
		</trkpt>

		<trkpt lat="42.874259" lon="-5.373387">
			<ele>1631.000000</ele>
		<time>2015-12-06T12:48:22Z</time>
		</trkpt>

		<trkpt lat="42.874222" lon="-5.373705">
			<ele>1632.000000</ele>
		<time>2015-12-06T12:48:25Z</time>
		</trkpt>

		<trkpt lat="42.874174" lon="-5.373999">
			<ele>1633.000000</ele>
		<time>2015-12-06T12:48:28Z</time>
		</trkpt>

		<trkpt lat="42.874038" lon="-5.374151">
			<ele>1633.000000</ele>
		<time>2015-12-06T12:48:31Z</time>
		</trkpt>

		<trkpt lat="42.873897" lon="-5.374181">
			<ele>1637.000000</ele>
		<time>2015-12-06T12:48:34Z</time>
		</trkpt>

		<trkpt lat="42.873837" lon="-5.374006">
			<ele>1639.000000</ele>
		<time>2015-12-06T12:48:37Z</time>
		</trkpt>

		<trkpt lat="42.873910" lon="-5.373721">
			<ele>1636.000000</ele>
		<time>2015-12-06T12:48:40Z</time>
		</trkpt>

		<trkpt lat="42.874104" lon="-5.373518">
			<ele>1639.000000</ele>
		<time>2015-12-06T12:48:43Z</time>
		</trkpt>

		<trkpt lat="42.874368" lon="-5.373380">
			<ele>1640.000000</ele>
		<time>2015-12-06T12:48:46Z</time>
		</trkpt>

		<trkpt lat="42.874520" lon="-5.373113">
			<ele>1640.000000</ele>
		<time>2015-12-06T12:48:49Z</time>
		</trkpt>

		<trkpt lat="42.874478" lon="-5.372912">
			<ele>1641.000000</ele>
		<time>2015-12-06T12:48:52Z</time>
		</trkpt>

		<trkpt lat="42.874376" lon="-5.372944">
			<ele>1641.000000</ele>
		<time>2015-12-06T12:48:55Z</time>
		</trkpt>

		<trkpt lat="42.874256" lon="-5.373114">
			<ele>1639.000000</ele>
		<time>2015-12-06T12:48:58Z</time>
		</trkpt>

		<trkpt lat="42.874161" lon="-5.373312">
			<ele>1638.000000</ele>
		<time>2015-12-06T12:49:01Z</time>
		</trkpt>

		<trkpt lat="42.874070" lon="-5.373560">
			<ele>1639.000000</ele>
		<time>2015-12-06T12:49:04Z</time>
		</trkpt>

		<trkpt lat="42.873993" lon="-5.373786">
			<ele>1644.000000</ele>
		<time>2015-12-06T12:49:07Z</time>
		</trkpt>

		<trkpt lat="42.873914" lon="-5.374008">
			<ele>1645.000000</ele>
		<time>2015-12-06T12:49:10Z</time>
		</trkpt>

		<trkpt lat="42.873823" lon="-5.374230">
			<ele>1645.000000</ele>
		<time>2015-12-06T12:49:13Z</time>
		</trkpt>

		<trkpt lat="42.873705" lon="-5.374418">
			<ele>1652.000000</ele>
		<time>2015-12-06T12:49:16Z</time>
		</trkpt>

		<trkpt lat="42.873591" lon="-5.374595">
			<ele>1654.000000</ele>
		<time>2015-12-06T12:49:19Z</time>
		</trkpt>

		<trkpt lat="42.873488" lon="-5.374705">
			<ele>1652.000000</ele>
		<time>2015-12-06T12:49:22Z</time>
		</trkpt>

		<trkpt lat="42.873381" lon="-5.374692">
			<ele>1646.000000</ele>
		<time>2015-12-06T12:49:25Z</time>
		</trkpt>

		<trkpt lat="42.873342" lon="-5.374458">
			<ele>1647.000000</ele>
		<time>2015-12-06T12:49:28Z</time>
		</trkpt>

		<trkpt lat="42.873464" lon="-5.374262">
			<ele>1642.000000</ele>
		<time>2015-12-06T12:49:31Z</time>
		</trkpt>

		<trkpt lat="42.873651" lon="-5.374017">
			<ele>1641.000000</ele>
		<time>2015-12-06T12:49:34Z</time>
		</trkpt>

		<trkpt lat="42.873892" lon="-5.373803">
			<ele>1642.000000</ele>
		<time>2015-12-06T12:49:37Z</time>
		</trkpt>

		<trkpt lat="42.874154" lon="-5.373613">
			<ele>1645.000000</ele>
		<time>2015-12-06T12:49:40Z</time>
		</trkpt>

		<trkpt lat="42.874281" lon="-5.373397">
			<ele>1641.000000</ele>
		<time>2015-12-06T12:49:43Z</time>
		</trkpt>

		<trkpt lat="42.874354" lon="-5.373100">
			<ele>1642.000000</ele>
		<time>2015-12-06T12:49:46Z</time>
		</trkpt>

		<trkpt lat="42.874344" lon="-5.372886">
			<ele>1641.000000</ele>
		<time>2015-12-06T12:49:49Z</time>
		</trkpt>

		<trkpt lat="42.874326" lon="-5.372694">
			<ele>1641.000000</ele>
		<time>2015-12-06T12:49:52Z</time>
		</trkpt>

		<trkpt lat="42.874299" lon="-5.372498">
			<ele>1642.000000</ele>
		<time>2015-12-06T12:49:55Z</time>
		</trkpt>

		<trkpt lat="42.874217" lon="-5.372329">
			<ele>1641.000000</ele>
		<time>2015-12-06T12:49:58Z</time>
		</trkpt>

		<trkpt lat="42.874189" lon="-5.372167">
			<ele>1641.000000</ele>
		<time>2015-12-06T12:50:01Z</time>
		</trkpt>

		<trkpt lat="42.874126" lon="-5.371993">
			<ele>1634.000000</ele>
		<time>2015-12-06T12:50:04Z</time>
		</trkpt>

		<trkpt lat="42.874075" lon="-5.371772">
			<ele>1629.000000</ele>
		<time>2015-12-06T12:50:07Z</time>
		</trkpt>

		<trkpt lat="42.874009" lon="-5.371525">
			<ele>1628.000000</ele>
		<time>2015-12-06T12:50:10Z</time>
		</trkpt>

		<trkpt lat="42.873937" lon="-5.371390">
			<ele>1630.000000</ele>
		<time>2015-12-06T12:50:13Z</time>
		</trkpt>

		<trkpt lat="42.873802" lon="-5.371311">
			<ele>1627.000000</ele>
		<time>2015-12-06T12:50:16Z</time>
		</trkpt>

		<trkpt lat="42.873734" lon="-5.371150">
			<ele>1627.000000</ele>
		<time>2015-12-06T12:50:19Z</time>
		</trkpt>

		<trkpt lat="42.873716" lon="-5.370907">
			<ele>1624.000000</ele>
		<time>2015-12-06T12:50:22Z</time>
		</trkpt>

		<trkpt lat="42.873732" lon="-5.370676">
			<ele>1626.000000</ele>
		<time>2015-12-06T12:50:25Z</time>
		</trkpt>

		<trkpt lat="42.873729" lon="-5.370426">
			<ele>1625.000000</ele>
		<time>2015-12-06T12:50:28Z</time>
		</trkpt>

		<trkpt lat="42.873681" lon="-5.370163">
			<ele>1621.000000</ele>
		<time>2015-12-06T12:50:31Z</time>
		</trkpt>

		<trkpt lat="42.873618" lon="-5.369934">
			<ele>1621.000000</ele>
		<time>2015-12-06T12:50:34Z</time>
		</trkpt>

		<trkpt lat="42.873526" lon="-5.369777">
			<ele>1622.000000</ele>
		<time>2015-12-06T12:50:37Z</time>
		</trkpt>

		<trkpt lat="42.873466" lon="-5.369580">
			<ele>1619.000000</ele>
		<time>2015-12-06T12:50:40Z</time>
		</trkpt>

		<trkpt lat="42.873408" lon="-5.369302">
			<ele>1618.000000</ele>
		<time>2015-12-06T12:50:43Z</time>
		</trkpt>

		<trkpt lat="42.873355" lon="-5.369115">
			<ele>1619.000000</ele>
		<time>2015-12-06T12:50:46Z</time>
		</trkpt>

		<trkpt lat="42.873294" lon="-5.368986">
			<ele>1622.000000</ele>
		<time>2015-12-06T12:50:49Z</time>
		</trkpt>

		<trkpt lat="42.873230" lon="-5.368792">
			<ele>1624.000000</ele>
		<time>2015-12-06T12:50:52Z</time>
		</trkpt>

		<trkpt lat="42.873126" lon="-5.368734">
			<ele>1622.000000</ele>
		<time>2015-12-06T12:50:55Z</time>
		</trkpt>

		<trkpt lat="42.873043" lon="-5.368543">
			<ele>1619.000000</ele>
		<time>2015-12-06T12:50:58Z</time>
		</trkpt>

		<trkpt lat="42.872974" lon="-5.368341">
			<ele>1614.000000</ele>
		<time>2015-12-06T12:51:01Z</time>
		</trkpt>

		<trkpt lat="42.872864" lon="-5.368136">
			<ele>1609.000000</ele>
		<time>2015-12-06T12:51:04Z</time>
		</trkpt>

		<trkpt lat="42.872767" lon="-5.368008">
			<ele>1608.000000</ele>
		<time>2015-12-06T12:51:07Z</time>
		</trkpt>

		<trkpt lat="42.872606" lon="-5.367874">
			<ele>1605.000000</ele>
		<time>2015-12-06T12:51:10Z</time>
		</trkpt>

		<trkpt lat="42.872547" lon="-5.367741">
			<ele>1612.000000</ele>
		<time>2015-12-06T12:51:13Z</time>
		</trkpt>

		<trkpt lat="42.872442" lon="-5.367594">
			<ele>1611.000000</ele>
		<time>2015-12-06T12:51:16Z</time>
		</trkpt>

		<trkpt lat="42.872319" lon="-5.367688">
			<ele>1612.000000</ele>
		<time>2015-12-06T12:51:19Z</time>
		</trkpt>

		<trkpt lat="42.872229" lon="-5.367901">
			<ele>1613.000000</ele>
		<time>2015-12-06T12:51:22Z</time>
		</trkpt>

		<trkpt lat="42.872193" lon="-5.368157">
			<ele>1612.000000</ele>
		<time>2015-12-06T12:51:25Z</time>
		</trkpt>

		<trkpt lat="42.872259" lon="-5.368535">
			<ele>1614.000000</ele>
		<time>2015-12-06T12:51:28Z</time>
		</trkpt>

		<trkpt lat="42.872479" lon="-5.368830">
			<ele>1622.000000</ele>
		<time>2015-12-06T12:51:31Z</time>
		</trkpt>

		<trkpt lat="42.872793" lon="-5.368936">
			<ele>1618.000000</ele>
		<time>2015-12-06T12:51:34Z</time>
		</trkpt>

		<trkpt lat="42.872944" lon="-5.368716">
			<ele>1617.000000</ele>
		<time>2015-12-06T12:51:37Z</time>
		</trkpt>

		<trkpt lat="42.872898" lon="-5.368494">
			<ele>1620.000000</ele>
		<time>2015-12-06T12:51:40Z</time>
		</trkpt>

		<trkpt lat="42.872831" lon="-5.368378">
			<ele>1619.000000</ele>
		<time>2015-12-06T12:51:43Z</time>
		</trkpt>

		<trkpt lat="42.872729" lon="-5.368258">
			<ele>1621.000000</ele>
		<time>2015-12-06T12:51:46Z</time>
		</trkpt>

		<trkpt lat="42.872699" lon="-5.368098">
			<ele>1622.000000</ele>
		<time>2015-12-06T12:51:49Z</time>
		</trkpt>

		<trkpt lat="42.872635" lon="-5.367938">
			<ele>1623.000000</ele>
		<time>2015-12-06T12:51:52Z</time>
		</trkpt>

		<trkpt lat="42.872575" lon="-5.367757">
			<ele>1627.000000</ele>
		<time>2015-12-06T12:51:55Z</time>
		</trkpt>

		<trkpt lat="42.872505" lon="-5.367546">
			<ele>1631.000000</ele>
		<time>2015-12-06T12:51:58Z</time>
		</trkpt>

		<trkpt lat="42.872531" lon="-5.367302">
			<ele>1634.000000</ele>
		<time>2015-12-06T12:52:01Z</time>
		</trkpt>

		<trkpt lat="42.872620" lon="-5.367057">
			<ele>1635.000000</ele>
		<time>2015-12-06T12:52:04Z</time>
		</trkpt>

		<trkpt lat="42.872689" lon="-5.366810">
			<ele>1634.000000</ele>
		<time>2015-12-06T12:52:07Z</time>
		</trkpt>

		<trkpt lat="42.872571" lon="-5.366709">
			<ele>1630.000000</ele>
		<time>2015-12-06T12:52:10Z</time>
		</trkpt>

		<trkpt lat="42.872458" lon="-5.366920">
			<ele>1625.000000</ele>
		<time>2015-12-06T12:52:13Z</time>
		</trkpt>

		<trkpt lat="42.872463" lon="-5.367231">
			<ele>1623.000000</ele>
		<time>2015-12-06T12:52:16Z</time>
		</trkpt>

		<trkpt lat="42.872497" lon="-5.367567">
			<ele>1621.000000</ele>
		<time>2015-12-06T12:52:19Z</time>
		</trkpt>

		<trkpt lat="42.872462" lon="-5.367862">
			<ele>1623.000000</ele>
		<time>2015-12-06T12:52:22Z</time>
		</trkpt>

		<trkpt lat="42.872460" lon="-5.368191">
			<ele>1622.000000</ele>
		<time>2015-12-06T12:52:25Z</time>
		</trkpt>

		<trkpt lat="42.872539" lon="-5.368533">
			<ele>1622.000000</ele>
		<time>2015-12-06T12:52:28Z</time>
		</trkpt>

		<trkpt lat="42.872736" lon="-5.368892">
			<ele>1623.000000</ele>
		<time>2015-12-06T12:52:31Z</time>
		</trkpt>

		<trkpt lat="42.872976" lon="-5.369202">
			<ele>1626.000000</ele>
		<time>2015-12-06T12:52:34Z</time>
		</trkpt>

		<trkpt lat="42.873222" lon="-5.369481">
			<ele>1628.000000</ele>
		<time>2015-12-06T12:52:37Z</time>
		</trkpt>

		<trkpt lat="42.873489" lon="-5.369724">
			<ele>1631.000000</ele>
		<time>2015-12-06T12:52:40Z</time>
		</trkpt>

		<trkpt lat="42.873738" lon="-5.369994">
			<ele>1633.000000</ele>
		<time>2015-12-06T12:52:43Z</time>
		</trkpt>

		<trkpt lat="42.873786" lon="-5.370286">
			<ele>1630.000000</ele>
		<time>2015-12-06T12:52:46Z</time>
		</trkpt>

		<trkpt lat="42.873713" lon="-5.370450">
			<ele>1629.000000</ele>
		<time>2015-12-06T12:52:49Z</time>
		</trkpt>

		<trkpt lat="42.873650" lon="-5.370317">
			<ele>1632.000000</ele>
		<time>2015-12-06T12:52:52Z</time>
		</trkpt>

		<trkpt lat="42.873600" lon="-5.370162">
			<ele>1633.000000</ele>
		<time>2015-12-06T12:52:55Z</time>
		</trkpt>

		<trkpt lat="42.873632" lon="-5.369930">
			<ele>1638.000000</ele>
		<time>2015-12-06T12:52:58Z</time>
		</trkpt>

		<trkpt lat="42.873610" lon="-5.369750">
			<ele>1642.000000</ele>
		<time>2015-12-06T12:53:02Z</time>
		</trkpt>

		<trkpt lat="42.873510" lon="-5.369612">
			<ele>1648.000000</ele>
		<time>2015-12-06T12:53:05Z</time>
		</trkpt>

		<trkpt lat="42.873415" lon="-5.369522">
			<ele>1656.000000</ele>
		<time>2015-12-06T12:53:08Z</time>
		</trkpt>

		<trkpt lat="42.873306" lon="-5.369550">
			<ele>1656.000000</ele>
		<time>2015-12-06T12:53:11Z</time>
		</trkpt>

		<trkpt lat="42.873231" lon="-5.369631">
			<ele>1656.000000</ele>
		<time>2015-12-06T12:53:14Z</time>
		</trkpt>

		<trkpt lat="42.873173" lon="-5.369498">
			<ele>1657.000000</ele>
		<time>2015-12-06T12:53:17Z</time>
		</trkpt>

		<trkpt lat="42.873383" lon="-5.369159">
			<ele>1654.000000</ele>
		<time>2015-12-06T12:53:20Z</time>
		</trkpt>

		<trkpt lat="42.873700" lon="-5.369120">
			<ele>1655.000000</ele>
		<time>2015-12-06T12:53:23Z</time>
		</trkpt>

		<trkpt lat="42.873981" lon="-5.369386">
			<ele>1654.000000</ele>
		<time>2015-12-06T12:53:26Z</time>
		</trkpt>

		<trkpt lat="42.874131" lon="-5.369824">
			<ele>1658.000000</ele>
		<time>2015-12-06T12:53:29Z</time>
		</trkpt>

		<trkpt lat="42.874084" lon="-5.370105">
			<ele>1661.000000</ele>
		<time>2015-12-06T12:53:32Z</time>
		</trkpt>

		<trkpt lat="42.873992" lon="-5.370158">
			<ele>1668.000000</ele>
		<time>2015-12-06T12:53:35Z</time>
		</trkpt>

		<trkpt lat="42.873859" lon="-5.370227">
			<ele>1672.000000</ele>
		<time>2015-12-06T12:53:38Z</time>
		</trkpt>

		<trkpt lat="42.873795" lon="-5.370205">
			<ele>1676.000000</ele>
		<time>2015-12-06T12:53:41Z</time>
		</trkpt>

		<trkpt lat="42.873666" lon="-5.370187">
			<ele>1679.000000</ele>
		<time>2015-12-06T12:53:44Z</time>
		</trkpt>

		<trkpt lat="42.873616" lon="-5.370077">
			<ele>1685.000000</ele>
		<time>2015-12-06T12:53:47Z</time>
		</trkpt>

		<trkpt lat="42.873710" lon="-5.369830">
			<ele>1688.000000</ele>
		<time>2015-12-06T12:53:50Z</time>
		</trkpt>

		<trkpt lat="42.874023" lon="-5.369735">
			<ele>1689.000000</ele>
		<time>2015-12-06T12:53:53Z</time>
		</trkpt>

		<trkpt lat="42.874305" lon="-5.370099">
			<ele>1690.000000</ele>
		<time>2015-12-06T12:53:56Z</time>
		</trkpt>

		<trkpt lat="42.874467" lon="-5.370481">
			<ele>1691.000000</ele>
		<time>2015-12-06T12:53:59Z</time>
		</trkpt>

		<trkpt lat="42.874350" lon="-5.370816">
			<ele>1702.000000</ele>
		<time>2015-12-06T12:54:02Z</time>
		</trkpt>

		<trkpt lat="42.874265" lon="-5.370946">
			<ele>1706.000000</ele>
		<time>2015-12-06T12:54:05Z</time>
		</trkpt>

		<trkpt lat="42.874151" lon="-5.370960">
			<ele>1704.000000</ele>
		<time>2015-12-06T12:54:08Z</time>
		</trkpt>

		<trkpt lat="42.874089" lon="-5.370852">
			<ele>1705.000000</ele>
		<time>2015-12-06T12:54:11Z</time>
		</trkpt>

		<trkpt lat="42.874025" lon="-5.370701">
			<ele>1706.000000</ele>
		<time>2015-12-06T12:54:14Z</time>
		</trkpt>

		<trkpt lat="42.874055" lon="-5.370446">
			<ele>1709.000000</ele>
		<time>2015-12-06T12:54:17Z</time>
		</trkpt>

		<trkpt lat="42.874222" lon="-5.370189">
			<ele>1711.000000</ele>
		<time>2015-12-06T12:54:20Z</time>
		</trkpt>

		<trkpt lat="42.874537" lon="-5.370080">
			<ele>1710.000000</ele>
		<time>2015-12-06T12:54:23Z</time>
		</trkpt>

		<trkpt lat="42.874861" lon="-5.370222">
			<ele>1711.000000</ele>
		<time>2015-12-06T12:54:26Z</time>
		</trkpt>

		<trkpt lat="42.875180" lon="-5.370653">
			<ele>1712.000000</ele>
		<time>2015-12-06T12:54:29Z</time>
		</trkpt>

		<trkpt lat="42.875148" lon="-5.371044">
			<ele>1716.000000</ele>
		<time>2015-12-06T12:54:32Z</time>
		</trkpt>

		<trkpt lat="42.875052" lon="-5.371296">
			<ele>1722.000000</ele>
		<time>2015-12-06T12:54:35Z</time>
		</trkpt>

		<trkpt lat="42.874963" lon="-5.371422">
			<ele>1728.000000</ele>
		<time>2015-12-06T12:54:38Z</time>
		</trkpt>

		<trkpt lat="42.874863" lon="-5.371391">
			<ele>1729.000000</ele>
		<time>2015-12-06T12:54:41Z</time>
		</trkpt>

		<trkpt lat="42.874768" lon="-5.371274">
			<ele>1732.000000</ele>
		<time>2015-12-06T12:54:44Z</time>
		</trkpt>

		<trkpt lat="42.874702" lon="-5.371030">
			<ele>1731.000000</ele>
		<time>2015-12-06T12:54:47Z</time>
		</trkpt>

		<trkpt lat="42.874832" lon="-5.370740">
			<ele>1731.000000</ele>
		<time>2015-12-06T12:54:50Z</time>
		</trkpt>

		<trkpt lat="42.875142" lon="-5.370620">
			<ele>1732.000000</ele>
		<time>2015-12-06T12:54:53Z</time>
		</trkpt>

		<trkpt lat="42.875489" lon="-5.370780">
			<ele>1736.000000</ele>
		<time>2015-12-06T12:54:56Z</time>
		</trkpt>

		<trkpt lat="42.875717" lon="-5.371182">
			<ele>1739.000000</ele>
		<time>2015-12-06T12:54:59Z</time>
		</trkpt>

		<trkpt lat="42.875864" lon="-5.371559">
			<ele>1741.000000</ele>
		<time>2015-12-06T12:55:02Z</time>
		</trkpt>

		<trkpt lat="42.875783" lon="-5.371857">
			<ele>1740.000000</ele>
		<time>2015-12-06T12:55:05Z</time>
		</trkpt>

		<trkpt lat="42.875732" lon="-5.372111">
			<ele>1741.000000</ele>
		<time>2015-12-06T12:55:08Z</time>
		</trkpt>

		<trkpt lat="42.875600" lon="-5.372159">
			<ele>1740.000000</ele>
		<time>2015-12-06T12:55:11Z</time>
		</trkpt>

		<trkpt lat="42.875521" lon="-5.372000">
			<ele>1745.000000</ele>
		<time>2015-12-06T12:55:14Z</time>
		</trkpt>

		<trkpt lat="42.875462" lon="-5.371769">
			<ele>1748.000000</ele>
		<time>2015-12-06T12:55:17Z</time>
		</trkpt>

		<trkpt lat="42.875480" lon="-5.371468">
			<ele>1748.000000</ele>
		<time>2015-12-06T12:55:20Z</time>
		</trkpt>

		<trkpt lat="42.875511" lon="-5.371154">
			<ele>1746.000000</ele>
		<time>2015-12-06T12:55:23Z</time>
		</trkpt>

		<trkpt lat="42.875499" lon="-5.370895">
			<ele>1745.000000</ele>
		<time>2015-12-06T12:55:26Z</time>
		</trkpt>

		<trkpt lat="42.875357" lon="-5.370811">
			<ele>1742.000000</ele>
		<time>2015-12-06T12:55:29Z</time>
		</trkpt>

		<trkpt lat="42.875248" lon="-5.371005">
			<ele>1744.000000</ele>
		<time>2015-12-06T12:55:32Z</time>
		</trkpt>

		<trkpt lat="42.875185" lon="-5.371229">
			<ele>1743.000000</ele>
		<time>2015-12-06T12:55:35Z</time>
		</trkpt>

		<trkpt lat="42.875082" lon="-5.371483">
			<ele>1743.000000</ele>
		<time>2015-12-06T12:55:38Z</time>
		</trkpt>

		<trkpt lat="42.875028" lon="-5.371797">
			<ele>1745.000000</ele>
		<time>2015-12-06T12:55:41Z</time>
		</trkpt>

		<trkpt lat="42.875026" lon="-5.372134">
			<ele>1744.000000</ele>
		<time>2015-12-06T12:55:44Z</time>
		</trkpt>

		<trkpt lat="42.875026" lon="-5.372511">
			<ele>1747.000000</ele>
		<time>2015-12-06T12:55:47Z</time>
		</trkpt>

		<trkpt lat="42.874969" lon="-5.372875">
			<ele>1744.000000</ele>
		<time>2015-12-06T12:55:50Z</time>
		</trkpt>

		<trkpt lat="42.874833" lon="-5.373139">
			<ele>1743.000000</ele>
		<time>2015-12-06T12:55:53Z</time>
		</trkpt>

		<trkpt lat="42.874677" lon="-5.373238">
			<ele>1739.000000</ele>
		<time>2015-12-06T12:55:56Z</time>
		</trkpt>

		<trkpt lat="42.874602" lon="-5.373150">
			<ele>1740.000000</ele>
		<time>2015-12-06T12:55:59Z</time>
		</trkpt>

		<trkpt lat="42.874663" lon="-5.372957">
			<ele>1741.000000</ele>
		<time>2015-12-06T12:56:02Z</time>
		</trkpt>

		<trkpt lat="42.874751" lon="-5.372725">
			<ele>1745.000000</ele>
		<time>2015-12-06T12:56:05Z</time>
		</trkpt>

		<trkpt lat="42.874901" lon="-5.372512">
			<ele>1751.000000</ele>
		<time>2015-12-06T12:56:08Z</time>
		</trkpt>

		<trkpt lat="42.875013" lon="-5.372307">
			<ele>1754.000000</ele>
		<time>2015-12-06T12:56:11Z</time>
		</trkpt>

		<trkpt lat="42.875131" lon="-5.371998">
			<ele>1756.000000</ele>
		<time>2015-12-06T12:56:14Z</time>
		</trkpt>

		<trkpt lat="42.875221" lon="-5.371716">
			<ele>1761.000000</ele>
		<time>2015-12-06T12:56:17Z</time>
		</trkpt>

		<trkpt lat="42.875242" lon="-5.371468">
			<ele>1760.000000</ele>
		<time>2015-12-06T12:56:20Z</time>
		</trkpt>

		<trkpt lat="42.875198" lon="-5.371207">
			<ele>1758.000000</ele>
		<time>2015-12-06T12:56:23Z</time>
		</trkpt>

		<trkpt lat="42.875140" lon="-5.370934">
			<ele>1759.000000</ele>
		<time>2015-12-06T12:56:26Z</time>
		</trkpt>

		<trkpt lat="42.875105" lon="-5.370663">
			<ele>1755.000000</ele>
		<time>2015-12-06T12:56:29Z</time>
		</trkpt>

		<trkpt lat="42.875089" lon="-5.370416">
			<ele>1754.000000</ele>
		<time>2015-12-06T12:56:32Z</time>
		</trkpt>

		<trkpt lat="42.874967" lon="-5.370194">
			<ele>1750.000000</ele>
		<time>2015-12-06T12:56:35Z</time>
		</trkpt>

		<trkpt lat="42.874855" lon="-5.370027">
			<ele>1745.000000</ele>
		<time>2015-12-06T12:56:38Z</time>
		</trkpt>

		<trkpt lat="42.874701" lon="-5.369949">
			<ele>1741.000000</ele>
		<time>2015-12-06T12:56:41Z</time>
		</trkpt>

		<trkpt lat="42.874564" lon="-5.370016">
			<ele>1739.000000</ele>
		<time>2015-12-06T12:56:44Z</time>
		</trkpt>

		<trkpt lat="42.874445" lon="-5.370252">
			<ele>1732.000000</ele>
		<time>2015-12-06T12:56:47Z</time>
		</trkpt>

		<trkpt lat="42.874413" lon="-5.370471">
			<ele>1728.000000</ele>
		<time>2015-12-06T12:56:50Z</time>
		</trkpt>

		<trkpt lat="42.874402" lon="-5.370787">
			<ele>1727.000000</ele>
		<time>2015-12-06T12:56:53Z</time>
		</trkpt>

		<trkpt lat="42.874412" lon="-5.371086">
			<ele>1726.000000</ele>
		<time>2015-12-06T12:56:56Z</time>
		</trkpt>

		<trkpt lat="42.874428" lon="-5.371430">
			<ele>1721.000000</ele>
		<time>2015-12-06T12:56:59Z</time>
		</trkpt>

		<trkpt lat="42.874466" lon="-5.371783">
			<ele>1718.000000</ele>
		<time>2015-12-06T12:57:02Z</time>
		</trkpt>

		<trkpt lat="42.874440" lon="-5.372083">
			<ele>1715.000000</ele>
		<time>2015-12-06T12:57:05Z</time>
		</trkpt>

		<trkpt lat="42.874393" lon="-5.372415">
			<ele>1712.000000</ele>
		<time>2015-12-06T12:57:08Z</time>
		</trkpt>

		<trkpt lat="42.874345" lon="-5.372693">
			<ele>1709.000000</ele>
		<time>2015-12-06T12:57:11Z</time>
		</trkpt>

		<trkpt lat="42.874336" lon="-5.373005">
			<ele>1703.000000</ele>
		<time>2015-12-06T12:57:14Z</time>
		</trkpt>

		<trkpt lat="42.874328" lon="-5.373354">
			<ele>1701.000000</ele>
		<time>2015-12-06T12:57:17Z</time>
		</trkpt>

		<trkpt lat="42.874243" lon="-5.373585">
			<ele>1698.000000</ele>
		<time>2015-12-06T12:57:20Z</time>
		</trkpt>

		<trkpt lat="42.874145" lon="-5.373948">
			<ele>1696.000000</ele>
		<time>2015-12-06T12:57:23Z</time>
		</trkpt>

		<trkpt lat="42.874070" lon="-5.374148">
			<ele>1699.000000</ele>
		<time>2015-12-06T12:57:26Z</time>
		</trkpt>

		<trkpt lat="42.873880" lon="-5.374350">
			<ele>1698.000000</ele>
		<time>2015-12-06T12:57:29Z</time>
		</trkpt>

		<trkpt lat="42.873724" lon="-5.374403">
			<ele>1700.000000</ele>
		<time>2015-12-06T12:57:32Z</time>
		</trkpt>

		<trkpt lat="42.873583" lon="-5.374577">
			<ele>1698.000000</ele>
		<time>2015-12-06T12:57:35Z</time>
		</trkpt>

		<trkpt lat="42.873436" lon="-5.374623">
			<ele>1702.000000</ele>
		<time>2015-12-06T12:57:38Z</time>
		</trkpt>

		<trkpt lat="42.873377" lon="-5.374509">
			<ele>1701.000000</ele>
		<time>2015-12-06T12:57:41Z</time>
		</trkpt>

		<trkpt lat="42.873372" lon="-5.374272">
			<ele>1699.000000</ele>
		<time>2015-12-06T12:57:44Z</time>
		</trkpt>

		<trkpt lat="42.873487" lon="-5.374031">
			<ele>1703.000000</ele>
		<time>2015-12-06T12:57:47Z</time>
		</trkpt>

		<trkpt lat="42.873711" lon="-5.373849">
			<ele>1701.000000</ele>
		<time>2015-12-06T12:57:50Z</time>
		</trkpt>

		<trkpt lat="42.873932" lon="-5.373705">
			<ele>1702.000000</ele>
		<time>2015-12-06T12:57:53Z</time>
		</trkpt>

		<trkpt lat="42.874204" lon="-5.373613">
			<ele>1701.000000</ele>
		<time>2015-12-06T12:57:56Z</time>
		</trkpt>

		<trkpt lat="42.874412" lon="-5.373415">
			<ele>1700.000000</ele>
		<time>2015-12-06T12:57:59Z</time>
		</trkpt>

		<trkpt lat="42.874501" lon="-5.373147">
			<ele>1700.000000</ele>
		<time>2015-12-06T12:58:02Z</time>
		</trkpt>

		<trkpt lat="42.874441" lon="-5.372917">
			<ele>1703.000000</ele>
		<time>2015-12-06T12:58:05Z</time>
		</trkpt>

		<trkpt lat="42.874385" lon="-5.372806">
			<ele>1704.000000</ele>
		<time>2015-12-06T12:58:08Z</time>
		</trkpt>

		<trkpt lat="42.874250" lon="-5.372672">
			<ele>1702.000000</ele>
		<time>2015-12-06T12:58:11Z</time>
		</trkpt>

		<trkpt lat="42.874137" lon="-5.372542">
			<ele>1705.000000</ele>
		<time>2015-12-06T12:58:14Z</time>
		</trkpt>

		<trkpt lat="42.874132" lon="-5.372378">
			<ele>1708.000000</ele>
		<time>2015-12-06T12:58:17Z</time>
		</trkpt>

		<trkpt lat="42.874201" lon="-5.372131">
			<ele>1707.000000</ele>
		<time>2015-12-06T12:58:20Z</time>
		</trkpt>

		<trkpt lat="42.874364" lon="-5.371930">
			<ele>1705.000000</ele>
		<time>2015-12-06T12:58:23Z</time>
		</trkpt>

		<trkpt lat="42.874493" lon="-5.371689">
			<ele>1702.000000</ele>
		<time>2015-12-06T12:58:26Z</time>
		</trkpt>

		<trkpt lat="42.874468" lon="-5.371534">
			<ele>1702.000000</ele>
		<time>2015-12-06T12:58:29Z</time>
		</trkpt>

		<trkpt lat="42.874361" lon="-5.371703">
			<ele>1700.000000</ele>
		<time>2015-12-06T12:58:32Z</time>
		</trkpt>

		<trkpt lat="42.874301" lon="-5.372000">
			<ele>1699.000000</ele>
		<time>2015-12-06T12:58:35Z</time>
		</trkpt>

		<trkpt lat="42.874339" lon="-5.372358">
			<ele>1696.000000</ele>
		<time>2015-12-06T12:58:38Z</time>
		</trkpt>

		<trkpt lat="42.874407" lon="-5.372753">
			<ele>1699.000000</ele>
		<time>2015-12-06T12:58:41Z</time>
		</trkpt>

		<trkpt lat="42.874394" lon="-5.373105">
			<ele>1697.000000</ele>
		<time>2015-12-06T12:58:44Z</time>
		</trkpt>

		<trkpt lat="42.874348" lon="-5.373382">
			<ele>1698.000000</ele>
		<time>2015-12-06T12:58:47Z</time>
		</trkpt>

		<trkpt lat="42.874241" lon="-5.373584">
			<ele>1693.000000</ele>
		<time>2015-12-06T12:58:50Z</time>
		</trkpt>

		<trkpt lat="42.874121" lon="-5.373677">
			<ele>1696.000000</ele>
		<time>2015-12-06T12:58:53Z</time>
		</trkpt>

		<trkpt lat="42.874031" lon="-5.373797">
			<ele>1702.000000</ele>
		<time>2015-12-06T12:58:56Z</time>
		</trkpt>

		<trkpt lat="42.873886" lon="-5.373889">
			<ele>1706.000000</ele>
		<time>2015-12-06T12:58:59Z</time>
		</trkpt>

		<trkpt lat="42.873792" lon="-5.373764">
			<ele>1707.000000</ele>
		<time>2015-12-06T12:59:02Z</time>
		</trkpt>

		<trkpt lat="42.873918" lon="-5.373441">
			<ele>1709.000000</ele>
		<time>2015-12-06T12:59:05Z</time>
		</trkpt>

		<trkpt lat="42.874148" lon="-5.373281">
			<ele>1707.000000</ele>
		<time>2015-12-06T12:59:08Z</time>
		</trkpt>

		<trkpt lat="42.874475" lon="-5.373210">
			<ele>1703.000000</ele>
		<time>2015-12-06T12:59:11Z</time>
		</trkpt>

		<trkpt lat="42.874755" lon="-5.373044">
			<ele>1703.000000</ele>
		<time>2015-12-06T12:59:14Z</time>
		</trkpt>

		<trkpt lat="42.874828" lon="-5.372763">
			<ele>1702.000000</ele>
		<time>2015-12-06T12:59:17Z</time>
		</trkpt>

		<trkpt lat="42.874711" lon="-5.372766">
			<ele>1701.000000</ele>
		<time>2015-12-06T12:59:20Z</time>
		</trkpt>

		<trkpt lat="42.874622" lon="-5.372947">
			<ele>1702.000000</ele>
		<time>2015-12-06T12:59:23Z</time>
		</trkpt>

		<trkpt lat="42.874535" lon="-5.373150">
			<ele>1702.000000</ele>
		<time>2015-12-06T12:59:26Z</time>
		</trkpt>

		<trkpt lat="42.874426" lon="-5.373300">
			<ele>1703.000000</ele>
		<time>2015-12-06T12:59:29Z</time>
		</trkpt>

		<trkpt lat="42.874328" lon="-5.373472">
			<ele>1703.000000</ele>
		<time>2015-12-06T12:59:32Z</time>
		</trkpt>

		<trkpt lat="42.874231" lon="-5.373668">
			<ele>1701.000000</ele>
		<time>2015-12-06T12:59:35Z</time>
		</trkpt>

		<trkpt lat="42.874114" lon="-5.373871">
			<ele>1699.000000</ele>
		<time>2015-12-06T12:59:38Z</time>
		</trkpt>

		<trkpt lat="42.874031" lon="-5.374020">
			<ele>1697.000000</ele>
		<time>2015-12-06T12:59:41Z</time>
		</trkpt>

		<trkpt lat="42.873887" lon="-5.374103">
			<ele>1695.000000</ele>
		<time>2015-12-06T12:59:44Z</time>
		</trkpt>

		<trkpt lat="42.873769" lon="-5.374051">
			<ele>1697.000000</ele>
		<time>2015-12-06T12:59:47Z</time>
		</trkpt>

		<trkpt lat="42.873625" lon="-5.374019">
			<ele>1689.000000</ele>
		<time>2015-12-06T12:59:50Z</time>
		</trkpt>

		<trkpt lat="42.873502" lon="-5.373837">
			<ele>1687.000000</ele>
		<time>2015-12-06T12:59:53Z</time>
		</trkpt>

		<trkpt lat="42.873583" lon="-5.373560">
			<ele>1681.000000</ele>
		<time>2015-12-06T12:59:56Z</time>
		</trkpt>

		<trkpt lat="42.873730" lon="-5.373290">
			<ele>1680.000000</ele>
		<time>2015-12-06T12:59:59Z</time>
		</trkpt>

		<trkpt lat="42.874072" lon="-5.373165">
			<ele>1681.000000</ele>
		<time>2015-12-06T01:00:02Z</time>
		</trkpt>

		<trkpt lat="42.874429" lon="-5.373136">
			<ele>1681.000000</ele>
		<time>2015-12-06T01:00:05Z</time>
		</trkpt>

		<trkpt lat="42.874554" lon="-5.373568">
			<ele>1683.000000</ele>
		<time>2015-12-06T01:00:08Z</time>
		</trkpt>

		<trkpt lat="42.874379" lon="-5.373844">
			<ele>1686.000000</ele>
		<time>2015-12-06T01:00:11Z</time>
		</trkpt>

		<trkpt lat="42.874224" lon="-5.373913">
			<ele>1683.000000</ele>
		<time>2015-12-06T01:00:14Z</time>
		</trkpt>

		<trkpt lat="42.874064" lon="-5.373879">
			<ele>1682.000000</ele>
		<time>2015-12-06T01:00:17Z</time>
		</trkpt>

		<trkpt lat="42.874091" lon="-5.373621">
			<ele>1681.000000</ele>
		<time>2015-12-06T01:00:20Z</time>
		</trkpt>

		<trkpt lat="42.874227" lon="-5.373327">
			<ele>1679.000000</ele>
		<time>2015-12-06T01:00:23Z</time>
		</trkpt>

		<trkpt lat="42.874320" lon="-5.373042">
			<ele>1681.000000</ele>
		<time>2015-12-06T01:00:26Z</time>
		</trkpt>

		<trkpt lat="42.874269" lon="-5.372863">
			<ele>1675.000000</ele>
		<time>2015-12-06T01:00:29Z</time>
		</trkpt>

		<trkpt lat="42.874126" lon="-5.372972">
			<ele>1671.000000</ele>
		<time>2015-12-06T01:00:32Z</time>
		</trkpt>

		<trkpt lat="42.874135" lon="-5.373322">
			<ele>1669.000000</ele>
		<time>2015-12-06T01:00:35Z</time>
		</trkpt>

		<trkpt lat="42.874159" lon="-5.373677">
			<ele>1669.000000</ele>
		<time>2015-12-06T01:00:38Z</time>
		</trkpt>

		<trkpt lat="42.874113" lon="-5.373972">
			<ele>1668.000000</ele>
		<time>2015-12-06T01:00:41Z</time>
		</trkpt>

		<trkpt lat="42.874030" lon="-5.374189">
			<ele>1667.000000</ele>
		<time>2015-12-06T01:00:44Z</time>
		</trkpt>

		<trkpt lat="42.873887" lon="-5.374335">
			<ele>1663.000000</ele>
		<time>2015-12-06T01:00:47Z</time>
		</trkpt>

		<trkpt lat="42.873744" lon="-5.374461">
			<ele>1661.000000</ele>
		<time>2015-12-06T01:00:50Z</time>
		</trkpt>

		<trkpt lat="42.873600" lon="-5.374622">
			<ele>1660.000000</ele>
		<time>2015-12-06T01:00:53Z</time>
		</trkpt>

		<trkpt lat="42.873446" lon="-5.374801">
			<ele>1655.000000</ele>
		<time>2015-12-06T01:00:56Z</time>
		</trkpt>

		<trkpt lat="42.873263" lon="-5.374970">
			<ele>1657.000000</ele>
		<time>2015-12-06T01:00:59Z</time>
		</trkpt>

		<trkpt lat="42.873098" lon="-5.375093">
			<ele>1661.000000</ele>
		<time>2015-12-06T01:01:02Z</time>
		</trkpt>

		<trkpt lat="42.872933" lon="-5.375178">
			<ele>1659.000000</ele>
		<time>2015-12-06T01:01:05Z</time>
		</trkpt>

		<trkpt lat="42.872793" lon="-5.375208">
			<ele>1653.000000</ele>
		<time>2015-12-06T01:01:08Z</time>
		</trkpt>

		<trkpt lat="42.872788" lon="-5.375019">
			<ele>1646.000000</ele>
		<time>2015-12-06T01:01:11Z</time>
		</trkpt>

		<trkpt lat="42.872965" lon="-5.374806">
			<ele>1649.000000</ele>
		<time>2015-12-06T01:01:14Z</time>
		</trkpt>

		<trkpt lat="42.873208" lon="-5.374719">
			<ele>1646.000000</ele>
		<time>2015-12-06T01:01:17Z</time>
		</trkpt>

		<trkpt lat="42.873492" lon="-5.374638">
			<ele>1647.000000</ele>
		<time>2015-12-06T01:01:20Z</time>
		</trkpt>

		<trkpt lat="42.873768" lon="-5.374512">
			<ele>1645.000000</ele>
		<time>2015-12-06T01:01:23Z</time>
		</trkpt>

		<trkpt lat="42.874009" lon="-5.374375">
			<ele>1647.000000</ele>
		<time>2015-12-06T01:01:26Z</time>
		</trkpt>

		<trkpt lat="42.874159" lon="-5.374205">
			<ele>1646.000000</ele>
		<time>2015-12-06T01:01:29Z</time>
		</trkpt>

		<trkpt lat="42.874351" lon="-5.373871">
			<ele>1646.000000</ele>
		<time>2015-12-06T01:01:32Z</time>
		</trkpt>

		<trkpt lat="42.874414" lon="-5.373621">
			<ele>1645.000000</ele>
		<time>2015-12-06T01:01:35Z</time>
		</trkpt>

		<trkpt lat="42.874372" lon="-5.373406">
			<ele>1642.000000</ele>
		<time>2015-12-06T01:01:38Z</time>
		</trkpt>

		<trkpt lat="42.874331" lon="-5.373223">
			<ele>1642.000000</ele>
		<time>2015-12-06T01:01:41Z</time>
		</trkpt>

		<trkpt lat="42.874260" lon="-5.373058">
			<ele>1639.000000</ele>
		<time>2015-12-06T01:01:44Z</time>
		</trkpt>

		<trkpt lat="42.874190" lon="-5.372919">
			<ele>1637.000000</ele>
		<time>2015-12-06T01:01:47Z</time>
		</trkpt>

		<trkpt lat="42.874125" lon="-5.372703">
			<ele>1632.000000</ele>
		<time>2015-12-06T01:01:50Z</time>
		</trkpt>

		<trkpt lat="42.874058" lon="-5.372419">
			<ele>1631.000000</ele>
		<time>2015-12-06T01:01:53Z</time>
		</trkpt>

		<trkpt lat="42.874035" lon="-5.372147">
			<ele>1631.000000</ele>
		<time>2015-12-06T01:01:56Z</time>
		</trkpt>

		<trkpt lat="42.874044" lon="-5.371844">
			<ele>1633.000000</ele>
		<time>2015-12-06T01:01:59Z</time>
		</trkpt>

		<trkpt lat="42.873972" lon="-5.371639">
			<ele>1633.000000</ele>
		<time>2015-12-06T01:02:02Z</time>
		</trkpt>

		<trkpt lat="42.873884" lon="-5.371546">
			<ele>1634.000000</ele>
		<time>2015-12-06T01:02:05Z</time>
		</trkpt>

		<trkpt lat="42.873760" lon="-5.371579">
			<ele>1633.000000</ele>
		<time>2015-12-06T01:02:08Z</time>
		</trkpt>

		<trkpt lat="42.873698" lon="-5.371774">
			<ele>1631.000000</ele>
		<time>2015-12-06T01:02:11Z</time>
		</trkpt>

		<trkpt lat="42.873699" lon="-5.372082">
			<ele>1629.000000</ele>
		<time>2015-12-06T01:02:14Z</time>
		</trkpt>

		<trkpt lat="42.873633" lon="-5.372353">
			<ele>1631.000000</ele>
		<time>2015-12-06T01:02:17Z</time>
		</trkpt>

		<trkpt lat="42.873468" lon="-5.372516">
			<ele>1630.000000</ele>
		<time>2015-12-06T01:02:20Z</time>
		</trkpt>

		<trkpt lat="42.873285" lon="-5.372354">
			<ele>1629.000000</ele>
		<time>2015-12-06T01:02:23Z</time>
		</trkpt>

		<trkpt lat="42.873403" lon="-5.372129">
			<ele>1627.000000</ele>
		<time>2015-12-06T01:02:26Z</time>
		</trkpt>

		<trkpt lat="42.873566" lon="-5.371903">
			<ele>1624.000000</ele>
		<time>2015-12-06T01:02:29Z</time>
		</trkpt>

		<trkpt lat="42.873785" lon="-5.371713">
			<ele>1623.000000</ele>
		<time>2015-12-06T01:02:32Z</time>
		</trkpt>

		<trkpt lat="42.873933" lon="-5.371431">
			<ele>1621.000000</ele>
		<time>2015-12-06T01:02:35Z</time>
		</trkpt>

		<trkpt lat="42.873991" lon="-5.371139">
			<ele>1622.000000</ele>
		<time>2015-12-06T01:02:38Z</time>
		</trkpt>

		<trkpt lat="42.873958" lon="-5.370962">
			<ele>1621.000000</ele>
		<time>2015-12-06T01:02:41Z</time>
		</trkpt>

		<trkpt lat="42.873859" lon="-5.370807">
			<ele>1619.000000</ele>
		<time>2015-12-06T01:02:44Z</time>
		</trkpt>

		<trkpt lat="42.873776" lon="-5.370729">
			<ele>1615.000000</ele>
		<time>2015-12-06T01:02:47Z</time>
		</trkpt>

		<trkpt lat="42.873629" lon="-5.370634">
			<ele>1612.000000</ele>
		<time>2015-12-06T01:02:50Z</time>
		</trkpt>

		<trkpt lat="42.873513" lon="-5.370512">
			<ele>1608.000000</ele>
		<time>2015-12-06T01:02:53Z</time>
		</trkpt>

		<trkpt lat="42.873371" lon="-5.370305">
			<ele>1607.000000</ele>
		<time>2015-12-06T01:02:56Z</time>
		</trkpt>

		<trkpt lat="42.873308" lon="-5.370016">
			<ele>1611.000000</ele>
		<time>2015-12-06T01:02:59Z</time>
		</trkpt>

		<trkpt lat="42.873251" lon="-5.369759">
			<ele>1614.000000</ele>
		<time>2015-12-06T01:03:02Z</time>
		</trkpt>

		<trkpt lat="42.873254" lon="-5.369504">
			<ele>1619.000000</ele>
		<time>2015-12-06T01:03:05Z</time>
		</trkpt>

		<trkpt lat="42.873232" lon="-5.369303">
			<ele>1625.000000</ele>
		<time>2015-12-06T01:03:08Z</time>
		</trkpt>

		<trkpt lat="42.873243" lon="-5.369148">
			<ele>1620.000000</ele>
		<time>2015-12-06T01:03:11Z</time>
		</trkpt>

		<trkpt lat="42.873116" lon="-5.369231">
			<ele>1619.000000</ele>
		<time>2015-12-06T01:03:14Z</time>
		</trkpt>

		<trkpt lat="42.873080" lon="-5.369554">
			<ele>1617.000000</ele>
		<time>2015-12-06T01:03:17Z</time>
		</trkpt>

		<trkpt lat="42.873179" lon="-5.369951">
			<ele>1619.000000</ele>
		<time>2015-12-06T01:03:20Z</time>
		</trkpt>

		<trkpt lat="42.873390" lon="-5.370329">
			<ele>1626.000000</ele>
		<time>2015-12-06T01:03:23Z</time>
		</trkpt>

		<trkpt lat="42.873586" lon="-5.370640">
			<ele>1628.000000</ele>
		<time>2015-12-06T01:03:26Z</time>
		</trkpt>

		<trkpt lat="42.873579" lon="-5.370962">
			<ele>1627.000000</ele>
		<time>2015-12-06T01:03:29Z</time>
		</trkpt>

		<trkpt lat="42.873529" lon="-5.371124">
			<ele>1628.000000</ele>
		<time>2015-12-06T01:03:32Z</time>
		</trkpt>

		<trkpt lat="42.873494" lon="-5.370769">
			<ele>1629.000000</ele>
		<time>2015-12-06T01:03:35Z</time>
		</trkpt>

		<trkpt lat="42.873478" lon="-5.370518">
			<ele>1627.000000</ele>
		<time>2015-12-06T01:03:38Z</time>
		</trkpt>

		<trkpt lat="42.873534" lon="-5.370237">
			<ele>1632.000000</ele>
		<time>2015-12-06T01:03:41Z</time>
		</trkpt>

		<trkpt lat="42.873672" lon="-5.370006">
			<ele>1635.000000</ele>
		<time>2015-12-06T01:03:44Z</time>
		</trkpt>

		<trkpt lat="42.873667" lon="-5.369768">
			<ele>1636.000000</ele>
		<time>2015-12-06T01:03:47Z</time>
		</trkpt>

		<trkpt lat="42.873585" lon="-5.369649">
			<ele>1644.000000</ele>
		<time>2015-12-06T01:03:50Z</time>
		</trkpt>

		<trkpt lat="42.873477" lon="-5.369568">
			<ele>1646.000000</ele>
		<time>2015-12-06T01:03:53Z</time>
		</trkpt>

		<trkpt lat="42.873373" lon="-5.369516">
			<ele>1644.000000</ele>
		<time>2015-12-06T01:03:56Z</time>
		</trkpt>

		<trkpt lat="42.873259" lon="-5.369546">
			<ele>1643.000000</ele>
		<time>2015-12-06T01:03:59Z</time>
		</trkpt>

		<trkpt lat="42.873237" lon="-5.369839">
			<ele>1643.000000</ele>
		<time>2015-12-06T01:04:02Z</time>
		</trkpt>

		<trkpt lat="42.873342" lon="-5.370171">
			<ele>1644.000000</ele>
		<time>2015-12-06T01:04:05Z</time>
		</trkpt>

		<trkpt lat="42.873510" lon="-5.370505">
			<ele>1643.000000</ele>
		<time>2015-12-06T01:04:08Z</time>
		</trkpt>

		<trkpt lat="42.873760" lon="-5.370799">
			<ele>1643.000000</ele>
		<time>2015-12-06T01:04:11Z</time>
		</trkpt>

		<trkpt lat="42.873958" lon="-5.371126">
			<ele>1642.000000</ele>
		<time>2015-12-06T01:04:14Z</time>
		</trkpt>

		<trkpt lat="42.874056" lon="-5.371445">
			<ele>1640.000000</ele>
		<time>2015-12-06T01:04:17Z</time>
		</trkpt>

		<trkpt lat="42.873947" lon="-5.371587">
			<ele>1636.000000</ele>
		<time>2015-12-06T01:04:20Z</time>
		</trkpt>

		<trkpt lat="42.873852" lon="-5.371533">
			<ele>1635.000000</ele>
		<time>2015-12-06T01:04:23Z</time>
		</trkpt>

		<trkpt lat="42.873725" lon="-5.371333">
			<ele>1635.000000</ele>
		<time>2015-12-06T01:04:26Z</time>
		</trkpt>

		<trkpt lat="42.873673" lon="-5.371122">
			<ele>1637.000000</ele>
		<time>2015-12-06T01:04:29Z</time>
		</trkpt>

		<trkpt lat="42.873668" lon="-5.370868">
			<ele>1637.000000</ele>
		<time>2015-12-06T01:04:32Z</time>
		</trkpt>

		<trkpt lat="42.873678" lon="-5.370677">
			<ele>1638.000000</ele>
		<time>2015-12-06T01:04:35Z</time>
		</trkpt>

		<trkpt lat="42.873662" lon="-5.370486">
			<ele>1637.000000</ele>
		<time>2015-12-06T01:04:38Z</time>
		</trkpt>

		<trkpt lat="42.873565" lon="-5.370357">
			<ele>1635.000000</ele>
		<time>2015-12-06T01:04:41Z</time>
		</trkpt>

		<trkpt lat="42.873554" lon="-5.370150">
			<ele>1629.000000</ele>
		<time>2015-12-06T01:04:44Z</time>
		</trkpt>

		<trkpt lat="42.873530" lon="-5.369940">
			<ele>1626.000000</ele>
		<time>2015-12-06T01:04:47Z</time>
		</trkpt>

		<trkpt lat="42.873477" lon="-5.369759">
			<ele>1622.000000</ele>
		<time>2015-12-06T01:04:50Z</time>
		</trkpt>

		<trkpt lat="42.873350" lon="-5.369693">
			<ele>1620.000000</ele>
		<time>2015-12-06T01:04:53Z</time>
		</trkpt>

		<trkpt lat="42.873218" lon="-5.369832">
			<ele>1624.000000</ele>
		<time>2015-12-06T01:04:56Z</time>
		</trkpt>

		<trkpt lat="42.873096" lon="-5.370059">
			<ele>1627.000000</ele>
		<time>2015-12-06T01:04:59Z</time>
		</trkpt>

		<trkpt lat="42.872943" lon="-5.370083">
			<ele>1628.000000</ele>
		<time>2015-12-06T01:05:02Z</time>
		</trkpt>

		<trkpt lat="42.872840" lon="-5.369971">
			<ele>1627.000000</ele>
		<time>2015-12-06T01:05:05Z</time>
		</trkpt>

		<trkpt lat="42.872838" lon="-5.369707">
			<ele>1632.000000</ele>
		<time>2015-12-06T01:05:08Z</time>
		</trkpt>

		<trkpt lat="42.872893" lon="-5.369519">
			<ele>1638.000000</ele>
		<time>2015-12-06T01:05:11Z</time>
		</trkpt>

		<trkpt lat="42.872993" lon="-5.369282">
			<ele>1634.000000</ele>
		<time>2015-12-06T01:05:14Z</time>
		</trkpt>

		<trkpt lat="42.873088" lon="-5.368992">
			<ele>1637.000000</ele>
		<time>2015-12-06T01:05:17Z</time>
		</trkpt>

		<trkpt lat="42.872985" lon="-5.368933">
			<ele>1637.000000</ele>
		<time>2015-12-06T01:05:20Z</time>
		</trkpt>

		<trkpt lat="42.872893" lon="-5.369160">
			<ele>1639.000000</ele>
		<time>2015-12-06T01:05:23Z</time>
		</trkpt>

		<trkpt lat="42.872865" lon="-5.369414">
			<ele>1640.000000</ele>
		<time>2015-12-06T01:05:26Z</time>
		</trkpt>

		<trkpt lat="42.872850" lon="-5.369744">
			<ele>1640.000000</ele>
		<time>2015-12-06T01:05:29Z</time>
		</trkpt>

		<trkpt lat="42.872946" lon="-5.370119">
			<ele>1640.000000</ele>
		<time>2015-12-06T01:05:32Z</time>
		</trkpt>

		<trkpt lat="42.873184" lon="-5.370447">
			<ele>1641.000000</ele>
		<time>2015-12-06T01:05:35Z</time>
		</trkpt>

		<trkpt lat="42.873543" lon="-5.370565">
			<ele>1644.000000</ele>
		<time>2015-12-06T01:05:38Z</time>
		</trkpt>

		<trkpt lat="42.873831" lon="-5.370441">
			<ele>1648.000000</ele>
		<time>2015-12-06T01:05:41Z</time>
		</trkpt>

		<trkpt lat="42.873976" lon="-5.370187">
			<ele>1646.000000</ele>
		<time>2015-12-06T01:05:44Z</time>
		</trkpt>

		<trkpt lat="42.873913" lon="-5.369995">
			<ele>1649.000000</ele>
		<time>2015-12-06T01:05:47Z</time>
		</trkpt>

		<trkpt lat="42.873921" lon="-5.369786">
			<ele>1663.000000</ele>
		<time>2015-12-06T01:05:50Z</time>
		</trkpt>

		<trkpt lat="42.874004" lon="-5.369548">
			<ele>1665.000000</ele>
		<time>2015-12-06T01:05:53Z</time>
		</trkpt>

		<trkpt lat="42.874146" lon="-5.369285">
			<ele>1666.000000</ele>
		<time>2015-12-06T01:05:56Z</time>
		</trkpt>

		<trkpt lat="42.874202" lon="-5.369069">
			<ele>1667.000000</ele>
		<time>2015-12-06T01:05:59Z</time>
		</trkpt>

		<trkpt lat="42.874061" lon="-5.369094">
			<ele>1667.000000</ele>
		<time>2015-12-06T01:06:02Z</time>
		</trkpt>

		<trkpt lat="42.873971" lon="-5.369196">
			<ele>1668.000000</ele>
		<time>2015-12-06T01:06:05Z</time>
		</trkpt>

		<trkpt lat="42.873877" lon="-5.369361">
			<ele>1665.000000</ele>
		<time>2015-12-06T01:06:08Z</time>
		</trkpt>

		<trkpt lat="42.873772" lon="-5.369501">
			<ele>1664.000000</ele>
		<time>2015-12-06T01:06:11Z</time>
		</trkpt>

		<trkpt lat="42.873701" lon="-5.369730">
			<ele>1666.000000</ele>
		<time>2015-12-06T01:06:14Z</time>
		</trkpt>

		<trkpt lat="42.873717" lon="-5.370117">
			<ele>1666.000000</ele>
		<time>2015-12-06T01:06:17Z</time>
		</trkpt>

		<trkpt lat="42.873718" lon="-5.370394">
			<ele>1662.000000</ele>
		<time>2015-12-06T01:06:20Z</time>
		</trkpt>

		<trkpt lat="42.873735" lon="-5.370803">
			<ele>1661.000000</ele>
		<time>2015-12-06T01:06:23Z</time>
		</trkpt>

		<trkpt lat="42.873861" lon="-5.371191">
			<ele>1665.000000</ele>
		<time>2015-12-06T01:06:26Z</time>
		</trkpt>

		<trkpt lat="42.873956" lon="-5.371560">
			<ele>1667.000000</ele>
		<time>2015-12-06T01:06:29Z</time>
		</trkpt>

		<trkpt lat="42.873907" lon="-5.371907">
			<ele>1665.000000</ele>
		<time>2015-12-06T01:06:32Z</time>
		</trkpt>

		<trkpt lat="42.873763" lon="-5.371923">
			<ele>1665.000000</ele>
		<time>2015-12-06T01:06:35Z</time>
		</trkpt>

		<trkpt lat="42.873671" lon="-5.371835">
			<ele>1662.000000</ele>
		<time>2015-12-06T01:06:38Z</time>
		</trkpt>

		<trkpt lat="42.873589" lon="-5.371646">
			<ele>1664.000000</ele>
		<time>2015-12-06T01:06:41Z</time>
		</trkpt>

		<trkpt lat="42.873604" lon="-5.371463">
			<ele>1666.000000</ele>
		<time>2015-12-06T01:06:44Z</time>
		</trkpt>

		<trkpt lat="42.873652" lon="-5.371225">
			<ele>1666.000000</ele>
		<time>2015-12-06T01:06:47Z</time>
		</trkpt>

		<trkpt lat="42.873648" lon="-5.370997">
			<ele>1666.000000</ele>
		<time>2015-12-06T01:06:50Z</time>
		</trkpt>

		<trkpt lat="42.873679" lon="-5.370631">
			<ele>1665.000000</ele>
		<time>2015-12-06T01:06:53Z</time>
		</trkpt>

		<trkpt lat="42.873793" lon="-5.370352">
			<ele>1661.000000</ele>
		<time>2015-12-06T01:06:56Z</time>
		</trkpt>

		<trkpt lat="42.873821" lon="-5.370134">
			<ele>1659.000000</ele>
		<time>2015-12-06T01:06:59Z</time>
		</trkpt>

		<trkpt lat="42.873775" lon="-5.369950">
			<ele>1655.000000</ele>
		<time>2015-12-06T01:07:02Z</time>
		</trkpt>

		<trkpt lat="42.873657" lon="-5.369946">
			<ele>1651.000000</ele>
		<time>2015-12-06T01:07:05Z</time>
		</trkpt>

		<trkpt lat="42.873597" lon="-5.370266">
			<ele>1649.000000</ele>
		<time>2015-12-06T01:07:08Z</time>
		</trkpt>

		<trkpt lat="42.873610" lon="-5.370637">
			<ele>1649.000000</ele>
		<time>2015-12-06T01:07:11Z</time>
		</trkpt>

		<trkpt lat="42.873684" lon="-5.371023">
			<ele>1651.000000</ele>
		<time>2015-12-06T01:07:14Z</time>
		</trkpt>

		<trkpt lat="42.873731" lon="-5.371423">
			<ele>1649.000000</ele>
		<time>2015-12-06T01:07:17Z</time>
		</trkpt>

		<trkpt lat="42.873848" lon="-5.371826">
			<ele>1649.000000</ele>
		<time>2015-12-06T01:07:20Z</time>
		</trkpt>

		<trkpt lat="42.874004" lon="-5.372240">
			<ele>1649.000000</ele>
		<time>2015-12-06T01:07:23Z</time>
		</trkpt>

		<trkpt lat="42.874135" lon="-5.372656">
			<ele>1649.000000</ele>
		<time>2015-12-06T01:07:26Z</time>
		</trkpt>

		<trkpt lat="42.874114" lon="-5.373049">
			<ele>1651.000000</ele>
		<time>2015-12-06T01:07:29Z</time>
		</trkpt>

		<trkpt lat="42.874097" lon="-5.373322">
			<ele>1651.000000</ele>
		<time>2015-12-06T01:07:32Z</time>
		</trkpt>

		<trkpt lat="42.874006" lon="-5.373629">
			<ele>1653.000000</ele>
		<time>2015-12-06T01:07:35Z</time>
		</trkpt>

		<trkpt lat="42.873943" lon="-5.373841">
			<ele>1651.000000</ele>
		<time>2015-12-06T01:07:38Z</time>
		</trkpt>

		<trkpt lat="42.873854" lon="-5.374055">
			<ele>1652.000000</ele>
		<time>2015-12-06T01:07:41Z</time>
		</trkpt>

		<trkpt lat="42.873760" lon="-5.374227">
			<ele>1653.000000</ele>
		<time>2015-12-06T01:07:44Z</time>
		</trkpt>

		<trkpt lat="42.873605" lon="-5.374343">
			<ele>1653.000000</ele>
		<time>2015-12-06T01:07:47Z</time>
		</trkpt>

		<trkpt lat="42.873497" lon="-5.374360">
			<ele>1650.000000</ele>
		<time>2015-12-06T01:07:50Z</time>
		</trkpt>

		<trkpt lat="42.873477" lon="-5.374125">
			<ele>1653.000000</ele>
		<time>2015-12-06T01:07:53Z</time>
		</trkpt>

		<trkpt lat="42.873633" lon="-5.373882">
			<ele>1661.000000</ele>
		<time>2015-12-06T01:07:56Z</time>
		</trkpt>

		<trkpt lat="42.873848" lon="-5.373585">
			<ele>1661.000000</ele>
		<time>2015-12-06T01:07:59Z</time>
		</trkpt>

		<trkpt lat="42.874040" lon="-5.373367">
			<ele>1663.000000</ele>
		<time>2015-12-06T01:08:02Z</time>
		</trkpt>

		<trkpt lat="42.874016" lon="-5.373158">
			<ele>1661.000000</ele>
		<time>2015-12-06T01:08:05Z</time>
		</trkpt>

		<trkpt lat="42.873887" lon="-5.373255">
			<ele>1662.000000</ele>
		<time>2015-12-06T01:08:08Z</time>
		</trkpt>

		<trkpt lat="42.873788" lon="-5.373381">
			<ele>1661.000000</ele>
		<time>2015-12-06T01:08:11Z</time>
		</trkpt>

		<trkpt lat="42.873705" lon="-5.373620">
			<ele>1665.000000</ele>
		<time>2015-12-06T01:08:14Z</time>
		</trkpt>

		<trkpt lat="42.873650" lon="-5.373799">
			<ele>1666.000000</ele>
		<time>2015-12-06T01:08:17Z</time>
		</trkpt>

		<trkpt lat="42.873613" lon="-5.374152">
			<ele>1664.000000</ele>
		<time>2015-12-06T01:08:20Z</time>
		</trkpt>

		<trkpt lat="42.873579" lon="-5.374474">
			<ele>1664.000000</ele>
		<time>2015-12-06T01:08:23Z</time>
		</trkpt>

		<trkpt lat="42.873438" lon="-5.374645">
			<ele>1663.000000</ele>
		<time>2015-12-06T01:08:26Z</time>
		</trkpt>

		<trkpt lat="42.873359" lon="-5.374510">
			<ele>1661.000000</ele>
		<time>2015-12-06T01:08:29Z</time>
		</trkpt>

		<trkpt lat="42.873338" lon="-5.374246">
			<ele>1663.000000</ele>
		<time>2015-12-06T01:08:32Z</time>
		</trkpt>

		<trkpt lat="42.873317" lon="-5.374024">
			<ele>1666.000000</ele>
		<time>2015-12-06T01:08:35Z</time>
		</trkpt>

		<trkpt lat="42.873310" lon="-5.373791">
			<ele>1667.000000</ele>
		<time>2015-12-06T01:08:38Z</time>
		</trkpt>

		<trkpt lat="42.873339" lon="-5.373570">
			<ele>1671.000000</ele>
		<time>2015-12-06T01:08:41Z</time>
		</trkpt>

		<trkpt lat="42.873383" lon="-5.373357">
			<ele>1676.000000</ele>
		<time>2015-12-06T01:08:44Z</time>
		</trkpt>

		<trkpt lat="42.873416" lon="-5.373120">
			<ele>1678.000000</ele>
		<time>2015-12-06T01:08:47Z</time>
		</trkpt>

		<trkpt lat="42.873562" lon="-5.372874">
			<ele>1681.000000</ele>
		<time>2015-12-06T01:08:50Z</time>
		</trkpt>

		<trkpt lat="42.873588" lon="-5.372675">
			<ele>1685.000000</ele>
		<time>2015-12-06T01:08:53Z</time>
		</trkpt>

		<trkpt lat="42.873656" lon="-5.372471">
			<ele>1689.000000</ele>
		<time>2015-12-06T01:08:56Z</time>
		</trkpt>

		<trkpt lat="42.873678" lon="-5.372282">
			<ele>1689.000000</ele>
		<time>2015-12-06T01:08:59Z</time>
		</trkpt>

		<trkpt lat="42.873611" lon="-5.372144">
			<ele>1685.000000</ele>
		<time>2015-12-06T01:09:02Z</time>
		</trkpt>

		<trkpt lat="42.873473" lon="-5.372291">
			<ele>1685.000000</ele>
		<time>2015-12-06T01:09:05Z</time>
		</trkpt>

		<trkpt lat="42.873399" lon="-5.372589">
			<ele>1685.000000</ele>
		<time>2015-12-06T01:09:08Z</time>
		</trkpt>

		<trkpt lat="42.873381" lon="-5.372976">
			<ele>1693.000000</ele>
		<time>2015-12-06T01:09:11Z</time>
		</trkpt>

		<trkpt lat="42.873428" lon="-5.373378">
			<ele>1694.000000</ele>
		<time>2015-12-06T01:09:14Z</time>
		</trkpt>

		<trkpt lat="42.873405" lon="-5.373724">
			<ele>1700.000000</ele>
		<time>2015-12-06T01:09:17Z</time>
		</trkpt>

		<trkpt lat="42.873393" lon="-5.374087">
			<ele>1699.000000</ele>
		<time>2015-12-06T01:09:20Z</time>
		</trkpt>

		<trkpt lat="42.873300" lon="-5.374386">
			<ele>1698.000000</ele>
		<time>2015-12-06T01:09:23Z</time>
		</trkpt>

		<trkpt lat="42.873154" lon="-5.374537">
			<ele>1696.000000</ele>
		<time>2015-12-06T01:09:26Z</time>
		</trkpt>

		<trkpt lat="42.873002" lon="-5.374500">
			<ele>1696.000000</ele>
		<time>2015-12-06T01:09:29Z</time>
		</trkpt>

		<trkpt lat="42.872985" lon="-5.374290">
			<ele>1702.000000</ele>
		<time>2015-12-06T01:09:32Z</time>
		</trkpt>

		<trkpt lat="42.873013" lon="-5.374089">
			<ele>1704.000000</ele>
		<time>2015-12-06T01:09:36Z</time>
		</trkpt>

		<trkpt lat="42.873041" lon="-5.373802">
			<ele>1709.000000</ele>
		<time>2015-12-06T01:09:39Z</time>
		</trkpt>

		<trkpt lat="42.873170" lon="-5.373592">
			<ele>1712.000000</ele>
		<time>2015-12-06T01:09:42Z</time>
		</trkpt>

		<trkpt lat="42.873330" lon="-5.373385">
			<ele>1713.000000</ele>
		<time>2015-12-06T01:09:45Z</time>
		</trkpt>

		<trkpt lat="42.873471" lon="-5.373157">
			<ele>1714.000000</ele>
		<time>2015-12-06T01:09:48Z</time>
		</trkpt>

		<trkpt lat="42.873575" lon="-5.372908">
			<ele>1714.000000</ele>
		<time>2015-12-06T01:09:51Z</time>
		</trkpt>

		<trkpt lat="42.873636" lon="-5.372697">
			<ele>1713.000000</ele>
		<time>2015-12-06T01:09:54Z</time>
		</trkpt>

		<trkpt lat="42.873502" lon="-5.372546">
			<ele>1714.000000</ele>
		<time>2015-12-06T01:09:57Z</time>
		</trkpt>

		<trkpt lat="42.873386" lon="-5.372700">
			<ele>1713.000000</ele>
		<time>2015-12-06T01:10:00Z</time>
		</trkpt>

		<trkpt lat="42.873342" lon="-5.372956">
			<ele>1712.000000</ele>
		<time>2015-12-06T01:10:03Z</time>
		</trkpt>

		<trkpt lat="42.873289" lon="-5.373280">
			<ele>1712.000000</ele>
		<time>2015-12-06T01:10:06Z</time>
		</trkpt>

		<trkpt lat="42.873198" lon="-5.373595">
			<ele>1712.000000</ele>
		<time>2015-12-06T01:10:09Z</time>
		</trkpt>

		<trkpt lat="42.873128" lon="-5.373887">
			<ele>1714.000000</ele>
		<time>2015-12-06T01:10:13Z</time>
		</trkpt>

		<trkpt lat="42.873052" lon="-5.374127">
			<ele>1718.000000</ele>
		<time>2015-12-06T01:10:16Z</time>
		</trkpt>

		<trkpt lat="42.872943" lon="-5.374288">
			<ele>1722.000000</ele>
		<time>2015-12-06T01:10:19Z</time>
		</trkpt>

		<trkpt lat="42.872845" lon="-5.374414">
			<ele>1726.000000</ele>
		<time>2015-12-06T01:10:22Z</time>
		</trkpt>

		<trkpt lat="42.872713" lon="-5.374432">
			<ele>1730.000000</ele>
		<time>2015-12-06T01:10:25Z</time>
		</trkpt>

		<trkpt lat="42.872616" lon="-5.374262">
			<ele>1734.000000</ele>
		<time>2015-12-06T01:10:28Z</time>
		</trkpt>

		<trkpt lat="42.872643" lon="-5.373921">
			<ele>1735.000000</ele>
		<time>2015-12-06T01:10:32Z</time>
		</trkpt>

		<trkpt lat="42.872746" lon="-5.373584">
			<ele>1734.000000</ele>
		<time>2015-12-06T01:10:35Z</time>
		</trkpt>

		<trkpt lat="42.872953" lon="-5.373274">
			<ele>1734.000000</ele>
		<time>2015-12-06T01:10:38Z</time>
		</trkpt>

		<trkpt lat="42.873061" lon="-5.372962">
			<ele>1733.000000</ele>
		<time>2015-12-06T01:10:41Z</time>
		</trkpt>

		<trkpt lat="42.873181" lon="-5.372654">
			<ele>1732.000000</ele>
		<time>2015-12-06T01:10:44Z</time>
		</trkpt>

		<trkpt lat="42.873275" lon="-5.372362">
			<ele>1730.000000</ele>
		<time>2015-12-06T01:10:47Z</time>
		</trkpt>

		<trkpt lat="42.873309" lon="-5.372091">
			<ele>1730.000000</ele>
		<time>2015-12-06T01:10:50Z</time>
		</trkpt>

		<trkpt lat="42.873299" lon="-5.371796">
			<ele>1730.000000</ele>
		<time>2015-12-06T01:10:53Z</time>
		</trkpt>

		<trkpt lat="42.873268" lon="-5.371564">
			<ele>1732.000000</ele>
		<time>2015-12-06T01:10:56Z</time>
		</trkpt>

		<trkpt lat="42.873266" lon="-5.371291">
			<ele>1734.000000</ele>
		<time>2015-12-06T01:10:59Z</time>
		</trkpt>

		<trkpt lat="42.873299" lon="-5.370995">
			<ele>1738.000000</ele>
		<time>2015-12-06T01:11:02Z</time>
		</trkpt>

		<trkpt lat="42.873329" lon="-5.370695">
			<ele>1734.000000</ele>
		<time>2015-12-06T01:11:05Z</time>
		</trkpt>

		<trkpt lat="42.873384" lon="-5.370350">
			<ele>1735.000000</ele>
		<time>2015-12-06T01:11:08Z</time>
		</trkpt>

		<trkpt lat="42.873399" lon="-5.370055">
			<ele>1733.000000</ele>
		<time>2015-12-06T01:11:11Z</time>
		</trkpt>

		<trkpt lat="42.873423" lon="-5.369726">
			<ele>1730.000000</ele>
		<time>2015-12-06T01:11:14Z</time>
		</trkpt>

		<trkpt lat="42.873482" lon="-5.369441">
			<ele>1729.000000</ele>
		<time>2015-12-06T01:11:17Z</time>
		</trkpt>

		<trkpt lat="42.873574" lon="-5.369092">
			<ele>1724.000000</ele>
		<time>2015-12-06T01:11:20Z</time>
		</trkpt>

		<trkpt lat="42.873652" lon="-5.368784">
			<ele>1723.000000</ele>
		<time>2015-12-06T01:11:23Z</time>
		</trkpt>

		<trkpt lat="42.873702" lon="-5.368503">
			<ele>1721.000000</ele>
		<time>2015-12-06T01:11:26Z</time>
		</trkpt>

		<trkpt lat="42.873758" lon="-5.368182">
			<ele>1719.000000</ele>
		<time>2015-12-06T01:11:29Z</time>
		</trkpt>

		<trkpt lat="42.873797" lon="-5.367879">
			<ele>1719.000000</ele>
		<time>2015-12-06T01:11:32Z</time>
		</trkpt>

		<trkpt lat="42.873792" lon="-5.367635">
			<ele>1725.000000</ele>
		<time>2015-12-06T01:11:35Z</time>
		</trkpt>

		<trkpt lat="42.873829" lon="-5.367400">
			<ele>1729.000000</ele>
		<time>2015-12-06T01:11:38Z</time>
		</trkpt>

		<trkpt lat="42.873929" lon="-5.367135">
			<ele>1730.000000</ele>
		<time>2015-12-06T01:11:41Z</time>
		</trkpt>

		<trkpt lat="42.874126" lon="-5.366853">
			<ele>1735.000000</ele>
		<time>2015-12-06T01:11:44Z</time>
		</trkpt>

		<trkpt lat="42.874367" lon="-5.366620">
			<ele>1741.000000</ele>
		<time>2015-12-06T01:11:47Z</time>
		</trkpt>

		<trkpt lat="42.874689" lon="-5.366447">
			<ele>1745.000000</ele>
		<time>2015-12-06T01:11:50Z</time>
		</trkpt>

		<trkpt lat="42.875069" lon="-5.366461">
			<ele>1748.000000</ele>
		<time>2015-12-06T01:11:53Z</time>
		</trkpt>

		<trkpt lat="42.875366" lon="-5.366730">
			<ele>1748.000000</ele>
		<time>2015-12-06T01:11:56Z</time>
		</trkpt>

		<trkpt lat="42.875435" lon="-5.367146">
			<ele>1749.000000</ele>
		<time>2015-12-06T01:11:59Z</time>
		</trkpt>

		<trkpt lat="42.875303" lon="-5.367268">
			<ele>1754.000000</ele>
		<time>2015-12-06T01:12:02Z</time>
		</trkpt>

		<trkpt lat="42.875203" lon="-5.367324">
			<ele>1760.000000</ele>
		<time>2015-12-06T01:12:05Z</time>
		</trkpt>

		<trkpt lat="42.875075" lon="-5.367390">
			<ele>1764.000000</ele>
		<time>2015-12-06T01:12:08Z</time>
		</trkpt>

		<trkpt lat="42.874954" lon="-5.367361">
			<ele>1768.000000</ele>
		<time>2015-12-06T01:12:11Z</time>
		</trkpt>

		<trkpt lat="42.874967" lon="-5.367071">
			<ele>1770.000000</ele>
		<time>2015-12-06T01:12:14Z</time>
		</trkpt>

		<trkpt lat="42.875167" lon="-5.366782">
			<ele>1775.000000</ele>
		<time>2015-12-06T01:12:17Z</time>
		</trkpt>

		<trkpt lat="42.875516" lon="-5.366634">
			<ele>1777.000000</ele>
		<time>2015-12-06T01:12:20Z</time>
		</trkpt>

		<trkpt lat="42.875871" lon="-5.366919">
			<ele>1782.000000</ele>
		<time>2015-12-06T01:12:23Z</time>
		</trkpt>

		<trkpt lat="42.876058" lon="-5.367214">
			<ele>1790.000000</ele>
		<time>2015-12-06T01:12:26Z</time>
		</trkpt>

		<trkpt lat="42.876179" lon="-5.367524">
			<ele>1797.000000</ele>
		<time>2015-12-06T01:12:29Z</time>
		</trkpt>

		<trkpt lat="42.876272" lon="-5.367836">
			<ele>1796.000000</ele>
		<time>2015-12-06T01:12:32Z</time>
		</trkpt>

		<trkpt lat="42.876245" lon="-5.368102">
			<ele>1796.000000</ele>
		<time>2015-12-06T01:12:35Z</time>
		</trkpt>

		<trkpt lat="42.876116" lon="-5.368174">
			<ele>1794.000000</ele>
		<time>2015-12-06T01:12:38Z</time>
		</trkpt>

		<trkpt lat="42.875947" lon="-5.368103">
			<ele>1796.000000</ele>
		<time>2015-12-06T01:12:41Z</time>
		</trkpt>

		<trkpt lat="42.875879" lon="-5.367875">
			<ele>1797.000000</ele>
		<time>2015-12-06T01:12:44Z</time>
		</trkpt>

		<trkpt lat="42.875936" lon="-5.367584">
			<ele>1799.000000</ele>
		<time>2015-12-06T01:12:47Z</time>
		</trkpt>

		<trkpt lat="42.876130" lon="-5.367259">
			<ele>1802.000000</ele>
		<time>2015-12-06T01:12:50Z</time>
		</trkpt>

		<trkpt lat="42.876404" lon="-5.367012">
			<ele>1803.000000</ele>
		<time>2015-12-06T01:12:53Z</time>
		</trkpt>

		<trkpt lat="42.876802" lon="-5.366971">
			<ele>1805.000000</ele>
		<time>2015-12-06T01:12:56Z</time>
		</trkpt>

		<trkpt lat="42.877095" lon="-5.367234">
			<ele>1808.000000</ele>
		<time>2015-12-06T01:12:59Z</time>
		</trkpt>

		<trkpt lat="42.877174" lon="-5.367596">
			<ele>1813.000000</ele>
		<time>2015-12-06T01:13:02Z</time>
		</trkpt>

		<trkpt lat="42.877119" lon="-5.367813">
			<ele>1816.000000</ele>
		<time>2015-12-06T01:13:05Z</time>
		</trkpt>

		<trkpt lat="42.876939" lon="-5.367852">
			<ele>1818.000000</ele>
		<time>2015-12-06T01:13:08Z</time>
		</trkpt>

		<trkpt lat="42.876829" lon="-5.367882">
			<ele>1822.000000</ele>
		<time>2015-12-06T01:13:11Z</time>
		</trkpt>

		<trkpt lat="42.876727" lon="-5.367828">
			<ele>1824.000000</ele>
		<time>2015-12-06T01:13:14Z</time>
		</trkpt>

		<trkpt lat="42.876607" lon="-5.367782">
			<ele>1827.000000</ele>
		<time>2015-12-06T01:13:17Z</time>
		</trkpt>

		<trkpt lat="42.876495" lon="-5.367727">
			<ele>1830.000000</ele>
		<time>2015-12-06T01:13:20Z</time>
		</trkpt>

		<trkpt lat="42.876366" lon="-5.367592">
			<ele>1832.000000</ele>
		<time>2015-12-06T01:13:23Z</time>
		</trkpt>

		<trkpt lat="42.876265" lon="-5.367378">
			<ele>1830.000000</ele>
		<time>2015-12-06T01:13:26Z</time>
		</trkpt>

		<trkpt lat="42.876163" lon="-5.367192">
			<ele>1833.000000</ele>
		<time>2015-12-06T01:13:29Z</time>
		</trkpt>

		<trkpt lat="42.876070" lon="-5.366997">
			<ele>1832.000000</ele>
		<time>2015-12-06T01:13:32Z</time>
		</trkpt>

		<trkpt lat="42.875900" lon="-5.366991">
			<ele>1831.000000</ele>
		<time>2015-12-06T01:13:35Z</time>
		</trkpt>

		<trkpt lat="42.875745" lon="-5.367034">
			<ele>1833.000000</ele>
		<time>2015-12-06T01:13:38Z</time>
		</trkpt>

		<trkpt lat="42.875608" lon="-5.367067">
			<ele>1832.000000</ele>
		<time>2015-12-06T01:13:41Z</time>
		</trkpt>

		<trkpt lat="42.875477" lon="-5.367112">
			<ele>1823.000000</ele>
		<time>2015-12-06T01:13:44Z</time>
		</trkpt>

		<trkpt lat="42.875311" lon="-5.367198">
			<ele>1822.000000</ele>
		<time>2015-12-06T01:13:47Z</time>
		</trkpt>

		<trkpt lat="42.875230" lon="-5.367240">
			<ele>1818.000000</ele>
		<time>2015-12-06T01:13:50Z</time>
		</trkpt>

		<trkpt lat="42.875128" lon="-5.367427">
			<ele>1818.000000</ele>
		<time>2015-12-06T01:13:53Z</time>
		</trkpt>

		<trkpt lat="42.875049" lon="-5.367591">
			<ele>1817.000000</ele>
		<time>2015-12-06T01:13:56Z</time>
		</trkpt>

		<trkpt lat="42.874943" lon="-5.367739">
			<ele>1812.000000</ele>
		<time>2015-12-06T01:13:59Z</time>
		</trkpt>

		<trkpt lat="42.874869" lon="-5.368001">
			<ele>1805.000000</ele>
		<time>2015-12-06T01:14:02Z</time>
		</trkpt>

		<trkpt lat="42.874802" lon="-5.368249">
			<ele>1802.000000</ele>
		<time>2015-12-06T01:14:05Z</time>
		</trkpt>

		<trkpt lat="42.874729" lon="-5.368468">
			<ele>1797.000000</ele>
		<time>2015-12-06T01:14:08Z</time>
		</trkpt>

		<trkpt lat="42.874631" lon="-5.368724">
			<ele>1794.000000</ele>
		<time>2015-12-06T01:14:11Z</time>
		</trkpt>

		<trkpt lat="42.874522" lon="-5.368958">
			<ele>1794.000000</ele>
		<time>2015-12-06T01:14:14Z</time>
		</trkpt>

		<trkpt lat="42.874409" lon="-5.369174">
			<ele>1795.000000</ele>
		<time>2015-12-06T01:14:17Z</time>
		</trkpt>

		<trkpt lat="42.874311" lon="-5.369389">
			<ele>1794.000000</ele>
		<time>2015-12-06T01:14:20Z</time>
		</trkpt>

		<trkpt lat="42.874112" lon="-5.369671">
			<ele>1795.000000</ele>
		<time>2015-12-06T01:14:23Z</time>
		</trkpt>

		<trkpt lat="42.874077" lon="-5.369855">
			<ele>1795.000000</ele>
		<time>2015-12-06T01:14:26Z</time>
		</trkpt>

		<trkpt lat="42.874015" lon="-5.370114">
			<ele>1794.000000</ele>
		<time>2015-12-06T01:14:29Z</time>
		</trkpt>

		<trkpt lat="42.873994" lon="-5.370408">
			<ele>1791.000000</ele>
		<time>2015-12-06T01:14:32Z</time>
		</trkpt>

		<trkpt lat="42.873922" lon="-5.370744">
			<ele>1791.000000</ele>
		<time>2015-12-06T01:14:35Z</time>
		</trkpt>

		<trkpt lat="42.873880" lon="-5.371069">
			<ele>1794.000000</ele>
		<time>2015-12-06T01:14:38Z</time>
		</trkpt>

		<trkpt lat="42.873852" lon="-5.371363">
			<ele>1794.000000</ele>
		<time>2015-12-06T01:14:41Z</time>
		</trkpt>

		<trkpt lat="42.873855" lon="-5.371695">
			<ele>1796.000000</ele>
		<time>2015-12-06T01:14:44Z</time>
		</trkpt>

		<trkpt lat="42.873821" lon="-5.371997">
			<ele>1796.000000</ele>
		<time>2015-12-06T01:14:47Z</time>
		</trkpt>

		<trkpt lat="42.873731" lon="-5.372270">
			<ele>1796.000000</ele>
		<time>2015-12-06T01:14:50Z</time>
		</trkpt>

		<trkpt lat="42.873640" lon="-5.372494">
			<ele>1797.000000</ele>
		<time>2015-12-06T01:14:53Z</time>
		</trkpt>

		<trkpt lat="42.873559" lon="-5.372742">
			<ele>1799.000000</ele>
		<time>2015-12-06T01:14:56Z</time>
		</trkpt>

		<trkpt lat="42.873472" lon="-5.372960">
			<ele>1803.000000</ele>
		<time>2015-12-06T01:14:59Z</time>
		</trkpt>

		<trkpt lat="42.873387" lon="-5.373156">
			<ele>1805.000000</ele>
		<time>2015-12-06T01:15:02Z</time>
		</trkpt>

		<trkpt lat="42.873269" lon="-5.373401">
			<ele>1804.000000</ele>
		<time>2015-12-06T01:15:05Z</time>
		</trkpt>

		<trkpt lat="42.873169" lon="-5.373654">
			<ele>1804.000000</ele>
		<time>2015-12-06T01:15:08Z</time>
		</trkpt>

		<trkpt lat="42.873053" lon="-5.373838">
			<ele>1804.000000</ele>
		<time>2015-12-06T01:15:11Z</time>
		</trkpt>

		<trkpt lat="42.872931" lon="-5.374012">
			<ele>1804.000000</ele>
		<time>2015-12-06T01:15:14Z</time>
		</trkpt>

		<trkpt lat="42.872783" lon="-5.374162">
			<ele>1805.000000</ele>
		<time>2015-12-06T01:15:17Z</time>
		</trkpt>

		<trkpt lat="42.872634" lon="-5.374263">
			<ele>1809.000000</ele>
		<time>2015-12-06T01:15:20Z</time>
		</trkpt>

		<trkpt lat="42.872484" lon="-5.374338">
			<ele>1809.000000</ele>
		<time>2015-12-06T01:15:23Z</time>
		</trkpt>

		<trkpt lat="42.872318" lon="-5.374219">
			<ele>1812.000000</ele>
		<time>2015-12-06T01:15:26Z</time>
		</trkpt>

		<trkpt lat="42.872187" lon="-5.374131">
			<ele>1814.000000</ele>
		<time>2015-12-06T01:15:29Z</time>
		</trkpt>

		<trkpt lat="42.872027" lon="-5.374008">
			<ele>1821.000000</ele>
		<time>2015-12-06T01:15:32Z</time>
		</trkpt>

		<trkpt lat="42.871907" lon="-5.373859">
			<ele>1825.000000</ele>
		<time>2015-12-06T01:15:35Z</time>
		</trkpt>

		<trkpt lat="42.871823" lon="-5.373703">
			<ele>1822.000000</ele>
		<time>2015-12-06T01:15:38Z</time>
		</trkpt>

		<trkpt lat="42.871721" lon="-5.373487">
			<ele>1821.000000</ele>
		<time>2015-12-06T01:15:41Z</time>
		</trkpt>

		<trkpt lat="42.871635" lon="-5.373269">
			<ele>1821.000000</ele>
		<time>2015-12-06T01:15:44Z</time>
		</trkpt>

		<trkpt lat="42.871520" lon="-5.372987">
			<ele>1821.000000</ele>
		<time>2015-12-06T01:15:47Z</time>
		</trkpt>

		<trkpt lat="42.871420" lon="-5.372803">
			<ele>1824.000000</ele>
		<time>2015-12-06T01:15:50Z</time>
		</trkpt>

		<trkpt lat="42.871269" lon="-5.372711">
			<ele>1831.000000</ele>
		<time>2015-12-06T01:15:53Z</time>
		</trkpt>

		<trkpt lat="42.871140" lon="-5.372739">
			<ele>1836.000000</ele>
		<time>2015-12-06T01:15:56Z</time>
		</trkpt>

		<trkpt lat="42.870965" lon="-5.372745">
			<ele>1839.000000</ele>
		<time>2015-12-06T01:15:59Z</time>
		</trkpt>

		<trkpt lat="42.870856" lon="-5.372754">
			<ele>1845.000000</ele>
		<time>2015-12-06T01:16:02Z</time>
		</trkpt>

		<trkpt lat="42.870690" lon="-5.372696">
			<ele>1849.000000</ele>
		<time>2015-12-06T01:16:05Z</time>
		</trkpt>

		<trkpt lat="42.870502" lon="-5.372654">
			<ele>1854.000000</ele>
		<time>2015-12-06T01:16:08Z</time>
		</trkpt>

		<trkpt lat="42.870325" lon="-5.372659">
			<ele>1859.000000</ele>
		<time>2015-12-06T01:16:11Z</time>
		</trkpt>

		<trkpt lat="42.870178" lon="-5.372752">
			<ele>1864.000000</ele>
		<time>2015-12-06T01:16:14Z</time>
		</trkpt>

		<trkpt lat="42.870032" lon="-5.372872">
			<ele>1871.000000</ele>
		<time>2015-12-06T01:16:17Z</time>
		</trkpt>

		<trkpt lat="42.869984" lon="-5.373120">
			<ele>1873.000000</ele>
		<time>2015-12-06T01:16:20Z</time>
		</trkpt>

		<trkpt lat="42.870094" lon="-5.373413">
			<ele>1875.000000</ele>
		<time>2015-12-06T01:16:23Z</time>
		</trkpt>

		<trkpt lat="42.870368" lon="-5.373547">
			<ele>1877.000000</ele>
		<time>2015-12-06T01:16:26Z</time>
		</trkpt>

		<trkpt lat="42.870696" lon="-5.373494">
			<ele>1876.000000</ele>
		<time>2015-12-06T01:16:29Z</time>
		</trkpt>

		<trkpt lat="42.870935" lon="-5.373156">
			<ele>1880.000000</ele>
		<time>2015-12-06T01:16:32Z</time>
		</trkpt>

		<trkpt lat="42.871064" lon="-5.372767">
			<ele>1884.000000</ele>
		<time>2015-12-06T01:16:35Z</time>
		</trkpt>

		<trkpt lat="42.871155" lon="-5.372386">
			<ele>1889.000000</ele>
		<time>2015-12-06T01:16:38Z</time>
		</trkpt>

		<trkpt lat="42.871140" lon="-5.372043">
			<ele>1895.000000</ele>
		<time>2015-12-06T01:16:41Z</time>
		</trkpt>

		<trkpt lat="42.871050" lon="-5.371763">
			<ele>1898.000000</ele>
		<time>2015-12-06T01:16:44Z</time>
		</trkpt>

		<trkpt lat="42.870860" lon="-5.371582">
			<ele>1903.000000</ele>
		<time>2015-12-06T01:16:47Z</time>
		</trkpt>

		<trkpt lat="42.870728" lon="-5.371652">
			<ele>1908.000000</ele>
		<time>2015-12-06T01:16:50Z</time>
		</trkpt>

		<trkpt lat="42.870672" lon="-5.371794">
			<ele>1911.000000</ele>
		<time>2015-12-06T01:16:53Z</time>
		</trkpt>

		<trkpt lat="42.870702" lon="-5.372088">
			<ele>1915.000000</ele>
		<time>2015-12-06T01:16:56Z</time>
		</trkpt>

		<trkpt lat="42.870935" lon="-5.372257">
			<ele>1918.000000</ele>
		<time>2015-12-06T01:16:59Z</time>
		</trkpt>

		<trkpt lat="42.871247" lon="-5.372436">
			<ele>1918.000000</ele>
		<time>2015-12-06T01:17:02Z</time>
		</trkpt>

		<trkpt lat="42.871593" lon="-5.372378">
			<ele>1920.000000</ele>
		<time>2015-12-06T01:17:05Z</time>
		</trkpt>

		<trkpt lat="42.871888" lon="-5.372096">
			<ele>1922.000000</ele>
		<time>2015-12-06T01:17:08Z</time>
		</trkpt>

		<trkpt lat="42.872055" lon="-5.371755">
			<ele>1926.000000</ele>
		<time>2015-12-06T01:17:11Z</time>
		</trkpt>

		<trkpt lat="42.872127" lon="-5.371369">
			<ele>1926.000000</ele>
		<time>2015-12-06T01:17:14Z</time>
		</trkpt>

		<trkpt lat="42.872032" lon="-5.371050">
			<ele>1928.000000</ele>
		<time>2015-12-06T01:17:17Z</time>
		</trkpt>

		<trkpt lat="42.871921" lon="-5.370842">
			<ele>1931.000000</ele>
		<time>2015-12-06T01:17:20Z</time>
		</trkpt>

		<trkpt lat="42.871745" lon="-5.370705">
			<ele>1933.000000</ele>
		<time>2015-12-06T01:17:23Z</time>
		</trkpt>

		<trkpt lat="42.871593" lon="-5.370583">
			<ele>1934.000000</ele>
		<time>2015-12-06T01:17:26Z</time>
		</trkpt>

		<trkpt lat="42.871444" lon="-5.370501">
			<ele>1938.000000</ele>
		<time>2015-12-06T01:17:29Z</time>
		</trkpt>

		<trkpt lat="42.871291" lon="-5.370537">
			<ele>1944.000000</ele>
		<time>2015-12-06T01:17:32Z</time>
		</trkpt>

		<trkpt lat="42.871229" lon="-5.370692">
			<ele>1949.000000</ele>
		<time>2015-12-06T01:17:35Z</time>
		</trkpt>

		<trkpt lat="42.871285" lon="-5.370916">
			<ele>1955.000000</ele>
		<time>2015-12-06T01:17:38Z</time>
		</trkpt>

		<trkpt lat="42.871473" lon="-5.371135">
			<ele>1959.000000</ele>
		<time>2015-12-06T01:17:41Z</time>
		</trkpt>

		<trkpt lat="42.871762" lon="-5.371224">
			<ele>1963.000000</ele>
		<time>2015-12-06T01:17:44Z</time>
		</trkpt>

		<trkpt lat="42.872056" lon="-5.371105">
			<ele>1966.000000</ele>
		<time>2015-12-06T01:17:47Z</time>
		</trkpt>

		<trkpt lat="42.872226" lon="-5.370768">
			<ele>1968.000000</ele>
		<time>2015-12-06T01:17:50Z</time>
		</trkpt>

		<trkpt lat="42.872241" lon="-5.370381">
			<ele>1970.000000</ele>
		<time>2015-12-06T01:17:53Z</time>
		</trkpt>

		<trkpt lat="42.872148" lon="-5.370095">
			<ele>1972.000000</ele>
		<time>2015-12-06T01:17:56Z</time>
		</trkpt>

		<trkpt lat="42.871976" lon="-5.369905">
			<ele>1975.000000</ele>
		<time>2015-12-06T01:17:59Z</time>
		</trkpt>

		<trkpt lat="42.871836" lon="-5.369863">
			<ele>1977.000000</ele>
		<time>2015-12-06T01:18:02Z</time>
		</trkpt>

		<trkpt lat="42.871778" lon="-5.369980">
			<ele>1980.000000</ele>
		<time>2015-12-06T01:18:05Z</time>
		</trkpt>

		<trkpt lat="42.871842" lon="-5.370172">
			<ele>1980.000000</ele>
		<time>2015-12-06T01:18:08Z</time>
		</trkpt>

		<trkpt lat="42.872067" lon="-5.370378">
			<ele>1983.000000</ele>
		<time>2015-12-06T01:18:11Z</time>
		</trkpt>

		<trkpt lat="42.872311" lon="-5.370508">
			<ele>1987.000000</ele>
		<time>2015-12-06T01:18:14Z</time>
		</trkpt>

		<trkpt lat="42.872536" lon="-5.370677">
			<ele>1987.000000</ele>
		<time>2015-12-06T01:18:17Z</time>
		</trkpt>

		<trkpt lat="42.872679" lon="-5.370950">
			<ele>1988.000000</ele>
		<time>2015-12-06T01:18:20Z</time>
		</trkpt>

		<trkpt lat="42.872730" lon="-5.371180">
			<ele>1987.000000</ele>
		<time>2015-12-06T01:18:23Z</time>
		</trkpt>

		<trkpt lat="42.872675" lon="-5.371338">
			<ele>1987.000000</ele>
		<time>2015-12-06T01:18:26Z</time>
		</trkpt>

		<trkpt lat="42.872567" lon="-5.371467">
			<ele>1989.000000</ele>
		<time>2015-12-06T01:18:29Z</time>
		</trkpt>

		<trkpt lat="42.872422" lon="-5.371541">
			<ele>1989.000000</ele>
		<time>2015-12-06T01:18:32Z</time>
		</trkpt>

		<trkpt lat="42.872262" lon="-5.371588">
			<ele>1993.000000</ele>
		<time>2015-12-06T01:18:35Z</time>
		</trkpt>

		<trkpt lat="42.872113" lon="-5.371566">
			<ele>1998.000000</ele>
		<time>2015-12-06T01:18:38Z</time>
		</trkpt>

		<trkpt lat="42.871955" lon="-5.371547">
			<ele>2005.000000</ele>
		<time>2015-12-06T01:18:41Z</time>
		</trkpt>

		<trkpt lat="42.871834" lon="-5.371451">
			<ele>2008.000000</ele>
		<time>2015-12-06T01:18:44Z</time>
		</trkpt>

		<trkpt lat="42.871681" lon="-5.371453">
			<ele>2008.000000</ele>
		<time>2015-12-06T01:18:47Z</time>
		</trkpt>

		<trkpt lat="42.871523" lon="-5.371397">
			<ele>2005.000000</ele>
		<time>2015-12-06T01:18:51Z</time>
		</trkpt>

		<trkpt lat="42.871392" lon="-5.371299">
			<ele>2006.000000</ele>
		<time>2015-12-06T01:18:54Z</time>
		</trkpt>

		<trkpt lat="42.871262" lon="-5.371133">
			<ele>2004.000000</ele>
		<time>2015-12-06T01:18:57Z</time>
		</trkpt>

		<trkpt lat="42.871154" lon="-5.370947">
			<ele>2002.000000</ele>
		<time>2015-12-06T01:19:00Z</time>
		</trkpt>

		<trkpt lat="42.871021" lon="-5.370774">
			<ele>2000.000000</ele>
		<time>2015-12-06T01:19:03Z</time>
		</trkpt>

		<trkpt lat="42.870933" lon="-5.370475">
			<ele>1999.000000</ele>
		<time>2015-12-06T01:19:06Z</time>
		</trkpt>

		<trkpt lat="42.870976" lon="-5.370101">
			<ele>1998.000000</ele>
		<time>2015-12-06T01:19:09Z</time>
		</trkpt>

		<trkpt lat="42.871067" lon="-5.369732">
			<ele>1994.000000</ele>
		<time>2015-12-06T01:19:12Z</time>
		</trkpt>

		<trkpt lat="42.871285" lon="-5.369378">
			<ele>1991.000000</ele>
		<time>2015-12-06T01:19:15Z</time>
		</trkpt>

		<trkpt lat="42.871561" lon="-5.369130">
			<ele>1988.000000</ele>
		<time>2015-12-06T01:19:18Z</time>
		</trkpt>

		<trkpt lat="42.871843" lon="-5.368864">
			<ele>1984.000000</ele>
		<time>2015-12-06T01:19:21Z</time>
		</trkpt>

		<trkpt lat="42.872071" lon="-5.368483">
			<ele>1978.000000</ele>
		<time>2015-12-06T01:19:24Z</time>
		</trkpt>

		<trkpt lat="42.872187" lon="-5.368130">
			<ele>1976.000000</ele>
		<time>2015-12-06T01:19:27Z</time>
		</trkpt>

		<trkpt lat="42.872118" lon="-5.367852">
			<ele>1974.000000</ele>
		<time>2015-12-06T01:19:30Z</time>
		</trkpt>

		<trkpt lat="42.872002" lon="-5.367783">
			<ele>1968.000000</ele>
		<time>2015-12-06T01:19:33Z</time>
		</trkpt>

		<trkpt lat="42.871815" lon="-5.367678">
			<ele>1963.000000</ele>
		<time>2015-12-06T01:19:36Z</time>
		</trkpt>

		<trkpt lat="42.871618" lon="-5.367601">
			<ele>1961.000000</ele>
		<time>2015-12-06T01:19:39Z</time>
		</trkpt>

		<trkpt lat="42.871455" lon="-5.367509">
			<ele>1957.000000</ele>
		<time>2015-12-06T01:19:42Z</time>
		</trkpt>

		<trkpt lat="42.871272" lon="-5.367493">
			<ele>1957.000000</ele>
		<time>2015-12-06T01:19:45Z</time>
		</trkpt>

		<trkpt lat="42.871120" lon="-5.367507">
			<ele>1955.000000</ele>
		<time>2015-12-06T01:19:48Z</time>
		</trkpt>

		<trkpt lat="42.870970" lon="-5.367606">
			<ele>1955.000000</ele>
		<time>2015-12-06T01:19:51Z</time>
		</trkpt>

		<trkpt lat="42.870837" lon="-5.367613">
			<ele>1956.000000</ele>
		<time>2015-12-06T01:19:54Z</time>
		</trkpt>

		<trkpt lat="42.870710" lon="-5.367677">
			<ele>1953.000000</ele>
		<time>2015-12-06T01:19:57Z</time>
		</trkpt>

		<trkpt lat="42.870574" lon="-5.367738">
			<ele>1954.000000</ele>
		<time>2015-12-06T01:20:00Z</time>
		</trkpt>

		<trkpt lat="42.870461" lon="-5.367750">
			<ele>1948.000000</ele>
		<time>2015-12-06T01:20:03Z</time>
		</trkpt>

		<trkpt lat="42.870274" lon="-5.367784">
			<ele>1945.000000</ele>
		<time>2015-12-06T01:20:06Z</time>
		</trkpt>

		<trkpt lat="42.870123" lon="-5.367866">
			<ele>1943.000000</ele>
		<time>2015-12-06T01:20:09Z</time>
		</trkpt>

		<trkpt lat="42.870015" lon="-5.367880">
			<ele>1937.000000</ele>
		<time>2015-12-06T01:20:12Z</time>
		</trkpt>

		<trkpt lat="42.869855" lon="-5.367989">
			<ele>1933.000000</ele>
		<time>2015-12-06T01:20:15Z</time>
		</trkpt>

		<trkpt lat="42.869718" lon="-5.368069">
			<ele>1935.000000</ele>
		<time>2015-12-06T01:20:18Z</time>
		</trkpt>

		<trkpt lat="42.869550" lon="-5.368060">
			<ele>1933.000000</ele>
		<time>2015-12-06T01:20:21Z</time>
		</trkpt>

		<trkpt lat="42.869384" lon="-5.368055">
			<ele>1931.000000</ele>
		<time>2015-12-06T01:20:24Z</time>
		</trkpt>

		<trkpt lat="42.869171" lon="-5.367963">
			<ele>1933.000000</ele>
		<time>2015-12-06T01:20:27Z</time>
		</trkpt>

		<trkpt lat="42.868964" lon="-5.367829">
			<ele>1934.000000</ele>
		<time>2015-12-06T01:20:30Z</time>
		</trkpt>

		<trkpt lat="42.868770" lon="-5.367771">
			<ele>1929.000000</ele>
		<time>2015-12-06T01:20:33Z</time>
		</trkpt>

		<trkpt lat="42.868583" lon="-5.367661">
			<ele>1929.000000</ele>
		<time>2015-12-06T01:20:36Z</time>
		</trkpt>

		<trkpt lat="42.868428" lon="-5.367466">
			<ele>1926.000000</ele>
		<time>2015-12-06T01:20:39Z</time>
		</trkpt>

		<trkpt lat="42.868336" lon="-5.367117">
			<ele>1925.000000</ele>
		<time>2015-12-06T01:20:42Z</time>
		</trkpt>

		<trkpt lat="42.868325" lon="-5.366737">
			<ele>1920.000000</ele>
		<time>2015-12-06T01:20:45Z</time>
		</trkpt>

		<trkpt lat="42.868365" lon="-5.366372">
			<ele>1918.000000</ele>
		<time>2015-12-06T01:20:48Z</time>
		</trkpt>

		<trkpt lat="42.868557" lon="-5.365987">
			<ele>1916.000000</ele>
		<time>2015-12-06T01:20:51Z</time>
		</trkpt>

		<trkpt lat="42.868735" lon="-5.365606">
			<ele>1916.000000</ele>
		<time>2015-12-06T01:20:54Z</time>
		</trkpt>

		<trkpt lat="42.868868" lon="-5.365177">
			<ele>1909.000000</ele>
		<time>2015-12-06T01:20:57Z</time>
		</trkpt>

		<trkpt lat="42.869029" lon="-5.364759">
			<ele>1904.000000</ele>
		<time>2015-12-06T01:21:00Z</time>
		</trkpt>

		<trkpt lat="42.869119" lon="-5.364381">
			<ele>1900.000000</ele>
		<time>2015-12-06T01:21:03Z</time>
		</trkpt>

		<trkpt lat="42.869113" lon="-5.363993">
			<ele>1898.000000</ele>
		<time>2015-12-06T01:21:06Z</time>
		</trkpt>

		<trkpt lat="42.869092" lon="-5.363620">
			<ele>1896.000000</ele>
		<time>2015-12-06T01:21:09Z</time>
		</trkpt>

		<trkpt lat="42.869032" lon="-5.363220">
			<ele>1892.000000</ele>
		<time>2015-12-06T01:21:12Z</time>
		</trkpt>

		<trkpt lat="42.868947" lon="-5.362881">
			<ele>1886.000000</ele>
		<time>2015-12-06T01:21:15Z</time>
		</trkpt>

		<trkpt lat="42.868811" lon="-5.362523">
			<ele>1883.000000</ele>
		<time>2015-12-06T01:21:18Z</time>
		</trkpt>

		<trkpt lat="42.868687" lon="-5.362202">
			<ele>1880.000000</ele>
		<time>2015-12-06T01:21:21Z</time>
		</trkpt>

		<trkpt lat="42.868532" lon="-5.361878">
			<ele>1875.000000</ele>
		<time>2015-12-06T01:21:24Z</time>
		</trkpt>

		<trkpt lat="42.868346" lon="-5.361603">
			<ele>1871.000000</ele>
		<time>2015-12-06T01:21:27Z</time>
		</trkpt>

		<trkpt lat="42.868149" lon="-5.361373">
			<ele>1867.000000</ele>
		<time>2015-12-06T01:21:30Z</time>
		</trkpt>

		<trkpt lat="42.867959" lon="-5.361176">
			<ele>1862.000000</ele>
		<time>2015-12-06T01:21:33Z</time>
		</trkpt>

		<trkpt lat="42.867774" lon="-5.360967">
			<ele>1861.000000</ele>
		<time>2015-12-06T01:21:36Z</time>
		</trkpt>

		<trkpt lat="42.867581" lon="-5.360797">
			<ele>1858.000000</ele>
		<time>2015-12-06T01:21:39Z</time>
		</trkpt>

		<trkpt lat="42.867401" lon="-5.360594">
			<ele>1855.000000</ele>
		<time>2015-12-06T01:21:42Z</time>
		</trkpt>

		<trkpt lat="42.867226" lon="-5.360364">
			<ele>1853.000000</ele>
		<time>2015-12-06T01:21:45Z</time>
		</trkpt>

		<trkpt lat="42.867018" lon="-5.360223">
			<ele>1848.000000</ele>
		<time>2015-12-06T01:21:48Z</time>
		</trkpt>

		<trkpt lat="42.866801" lon="-5.360189">
			<ele>1846.000000</ele>
		<time>2015-12-06T01:21:51Z</time>
		</trkpt>

		<trkpt lat="42.866576" lon="-5.360103">
			<ele>1840.000000</ele>
		<time>2015-12-06T01:21:54Z</time>
		</trkpt>

		<trkpt lat="42.866372" lon="-5.360007">
			<ele>1834.000000</ele>
		<time>2015-12-06T01:21:57Z</time>
		</trkpt>

		<trkpt lat="42.866158" lon="-5.359860">
			<ele>1832.000000</ele>
		<time>2015-12-06T01:22:00Z</time>
		</trkpt>

		<trkpt lat="42.865934" lon="-5.359649">
			<ele>1825.000000</ele>
		<time>2015-12-06T01:22:03Z</time>
		</trkpt>

		<trkpt lat="42.865721" lon="-5.359409">
			<ele>1821.000000</ele>
		<time>2015-12-06T01:22:06Z</time>
		</trkpt>

		<trkpt lat="42.865571" lon="-5.359108">
			<ele>1813.000000</ele>
		<time>2015-12-06T01:22:09Z</time>
		</trkpt>

		<trkpt lat="42.865442" lon="-5.358768">
			<ele>1810.000000</ele>
		<time>2015-12-06T01:22:12Z</time>
		</trkpt>

		<trkpt lat="42.865262" lon="-5.358519">
			<ele>1808.000000</ele>
		<time>2015-12-06T01:22:15Z</time>
		</trkpt>

		<trkpt lat="42.865060" lon="-5.358302">
			<ele>1804.000000</ele>
		<time>2015-12-06T01:22:18Z</time>
		</trkpt>

		<trkpt lat="42.864856" lon="-5.358193">
			<ele>1796.000000</ele>
		<time>2015-12-06T01:22:21Z</time>
		</trkpt>

		<trkpt lat="42.864645" lon="-5.358040">
			<ele>1791.000000</ele>
		<time>2015-12-06T01:22:24Z</time>
		</trkpt>

		<trkpt lat="42.864446" lon="-5.357921">
			<ele>1786.000000</ele>
		<time>2015-12-06T01:22:27Z</time>
		</trkpt>

		<trkpt lat="42.864229" lon="-5.357834">
			<ele>1780.000000</ele>
		<time>2015-12-06T01:22:30Z</time>
		</trkpt>

		<trkpt lat="42.863991" lon="-5.357759">
			<ele>1776.000000</ele>
		<time>2015-12-06T01:22:33Z</time>
		</trkpt>

		<trkpt lat="42.863779" lon="-5.357754">
			<ele>1777.000000</ele>
		<time>2015-12-06T01:22:36Z</time>
		</trkpt>

		<trkpt lat="42.863568" lon="-5.357802">
			<ele>1774.000000</ele>
		<time>2015-12-06T01:22:39Z</time>
		</trkpt>

		<trkpt lat="42.863388" lon="-5.357880">
			<ele>1769.000000</ele>
		<time>2015-12-06T01:22:42Z</time>
		</trkpt>

		<trkpt lat="42.863151" lon="-5.357921">
			<ele>1767.000000</ele>
		<time>2015-12-06T01:22:45Z</time>
		</trkpt>

		<trkpt lat="42.862956" lon="-5.357940">
			<ele>1762.000000</ele>
		<time>2015-12-06T01:22:48Z</time>
		</trkpt>

		<trkpt lat="42.862771" lon="-5.357953">
			<ele>1758.000000</ele>
		<time>2015-12-06T01:22:51Z</time>
		</trkpt>

		<trkpt lat="42.862597" lon="-5.358022">
			<ele>1756.000000</ele>
		<time>2015-12-06T01:22:54Z</time>
		</trkpt>

		<trkpt lat="42.862445" lon="-5.358081">
			<ele>1753.000000</ele>
		<time>2015-12-06T01:22:57Z</time>
		</trkpt>

		<trkpt lat="42.862286" lon="-5.358163">
			<ele>1749.000000</ele>
		<time>2015-12-06T01:23:00Z</time>
		</trkpt>

		<trkpt lat="42.862138" lon="-5.358250">
			<ele>1746.000000</ele>
		<time>2015-12-06T01:23:03Z</time>
		</trkpt>

		<trkpt lat="42.861982" lon="-5.358362">
			<ele>1747.000000</ele>
		<time>2015-12-06T01:23:06Z</time>
		</trkpt>

		<trkpt lat="42.861823" lon="-5.358405">
			<ele>1745.000000</ele>
		<time>2015-12-06T01:23:09Z</time>
		</trkpt>

		<trkpt lat="42.861630" lon="-5.358463">
			<ele>1743.000000</ele>
		<time>2015-12-06T01:23:12Z</time>
		</trkpt>

		<trkpt lat="42.861455" lon="-5.358460">
			<ele>1740.000000</ele>
		<time>2015-12-06T01:23:15Z</time>
		</trkpt>

		<trkpt lat="42.861297" lon="-5.358510">
			<ele>1738.000000</ele>
		<time>2015-12-06T01:23:18Z</time>
		</trkpt>

		<trkpt lat="42.861161" lon="-5.358668">
			<ele>1734.000000</ele>
		<time>2015-12-06T01:23:21Z</time>
		</trkpt>

		<trkpt lat="42.861103" lon="-5.358890">
			<ele>1726.000000</ele>
		<time>2015-12-06T01:23:24Z</time>
		</trkpt>

		<trkpt lat="42.861103" lon="-5.359198">
			<ele>1726.000000</ele>
		<time>2015-12-06T01:23:27Z</time>
		</trkpt>

		<trkpt lat="42.861230" lon="-5.359463">
			<ele>1724.000000</ele>
		<time>2015-12-06T01:23:30Z</time>
		</trkpt>

		<trkpt lat="42.861445" lon="-5.359710">
			<ele>1718.000000</ele>
		<time>2015-12-06T01:23:33Z</time>
		</trkpt>

		<trkpt lat="42.861712" lon="-5.359899">
			<ele>1717.000000</ele>
		<time>2015-12-06T01:23:36Z</time>
		</trkpt>

		<trkpt lat="42.861946" lon="-5.360129">
			<ele>1712.000000</ele>
		<time>2015-12-06T01:23:39Z</time>
		</trkpt>

		<trkpt lat="42.862212" lon="-5.360378">
			<ele>1708.000000</ele>
		<time>2015-12-06T01:23:42Z</time>
		</trkpt>

		<trkpt lat="42.862439" lon="-5.360612">
			<ele>1704.000000</ele>
		<time>2015-12-06T01:23:45Z</time>
		</trkpt>

		<trkpt lat="42.862653" lon="-5.360873">
			<ele>1702.000000</ele>
		<time>2015-12-06T01:23:48Z</time>
		</trkpt>

		<trkpt lat="42.862869" lon="-5.361122">
			<ele>1701.000000</ele>
		<time>2015-12-06T01:23:51Z</time>
		</trkpt>

		<trkpt lat="42.863083" lon="-5.361366">
			<ele>1698.000000</ele>
		<time>2015-12-06T01:23:54Z</time>
		</trkpt>

		<trkpt lat="42.863332" lon="-5.361587">
			<ele>1697.000000</ele>
		<time>2015-12-06T01:23:57Z</time>
		</trkpt>

		<trkpt lat="42.863618" lon="-5.361797">
			<ele>1695.000000</ele>
		<time>2015-12-06T01:24:00Z</time>
		</trkpt>

		<trkpt lat="42.863911" lon="-5.361961">
			<ele>1692.000000</ele>
		<time>2015-12-06T01:24:03Z</time>
		</trkpt>

		<trkpt lat="42.864205" lon="-5.362130">
			<ele>1686.000000</ele>
		<time>2015-12-06T01:24:06Z</time>
		</trkpt>

		<trkpt lat="42.864507" lon="-5.362266">
			<ele>1682.000000</ele>
		<time>2015-12-06T01:24:09Z</time>
		</trkpt>

		<trkpt lat="42.864806" lon="-5.362413">
			<ele>1679.000000</ele>
		<time>2015-12-06T01:24:12Z</time>
		</trkpt>

		<trkpt lat="42.865090" lon="-5.362555">
			<ele>1679.000000</ele>
		<time>2015-12-06T01:24:15Z</time>
		</trkpt>

		<trkpt lat="42.865346" lon="-5.362671">
			<ele>1678.000000</ele>
		<time>2015-12-06T01:24:18Z</time>
		</trkpt>

		<trkpt lat="42.865608" lon="-5.362794">
			<ele>1677.000000</ele>
		<time>2015-12-06T01:24:21Z</time>
		</trkpt>

		<trkpt lat="42.865895" lon="-5.363008">
			<ele>1680.000000</ele>
		<time>2015-12-06T01:24:24Z</time>
		</trkpt>

		<trkpt lat="42.866122" lon="-5.363231">
			<ele>1683.000000</ele>
		<time>2015-12-06T01:24:27Z</time>
		</trkpt>

		<trkpt lat="42.866233" lon="-5.363545">
			<ele>1683.000000</ele>
		<time>2015-12-06T01:24:30Z</time>
		</trkpt>

		<trkpt lat="42.866165" lon="-5.363708">
			<ele>1682.000000</ele>
		<time>2015-12-06T01:24:33Z</time>
		</trkpt>

		<trkpt lat="42.865995" lon="-5.363600">
			<ele>1686.000000</ele>
		<time>2015-12-06T01:24:36Z</time>
		</trkpt>

		<trkpt lat="42.865956" lon="-5.363283">
			<ele>1690.000000</ele>
		<time>2015-12-06T01:24:39Z</time>
		</trkpt>

		<trkpt lat="42.866164" lon="-5.362911">
			<ele>1691.000000</ele>
		<time>2015-12-06T01:24:42Z</time>
		</trkpt>

		<trkpt lat="42.866504" lon="-5.362789">
			<ele>1693.000000</ele>
		<time>2015-12-06T01:24:45Z</time>
		</trkpt>

		<trkpt lat="42.866810" lon="-5.362966">
			<ele>1693.000000</ele>
		<time>2015-12-06T01:24:48Z</time>
		</trkpt>

		<trkpt lat="42.866884" lon="-5.363257">
			<ele>1694.000000</ele>
		<time>2015-12-06T01:24:51Z</time>
		</trkpt>

		<trkpt lat="42.866786" lon="-5.363429">
			<ele>1697.000000</ele>
		<time>2015-12-06T01:24:54Z</time>
		</trkpt>

		<trkpt lat="42.866648" lon="-5.363504">
			<ele>1696.000000</ele>
		<time>2015-12-06T01:24:57Z</time>
		</trkpt>

		<trkpt lat="42.866497" lon="-5.363369">
			<ele>1701.000000</ele>
		<time>2015-12-06T01:25:00Z</time>
		</trkpt>

		<trkpt lat="42.866488" lon="-5.362998">
			<ele>1703.000000</ele>
		<time>2015-12-06T01:25:03Z</time>
		</trkpt>

		<trkpt lat="42.866694" lon="-5.362652">
			<ele>1706.000000</ele>
		<time>2015-12-06T01:25:06Z</time>
		</trkpt>

		<trkpt lat="42.867032" lon="-5.362472">
			<ele>1710.000000</ele>
		<time>2015-12-06T01:25:09Z</time>
		</trkpt>

		<trkpt lat="42.867367" lon="-5.362549">
			<ele>1710.000000</ele>
		<time>2015-12-06T01:25:12Z</time>
		</trkpt>

		<trkpt lat="42.867522" lon="-5.362835">
			<ele>1714.000000</ele>
		<time>2015-12-06T01:25:15Z</time>
		</trkpt>

		<trkpt lat="42.867507" lon="-5.363113">
			<ele>1712.000000</ele>
		<time>2015-12-06T01:25:18Z</time>
		</trkpt>

		<trkpt lat="42.867408" lon="-5.363265">
			<ele>1715.000000</ele>
		<time>2015-12-06T01:25:21Z</time>
		</trkpt>

		<trkpt lat="42.867264" lon="-5.363176">
			<ele>1716.000000</ele>
		<time>2015-12-06T01:25:24Z</time>
		</trkpt>

		<trkpt lat="42.867148" lon="-5.362957">
			<ele>1718.000000</ele>
		<time>2015-12-06T01:25:27Z</time>
		</trkpt>

		<trkpt lat="42.867149" lon="-5.362643">
			<ele>1719.000000</ele>
		<time>2015-12-06T01:25:30Z</time>
		</trkpt>

		<trkpt lat="42.867402" lon="-5.362291">
			<ele>1720.000000</ele>
		<time>2015-12-06T01:25:33Z</time>
		</trkpt>

		<trkpt lat="42.867723" lon="-5.362160">
			<ele>1720.000000</ele>
		<time>2015-12-06T01:25:36Z</time>
		</trkpt>

		<trkpt lat="42.868070" lon="-5.362240">
			<ele>1721.000000</ele>
		<time>2015-12-06T01:25:39Z</time>
		</trkpt>

		<trkpt lat="42.868285" lon="-5.362534">
			<ele>1722.000000</ele>
		<time>2015-12-06T01:25:42Z</time>
		</trkpt>

		<trkpt lat="42.868350" lon="-5.362809">
			<ele>1722.000000</ele>
		<time>2015-12-06T01:25:45Z</time>
		</trkpt>

		<trkpt lat="42.868282" lon="-5.363004">
			<ele>1722.000000</ele>
		<time>2015-12-06T01:25:48Z</time>
		</trkpt>

		<trkpt lat="42.868137" lon="-5.362974">
			<ele>1725.000000</ele>
		<time>2015-12-06T01:25:51Z</time>
		</trkpt>

		<trkpt lat="42.868039" lon="-5.362754">
			<ele>1728.000000</ele>
		<time>2015-12-06T01:25:54Z</time>
		</trkpt>

		<trkpt lat="42.868138" lon="-5.362350">
			<ele>1729.000000</ele>
		<time>2015-12-06T01:25:57Z</time>
		</trkpt>

		<trkpt lat="42.868394" lon="-5.362062">
			<ele>1730.000000</ele>
		<time>2015-12-06T01:26:00Z</time>
		</trkpt>

		<trkpt lat="42.868731" lon="-5.361882">
			<ele>1729.000000</ele>
		<time>2015-12-06T01:26:03Z</time>
		</trkpt>

		<trkpt lat="42.869072" lon="-5.361929">
			<ele>1732.000000</ele>
		<time>2015-12-06T01:26:06Z</time>
		</trkpt>

		<trkpt lat="42.869351" lon="-5.362134">
			<ele>1731.000000</ele>
		<time>2015-12-06T01:26:09Z</time>
		</trkpt>

		<trkpt lat="42.869453" lon="-5.362384">
			<ele>1731.000000</ele>
		<time>2015-12-06T01:26:12Z</time>
		</trkpt>

		<trkpt lat="42.869470" lon="-5.362602">
			<ele>1730.000000</ele>
		<time>2015-12-06T01:26:15Z</time>
		</trkpt>

		<trkpt lat="42.869407" lon="-5.362773">
			<ele>1732.000000</ele>
		<time>2015-12-06T01:26:18Z</time>
		</trkpt>

		<trkpt lat="42.869279" lon="-5.362744">
			<ele>1734.000000</ele>
		<time>2015-12-06T01:26:21Z</time>
		</trkpt>

		<trkpt lat="42.869155" lon="-5.362602">
			<ele>1737.000000</ele>
		<time>2015-12-06T01:26:24Z</time>
		</trkpt>

		<trkpt lat="42.869155" lon="-5.362331">
			<ele>1738.000000</ele>
		<time>2015-12-06T01:26:27Z</time>
		</trkpt>

		<trkpt lat="42.869302" lon="-5.361968">
			<ele>1734.000000</ele>
		<time>2015-12-06T01:26:30Z</time>
		</trkpt>

		<trkpt lat="42.869657" lon="-5.361749">
			<ele>1735.000000</ele>
		<time>2015-12-06T01:26:33Z</time>
		</trkpt>

		<trkpt lat="42.870007" lon="-5.361800">
			<ele>1740.000000</ele>
		<time>2015-12-06T01:26:36Z</time>
		</trkpt>

		<trkpt lat="42.870268" lon="-5.361979">
			<ele>1740.000000</ele>
		<time>2015-12-06T01:26:39Z</time>
		</trkpt>

		<trkpt lat="42.870402" lon="-5.362264">
			<ele>1737.000000</ele>
		<time>2015-12-06T01:26:42Z</time>
		</trkpt>

		<trkpt lat="42.870359" lon="-5.362501">
			<ele>1739.000000</ele>
		<time>2015-12-06T01:26:45Z</time>
		</trkpt>

		<trkpt lat="42.870208" lon="-5.362492">
			<ele>1742.000000</ele>
		<time>2015-12-06T01:26:48Z</time>
		</trkpt>

		<trkpt lat="42.870085" lon="-5.362411">
			<ele>1739.000000</ele>
		<time>2015-12-06T01:26:51Z</time>
		</trkpt>

		<trkpt lat="42.869963" lon="-5.362169">
			<ele>1740.000000</ele>
		<time>2015-12-06T01:26:54Z</time>
		</trkpt>

		<trkpt lat="42.870034" lon="-5.361832">
			<ele>1744.000000</ele>
		<time>2015-12-06T01:26:57Z</time>
		</trkpt>

		<trkpt lat="42.870321" lon="-5.361497">
			<ele>1741.000000</ele>
		<time>2015-12-06T01:27:00Z</time>
		</trkpt>

		<trkpt lat="42.870696" lon="-5.361443">
			<ele>1744.000000</ele>
		<time>2015-12-06T01:27:03Z</time>
		</trkpt>

		<trkpt lat="42.871024" lon="-5.361552">
			<ele>1745.000000</ele>
		<time>2015-12-06T01:27:06Z</time>
		</trkpt>

		<trkpt lat="42.871237" lon="-5.361815">
			<ele>1743.000000</ele>
		<time>2015-12-06T01:27:09Z</time>
		</trkpt>

		<trkpt lat="42.871264" lon="-5.362054">
			<ele>1741.000000</ele>
		<time>2015-12-06T01:27:12Z</time>
		</trkpt>

		<trkpt lat="42.871222" lon="-5.362243">
			<ele>1741.000000</ele>
		<time>2015-12-06T01:27:15Z</time>
		</trkpt>

		<trkpt lat="42.871108" lon="-5.362342">
			<ele>1742.000000</ele>
		<time>2015-12-06T01:27:18Z</time>
		</trkpt>

		<trkpt lat="42.870999" lon="-5.362334">
			<ele>1744.000000</ele>
		<time>2015-12-06T01:27:21Z</time>
		</trkpt>

		<trkpt lat="42.870885" lon="-5.362153">
			<ele>1743.000000</ele>
		<time>2015-12-06T01:27:24Z</time>
		</trkpt>

		<trkpt lat="42.870899" lon="-5.361810">
			<ele>1742.000000</ele>
		<time>2015-12-06T01:27:27Z</time>
		</trkpt>

		<trkpt lat="42.871071" lon="-5.361411">
			<ele>1740.000000</ele>
		<time>2015-12-06T01:27:30Z</time>
		</trkpt>

		<trkpt lat="42.871479" lon="-5.361217">
			<ele>1740.000000</ele>
		<time>2015-12-06T01:27:33Z</time>
		</trkpt>

		<trkpt lat="42.871844" lon="-5.361307">
			<ele>1740.000000</ele>
		<time>2015-12-06T01:27:36Z</time>
		</trkpt>

		<trkpt lat="42.872038" lon="-5.361610">
			<ele>1738.000000</ele>
		<time>2015-12-06T01:27:39Z</time>
		</trkpt>

		<trkpt lat="42.872114" lon="-5.361927">
			<ele>1737.000000</ele>
		<time>2015-12-06T01:27:42Z</time>
		</trkpt>

		<trkpt lat="42.872120" lon="-5.362211">
			<ele>1737.000000</ele>
		<time>2015-12-06T01:27:45Z</time>
		</trkpt>

		<trkpt lat="42.872067" lon="-5.362460">
			<ele>1735.000000</ele>
		<time>2015-12-06T01:27:48Z</time>
		</trkpt>

		<trkpt lat="42.871989" lon="-5.362679">
			<ele>1739.000000</ele>
		<time>2015-12-06T01:27:51Z</time>
		</trkpt>

		<trkpt lat="42.871949" lon="-5.362885">
			<ele>1737.000000</ele>
		<time>2015-12-06T01:27:54Z</time>
		</trkpt>

		<trkpt lat="42.871844" lon="-5.363079">
			<ele>1734.000000</ele>
		<time>2015-12-06T01:27:57Z</time>
		</trkpt>

		<trkpt lat="42.871735" lon="-5.363191">
			<ele>1727.000000</ele>
		<time>2015-12-06T01:28:00Z</time>
		</trkpt>

		<trkpt lat="42.871664" lon="-5.363414">
			<ele>1725.000000</ele>
		<time>2015-12-06T01:28:03Z</time>
		</trkpt>

		<trkpt lat="42.871658" lon="-5.363708">
			<ele>1724.000000</ele>
		<time>2015-12-06T01:28:06Z</time>
		</trkpt>

		<trkpt lat="42.871658" lon="-5.364027">
			<ele>1722.000000</ele>
		<time>2015-12-06T01:28:09Z</time>
		</trkpt>

		<trkpt lat="42.871680" lon="-5.364325">
			<ele>1720.000000</ele>
		<time>2015-12-06T01:28:12Z</time>
		</trkpt>

		<trkpt lat="42.871653" lon="-5.364630">
			<ele>1720.000000</ele>
		<time>2015-12-06T01:28:15Z</time>
		</trkpt>

		<trkpt lat="42.871659" lon="-5.364881">
			<ele>1724.000000</ele>
		<time>2015-12-06T01:28:18Z</time>
		</trkpt>

		<trkpt lat="42.871617" lon="-5.365143">
			<ele>1725.000000</ele>
		<time>2015-12-06T01:28:21Z</time>
		</trkpt>

		<trkpt lat="42.871603" lon="-5.365393">
			<ele>1724.000000</ele>
		<time>2015-12-06T01:28:24Z</time>
		</trkpt>

		<trkpt lat="42.871576" lon="-5.365699">
			<ele>1726.000000</ele>
		<time>2015-12-06T01:28:27Z</time>
		</trkpt>

		<trkpt lat="42.871592" lon="-5.366019">
			<ele>1726.000000</ele>
		<time>2015-12-06T01:28:30Z</time>
		</trkpt>

		<trkpt lat="42.871617" lon="-5.366326">
			<ele>1723.000000</ele>
		<time>2015-12-06T01:28:33Z</time>
		</trkpt>

		<trkpt lat="42.871639" lon="-5.366714">
			<ele>1733.000000</ele>
		<time>2015-12-06T01:28:36Z</time>
		</trkpt>

		<trkpt lat="42.871618" lon="-5.366961">
			<ele>1739.000000</ele>
		<time>2015-12-06T01:28:39Z</time>
		</trkpt>

		<trkpt lat="42.871527" lon="-5.367097">
			<ele>1739.000000</ele>
		<time>2015-12-06T01:28:42Z</time>
		</trkpt>

		<trkpt lat="42.871354" lon="-5.367045">
			<ele>1744.000000</ele>
		<time>2015-12-06T01:28:45Z</time>
		</trkpt>

		<trkpt lat="42.871270" lon="-5.366830">
			<ele>1752.000000</ele>
		<time>2015-12-06T01:28:48Z</time>
		</trkpt>

		<trkpt lat="42.871400" lon="-5.366513">
			<ele>1757.000000</ele>
		<time>2015-12-06T01:28:51Z</time>
		</trkpt>

		<trkpt lat="42.871731" lon="-5.366377">
			<ele>1767.000000</ele>
		<time>2015-12-06T01:28:54Z</time>
		</trkpt>

		<trkpt lat="42.872024" lon="-5.366585">
			<ele>1772.000000</ele>
		<time>2015-12-06T01:28:57Z</time>
		</trkpt>

		<trkpt lat="42.872105" lon="-5.366934">
			<ele>1777.000000</ele>
		<time>2015-12-06T01:29:00Z</time>
		</trkpt>

		<trkpt lat="42.872020" lon="-5.367193">
			<ele>1778.000000</ele>
		<time>2015-12-06T01:29:03Z</time>
		</trkpt>

		<trkpt lat="42.871819" lon="-5.367252">
			<ele>1783.000000</ele>
		<time>2015-12-06T01:29:06Z</time>
		</trkpt>

		<trkpt lat="42.871706" lon="-5.367002">
			<ele>1788.000000</ele>
		<time>2015-12-06T01:29:09Z</time>
		</trkpt>

		<trkpt lat="42.871738" lon="-5.366692">
			<ele>1792.000000</ele>
		<time>2015-12-06T01:29:12Z</time>
		</trkpt>

		<trkpt lat="42.871919" lon="-5.366346">
			<ele>1797.000000</ele>
		<time>2015-12-06T01:29:15Z</time>
		</trkpt>

		<trkpt lat="42.872249" lon="-5.366235">
			<ele>1801.000000</ele>
		<time>2015-12-06T01:29:18Z</time>
		</trkpt>

		<trkpt lat="42.872524" lon="-5.366396">
			<ele>1804.000000</ele>
		<time>2015-12-06T01:29:21Z</time>
		</trkpt>

		<trkpt lat="42.872610" lon="-5.366693">
			<ele>1808.000000</ele>
		<time>2015-12-06T01:29:24Z</time>
		</trkpt>

		<trkpt lat="42.872499" lon="-5.366768">
			<ele>1813.000000</ele>
		<time>2015-12-06T01:29:27Z</time>
		</trkpt>

		<trkpt lat="42.872383" lon="-5.366593">
			<ele>1821.000000</ele>
		<time>2015-12-06T01:29:30Z</time>
		</trkpt>

		<trkpt lat="42.872373" lon="-5.366275">
			<ele>1824.000000</ele>
		<time>2015-12-06T01:29:33Z</time>
		</trkpt>

		<trkpt lat="42.872648" lon="-5.366001">
			<ele>1822.000000</ele>
		<time>2015-12-06T01:29:36Z</time>
		</trkpt>

		<trkpt lat="42.873011" lon="-5.366002">
			<ele>1823.000000</ele>
		<time>2015-12-06T01:29:39Z</time>
		</trkpt>

		<trkpt lat="42.873171" lon="-5.366288">
			<ele>1828.000000</ele>
		<time>2015-12-06T01:29:42Z</time>
		</trkpt>

		<trkpt lat="42.873183" lon="-5.366559">
			<ele>1830.000000</ele>
		<time>2015-12-06T01:29:45Z</time>
		</trkpt>

		<trkpt lat="42.873083" lon="-5.366755">
			<ele>1834.000000</ele>
		<time>2015-12-06T01:29:48Z</time>
		</trkpt>

		<trkpt lat="42.872916" lon="-5.366681">
			<ele>1839.000000</ele>
		<time>2015-12-06T01:29:51Z</time>
		</trkpt>

		<trkpt lat="42.872834" lon="-5.366402">
			<ele>1843.000000</ele>
		<time>2015-12-06T01:29:54Z</time>
		</trkpt>

		<trkpt lat="42.872944" lon="-5.366005">
			<ele>1843.000000</ele>
		<time>2015-12-06T01:29:57Z</time>
		</trkpt>

		<trkpt lat="42.873194" lon="-5.365699">
			<ele>1844.000000</ele>
		<time>2015-12-06T01:30:00Z</time>
		</trkpt>

		<trkpt lat="42.873582" lon="-5.365638">
			<ele>1843.000000</ele>
		<time>2015-12-06T01:30:03Z</time>
		</trkpt>

		<trkpt lat="42.873782" lon="-5.365929">
			<ele>1846.000000</ele>
		<time>2015-12-06T01:30:06Z</time>
		</trkpt>

		<trkpt lat="42.873808" lon="-5.366220">
			<ele>1849.000000</ele>
		<time>2015-12-06T01:30:09Z</time>
		</trkpt>

		<trkpt lat="42.873693" lon="-5.366376">
			<ele>1850.000000</ele>
		<time>2015-12-06T01:30:12Z</time>
		</trkpt>

		<trkpt lat="42.873540" lon="-5.366313">
			<ele>1854.000000</ele>
		<time>2015-12-06T01:30:15Z</time>
		</trkpt>

		<trkpt lat="42.873474" lon="-5.366009">
			<ele>1859.000000</ele>
		<time>2015-12-06T01:30:18Z</time>
		</trkpt>

		<trkpt lat="42.873590" lon="-5.365593">
			<ele>1860.000000</ele>
		<time>2015-12-06T01:30:21Z</time>
		</trkpt>

		<trkpt lat="42.873958" lon="-5.365391">
			<ele>1860.000000</ele>
		<time>2015-12-06T01:30:24Z</time>
		</trkpt>

		<trkpt lat="42.874336" lon="-5.365486">
			<ele>1860.000000</ele>
		<time>2015-12-06T01:30:27Z</time>
		</trkpt>

		<trkpt lat="42.874539" lon="-5.365820">
			<ele>1858.000000</ele>
		<time>2015-12-06T01:30:30Z</time>
		</trkpt>

		<trkpt lat="42.874531" lon="-5.366108">
			<ele>1860.000000</ele>
		<time>2015-12-06T01:30:33Z</time>
		</trkpt>

		<trkpt lat="42.874405" lon="-5.366197">
			<ele>1861.000000</ele>
		<time>2015-12-06T01:30:36Z</time>
		</trkpt>

		<trkpt lat="42.874317" lon="-5.366331">
			<ele>1864.000000</ele>
		<time>2015-12-06T01:30:39Z</time>
		</trkpt>

		<trkpt lat="42.874202" lon="-5.366347">
			<ele>1865.000000</ele>
		<time>2015-12-06T01:30:42Z</time>
		</trkpt>

		<trkpt lat="42.874079" lon="-5.366366">
			<ele>1868.000000</ele>
		<time>2015-12-06T01:30:45Z</time>
		</trkpt>

		<trkpt lat="42.873994" lon="-5.366368">
			<ele>1867.000000</ele>
		<time>2015-12-06T01:30:48Z</time>
		</trkpt>

		<trkpt lat="42.873942" lon="-5.366154">
			<ele>1862.000000</ele>
		<time>2015-12-06T01:30:51Z</time>
		</trkpt>

		<trkpt lat="42.874002" lon="-5.365792">
			<ele>1863.000000</ele>
		<time>2015-12-06T01:30:54Z</time>
		</trkpt>

		<trkpt lat="42.874207" lon="-5.365487">
			<ele>1863.000000</ele>
		<time>2015-12-06T01:30:57Z</time>
		</trkpt>

		<trkpt lat="42.874554" lon="-5.365389">
			<ele>1864.000000</ele>
		<time>2015-12-06T01:31:00Z</time>
		</trkpt>

		<trkpt lat="42.874877" lon="-5.365600">
			<ele>1862.000000</ele>
		<time>2015-12-06T01:31:03Z</time>
		</trkpt>

		<trkpt lat="42.875093" lon="-5.365962">
			<ele>1862.000000</ele>
		<time>2015-12-06T01:31:06Z</time>
		</trkpt>

		<trkpt lat="42.875092" lon="-5.366274">
			<ele>1862.000000</ele>
		<time>2015-12-06T01:31:09Z</time>
		</trkpt>

		<trkpt lat="42.875032" lon="-5.366489">
			<ele>1863.000000</ele>
		<time>2015-12-06T01:31:12Z</time>
		</trkpt>

		<trkpt lat="42.874938" lon="-5.366536">
			<ele>1865.000000</ele>
		<time>2015-12-06T01:31:15Z</time>
		</trkpt>

		<trkpt lat="42.874839" lon="-5.366564">
			<ele>1869.000000</ele>
		<time>2015-12-06T01:31:18Z</time>
		</trkpt>

		<trkpt lat="42.874745" lon="-5.366594">
			<ele>1871.000000</ele>
		<time>2015-12-06T01:31:21Z</time>
		</trkpt>

		<trkpt lat="42.874630" lon="-5.366625">
			<ele>1871.000000</ele>
		<time>2015-12-06T01:31:24Z</time>
		</trkpt>

		<trkpt lat="42.874506" lon="-5.366647">
			<ele>1873.000000</ele>
		<time>2015-12-06T01:31:27Z</time>
		</trkpt>

		<trkpt lat="42.874375" lon="-5.366658">
			<ele>1877.000000</ele>
		<time>2015-12-06T01:31:30Z</time>
		</trkpt>

		<trkpt lat="42.874250" lon="-5.366720">
			<ele>1882.000000</ele>
		<time>2015-12-06T01:31:33Z</time>
		</trkpt>

		<trkpt lat="42.874106" lon="-5.366742">
			<ele>1881.000000</ele>
		<time>2015-12-06T01:31:36Z</time>
		</trkpt>

		<trkpt lat="42.873915" lon="-5.366626">
			<ele>1880.000000</ele>
		<time>2015-12-06T01:31:39Z</time>
		</trkpt>

		<trkpt lat="42.873911" lon="-5.366335">
			<ele>1878.000000</ele>
		<time>2015-12-06T01:31:42Z</time>
		</trkpt>

		<trkpt lat="42.874068" lon="-5.365974">
			<ele>1875.000000</ele>
		<time>2015-12-06T01:31:45Z</time>
		</trkpt>

		<trkpt lat="42.874388" lon="-5.365858">
			<ele>1874.000000</ele>
		<time>2015-12-06T01:31:48Z</time>
		</trkpt>

		<trkpt lat="42.874652" lon="-5.366073">
			<ele>1869.000000</ele>
		<time>2015-12-06T01:31:51Z</time>
		</trkpt>

		<trkpt lat="42.874718" lon="-5.366481">
			<ele>1869.000000</ele>
		<time>2015-12-06T01:31:54Z</time>
		</trkpt>

		<trkpt lat="42.874604" lon="-5.366669">
			<ele>1870.000000</ele>
		<time>2015-12-06T01:31:57Z</time>
		</trkpt>

		<trkpt lat="42.874512" lon="-5.366782">
			<ele>1868.000000</ele>
		<time>2015-12-06T01:32:00Z</time>
		</trkpt>

		<trkpt lat="42.874365" lon="-5.366835">
			<ele>1864.000000</ele>
		<time>2015-12-06T01:32:03Z</time>
		</trkpt>

		<trkpt lat="42.874225" lon="-5.366793">
			<ele>1864.000000</ele>
		<time>2015-12-06T01:32:06Z</time>
		</trkpt>

		<trkpt lat="42.874178" lon="-5.366491">
			<ele>1863.000000</ele>
		<time>2015-12-06T01:32:09Z</time>
		</trkpt>

		<trkpt lat="42.874345" lon="-5.366120">
			<ele>1859.000000</ele>
		<time>2015-12-06T01:32:12Z</time>
		</trkpt>

		<trkpt lat="42.874689" lon="-5.365904">
			<ele>1852.000000</ele>
		<time>2015-12-06T01:32:15Z</time>
		</trkpt>

		<trkpt lat="42.875019" lon="-5.366033">
			<ele>1846.000000</ele>
		<time>2015-12-06T01:32:18Z</time>
		</trkpt>

		<trkpt lat="42.875157" lon="-5.366357">
			<ele>1844.000000</ele>
		<time>2015-12-06T01:32:21Z</time>
		</trkpt>

		<trkpt lat="42.875116" lon="-5.366547">
			<ele>1841.000000</ele>
		<time>2015-12-06T01:32:24Z</time>
		</trkpt>

		<trkpt lat="42.875032" lon="-5.366736">
			<ele>1838.000000</ele>
		<time>2015-12-06T01:32:27Z</time>
		</trkpt>

		<trkpt lat="42.874900" lon="-5.366819">
			<ele>1839.000000</ele>
		<time>2015-12-06T01:32:30Z</time>
		</trkpt>

		<trkpt lat="42.874789" lon="-5.366935">
			<ele>1842.000000</ele>
		<time>2015-12-06T01:32:33Z</time>
		</trkpt>

		<trkpt lat="42.874687" lon="-5.366966">
			<ele>1849.000000</ele>
		<time>2015-12-06T01:32:37Z</time>
		</trkpt>

		<trkpt lat="42.874570" lon="-5.367000">
			<ele>1854.000000</ele>
		<time>2015-12-06T01:32:40Z</time>
		</trkpt>

		<trkpt lat="42.874476" lon="-5.367019">
			<ele>1857.000000</ele>
		<time>2015-12-06T01:32:43Z</time>
		</trkpt>

		<trkpt lat="42.874347" lon="-5.367111">
			<ele>1862.000000</ele>
		<time>2015-12-06T01:32:46Z</time>
		</trkpt>

		<trkpt lat="42.874259" lon="-5.367207">
			<ele>1862.000000</ele>
		<time>2015-12-06T01:32:49Z</time>
		</trkpt>

		<trkpt lat="42.874133" lon="-5.367360">
			<ele>1861.000000</ele>
		<time>2015-12-06T01:32:52Z</time>
		</trkpt>

		<trkpt lat="42.873968" lon="-5.367375">
			<ele>1859.000000</ele>
		<time>2015-12-06T01:32:55Z</time>
		</trkpt>

		<trkpt lat="42.873915" lon="-5.367037">
			<ele>1856.000000</ele>
		<time>2015-12-06T01:32:58Z</time>
		</trkpt>

		<trkpt lat="42.874085" lon="-5.366707">
			<ele>1857.000000</ele>
		<time>2015-12-06T01:33:01Z</time>
		</trkpt>

		<trkpt lat="42.874354" lon="-5.366443">
			<ele>1860.000000</ele>
		<time>2015-12-06T01:33:04Z</time>
		</trkpt>

		<trkpt lat="42.874717" lon="-5.366357">
			<ele>1865.000000</ele>
		<time>2015-12-06T01:33:07Z</time>
		</trkpt>

		<trkpt lat="42.875035" lon="-5.366461">
			<ele>1867.000000</ele>
		<time>2015-12-06T01:33:10Z</time>
		</trkpt>

		<trkpt lat="42.875228" lon="-5.366767">
			<ele>1870.000000</ele>
		<time>2015-12-06T01:33:13Z</time>
		</trkpt>

		<trkpt lat="42.875224" lon="-5.367071">
			<ele>1878.000000</ele>
		<time>2015-12-06T01:33:16Z</time>
		</trkpt>

		<trkpt lat="42.875194" lon="-5.367291">
			<ele>1878.000000</ele>
		<time>2015-12-06T01:33:19Z</time>
		</trkpt>

		<trkpt lat="42.875041" lon="-5.367400">
			<ele>1876.000000</ele>
		<time>2015-12-06T01:33:22Z</time>
		</trkpt>

		<trkpt lat="42.874968" lon="-5.367150">
			<ele>1874.000000</ele>
		<time>2015-12-06T01:33:25Z</time>
		</trkpt>

		<trkpt lat="42.875064" lon="-5.366850">
			<ele>1871.000000</ele>
		<time>2015-12-06T01:33:28Z</time>
		</trkpt>

		<trkpt lat="42.875337" lon="-5.366526">
			<ele>1873.000000</ele>
		<time>2015-12-06T01:33:31Z</time>
		</trkpt>

		<trkpt lat="42.875724" lon="-5.366475">
			<ele>1876.000000</ele>
		<time>2015-12-06T01:33:34Z</time>
		</trkpt>

		<trkpt lat="42.876092" lon="-5.366681">
			<ele>1881.000000</ele>
		<time>2015-12-06T01:33:37Z</time>
		</trkpt>

		<trkpt lat="42.876303" lon="-5.367041">
			<ele>1888.000000</ele>
		<time>2015-12-06T01:33:40Z</time>
		</trkpt>

		<trkpt lat="42.876388" lon="-5.367344">
			<ele>1893.000000</ele>
		<time>2015-12-06T01:33:43Z</time>
		</trkpt>

		<trkpt lat="42.876335" lon="-5.367591">
			<ele>1895.000000</ele>
		<time>2015-12-06T01:33:46Z</time>
		</trkpt>

		<trkpt lat="42.876193" lon="-5.367633">
			<ele>1896.000000</ele>
		<time>2015-12-06T01:33:49Z</time>
		</trkpt>

		<trkpt lat="42.876080" lon="-5.367369">
			<ele>1895.000000</ele>
		<time>2015-12-06T01:33:52Z</time>
		</trkpt>

		<trkpt lat="42.876119" lon="-5.367046">
			<ele>1896.000000</ele>
		<time>2015-12-06T01:33:55Z</time>
		</trkpt>

		<trkpt lat="42.876336" lon="-5.366706">
			<ele>1894.000000</ele>
		<time>2015-12-06T01:33:58Z</time>
		</trkpt>

		<trkpt lat="42.876693" lon="-5.366624">
			<ele>1895.000000</ele>
		<time>2015-12-06T01:34:01Z</time>
		</trkpt>

		<trkpt lat="42.876973" lon="-5.366757">
			<ele>1897.000000</ele>
		<time>2015-12-06T01:34:04Z</time>
		</trkpt>

		<trkpt lat="42.877012" lon="-5.367039">
			<ele>1900.000000</ele>
		<time>2015-12-06T01:34:07Z</time>
		</trkpt>

		<trkpt lat="42.876963" lon="-5.367184">
			<ele>1900.000000</ele>
		<time>2015-12-06T01:34:10Z</time>
		</trkpt>

		<trkpt lat="42.876877" lon="-5.367339">
			<ele>1897.000000</ele>
		<time>2015-12-06T01:34:13Z</time>
		</trkpt>

		<trkpt lat="42.876792" lon="-5.367476">
			<ele>1896.000000</ele>
		<time>2015-12-06T01:34:16Z</time>
		</trkpt>

		<trkpt lat="42.876700" lon="-5.367606">
			<ele>1893.000000</ele>
		<time>2015-12-06T01:34:19Z</time>
		</trkpt>

		<trkpt lat="42.876707" lon="-5.367811">
			<ele>1891.000000</ele>
		<time>2015-12-06T01:34:22Z</time>
		</trkpt>

		<trkpt lat="42.876858" lon="-5.368034">
			<ele>1887.000000</ele>
		<time>2015-12-06T01:34:25Z</time>
		</trkpt>

		<trkpt lat="42.877154" lon="-5.368162">
			<ele>1887.000000</ele>
		<time>2015-12-06T01:34:28Z</time>
		</trkpt>

		<trkpt lat="42.877443" lon="-5.368080">
			<ele>1883.000000</ele>
		<time>2015-12-06T01:34:31Z</time>
		</trkpt>

		<trkpt lat="42.877711" lon="-5.367827">
			<ele>1881.000000</ele>
		<time>2015-12-06T01:34:34Z</time>
		</trkpt>

		<trkpt lat="42.877923" lon="-5.367476">
			<ele>1882.000000</ele>
		<time>2015-12-06T01:34:37Z</time>
		</trkpt>

		<trkpt lat="42.878092" lon="-5.367172">
			<ele>1883.000000</ele>
		<time>2015-12-06T01:34:40Z</time>
		</trkpt>

		<trkpt lat="42.878252" lon="-5.366817">
			<ele>1883.000000</ele>
		<time>2015-12-06T01:34:43Z</time>
		</trkpt>

		<trkpt lat="42.878401" lon="-5.366475">
			<ele>1884.000000</ele>
		<time>2015-12-06T01:34:46Z</time>
		</trkpt>

		<trkpt lat="42.878499" lon="-5.366055">
			<ele>1882.000000</ele>
		<time>2015-12-06T01:34:49Z</time>
		</trkpt>

		<trkpt lat="42.878566" lon="-5.365708">
			<ele>1884.000000</ele>
		<time>2015-12-06T01:34:52Z</time>
		</trkpt>

		<trkpt lat="42.878601" lon="-5.365351">
			<ele>1882.000000</ele>
		<time>2015-12-06T01:34:55Z</time>
		</trkpt>

		<trkpt lat="42.878498" lon="-5.365166">
			<ele>1881.000000</ele>
		<time>2015-12-06T01:34:58Z</time>
		</trkpt>

		<trkpt lat="42.878378" lon="-5.365190">
			<ele>1879.000000</ele>
		<time>2015-12-06T01:35:02Z</time>
		</trkpt>

		<trkpt lat="42.878277" lon="-5.365326">
			<ele>1878.000000</ele>
		<time>2015-12-06T01:35:05Z</time>
		</trkpt>

		<trkpt lat="42.878228" lon="-5.365476">
			<ele>1881.000000</ele>
		<time>2015-12-06T01:35:08Z</time>
		</trkpt>

		<trkpt lat="42.878145" lon="-5.365615">
			<ele>1876.000000</ele>
		<time>2015-12-06T01:35:11Z</time>
		</trkpt>

		<trkpt lat="42.878093" lon="-5.365828">
			<ele>1872.000000</ele>
		<time>2015-12-06T01:35:14Z</time>
		</trkpt>

		<trkpt lat="42.878034" lon="-5.366064">
			<ele>1866.000000</ele>
		<time>2015-12-06T01:35:17Z</time>
		</trkpt>

		<trkpt lat="42.877993" lon="-5.366304">
			<ele>1862.000000</ele>
		<time>2015-12-06T01:35:20Z</time>
		</trkpt>

		<trkpt lat="42.877936" lon="-5.366509">
			<ele>1857.000000</ele>
		<time>2015-12-06T01:35:23Z</time>
		</trkpt>

		<trkpt lat="42.877875" lon="-5.366687">
			<ele>1854.000000</ele>
		<time>2015-12-06T01:35:26Z</time>
		</trkpt>

		<trkpt lat="42.877802" lon="-5.366856">
			<ele>1850.000000</ele>
		<time>2015-12-06T01:35:29Z</time>
		</trkpt>

		<trkpt lat="42.877730" lon="-5.366975">
			<ele>1849.000000</ele>
		<time>2015-12-06T01:35:32Z</time>
		</trkpt>

		<trkpt lat="42.877639" lon="-5.367072">
			<ele>1843.000000</ele>
		<time>2015-12-06T01:35:35Z</time>
		</trkpt>

		<trkpt lat="42.877526" lon="-5.367121">
			<ele>1845.000000</ele>
		<time>2015-12-06T01:35:38Z</time>
		</trkpt>

		<trkpt lat="42.877412" lon="-5.367162">
			<ele>1841.000000</ele>
		<time>2015-12-06T01:35:41Z</time>
		</trkpt>

		<trkpt lat="42.877285" lon="-5.367168">
			<ele>1837.000000</ele>
		<time>2015-12-06T01:35:44Z</time>
		</trkpt>

		<trkpt lat="42.877176" lon="-5.367257">
			<ele>1838.000000</ele>
		<time>2015-12-06T01:35:47Z</time>
		</trkpt>

		<trkpt lat="42.877060" lon="-5.367356">
			<ele>1835.000000</ele>
		<time>2015-12-06T01:35:50Z</time>
		</trkpt>

		<trkpt lat="42.876961" lon="-5.367445">
			<ele>1831.000000</ele>
		<time>2015-12-06T01:35:53Z</time>
		</trkpt>

		<trkpt lat="42.876857" lon="-5.367614">
			<ele>1830.000000</ele>
		<time>2015-12-06T01:35:56Z</time>
		</trkpt>

		<trkpt lat="42.876748" lon="-5.367826">
			<ele>1832.000000</ele>
		<time>2015-12-06T01:35:59Z</time>
		</trkpt>

		<trkpt lat="42.876684" lon="-5.368048">
			<ele>1835.000000</ele>
		<time>2015-12-06T01:36:02Z</time>
		</trkpt>

		<trkpt lat="42.876587" lon="-5.368135">
			<ele>1834.000000</ele>
		<time>2015-12-06T01:36:05Z</time>
		</trkpt>

		<trkpt lat="42.876452" lon="-5.368189">
			<ele>1839.000000</ele>
		<time>2015-12-06T01:36:08Z</time>
		</trkpt>

		<trkpt lat="42.876327" lon="-5.368039">
			<ele>1837.000000</ele>
		<time>2015-12-06T01:36:11Z</time>
		</trkpt>

		<trkpt lat="42.876273" lon="-5.367730">
			<ele>1839.000000</ele>
		<time>2015-12-06T01:36:14Z</time>
		</trkpt>

		<trkpt lat="42.876224" lon="-5.367446">
			<ele>1839.000000</ele>
		<time>2015-12-06T01:36:17Z</time>
		</trkpt>

		<trkpt lat="42.876174" lon="-5.367238">
			<ele>1839.000000</ele>
		<time>2015-12-06T01:36:20Z</time>
		</trkpt>

		<trkpt lat="42.876046" lon="-5.367100">
			<ele>1844.000000</ele>
		<time>2015-12-06T01:36:23Z</time>
		</trkpt>

		<trkpt lat="42.875929" lon="-5.367041">
			<ele>1842.000000</ele>
		<time>2015-12-06T01:36:26Z</time>
		</trkpt>

		<trkpt lat="42.875761" lon="-5.367112">
			<ele>1839.000000</ele>
		<time>2015-12-06T01:36:29Z</time>
		</trkpt>

		<trkpt lat="42.875633" lon="-5.367244">
			<ele>1835.000000</ele>
		<time>2015-12-06T01:36:32Z</time>
		</trkpt>

		<trkpt lat="42.875461" lon="-5.367425">
			<ele>1829.000000</ele>
		<time>2015-12-06T01:36:35Z</time>
		</trkpt>

		<trkpt lat="42.875353" lon="-5.367673">
			<ele>1822.000000</ele>
		<time>2015-12-06T01:36:38Z</time>
		</trkpt>

		<trkpt lat="42.875261" lon="-5.367872">
			<ele>1818.000000</ele>
		<time>2015-12-06T01:36:41Z</time>
		</trkpt>

		<trkpt lat="42.875214" lon="-5.368085">
			<ele>1814.000000</ele>
		<time>2015-12-06T01:36:44Z</time>
		</trkpt>

		<trkpt lat="42.875175" lon="-5.368349">
			<ele>1810.000000</ele>
		<time>2015-12-06T01:36:47Z</time>
		</trkpt>

		<trkpt lat="42.875147" lon="-5.368637">
			<ele>1806.000000</ele>
		<time>2015-12-06T01:36:50Z</time>
		</trkpt>

		<trkpt lat="42.875112" lon="-5.368856">
			<ele>1804.000000</ele>
		<time>2015-12-06T01:36:53Z</time>
		</trkpt>

		<trkpt lat="42.875042" lon="-5.369181">
			<ele>1810.000000</ele>
		<time>2015-12-06T01:36:56Z</time>
		</trkpt>

		<trkpt lat="42.874978" lon="-5.369516">
			<ele>1812.000000</ele>
		<time>2015-12-06T01:36:59Z</time>
		</trkpt>

		<trkpt lat="42.874928" lon="-5.369820">
			<ele>1821.000000</ele>
		<time>2015-12-06T01:37:02Z</time>
		</trkpt>

		<trkpt lat="42.874879" lon="-5.370045">
			<ele>1824.000000</ele>
		<time>2015-12-06T01:37:05Z</time>
		</trkpt>

		<trkpt lat="42.874803" lon="-5.370214">
			<ele>1826.000000</ele>
		<time>2015-12-06T01:37:08Z</time>
		</trkpt>

		<trkpt lat="42.874731" lon="-5.370262">
			<ele>1824.000000</ele>
		<time>2015-12-06T01:37:11Z</time>
		</trkpt>

		<trkpt lat="42.874608" lon="-5.370140">
			<ele>1821.000000</ele>
		<time>2015-12-06T01:37:14Z</time>
		</trkpt>

		<trkpt lat="42.874595" lon="-5.369818">
			<ele>1821.000000</ele>
		<time>2015-12-06T01:37:17Z</time>
		</trkpt>

		<trkpt lat="42.874794" lon="-5.369378">
			<ele>1820.000000</ele>
		<time>2015-12-06T01:37:20Z</time>
		</trkpt>

		<trkpt lat="42.875190" lon="-5.369305">
			<ele>1817.000000</ele>
		<time>2015-12-06T01:37:23Z</time>
		</trkpt>

		<trkpt lat="42.875496" lon="-5.369538">
			<ele>1818.000000</ele>
		<time>2015-12-06T01:37:26Z</time>
		</trkpt>

		<trkpt lat="42.875578" lon="-5.369860">
			<ele>1818.000000</ele>
		<time>2015-12-06T01:37:29Z</time>
		</trkpt>

		<trkpt lat="42.875529" lon="-5.370016">
			<ele>1821.000000</ele>
		<time>2015-12-06T01:37:32Z</time>
		</trkpt>

		<trkpt lat="42.875466" lon="-5.370100">
			<ele>1818.000000</ele>
		<time>2015-12-06T01:37:35Z</time>
		</trkpt>

		<trkpt lat="42.875353" lon="-5.370154">
			<ele>1820.000000</ele>
		<time>2015-12-06T01:37:39Z</time>
		</trkpt>

		<trkpt lat="42.875228" lon="-5.370180">
			<ele>1817.000000</ele>
		<time>2015-12-06T01:37:42Z</time>
		</trkpt>

		<trkpt lat="42.875118" lon="-5.370250">
			<ele>1815.000000</ele>
		<time>2015-12-06T01:37:45Z</time>
		</trkpt>

		<trkpt lat="42.874953" lon="-5.370374">
			<ele>1814.000000</ele>
		<time>2015-12-06T01:37:48Z</time>
		</trkpt>

		<trkpt lat="42.874777" lon="-5.370389">
			<ele>1812.000000</ele>
		<time>2015-12-06T01:37:51Z</time>
		</trkpt>

		<trkpt lat="42.874653" lon="-5.370565">
			<ele>1811.000000</ele>
		<time>2015-12-06T01:37:54Z</time>
		</trkpt>

		<trkpt lat="42.874524" lon="-5.370734">
			<ele>1814.000000</ele>
		<time>2015-12-06T01:37:57Z</time>
		</trkpt>

		<trkpt lat="42.874430" lon="-5.370953">
			<ele>1813.000000</ele>
		<time>2015-12-06T01:38:00Z</time>
		</trkpt>

		<trkpt lat="42.874336" lon="-5.371201">
			<ele>1816.000000</ele>
		<time>2015-12-06T01:38:03Z</time>
		</trkpt>

		<trkpt lat="42.874237" lon="-5.371385">
			<ele>1814.000000</ele>
		<time>2015-12-06T01:38:06Z</time>
		</trkpt>

		<trkpt lat="42.874106" lon="-5.371551">
			<ele>1820.000000</ele>
		<time>2015-12-06T01:38:09Z</time>
		</trkpt>

		<trkpt lat="42.874009" lon="-5.371706">
			<ele>1818.000000</ele>
		<time>2015-12-06T01:38:12Z</time>
		</trkpt>

		<trkpt lat="42.873960" lon="-5.371947">
			<ele>1819.000000</ele>
		<time>2015-12-06T01:38:15Z</time>
		</trkpt>

		<trkpt lat="42.873865" lon="-5.372164">
			<ele>1822.000000</ele>
		<time>2015-12-06T01:38:18Z</time>
		</trkpt>

		<trkpt lat="42.873832" lon="-5.372349">
			<ele>1828.000000</ele>
		<time>2015-12-06T01:38:21Z</time>
		</trkpt>

		<trkpt lat="42.873738" lon="-5.372495">
			<ele>1830.000000</ele>
		<time>2015-12-06T01:38:24Z</time>
		</trkpt>

		<trkpt lat="42.873622" lon="-5.372667">
			<ele>1832.000000</ele>
		<time>2015-12-06T01:38:27Z</time>
		</trkpt>

		<trkpt lat="42.873438" lon="-5.372821">
			<ele>1843.000000</ele>
		<time>2015-12-06T01:38:30Z</time>
		</trkpt>

		<trkpt lat="42.873327" lon="-5.372974">
			<ele>1840.000000</ele>
		<time>2015-12-06T01:38:33Z</time>
		</trkpt>

		<trkpt lat="42.873172" lon="-5.373096">
			<ele>1840.000000</ele>
		<time>2015-12-06T01:38:36Z</time>
		</trkpt>

		<trkpt lat="42.873062" lon="-5.373218">
			<ele>1839.000000</ele>
		<time>2015-12-06T01:38:39Z</time>
		</trkpt>

		<trkpt lat="42.872908" lon="-5.373328">
			<ele>1840.000000</ele>
		<time>2015-12-06T01:38:42Z</time>
		</trkpt>

		<trkpt lat="42.872799" lon="-5.373494">
			<ele>1842.000000</ele>
		<time>2015-12-06T01:38:45Z</time>
		</trkpt>

		<trkpt lat="42.872696" lon="-5.373665">
			<ele>1844.000000</ele>
		<time>2015-12-06T01:38:48Z</time>
		</trkpt>

		<trkpt lat="42.872612" lon="-5.373768">
			<ele>1844.000000</ele>
		<time>2015-12-06T01:38:51Z</time>
		</trkpt>

		<trkpt lat="42.872494" lon="-5.373969">
			<ele>1846.000000</ele>
		<time>2015-12-06T01:38:54Z</time>
		</trkpt>

		<trkpt lat="42.872355" lon="-5.374004">
			<ele>1848.000000</ele>
		<time>2015-12-06T01:38:57Z</time>
		</trkpt>

		<trkpt lat="42.872240" lon="-5.374070">
			<ele>1846.000000</ele>
		<time>2015-12-06T01:39:00Z</time>
		</trkpt>

		<trkpt lat="42.872076" lon="-5.374250">
			<ele>1848.000000</ele>
		<time>2015-12-06T01:39:03Z</time>
		</trkpt>

		<trkpt lat="42.871909" lon="-5.374403">
			<ele>1848.000000</ele>
		<time>2015-12-06T01:39:06Z</time>
		</trkpt>

		<trkpt lat="42.871764" lon="-5.374615">
			<ele>1849.000000</ele>
		<time>2015-12-06T01:39:09Z</time>
		</trkpt>

		<trkpt lat="42.871654" lon="-5.374814">
			<ele>1847.000000</ele>
		<time>2015-12-06T01:39:12Z</time>
		</trkpt>

		<trkpt lat="42.871460" lon="-5.374927">
			<ele>1842.000000</ele>
		<time>2015-12-06T01:39:15Z</time>
		</trkpt>

		<trkpt lat="42.871263" lon="-5.375103">
			<ele>1840.000000</ele>
		<time>2015-12-06T01:39:18Z</time>
		</trkpt>

		<trkpt lat="42.871059" lon="-5.375232">
			<ele>1836.000000</ele>
		<time>2015-12-06T01:39:21Z</time>
		</trkpt>

		<trkpt lat="42.870857" lon="-5.375334">
			<ele>1833.000000</ele>
		<time>2015-12-06T01:39:24Z</time>
		</trkpt>

		<trkpt lat="42.870684" lon="-5.375382">
			<ele>1833.000000</ele>
		<time>2015-12-06T01:39:27Z</time>
		</trkpt>

		<trkpt lat="42.870491" lon="-5.375390">
			<ele>1829.000000</ele>
		<time>2015-12-06T01:39:30Z</time>
		</trkpt>

		<trkpt lat="42.870295" lon="-5.375326">
			<ele>1827.000000</ele>
		<time>2015-12-06T01:39:33Z</time>
		</trkpt>

		<trkpt lat="42.870121" lon="-5.375283">
			<ele>1826.000000</ele>
		<time>2015-12-06T01:39:36Z</time>
		</trkpt>

		<trkpt lat="42.869961" lon="-5.375182">
			<ele>1827.000000</ele>
		<time>2015-12-06T01:39:39Z</time>
		</trkpt>

		<trkpt lat="42.869859" lon="-5.374989">
			<ele>1824.000000</ele>
		<time>2015-12-06T01:39:42Z</time>
		</trkpt>

		<trkpt lat="42.869773" lon="-5.374702">
			<ele>1824.000000</ele>
		<time>2015-12-06T01:39:45Z</time>
		</trkpt>

		<trkpt lat="42.869680" lon="-5.374500">
			<ele>1824.000000</ele>
		<time>2015-12-06T01:39:48Z</time>
		</trkpt>

		<trkpt lat="42.869550" lon="-5.374326">
			<ele>1825.000000</ele>
		<time>2015-12-06T01:39:51Z</time>
		</trkpt>

		<trkpt lat="42.869417" lon="-5.374186">
			<ele>1826.000000</ele>
		<time>2015-12-06T01:39:54Z</time>
		</trkpt>

		<trkpt lat="42.869281" lon="-5.374030">
			<ele>1826.000000</ele>
		<time>2015-12-06T01:39:57Z</time>
		</trkpt>

		<trkpt lat="42.869114" lon="-5.373958">
			<ele>1827.000000</ele>
		<time>2015-12-06T01:40:00Z</time>
		</trkpt>

		<trkpt lat="42.868907" lon="-5.373927">
			<ele>1828.000000</ele>
		<time>2015-12-06T01:40:03Z</time>
		</trkpt>

		<trkpt lat="42.868691" lon="-5.373918">
			<ele>1826.000000</ele>
		<time>2015-12-06T01:40:06Z</time>
		</trkpt>

		<trkpt lat="42.868516" lon="-5.373897">
			<ele>1829.000000</ele>
		<time>2015-12-06T01:40:09Z</time>
		</trkpt>

		<trkpt lat="42.868345" lon="-5.373821">
			<ele>1827.000000</ele>
		<time>2015-12-06T01:40:12Z</time>
		</trkpt>

		<trkpt lat="42.868153" lon="-5.373728">
			<ele>1829.000000</ele>
		<time>2015-12-06T01:40:15Z</time>
		</trkpt>

		<trkpt lat="42.867987" lon="-5.373576">
			<ele>1829.000000</ele>
		<time>2015-12-06T01:40:18Z</time>
		</trkpt>

		<trkpt lat="42.867805" lon="-5.373385">
			<ele>1830.000000</ele>
		<time>2015-12-06T01:40:21Z</time>
		</trkpt>

		<trkpt lat="42.867623" lon="-5.373219">
			<ele>1832.000000</ele>
		<time>2015-12-06T01:40:24Z</time>
		</trkpt>

		<trkpt lat="42.867431" lon="-5.373046">
			<ele>1833.000000</ele>
		<time>2015-12-06T01:40:27Z</time>
		</trkpt>

		<trkpt lat="42.867240" lon="-5.372830">
			<ele>1835.000000</ele>
		<time>2015-12-06T01:40:30Z</time>
		</trkpt>

		<trkpt lat="42.867063" lon="-5.372628">
			<ele>1835.000000</ele>
		<time>2015-12-06T01:40:33Z</time>
		</trkpt>

		<trkpt lat="42.866874" lon="-5.372433">
			<ele>1835.000000</ele>
		<time>2015-12-06T01:40:36Z</time>
		</trkpt>

		<trkpt lat="42.866679" lon="-5.372200">
			<ele>1830.000000</ele>
		<time>2015-12-06T01:40:39Z</time>
		</trkpt>

		<trkpt lat="42.866461" lon="-5.372025">
			<ele>1827.000000</ele>
		<time>2015-12-06T01:40:42Z</time>
		</trkpt>

		<trkpt lat="42.866242" lon="-5.371827">
			<ele>1826.000000</ele>
		<time>2015-12-06T01:40:45Z</time>
		</trkpt>

		<trkpt lat="42.866016" lon="-5.371622">
			<ele>1824.000000</ele>
		<time>2015-12-06T01:40:48Z</time>
		</trkpt>

		<trkpt lat="42.865827" lon="-5.371411">
			<ele>1822.000000</ele>
		<time>2015-12-06T01:40:51Z</time>
		</trkpt>

		<trkpt lat="42.865632" lon="-5.371172">
			<ele>1817.000000</ele>
		<time>2015-12-06T01:40:54Z</time>
		</trkpt>

		<trkpt lat="42.865394" lon="-5.370975">
			<ele>1814.000000</ele>
		<time>2015-12-06T01:40:57Z</time>
		</trkpt>

		<trkpt lat="42.865159" lon="-5.370850">
			<ele>1812.000000</ele>
		<time>2015-12-06T01:41:00Z</time>
		</trkpt>

		<trkpt lat="42.864929" lon="-5.370818">
			<ele>1806.000000</ele>
		<time>2015-12-06T01:41:03Z</time>
		</trkpt>

		<trkpt lat="42.864704" lon="-5.370874">
			<ele>1802.000000</ele>
		<time>2015-12-06T01:41:06Z</time>
		</trkpt>

		<trkpt lat="42.864485" lon="-5.370988">
			<ele>1796.000000</ele>
		<time>2015-12-06T01:41:09Z</time>
		</trkpt>

		<trkpt lat="42.864279" lon="-5.371183">
			<ele>1794.000000</ele>
		<time>2015-12-06T01:41:12Z</time>
		</trkpt>

		<trkpt lat="42.864080" lon="-5.371318">
			<ele>1791.000000</ele>
		<time>2015-12-06T01:41:15Z</time>
		</trkpt>

		<trkpt lat="42.863919" lon="-5.371527">
			<ele>1787.000000</ele>
		<time>2015-12-06T01:41:18Z</time>
		</trkpt>

		<trkpt lat="42.863791" lon="-5.371683">
			<ele>1785.000000</ele>
		<time>2015-12-06T01:41:21Z</time>
		</trkpt>

		<trkpt lat="42.863634" lon="-5.371941">
			<ele>1777.000000</ele>
		<time>2015-12-06T01:41:24Z</time>
		</trkpt>

		<trkpt lat="42.863474" lon="-5.372183">
			<ele>1773.000000</ele>
		<time>2015-12-06T01:41:27Z</time>
		</trkpt>

		<trkpt lat="42.863302" lon="-5.372421">
			<ele>1767.000000</ele>
		<time>2015-12-06T01:41:30Z</time>
		</trkpt>

		<trkpt lat="42.863110" lon="-5.372696">
			<ele>1763.000000</ele>
		<time>2015-12-06T01:41:33Z</time>
		</trkpt>

		<trkpt lat="42.862925" lon="-5.372922">
			<ele>1757.000000</ele>
		<time>2015-12-06T01:41:36Z</time>
		</trkpt>

		<trkpt lat="42.862744" lon="-5.373152">
			<ele>1749.000000</ele>
		<time>2015-12-06T01:41:39Z</time>
		</trkpt>

		<trkpt lat="42.862576" lon="-5.373430">
			<ele>1748.000000</ele>
		<time>2015-12-06T01:41:42Z</time>
		</trkpt>

		<trkpt lat="42.862406" lon="-5.373703">
			<ele>1743.000000</ele>
		<time>2015-12-06T01:41:45Z</time>
		</trkpt>

		<trkpt lat="42.862207" lon="-5.373922">
			<ele>1736.000000</ele>
		<time>2015-12-06T01:41:48Z</time>
		</trkpt>

		<trkpt lat="42.862023" lon="-5.374174">
			<ele>1732.000000</ele>
		<time>2015-12-06T01:41:51Z</time>
		</trkpt>

		<trkpt lat="42.861899" lon="-5.374426">
			<ele>1729.000000</ele>
		<time>2015-12-06T01:41:54Z</time>
		</trkpt>

		<trkpt lat="42.861739" lon="-5.374741">
			<ele>1724.000000</ele>
		<time>2015-12-06T01:41:57Z</time>
		</trkpt>

		<trkpt lat="42.861589" lon="-5.375020">
			<ele>1726.000000</ele>
		<time>2015-12-06T01:42:00Z</time>
		</trkpt>

		<trkpt lat="42.861445" lon="-5.375311">
			<ele>1728.000000</ele>
		<time>2015-12-06T01:42:03Z</time>
		</trkpt>

		<trkpt lat="42.861312" lon="-5.375582">
			<ele>1727.000000</ele>
		<time>2015-12-06T01:42:06Z</time>
		</trkpt>

		<trkpt lat="42.861145" lon="-5.375771">
			<ele>1725.000000</ele>
		<time>2015-12-06T01:42:09Z</time>
		</trkpt>

		<trkpt lat="42.860982" lon="-5.375972">
			<ele>1725.000000</ele>
		<time>2015-12-06T01:42:12Z</time>
		</trkpt>

		<trkpt lat="42.860819" lon="-5.376172">
			<ele>1724.000000</ele>
		<time>2015-12-06T01:42:15Z</time>
		</trkpt>

		<trkpt lat="42.860689" lon="-5.376444">
			<ele>1726.000000</ele>
		<time>2015-12-06T01:42:18Z</time>
		</trkpt>

		<trkpt lat="42.860573" lon="-5.376717">
			<ele>1724.000000</ele>
		<time>2015-12-06T01:42:21Z</time>
		</trkpt>

		<trkpt lat="42.860441" lon="-5.377021">
			<ele>1721.000000</ele>
		<time>2015-12-06T01:42:24Z</time>
		</trkpt>

		<trkpt lat="42.860300" lon="-5.377325">
			<ele>1721.000000</ele>
		<time>2015-12-06T01:42:27Z</time>
		</trkpt>

		<trkpt lat="42.860119" lon="-5.377521">
			<ele>1720.000000</ele>
		<time>2015-12-06T01:42:30Z</time>
		</trkpt>

		<trkpt lat="42.859958" lon="-5.377745">
			<ele>1717.000000</ele>
		<time>2015-12-06T01:42:33Z</time>
		</trkpt>

		<trkpt lat="42.859810" lon="-5.377985">
			<ele>1714.000000</ele>
		<time>2015-12-06T01:42:36Z</time>
		</trkpt>

		<trkpt lat="42.859677" lon="-5.378252">
			<ele>1709.000000</ele>
		<time>2015-12-06T01:42:39Z</time>
		</trkpt>

		<trkpt lat="42.859582" lon="-5.378545">
			<ele>1707.000000</ele>
		<time>2015-12-06T01:42:42Z</time>
		</trkpt>

		<trkpt lat="42.859457" lon="-5.378801">
			<ele>1700.000000</ele>
		<time>2015-12-06T01:42:45Z</time>
		</trkpt>

		<trkpt lat="42.859302" lon="-5.379084">
			<ele>1694.000000</ele>
		<time>2015-12-06T01:42:48Z</time>
		</trkpt>

		<trkpt lat="42.859180" lon="-5.379404">
			<ele>1689.000000</ele>
		<time>2015-12-06T01:42:51Z</time>
		</trkpt>

		<trkpt lat="42.859080" lon="-5.379725">
			<ele>1687.000000</ele>
		<time>2015-12-06T01:42:54Z</time>
		</trkpt>

		<trkpt lat="42.859048" lon="-5.380067">
			<ele>1684.000000</ele>
		<time>2015-12-06T01:42:57Z</time>
		</trkpt>

		<trkpt lat="42.859116" lon="-5.380428">
			<ele>1682.000000</ele>
		<time>2015-12-06T01:43:00Z</time>
		</trkpt>

		<trkpt lat="42.859244" lon="-5.380708">
			<ele>1682.000000</ele>
		<time>2015-12-06T01:43:03Z</time>
		</trkpt>

		<trkpt lat="42.859444" lon="-5.380915">
			<ele>1679.000000</ele>
		<time>2015-12-06T01:43:06Z</time>
		</trkpt>

		<trkpt lat="42.859689" lon="-5.381036">
			<ele>1674.000000</ele>
		<time>2015-12-06T01:43:09Z</time>
		</trkpt>

		<trkpt lat="42.860010" lon="-5.381085">
			<ele>1669.000000</ele>
		<time>2015-12-06T01:43:12Z</time>
		</trkpt>

		<trkpt lat="42.860284" lon="-5.381094">
			<ele>1665.000000</ele>
		<time>2015-12-06T01:43:15Z</time>
		</trkpt>

		<trkpt lat="42.860592" lon="-5.381076">
			<ele>1660.000000</ele>
		<time>2015-12-06T01:43:18Z</time>
		</trkpt>

		<trkpt lat="42.860894" lon="-5.381054">
			<ele>1656.000000</ele>
		<time>2015-12-06T01:43:21Z</time>
		</trkpt>

		<trkpt lat="42.861191" lon="-5.381006">
			<ele>1652.000000</ele>
		<time>2015-12-06T01:43:24Z</time>
		</trkpt>

		<trkpt lat="42.861497" lon="-5.380944">
			<ele>1649.000000</ele>
		<time>2015-12-06T01:43:27Z</time>
		</trkpt>

		<trkpt lat="42.861766" lon="-5.380834">
			<ele>1645.000000</ele>
		<time>2015-12-06T01:43:30Z</time>
		</trkpt>

		<trkpt lat="42.862022" lon="-5.380690">
			<ele>1641.000000</ele>
		<time>2015-12-06T01:43:33Z</time>
		</trkpt>

		<trkpt lat="42.862299" lon="-5.380595">
			<ele>1641.000000</ele>
		<time>2015-12-06T01:43:36Z</time>
		</trkpt>

		<trkpt lat="42.862628" lon="-5.380443">
			<ele>1637.000000</ele>
		<time>2015-12-06T01:43:39Z</time>
		</trkpt>

		<trkpt lat="42.862951" lon="-5.380317">
			<ele>1630.000000</ele>
		<time>2015-12-06T01:43:42Z</time>
		</trkpt>

		<trkpt lat="42.863279" lon="-5.380242">
			<ele>1628.000000</ele>
		<time>2015-12-06T01:43:45Z</time>
		</trkpt>

		<trkpt lat="42.863584" lon="-5.380158">
			<ele>1622.000000</ele>
		<time>2015-12-06T01:43:48Z</time>
		</trkpt>

		<trkpt lat="42.863906" lon="-5.380024">
			<ele>1619.000000</ele>
		<time>2015-12-06T01:43:51Z</time>
		</trkpt>

		<trkpt lat="42.864171" lon="-5.379862">
			<ele>1617.000000</ele>
		<time>2015-12-06T01:43:54Z</time>
		</trkpt>

		<trkpt lat="42.864450" lon="-5.379676">
			<ele>1614.000000</ele>
		<time>2015-12-06T01:43:57Z</time>
		</trkpt>

		<trkpt lat="42.864737" lon="-5.379538">
			<ele>1614.000000</ele>
		<time>2015-12-06T01:44:00Z</time>
		</trkpt>

		<trkpt lat="42.864997" lon="-5.379358">
			<ele>1610.000000</ele>
		<time>2015-12-06T01:44:03Z</time>
		</trkpt>

		<trkpt lat="42.865294" lon="-5.379181">
			<ele>1607.000000</ele>
		<time>2015-12-06T01:44:06Z</time>
		</trkpt>

		<trkpt lat="42.865575" lon="-5.379004">
			<ele>1600.000000</ele>
		<time>2015-12-06T01:44:09Z</time>
		</trkpt>

		<trkpt lat="42.865866" lon="-5.378781">
			<ele>1597.000000</ele>
		<time>2015-12-06T01:44:12Z</time>
		</trkpt>

		<trkpt lat="42.866115" lon="-5.378544">
			<ele>1595.000000</ele>
		<time>2015-12-06T01:44:15Z</time>
		</trkpt>

		<trkpt lat="42.866372" lon="-5.378319">
			<ele>1592.000000</ele>
		<time>2015-12-06T01:44:18Z</time>
		</trkpt>

		<trkpt lat="42.866608" lon="-5.378084">
			<ele>1590.000000</ele>
		<time>2015-12-06T01:44:21Z</time>
		</trkpt>

		<trkpt lat="42.866858" lon="-5.377859">
			<ele>1590.000000</ele>
		<time>2015-12-06T01:44:24Z</time>
		</trkpt>

		<trkpt lat="42.867119" lon="-5.377608">
			<ele>1588.000000</ele>
		<time>2015-12-06T01:44:27Z</time>
		</trkpt>

		<trkpt lat="42.867364" lon="-5.377351">
			<ele>1586.000000</ele>
		<time>2015-12-06T01:44:30Z</time>
		</trkpt>

		<trkpt lat="42.867637" lon="-5.377110">
			<ele>1584.000000</ele>
		<time>2015-12-06T01:44:33Z</time>
		</trkpt>

		<trkpt lat="42.867914" lon="-5.376873">
			<ele>1579.000000</ele>
		<time>2015-12-06T01:44:36Z</time>
		</trkpt>

		<trkpt lat="42.868205" lon="-5.376654">
			<ele>1577.000000</ele>
		<time>2015-12-06T01:44:39Z</time>
		</trkpt>

		<trkpt lat="42.868511" lon="-5.376483">
			<ele>1575.000000</ele>
		<time>2015-12-06T01:44:42Z</time>
		</trkpt>

		<trkpt lat="42.868807" lon="-5.376299">
			<ele>1572.000000</ele>
		<time>2015-12-06T01:44:45Z</time>
		</trkpt>

		<trkpt lat="42.869123" lon="-5.376078">
			<ele>1569.000000</ele>
		<time>2015-12-06T01:44:48Z</time>
		</trkpt>

		<trkpt lat="42.869422" lon="-5.375821">
			<ele>1572.000000</ele>
		<time>2015-12-06T01:44:51Z</time>
		</trkpt>

		<trkpt lat="42.869727" lon="-5.375560">
			<ele>1571.000000</ele>
		<time>2015-12-06T01:44:54Z</time>
		</trkpt>

		<trkpt lat="42.870038" lon="-5.375285">
			<ele>1572.000000</ele>
		<time>2015-12-06T01:44:57Z</time>
		</trkpt>

		<trkpt lat="42.870362" lon="-5.375034">
			<ele>1574.000000</ele>
		<time>2015-12-06T01:45:00Z</time>
		</trkpt>

		<trkpt lat="42.870620" lon="-5.374890">
			<ele>1575.000000</ele>
		<time>2015-12-06T01:45:03Z</time>
		</trkpt>

		<trkpt lat="42.870914" lon="-5.374761">
			<ele>1572.000000</ele>
		<time>2015-12-06T01:45:06Z</time>
		</trkpt>

		<trkpt lat="42.871220" lon="-5.374627">
			<ele>1570.000000</ele>
		<time>2015-12-06T01:45:09Z</time>
		</trkpt>

		<trkpt lat="42.871537" lon="-5.374504">
			<ele>1566.000000</ele>
		<time>2015-12-06T01:45:12Z</time>
		</trkpt>

		<trkpt lat="42.871810" lon="-5.374264">
			<ele>1562.000000</ele>
		<time>2015-12-06T01:45:15Z</time>
		</trkpt>

		<trkpt lat="42.872016" lon="-5.373996">
			<ele>1559.000000</ele>
		<time>2015-12-06T01:45:18Z</time>
		</trkpt>

		<trkpt lat="42.872097" lon="-5.373646">
			<ele>1557.000000</ele>
		<time>2015-12-06T01:45:21Z</time>
		</trkpt>

		<trkpt lat="42.872201" lon="-5.373324">
			<ele>1559.000000</ele>
		<time>2015-12-06T01:45:24Z</time>
		</trkpt>

		<trkpt lat="42.872267" lon="-5.372982">
			<ele>1561.000000</ele>
		<time>2015-12-06T01:45:27Z</time>
		</trkpt>

		<trkpt lat="42.872156" lon="-5.372848">
			<ele>1563.000000</ele>
		<time>2015-12-06T01:45:30Z</time>
		</trkpt>

		<trkpt lat="42.872075" lon="-5.372908">
			<ele>1565.000000</ele>
		<time>2015-12-06T01:45:33Z</time>
		</trkpt>

		<trkpt lat="42.871998" lon="-5.373076">
			<ele>1566.000000</ele>
		<time>2015-12-06T01:45:36Z</time>
		</trkpt>

		<trkpt lat="42.871930" lon="-5.373161">
			<ele>1571.000000</ele>
		<time>2015-12-06T01:45:40Z</time>
		</trkpt>

		<trkpt lat="42.871785" lon="-5.373344">
			<ele>1570.000000</ele>
		<time>2015-12-06T01:45:43Z</time>
		</trkpt>

		<trkpt lat="42.871628" lon="-5.373255">
			<ele>1569.000000</ele>
		<time>2015-12-06T01:45:46Z</time>
		</trkpt>

		<trkpt lat="42.871536" lon="-5.373098">
			<ele>1568.000000</ele>
		<time>2015-12-06T01:45:49Z</time>
		</trkpt>

		<trkpt lat="42.871615" lon="-5.372618">
			<ele>1569.000000</ele>
		<time>2015-12-06T01:45:52Z</time>
		</trkpt>

		<trkpt lat="42.871809" lon="-5.372307">
			<ele>1570.000000</ele>
		<time>2015-12-06T01:45:55Z</time>
		</trkpt>

		<trkpt lat="42.872100" lon="-5.372057">
			<ele>1566.000000</ele>
		<time>2015-12-06T01:45:58Z</time>
		</trkpt>

		<trkpt lat="42.872327" lon="-5.371748">
			<ele>1564.000000</ele>
		<time>2015-12-06T01:46:01Z</time>
		</trkpt>

		<trkpt lat="42.872453" lon="-5.371395">
			<ele>1564.000000</ele>
		<time>2015-12-06T01:46:04Z</time>
		</trkpt>

		<trkpt lat="42.872456" lon="-5.371153">
			<ele>1565.000000</ele>
		<time>2015-12-06T01:46:07Z</time>
		</trkpt>

		<trkpt lat="42.872391" lon="-5.370930">
			<ele>1565.000000</ele>
		<time>2015-12-06T01:46:10Z</time>
		</trkpt>

		<trkpt lat="42.872313" lon="-5.370702">
			<ele>1562.000000</ele>
		<time>2015-12-06T01:46:13Z</time>
		</trkpt>

		<trkpt lat="42.872292" lon="-5.370440">
			<ele>1560.000000</ele>
		<time>2015-12-06T01:46:16Z</time>
		</trkpt>

		<trkpt lat="42.872234" lon="-5.370147">
			<ele>1559.000000</ele>
		<time>2015-12-06T01:46:19Z</time>
		</trkpt>

		<trkpt lat="42.872204" lon="-5.369896">
			<ele>1559.000000</ele>
		<time>2015-12-06T01:46:22Z</time>
		</trkpt>

		<trkpt lat="42.872139" lon="-5.369611">
			<ele>1556.000000</ele>
		<time>2015-12-06T01:46:25Z</time>
		</trkpt>

		<trkpt lat="42.872040" lon="-5.369390">
			<ele>1553.000000</ele>
		<time>2015-12-06T01:46:28Z</time>
		</trkpt>

		<trkpt lat="42.871930" lon="-5.369162">
			<ele>1548.000000</ele>
		<time>2015-12-06T01:46:31Z</time>
		</trkpt>

		<trkpt lat="42.871839" lon="-5.368891">
			<ele>1549.000000</ele>
		<time>2015-12-06T01:46:34Z</time>
		</trkpt>

		<trkpt lat="42.871795" lon="-5.368657">
			<ele>1551.000000</ele>
		<time>2015-12-06T01:46:37Z</time>
		</trkpt>

		<trkpt lat="42.871799" lon="-5.368368">
			<ele>1554.000000</ele>
		<time>2015-12-06T01:46:40Z</time>
		</trkpt>

		<trkpt lat="42.871788" lon="-5.368126">
			<ele>1555.000000</ele>
		<time>2015-12-06T01:46:43Z</time>
		</trkpt>

		<trkpt lat="42.871678" lon="-5.368066">
			<ele>1550.000000</ele>
		<time>2015-12-06T01:46:46Z</time>
		</trkpt>

		<trkpt lat="42.871588" lon="-5.368258">
			<ele>1553.000000</ele>
		<time>2015-12-06T01:46:49Z</time>
		</trkpt>

		<trkpt lat="42.871578" lon="-5.368541">
			<ele>1556.000000</ele>
		<time>2015-12-06T01:46:52Z</time>
		</trkpt>

		<trkpt lat="42.871743" lon="-5.368875">
			<ele>1561.000000</ele>
		<time>2015-12-06T01:46:55Z</time>
		</trkpt>

		<trkpt lat="42.871932" lon="-5.369116">
			<ele>1563.000000</ele>
		<time>2015-12-06T01:46:58Z</time>
		</trkpt>

		<trkpt lat="42.872210" lon="-5.369360">
			<ele>1565.000000</ele>
		<time>2015-12-06T01:47:01Z</time>
		</trkpt>

		<trkpt lat="42.872441" lon="-5.369559">
			<ele>1562.000000</ele>
		<time>2015-12-06T01:47:04Z</time>
		</trkpt>

		<trkpt lat="42.872394" lon="-5.369852">
			<ele>1560.000000</ele>
		<time>2015-12-06T01:47:07Z</time>
		</trkpt>

		<trkpt lat="42.872253" lon="-5.370006">
			<ele>1559.000000</ele>
		<time>2015-12-06T01:47:10Z</time>
		</trkpt>

		<trkpt lat="42.872106" lon="-5.369799">
			<ele>1560.000000</ele>
		<time>2015-12-06T01:47:13Z</time>
		</trkpt>

		<trkpt lat="42.872149" lon="-5.369452">
			<ele>1558.000000</ele>
		<time>2015-12-06T01:47:16Z</time>
		</trkpt>

		<trkpt lat="42.872189" lon="-5.369112">
			<ele>1562.000000</ele>
		<time>2015-12-06T01:47:19Z</time>
		</trkpt>

		<trkpt lat="42.872209" lon="-5.368863">
			<ele>1566.000000</ele>
		<time>2015-12-06T01:47:22Z</time>
		</trkpt>

		<trkpt lat="42.872214" lon="-5.368591">
			<ele>1566.000000</ele>
		<time>2015-12-06T01:47:25Z</time>
		</trkpt>

		<trkpt lat="42.872118" lon="-5.368504">
			<ele>1562.000000</ele>
		<time>2015-12-06T01:47:28Z</time>
		</trkpt>

		<trkpt lat="42.872019" lon="-5.368675">
			<ele>1560.000000</ele>
		<time>2015-12-06T01:47:31Z</time>
		</trkpt>

		<trkpt lat="42.872041" lon="-5.369014">
			<ele>1561.000000</ele>
		<time>2015-12-06T01:47:34Z</time>
		</trkpt>

		<trkpt lat="42.872128" lon="-5.369336">
			<ele>1564.000000</ele>
		<time>2015-12-06T01:47:37Z</time>
		</trkpt>

		<trkpt lat="42.872266" lon="-5.369725">
			<ele>1566.000000</ele>
		<time>2015-12-06T01:47:40Z</time>
		</trkpt>

		<trkpt lat="42.872466" lon="-5.369927">
			<ele>1571.000000</ele>
		<time>2015-12-06T01:47:43Z</time>
		</trkpt>

		<trkpt lat="42.872597" lon="-5.370211">
			<ele>1571.000000</ele>
		<time>2015-12-06T01:47:46Z</time>
		</trkpt>

		<trkpt lat="42.872507" lon="-5.370380">
			<ele>1574.000000</ele>
		<time>2015-12-06T01:47:49Z</time>
		</trkpt>

		<trkpt lat="42.872381" lon="-5.370270">
			<ele>1576.000000</ele>
		<time>2015-12-06T01:47:52Z</time>
		</trkpt>

		<trkpt lat="42.872355" lon="-5.370012">
			<ele>1580.000000</ele>
		<time>2015-12-06T01:47:55Z</time>
		</trkpt>

		<trkpt lat="42.872462" lon="-5.369660">
			<ele>1583.000000</ele>
		<time>2015-12-06T01:47:58Z</time>
		</trkpt>

		<trkpt lat="42.872637" lon="-5.369317">
			<ele>1589.000000</ele>
		<time>2015-12-06T01:48:01Z</time>
		</trkpt>

		<trkpt lat="42.872755" lon="-5.369084">
			<ele>1598.000000</ele>
		<time>2015-12-06T01:48:04Z</time>
		</trkpt>

		<trkpt lat="42.872837" lon="-5.368880">
			<ele>1596.000000</ele>
		<time>2015-12-06T01:48:07Z</time>
		</trkpt>

		<trkpt lat="42.872690" lon="-5.368744">
			<ele>1592.000000</ele>
		<time>2015-12-06T01:48:10Z</time>
		</trkpt>

		<trkpt lat="42.872615" lon="-5.368914">
			<ele>1593.000000</ele>
		<time>2015-12-06T01:48:13Z</time>
		</trkpt>

		<trkpt lat="42.872499" lon="-5.369053">
			<ele>1594.000000</ele>
		<time>2015-12-06T01:48:16Z</time>
		</trkpt>

		<trkpt lat="42.872475" lon="-5.369346">
			<ele>1598.000000</ele>
		<time>2015-12-06T01:48:19Z</time>
		</trkpt>

		<trkpt lat="42.872498" lon="-5.369656">
			<ele>1600.000000</ele>
		<time>2015-12-06T01:48:22Z</time>
		</trkpt>

		<trkpt lat="42.872659" lon="-5.370013">
			<ele>1602.000000</ele>
		<time>2015-12-06T01:48:25Z</time>
		</trkpt>

		<trkpt lat="42.872801" lon="-5.370230">
			<ele>1601.000000</ele>
		<time>2015-12-06T01:48:28Z</time>
		</trkpt>

		<trkpt lat="42.872820" lon="-5.370527">
			<ele>1601.000000</ele>
		<time>2015-12-06T01:48:31Z</time>
		</trkpt>

		<trkpt lat="42.872716" lon="-5.370677">
			<ele>1603.000000</ele>
		<time>2015-12-06T01:48:34Z</time>
		</trkpt>

		<trkpt lat="42.872659" lon="-5.370424">
			<ele>1605.000000</ele>
		<time>2015-12-06T01:48:37Z</time>
		</trkpt>

		<trkpt lat="42.872706" lon="-5.370138">
			<ele>1609.000000</ele>
		<time>2015-12-06T01:48:40Z</time>
		</trkpt>

		<trkpt lat="42.872905" lon="-5.369921">
			<ele>1602.000000</ele>
		<time>2015-12-06T01:48:43Z</time>
		</trkpt>

		<trkpt lat="42.873098" lon="-5.369627">
			<ele>1603.000000</ele>
		<time>2015-12-06T01:48:46Z</time>
		</trkpt>

		<trkpt lat="42.873152" lon="-5.369229">
			<ele>1605.000000</ele>
		<time>2015-12-06T01:48:49Z</time>
		</trkpt>

		<trkpt lat="42.873163" lon="-5.368942">
			<ele>1610.000000</ele>
		<time>2015-12-06T01:48:52Z</time>
		</trkpt>

		<trkpt lat="42.873161" lon="-5.368694">
			<ele>1612.000000</ele>
		<time>2015-12-06T01:48:55Z</time>
		</trkpt>

		<trkpt lat="42.873111" lon="-5.368439">
			<ele>1615.000000</ele>
		<time>2015-12-06T01:48:58Z</time>
		</trkpt>

		<trkpt lat="42.873083" lon="-5.368317">
			<ele>1617.000000</ele>
		<time>2015-12-06T01:49:01Z</time>
		</trkpt>

		<trkpt lat="42.872983" lon="-5.368218">
			<ele>1617.000000</ele>
		<time>2015-12-06T01:49:04Z</time>
		</trkpt>

		<trkpt lat="42.872905" lon="-5.368233">
			<ele>1617.000000</ele>
		<time>2015-12-06T01:49:07Z</time>
		</trkpt>

		<trkpt lat="42.872813" lon="-5.368287">
			<ele>1612.000000</ele>
		<time>2015-12-06T01:49:11Z</time>
		</trkpt>

		<trkpt lat="42.872776" lon="-5.368510">
			<ele>1611.000000</ele>
		<time>2015-12-06T01:49:14Z</time>
		</trkpt>

		<trkpt lat="42.872822" lon="-5.368835">
			<ele>1610.000000</ele>
		<time>2015-12-06T01:49:17Z</time>
		</trkpt>

		<trkpt lat="42.872848" lon="-5.369172">
			<ele>1607.000000</ele>
		<time>2015-12-06T01:49:20Z</time>
		</trkpt>

		<trkpt lat="42.872978" lon="-5.369492">
			<ele>1608.000000</ele>
		<time>2015-12-06T01:49:23Z</time>
		</trkpt>

		<trkpt lat="42.873123" lon="-5.369811">
			<ele>1608.000000</ele>
		<time>2015-12-06T01:49:26Z</time>
		</trkpt>

		<trkpt lat="42.873280" lon="-5.370101">
			<ele>1608.000000</ele>
		<time>2015-12-06T01:49:29Z</time>
		</trkpt>

		<trkpt lat="42.873414" lon="-5.370417">
			<ele>1605.000000</ele>
		<time>2015-12-06T01:49:32Z</time>
		</trkpt>

		<trkpt lat="42.873447" lon="-5.370734">
			<ele>1603.000000</ele>
		<time>2015-12-06T01:49:35Z</time>
		</trkpt>

		<trkpt lat="42.873394" lon="-5.370923">
			<ele>1601.000000</ele>
		<time>2015-12-06T01:49:38Z</time>
		</trkpt>

		<trkpt lat="42.873245" lon="-5.370983">
			<ele>1602.000000</ele>
		<time>2015-12-06T01:49:41Z</time>
		</trkpt>

		<trkpt lat="42.873150" lon="-5.370844">
			<ele>1604.000000</ele>
		<time>2015-12-06T01:49:44Z</time>
		</trkpt>

		<trkpt lat="42.873107" lon="-5.370650">
			<ele>1604.000000</ele>
		<time>2015-12-06T01:49:47Z</time>
		</trkpt>

		<trkpt lat="42.873106" lon="-5.370359">
			<ele>1609.000000</ele>
		<time>2015-12-06T01:49:50Z</time>
		</trkpt>

		<trkpt lat="42.873121" lon="-5.370165">
			<ele>1607.000000</ele>
		<time>2015-12-06T01:49:53Z</time>
		</trkpt>

		<trkpt lat="42.872947" lon="-5.370167">
			<ele>1604.000000</ele>
		<time>2015-12-06T01:49:56Z</time>
		</trkpt>

		<trkpt lat="42.872822" lon="-5.370353">
			<ele>1615.000000</ele>
		<time>2015-12-06T01:49:59Z</time>
		</trkpt>

		<trkpt lat="42.872716" lon="-5.370540">
			<ele>1613.000000</ele>
		<time>2015-12-06T01:50:02Z</time>
		</trkpt>

		<trkpt lat="42.872624" lon="-5.370790">
			<ele>1613.000000</ele>
		<time>2015-12-06T01:50:05Z</time>
		</trkpt>

		<trkpt lat="42.872519" lon="-5.370908">
			<ele>1610.000000</ele>
		<time>2015-12-06T01:50:08Z</time>
		</trkpt>

		<trkpt lat="42.872347" lon="-5.370846">
			<ele>1604.000000</ele>
		<time>2015-12-06T01:50:11Z</time>
		</trkpt>

		<trkpt lat="42.872322" lon="-5.370523">
			<ele>1603.000000</ele>
		<time>2015-12-06T01:50:14Z</time>
		</trkpt>

		<trkpt lat="42.872526" lon="-5.370192">
			<ele>1600.000000</ele>
		<time>2015-12-06T01:50:17Z</time>
		</trkpt>

		<trkpt lat="42.872779" lon="-5.370052">
			<ele>1597.000000</ele>
		<time>2015-12-06T01:50:20Z</time>
		</trkpt>

		<trkpt lat="42.873010" lon="-5.369909">
			<ele>1588.000000</ele>
		<time>2015-12-06T01:50:23Z</time>
		</trkpt>

		<trkpt lat="42.873041" lon="-5.369566">
			<ele>1594.000000</ele>
		<time>2015-12-06T01:50:26Z</time>
		</trkpt>

		<trkpt lat="42.873017" lon="-5.369307">
			<ele>1597.000000</ele>
		<time>2015-12-06T01:50:29Z</time>
		</trkpt>

		<trkpt lat="42.872908" lon="-5.369112">
			<ele>1601.000000</ele>
		<time>2015-12-06T01:50:32Z</time>
		</trkpt>

		<trkpt lat="42.872799" lon="-5.368932">
			<ele>1604.000000</ele>
		<time>2015-12-06T01:50:35Z</time>
		</trkpt>

		<trkpt lat="42.872744" lon="-5.368724">
			<ele>1608.000000</ele>
		<time>2015-12-06T01:50:38Z</time>
		</trkpt>

		<trkpt lat="42.872680" lon="-5.368490">
			<ele>1609.000000</ele>
		<time>2015-12-06T01:50:41Z</time>
		</trkpt>

		<trkpt lat="42.872690" lon="-5.368174">
			<ele>1614.000000</ele>
		<time>2015-12-06T01:50:44Z</time>
		</trkpt>

		<trkpt lat="42.872760" lon="-5.367887">
			<ele>1617.000000</ele>
		<time>2015-12-06T01:50:47Z</time>
		</trkpt>

		<trkpt lat="42.872829" lon="-5.367600">
			<ele>1618.000000</ele>
		<time>2015-12-06T01:50:50Z</time>
		</trkpt>

		<trkpt lat="42.872799" lon="-5.367374">
			<ele>1621.000000</ele>
		<time>2015-12-06T01:50:53Z</time>
		</trkpt>

		<trkpt lat="42.872676" lon="-5.367459">
			<ele>1622.000000</ele>
		<time>2015-12-06T01:50:56Z</time>
		</trkpt>

		<trkpt lat="42.872630" lon="-5.367662">
			<ele>1623.000000</ele>
		<time>2015-12-06T01:50:59Z</time>
		</trkpt>

		<trkpt lat="42.872651" lon="-5.368009">
			<ele>1626.000000</ele>
		<time>2015-12-06T01:51:02Z</time>
		</trkpt>

		<trkpt lat="42.872721" lon="-5.368298">
			<ele>1631.000000</ele>
		<time>2015-12-06T01:51:05Z</time>
		</trkpt>

		<trkpt lat="42.872818" lon="-5.368613">
			<ele>1636.000000</ele>
		<time>2015-12-06T01:51:08Z</time>
		</trkpt>

		<trkpt lat="42.872905" lon="-5.368933">
			<ele>1643.000000</ele>
		<time>2015-12-06T01:51:11Z</time>
		</trkpt>

		<trkpt lat="42.872970" lon="-5.369157">
			<ele>1640.000000</ele>
		<time>2015-12-06T01:51:14Z</time>
		</trkpt>

		<trkpt lat="42.872872" lon="-5.369299">
			<ele>1639.000000</ele>
		<time>2015-12-06T01:51:17Z</time>
		</trkpt>

		<trkpt lat="42.872738" lon="-5.369171">
			<ele>1634.000000</ele>
		<time>2015-12-06T01:51:20Z</time>
		</trkpt>

		<trkpt lat="42.872648" lon="-5.368924">
			<ele>1629.000000</ele>
		<time>2015-12-06T01:51:23Z</time>
		</trkpt>

		<trkpt lat="42.872625" lon="-5.368580">
			<ele>1627.000000</ele>
		<time>2015-12-06T01:51:26Z</time>
		</trkpt>

		<trkpt lat="42.872626" lon="-5.368243">
			<ele>1628.000000</ele>
		<time>2015-12-06T01:51:29Z</time>
		</trkpt>

		<trkpt lat="42.872660" lon="-5.367953">
			<ele>1632.000000</ele>
		<time>2015-12-06T01:51:32Z</time>
		</trkpt>

		<trkpt lat="42.872706" lon="-5.367670">
			<ele>1635.000000</ele>
		<time>2015-12-06T01:51:35Z</time>
		</trkpt>

		<trkpt lat="42.872769" lon="-5.367391">
			<ele>1633.000000</ele>
		<time>2015-12-06T01:51:38Z</time>
		</trkpt>

		<trkpt lat="42.872749" lon="-5.367138">
			<ele>1632.000000</ele>
		<time>2015-12-06T01:51:41Z</time>
		</trkpt>

		<trkpt lat="42.872632" lon="-5.367040">
			<ele>1629.000000</ele>
		<time>2015-12-06T01:51:44Z</time>
		</trkpt>

		<trkpt lat="42.872529" lon="-5.367200">
			<ele>1628.000000</ele>
		<time>2015-12-06T01:51:47Z</time>
		</trkpt>

		<trkpt lat="42.872544" lon="-5.367502">
			<ele>1628.000000</ele>
		<time>2015-12-06T01:51:50Z</time>
		</trkpt>

		<trkpt lat="42.872631" lon="-5.367827">
			<ele>1627.000000</ele>
		<time>2015-12-06T01:51:53Z</time>
		</trkpt>

		<trkpt lat="42.872744" lon="-5.368085">
			<ele>1625.000000</ele>
		<time>2015-12-06T01:51:56Z</time>
		</trkpt>

		<trkpt lat="42.872873" lon="-5.368340">
			<ele>1622.000000</ele>
		<time>2015-12-06T01:51:59Z</time>
		</trkpt>

		<trkpt lat="42.872988" lon="-5.368589">
			<ele>1618.000000</ele>
		<time>2015-12-06T01:52:02Z</time>
		</trkpt>

		<trkpt lat="42.873042" lon="-5.368860">
			<ele>1616.000000</ele>
		<time>2015-12-06T01:52:05Z</time>
		</trkpt>

		<trkpt lat="42.872954" lon="-5.369092">
			<ele>1613.000000</ele>
		<time>2015-12-06T01:52:08Z</time>
		</trkpt>

		<trkpt lat="42.872762" lon="-5.369125">
			<ele>1610.000000</ele>
		<time>2015-12-06T01:52:11Z</time>
		</trkpt>

		<trkpt lat="42.872682" lon="-5.368961">
			<ele>1610.000000</ele>
		<time>2015-12-06T01:52:14Z</time>
		</trkpt>

		<trkpt lat="42.872668" lon="-5.368725">
			<ele>1611.000000</ele>
		<time>2015-12-06T01:52:17Z</time>
		</trkpt>

		<trkpt lat="42.872618" lon="-5.368444">
			<ele>1608.000000</ele>
		<time>2015-12-06T01:52:20Z</time>
		</trkpt>

		<trkpt lat="42.872592" lon="-5.368121">
			<ele>1604.000000</ele>
		<time>2015-12-06T01:52:23Z</time>
		</trkpt>

		<trkpt lat="42.872506" lon="-5.367903">
			<ele>1599.000000</ele>
		<time>2015-12-06T01:52:26Z</time>
		</trkpt>

		<trkpt lat="42.872415" lon="-5.367772">
			<ele>1597.000000</ele>
		<time>2015-12-06T01:52:29Z</time>
		</trkpt>

		<trkpt lat="42.872315" lon="-5.367898">
			<ele>1596.000000</ele>
		<time>2015-12-06T01:52:32Z</time>
		</trkpt>

		<trkpt lat="42.872295" lon="-5.368169">
			<ele>1598.000000</ele>
		<time>2015-12-06T01:52:35Z</time>
		</trkpt>

		<trkpt lat="42.872352" lon="-5.368514">
			<ele>1602.000000</ele>
		<time>2015-12-06T01:52:38Z</time>
		</trkpt>

		<trkpt lat="42.872510" lon="-5.368881">
			<ele>1605.000000</ele>
		<time>2015-12-06T01:52:41Z</time>
		</trkpt>

		<trkpt lat="42.872718" lon="-5.369167">
			<ele>1607.000000</ele>
		<time>2015-12-06T01:52:44Z</time>
		</trkpt>

		<trkpt lat="42.872963" lon="-5.369425">
			<ele>1607.000000</ele>
		<time>2015-12-06T01:52:47Z</time>
		</trkpt>

		<trkpt lat="42.873229" lon="-5.369672">
			<ele>1612.000000</ele>
		<time>2015-12-06T01:52:50Z</time>
		</trkpt>

		<trkpt lat="42.873477" lon="-5.369913">
			<ele>1609.000000</ele>
		<time>2015-12-06T01:52:53Z</time>
		</trkpt>

		<trkpt lat="42.873728" lon="-5.370188">
			<ele>1611.000000</ele>
		<time>2015-12-06T01:52:56Z</time>
		</trkpt>

		<trkpt lat="42.873836" lon="-5.370506">
			<ele>1609.000000</ele>
		<time>2015-12-06T01:52:59Z</time>
		</trkpt>

		<trkpt lat="42.873830" lon="-5.370795">
			<ele>1608.000000</ele>
		<time>2015-12-06T01:53:02Z</time>
		</trkpt>

		<trkpt lat="42.873874" lon="-5.371081">
			<ele>1606.000000</ele>
		<time>2015-12-06T01:53:05Z</time>
		</trkpt>

		<trkpt lat="42.873902" lon="-5.371390">
			<ele>1602.000000</ele>
		<time>2015-12-06T01:53:08Z</time>
		</trkpt>

		<trkpt lat="42.873900" lon="-5.371672">
			<ele>1601.000000</ele>
		<time>2015-12-06T01:53:11Z</time>
		</trkpt>

		<trkpt lat="42.873842" lon="-5.371875">
			<ele>1602.000000</ele>
		<time>2015-12-06T01:53:14Z</time>
		</trkpt>

		<trkpt lat="42.873808" lon="-5.372080">
			<ele>1604.000000</ele>
		<time>2015-12-06T01:53:17Z</time>
		</trkpt>

		<trkpt lat="42.873758" lon="-5.372306">
			<ele>1599.000000</ele>
		<time>2015-12-06T01:53:20Z</time>
		</trkpt>

		<trkpt lat="42.873618" lon="-5.372387">
			<ele>1596.000000</ele>
		<time>2015-12-06T01:53:23Z</time>
		</trkpt>

		<trkpt lat="42.873602" lon="-5.371995">
			<ele>1596.000000</ele>
		<time>2015-12-06T01:53:26Z</time>
		</trkpt>

		<trkpt lat="42.873759" lon="-5.371639">
			<ele>1598.000000</ele>
		<time>2015-12-06T01:53:29Z</time>
		</trkpt>

		<trkpt lat="42.873932" lon="-5.371303">
			<ele>1599.000000</ele>
		<time>2015-12-06T01:53:32Z</time>
		</trkpt>

		<trkpt lat="42.873968" lon="-5.370959">
			<ele>1598.000000</ele>
		<time>2015-12-06T01:53:35Z</time>
		</trkpt>

		<trkpt lat="42.873924" lon="-5.370719">
			<ele>1597.000000</ele>
		<time>2015-12-06T01:53:38Z</time>
		</trkpt>

		<trkpt lat="42.873849" lon="-5.370475">
			<ele>1597.000000</ele>
		<time>2015-12-06T01:53:41Z</time>
		</trkpt>

		<trkpt lat="42.873741" lon="-5.370357">
			<ele>1595.000000</ele>
		<time>2015-12-06T01:53:44Z</time>
		</trkpt>

		<trkpt lat="42.873680" lon="-5.370447">
			<ele>1590.000000</ele>
		<time>2015-12-06T01:53:47Z</time>
		</trkpt>

		<trkpt lat="42.873644" lon="-5.370655">
			<ele>1587.000000</ele>
		<time>2015-12-06T01:53:50Z</time>
		</trkpt>

		<trkpt lat="42.873622" lon="-5.370892">
			<ele>1590.000000</ele>
		<time>2015-12-06T01:53:53Z</time>
		</trkpt>

		<trkpt lat="42.873584" lon="-5.371116">
			<ele>1591.000000</ele>
		<time>2015-12-06T01:53:56Z</time>
		</trkpt>

		<trkpt lat="42.873564" lon="-5.371420">
			<ele>1592.000000</ele>
		<time>2015-12-06T01:53:59Z</time>
		</trkpt>

		<trkpt lat="42.873625" lon="-5.371700">
			<ele>1594.000000</ele>
		<time>2015-12-06T01:54:02Z</time>
		</trkpt>

		<trkpt lat="42.873603" lon="-5.371964">
			<ele>1594.000000</ele>
		<time>2015-12-06T01:54:05Z</time>
		</trkpt>

		<trkpt lat="42.873621" lon="-5.372275">
			<ele>1596.000000</ele>
		<time>2015-12-06T01:54:08Z</time>
		</trkpt>

		<trkpt lat="42.873667" lon="-5.372554">
			<ele>1601.000000</ele>
		<time>2015-12-06T01:54:11Z</time>
		</trkpt>

		<trkpt lat="42.873701" lon="-5.372745">
			<ele>1604.000000</ele>
		<time>2015-12-06T01:54:14Z</time>
		</trkpt>

		<trkpt lat="42.873681" lon="-5.372924">
			<ele>1606.000000</ele>
		<time>2015-12-06T01:54:17Z</time>
		</trkpt>

		<trkpt lat="42.873657" lon="-5.373150">
			<ele>1605.000000</ele>
		<time>2015-12-06T01:54:20Z</time>
		</trkpt>

		<trkpt lat="42.873551" lon="-5.373171">
			<ele>1602.000000</ele>
		<time>2015-12-06T01:54:23Z</time>
		</trkpt>

		<trkpt lat="42.873493" lon="-5.372890">
			<ele>1601.000000</ele>
		<time>2015-12-06T01:54:26Z</time>
		</trkpt>

		<trkpt lat="42.873571" lon="-5.372517">
			<ele>1603.000000</ele>
		<time>2015-12-06T01:54:29Z</time>
		</trkpt>

		<trkpt lat="42.873721" lon="-5.372156">
			<ele>1602.000000</ele>
		<time>2015-12-06T01:54:32Z</time>
		</trkpt>

		<trkpt lat="42.873784" lon="-5.371776">
			<ele>1603.000000</ele>
		<time>2015-12-06T01:54:35Z</time>
		</trkpt>

		<trkpt lat="42.873839" lon="-5.371426">
			<ele>1606.000000</ele>
		<time>2015-12-06T01:54:38Z</time>
		</trkpt>

		<trkpt lat="42.873835" lon="-5.371087">
			<ele>1605.000000</ele>
		<time>2015-12-06T01:54:41Z</time>
		</trkpt>

		<trkpt lat="42.873787" lon="-5.370882">
			<ele>1605.000000</ele>
		<time>2015-12-06T01:54:44Z</time>
		</trkpt>

		<trkpt lat="42.873691" lon="-5.370910">
			<ele>1603.000000</ele>
		<time>2015-12-06T01:54:47Z</time>
		</trkpt>

		<trkpt lat="42.873690" lon="-5.371065">
			<ele>1604.000000</ele>
		<time>2015-12-06T01:54:50Z</time>
		</trkpt>

		<trkpt lat="42.873677" lon="-5.371227">
			<ele>1601.000000</ele>
		<time>2015-12-06T01:54:53Z</time>
		</trkpt>

		<trkpt lat="42.873654" lon="-5.371515">
			<ele>1601.000000</ele>
		<time>2015-12-06T01:54:56Z</time>
		</trkpt>

		<trkpt lat="42.873622" lon="-5.371645">
			<ele>1602.000000</ele>
		<time>2015-12-06T01:54:59Z</time>
		</trkpt>

		<trkpt lat="42.873572" lon="-5.371765">
			<ele>1602.000000</ele>
		<time>2015-12-06T01:55:02Z</time>
		</trkpt>

		<trkpt lat="42.873512" lon="-5.371867">
			<ele>1598.000000</ele>
		<time>2015-12-06T01:55:05Z</time>
		</trkpt>

		<trkpt lat="42.873397" lon="-5.372008">
			<ele>1597.000000</ele>
		<time>2015-12-06T01:55:08Z</time>
		</trkpt>

		<trkpt lat="42.873265" lon="-5.372102">
			<ele>1601.000000</ele>
		<time>2015-12-06T01:55:11Z</time>
		</trkpt>

		<trkpt lat="42.873125" lon="-5.372160">
			<ele>1600.000000</ele>
		<time>2015-12-06T01:55:14Z</time>
		</trkpt>

		<trkpt lat="42.873005" lon="-5.371999">
			<ele>1604.000000</ele>
		<time>2015-12-06T01:55:17Z</time>
		</trkpt>

		<trkpt lat="42.872951" lon="-5.371747">
			<ele>1605.000000</ele>
		<time>2015-12-06T01:55:20Z</time>
		</trkpt>

		<trkpt lat="42.873075" lon="-5.371357">
			<ele>1604.000000</ele>
		<time>2015-12-06T01:55:23Z</time>
		</trkpt>

		<trkpt lat="42.873279" lon="-5.371049">
			<ele>1603.000000</ele>
		<time>2015-12-06T01:55:26Z</time>
		</trkpt>

		<trkpt lat="42.873507" lon="-5.370706">
			<ele>1603.000000</ele>
		<time>2015-12-06T01:55:29Z</time>
		</trkpt>

		<trkpt lat="42.873577" lon="-5.370378">
			<ele>1604.000000</ele>
		<time>2015-12-06T01:55:32Z</time>
		</trkpt>

		<trkpt lat="42.873467" lon="-5.370284">
			<ele>1602.000000</ele>
		<time>2015-12-06T01:55:35Z</time>
		</trkpt>

		<trkpt lat="42.873431" lon="-5.370498">
			<ele>1602.000000</ele>
		<time>2015-12-06T01:55:38Z</time>
		</trkpt>

		<trkpt lat="42.873459" lon="-5.370797">
			<ele>1601.000000</ele>
		<time>2015-12-06T01:55:41Z</time>
		</trkpt>

		<trkpt lat="42.873487" lon="-5.371119">
			<ele>1601.000000</ele>
		<time>2015-12-06T01:55:44Z</time>
		</trkpt>

		<trkpt lat="42.873510" lon="-5.371386">
			<ele>1603.000000</ele>
		<time>2015-12-06T01:55:47Z</time>
		</trkpt>

		<trkpt lat="42.873563" lon="-5.371619">
			<ele>1605.000000</ele>
		<time>2015-12-06T01:55:50Z</time>
		</trkpt>

		<trkpt lat="42.873545" lon="-5.371816">
			<ele>1603.000000</ele>
		<time>2015-12-06T01:55:53Z</time>
		</trkpt>

		<trkpt lat="42.873496" lon="-5.371990">
			<ele>1605.000000</ele>
		<time>2015-12-06T01:55:56Z</time>
		</trkpt>

		<trkpt lat="42.873446" lon="-5.372142">
			<ele>1611.000000</ele>
		<time>2015-12-06T01:55:59Z</time>
		</trkpt>

		<trkpt lat="42.873370" lon="-5.372294">
			<ele>1606.000000</ele>
		<time>2015-12-06T01:56:02Z</time>
		</trkpt>

		<trkpt lat="42.873161" lon="-5.372171">
			<ele>1602.000000</ele>
		<time>2015-12-06T01:56:05Z</time>
		</trkpt>

		<trkpt lat="42.873144" lon="-5.371768">
			<ele>1601.000000</ele>
		<time>2015-12-06T01:56:08Z</time>
		</trkpt>

		<trkpt lat="42.873267" lon="-5.371367">
			<ele>1597.000000</ele>
		<time>2015-12-06T01:56:11Z</time>
		</trkpt>

		<trkpt lat="42.873443" lon="-5.370978">
			<ele>1597.000000</ele>
		<time>2015-12-06T01:56:14Z</time>
		</trkpt>

		<trkpt lat="42.873473" lon="-5.370599">
			<ele>1594.000000</ele>
		<time>2015-12-06T01:56:17Z</time>
		</trkpt>

		<trkpt lat="42.873457" lon="-5.370256">
			<ele>1595.000000</ele>
		<time>2015-12-06T01:56:20Z</time>
		</trkpt>

		<trkpt lat="42.873378" lon="-5.370079">
			<ele>1596.000000</ele>
		<time>2015-12-06T01:56:23Z</time>
		</trkpt>

		<trkpt lat="42.873288" lon="-5.369875">
			<ele>1596.000000</ele>
		<time>2015-12-06T01:56:26Z</time>
		</trkpt>

		<trkpt lat="42.873236" lon="-5.369593">
			<ele>1596.000000</ele>
		<time>2015-12-06T01:56:29Z</time>
		</trkpt>

		<trkpt lat="42.873187" lon="-5.369306">
			<ele>1600.000000</ele>
		<time>2015-12-06T01:56:32Z</time>
		</trkpt>

		<trkpt lat="42.873150" lon="-5.369109">
			<ele>1602.000000</ele>
		<time>2015-12-06T01:56:35Z</time>
		</trkpt>

		<trkpt lat="42.873084" lon="-5.368832">
			<ele>1600.000000</ele>
		<time>2015-12-06T01:56:38Z</time>
		</trkpt>

		<trkpt lat="42.872984" lon="-5.368779">
			<ele>1602.000000</ele>
		<time>2015-12-06T01:56:41Z</time>
		</trkpt>

		<trkpt lat="42.872896" lon="-5.368935">
			<ele>1598.000000</ele>
		<time>2015-12-06T01:56:44Z</time>
		</trkpt>

		<trkpt lat="42.872913" lon="-5.369253">
			<ele>1596.000000</ele>
		<time>2015-12-06T01:56:47Z</time>
		</trkpt>

		<trkpt lat="42.873013" lon="-5.369503">
			<ele>1597.000000</ele>
		<time>2015-12-06T01:56:50Z</time>
		</trkpt>

		<trkpt lat="42.873079" lon="-5.369818">
			<ele>1599.000000</ele>
		<time>2015-12-06T01:56:53Z</time>
		</trkpt>

		<trkpt lat="42.873147" lon="-5.370078">
			<ele>1598.000000</ele>
		<time>2015-12-06T01:56:56Z</time>
		</trkpt>

		<trkpt lat="42.873185" lon="-5.370302">
			<ele>1597.000000</ele>
		<time>2015-12-06T01:56:59Z</time>
		</trkpt>

		<trkpt lat="42.873213" lon="-5.370569">
			<ele>1597.000000</ele>
		<time>2015-12-06T01:57:02Z</time>
		</trkpt>

		<trkpt lat="42.873242" lon="-5.370848">
			<ele>1598.000000</ele>
		<time>2015-12-06T01:57:05Z</time>
		</trkpt>

		<trkpt lat="42.873229" lon="-5.371062">
			<ele>1595.000000</ele>
		<time>2015-12-06T01:57:08Z</time>
		</trkpt>

		<trkpt lat="42.873227" lon="-5.371292">
			<ele>1593.000000</ele>
		<time>2015-12-06T01:57:11Z</time>
		</trkpt>

		<trkpt lat="42.873288" lon="-5.371612">
			<ele>1591.000000</ele>
		<time>2015-12-06T01:57:14Z</time>
		</trkpt>

		<trkpt lat="42.873217" lon="-5.371770">
			<ele>1587.000000</ele>
		<time>2015-12-06T01:57:17Z</time>
		</trkpt>

		<trkpt lat="42.873067" lon="-5.371729">
			<ele>1587.000000</ele>
		<time>2015-12-06T01:57:20Z</time>
		</trkpt>

		<trkpt lat="42.873058" lon="-5.371403">
			<ele>1587.000000</ele>
		<time>2015-12-06T01:57:23Z</time>
		</trkpt>

		<trkpt lat="42.873218" lon="-5.371145">
			<ele>1588.000000</ele>
		<time>2015-12-06T01:57:26Z</time>
		</trkpt>

		<trkpt lat="42.873434" lon="-5.370834">
			<ele>1586.000000</ele>
		<time>2015-12-06T01:57:29Z</time>
		</trkpt>

		<trkpt lat="42.873591" lon="-5.370484">
			<ele>1588.000000</ele>
		<time>2015-12-06T01:57:32Z</time>
		</trkpt>

		<trkpt lat="42.873625" lon="-5.370098">
			<ele>1585.000000</ele>
		<time>2015-12-06T01:57:35Z</time>
		</trkpt>

		<trkpt lat="42.873549" lon="-5.369792">
			<ele>1588.000000</ele>
		<time>2015-12-06T01:57:38Z</time>
		</trkpt>

		<trkpt lat="42.873497" lon="-5.369557">
			<ele>1590.000000</ele>
		<time>2015-12-06T01:57:41Z</time>
		</trkpt>

		<trkpt lat="42.873382" lon="-5.369313">
			<ele>1592.000000</ele>
		<time>2015-12-06T01:57:44Z</time>
		</trkpt>

		<trkpt lat="42.873316" lon="-5.369158">
			<ele>1597.000000</ele>
		<time>2015-12-06T01:57:47Z</time>
		</trkpt>

		<trkpt lat="42.873212" lon="-5.368984">
			<ele>1601.000000</ele>
		<time>2015-12-06T01:57:50Z</time>
		</trkpt>

		<trkpt lat="42.873144" lon="-5.368850">
			<ele>1603.000000</ele>
		<time>2015-12-06T01:57:53Z</time>
		</trkpt>

		<trkpt lat="42.872998" lon="-5.368650">
			<ele>1604.000000</ele>
		<time>2015-12-06T01:57:56Z</time>
		</trkpt>

		<trkpt lat="42.872842" lon="-5.368663">
			<ele>1606.000000</ele>
		<time>2015-12-06T01:57:59Z</time>
		</trkpt>

		<trkpt lat="42.872739" lon="-5.368686">
			<ele>1608.000000</ele>
		<time>2015-12-06T01:58:02Z</time>
		</trkpt>

		<trkpt lat="42.872593" lon="-5.369197">
			<ele>1608.000000</ele>
		<time>2015-12-06T01:58:09Z</time>
		</trkpt>

		<trkpt lat="42.872598" lon="-5.369380">
			<ele>1606.000000</ele>
		<time>2015-12-06T01:58:12Z</time>
		</trkpt>

		<trkpt lat="42.872739" lon="-5.369706">
			<ele>1606.000000</ele>
		<time>2015-12-06T01:58:15Z</time>
		</trkpt>

		<trkpt lat="42.872917" lon="-5.370092">
			<ele>1605.000000</ele>
		<time>2015-12-06T01:58:18Z</time>
		</trkpt>

		<trkpt lat="42.873144" lon="-5.370389">
			<ele>1610.000000</ele>
		<time>2015-12-06T01:58:21Z</time>
		</trkpt>

		<trkpt lat="42.873351" lon="-5.370674">
			<ele>1610.000000</ele>
		<time>2015-12-06T01:58:24Z</time>
		</trkpt>

		<trkpt lat="42.873541" lon="-5.370968">
			<ele>1611.000000</ele>
		<time>2015-12-06T01:58:27Z</time>
		</trkpt>

		<trkpt lat="42.873712" lon="-5.371202">
			<ele>1606.000000</ele>
		<time>2015-12-06T01:58:30Z</time>
		</trkpt>

		<trkpt lat="42.873814" lon="-5.371470">
			<ele>1605.000000</ele>
		<time>2015-12-06T01:58:33Z</time>
		</trkpt>

		<trkpt lat="42.873713" lon="-5.371600">
			<ele>1602.000000</ele>
		<time>2015-12-06T01:58:37Z</time>
		</trkpt>

		<trkpt lat="42.873646" lon="-5.371490">
			<ele>1608.000000</ele>
		<time>2015-12-06T01:58:40Z</time>
		</trkpt>

		<trkpt lat="42.873633" lon="-5.371230">
			<ele>1606.000000</ele>
		<time>2015-12-06T01:58:43Z</time>
		</trkpt>

		<trkpt lat="42.873647" lon="-5.370928">
			<ele>1609.000000</ele>
		<time>2015-12-06T01:58:46Z</time>
		</trkpt>

		<trkpt lat="42.873659" lon="-5.370662">
			<ele>1611.000000</ele>
		<time>2015-12-06T01:58:49Z</time>
		</trkpt>

		<trkpt lat="42.873606" lon="-5.370354">
			<ele>1613.000000</ele>
		<time>2015-12-06T01:58:52Z</time>
		</trkpt>

		<trkpt lat="42.873593" lon="-5.370112">
			<ele>1611.000000</ele>
		<time>2015-12-06T01:58:55Z</time>
		</trkpt>

		<trkpt lat="42.873537" lon="-5.369854">
			<ele>1610.000000</ele>
		<time>2015-12-06T01:58:58Z</time>
		</trkpt>

		<trkpt lat="42.873490" lon="-5.369662">
			<ele>1609.000000</ele>
		<time>2015-12-06T01:59:01Z</time>
		</trkpt>

		<trkpt lat="42.873481" lon="-5.369423">
			<ele>1605.000000</ele>
		<time>2015-12-06T01:59:04Z</time>
		</trkpt>

		<trkpt lat="42.873386" lon="-5.369371">
			<ele>1605.000000</ele>
		<time>2015-12-06T01:59:07Z</time>
		</trkpt>

		<trkpt lat="42.873323" lon="-5.369540">
			<ele>1604.000000</ele>
		<time>2015-12-06T01:59:10Z</time>
		</trkpt>

		<trkpt lat="42.873340" lon="-5.369813">
			<ele>1602.000000</ele>
		<time>2015-12-06T01:59:13Z</time>
		</trkpt>

		<trkpt lat="42.873408" lon="-5.370144">
			<ele>1607.000000</ele>
		<time>2015-12-06T01:59:16Z</time>
		</trkpt>

		<trkpt lat="42.873508" lon="-5.370402">
			<ele>1606.000000</ele>
		<time>2015-12-06T01:59:19Z</time>
		</trkpt>

		<trkpt lat="42.873601" lon="-5.370791">
			<ele>1604.000000</ele>
		<time>2015-12-06T01:59:22Z</time>
		</trkpt>

		<trkpt lat="42.873755" lon="-5.371062">
			<ele>1605.000000</ele>
		<time>2015-12-06T01:59:25Z</time>
		</trkpt>

		<trkpt lat="42.873849" lon="-5.371336">
			<ele>1599.000000</ele>
		<time>2015-12-06T01:59:28Z</time>
		</trkpt>

		<trkpt lat="42.873924" lon="-5.371629">
			<ele>1599.000000</ele>
		<time>2015-12-06T01:59:31Z</time>
		</trkpt>

		<trkpt lat="42.873899" lon="-5.371919">
			<ele>1598.000000</ele>
		<time>2015-12-06T01:59:34Z</time>
		</trkpt>

		<trkpt lat="42.873825" lon="-5.372148">
			<ele>1602.000000</ele>
		<time>2015-12-06T01:59:37Z</time>
		</trkpt>

		<trkpt lat="42.873756" lon="-5.372201">
			<ele>1604.000000</ele>
		<time>2015-12-06T01:59:40Z</time>
		</trkpt>

		<trkpt lat="42.873616" lon="-5.372082">
			<ele>1602.000000</ele>
		<time>2015-12-06T01:59:43Z</time>
		</trkpt>

		<trkpt lat="42.873548" lon="-5.371819">
			<ele>1610.000000</ele>
		<time>2015-12-06T01:59:46Z</time>
		</trkpt>

		<trkpt lat="42.873536" lon="-5.371551">
			<ele>1608.000000</ele>
		<time>2015-12-06T01:59:49Z</time>
		</trkpt>

		<trkpt lat="42.873578" lon="-5.371242">
			<ele>1606.000000</ele>
		<time>2015-12-06T01:59:52Z</time>
		</trkpt>

		<trkpt lat="42.873636" lon="-5.370888">
			<ele>1602.000000</ele>
		<time>2015-12-06T01:59:55Z</time>
		</trkpt>

		<trkpt lat="42.873707" lon="-5.370573">
			<ele>1603.000000</ele>
		<time>2015-12-06T01:59:58Z</time>
		</trkpt>

		<trkpt lat="42.873683" lon="-5.370306">
			<ele>1602.000000</ele>
		<time>2015-12-06T02:00:01Z</time>
		</trkpt>

		<trkpt lat="42.873576" lon="-5.370199">
			<ele>1602.000000</ele>
		<time>2015-12-06T02:00:04Z</time>
		</trkpt>

		<trkpt lat="42.873506" lon="-5.370284">
			<ele>1604.000000</ele>
		<time>2015-12-06T02:00:07Z</time>
		</trkpt>

		<trkpt lat="42.873408" lon="-5.370389">
			<ele>1610.000000</ele>
		<time>2015-12-06T02:00:10Z</time>
		</trkpt>

		<trkpt lat="42.873326" lon="-5.370494">
			<ele>1617.000000</ele>
		<time>2015-12-06T02:00:13Z</time>
		</trkpt>

		<trkpt lat="42.873275" lon="-5.370559">
			<ele>1613.000000</ele>
		<time>2015-12-06T02:00:16Z</time>
		</trkpt>

		<trkpt lat="42.873174" lon="-5.370637">
			<ele>1611.000000</ele>
		<time>2015-12-06T02:00:19Z</time>
		</trkpt>

		<trkpt lat="42.873114" lon="-5.370243">
			<ele>1612.000000</ele>
		<time>2015-12-06T02:00:22Z</time>
		</trkpt>

		<trkpt lat="42.873210" lon="-5.369885">
			<ele>1613.000000</ele>
		<time>2015-12-06T02:00:25Z</time>
		</trkpt>

		<trkpt lat="42.873376" lon="-5.369539">
			<ele>1617.000000</ele>
		<time>2015-12-06T02:00:28Z</time>
		</trkpt>

		<trkpt lat="42.873524" lon="-5.369202">
			<ele>1618.000000</ele>
		<time>2015-12-06T02:00:31Z</time>
		</trkpt>

		<trkpt lat="42.873486" lon="-5.368903">
			<ele>1623.000000</ele>
		<time>2015-12-06T02:00:34Z</time>
		</trkpt>

		<trkpt lat="42.873407" lon="-5.368712">
			<ele>1627.000000</ele>
		<time>2015-12-06T02:00:37Z</time>
		</trkpt>

		<trkpt lat="42.873326" lon="-5.368667">
			<ele>1632.000000</ele>
		<time>2015-12-06T02:00:40Z</time>
		</trkpt>

		<trkpt lat="42.873224" lon="-5.368737">
			<ele>1630.000000</ele>
		<time>2015-12-06T02:00:43Z</time>
		</trkpt>

		<trkpt lat="42.873165" lon="-5.368975">
			<ele>1633.000000</ele>
		<time>2015-12-06T02:00:46Z</time>
		</trkpt>

		<trkpt lat="42.873237" lon="-5.369226">
			<ele>1633.000000</ele>
		<time>2015-12-06T02:00:49Z</time>
		</trkpt>

		<trkpt lat="42.873293" lon="-5.369566">
			<ele>1632.000000</ele>
		<time>2015-12-06T02:00:52Z</time>
		</trkpt>

		<trkpt lat="42.873349" lon="-5.369878">
			<ele>1632.000000</ele>
		<time>2015-12-06T02:00:55Z</time>
		</trkpt>

		<trkpt lat="42.873400" lon="-5.370151">
			<ele>1627.000000</ele>
		<time>2015-12-06T02:00:58Z</time>
		</trkpt>

		<trkpt lat="42.873472" lon="-5.370418">
			<ele>1627.000000</ele>
		<time>2015-12-06T02:01:01Z</time>
		</trkpt>

		<trkpt lat="42.873526" lon="-5.370680">
			<ele>1626.000000</ele>
		<time>2015-12-06T02:01:04Z</time>
		</trkpt>

		<trkpt lat="42.873580" lon="-5.370939">
			<ele>1628.000000</ele>
		<time>2015-12-06T02:01:07Z</time>
		</trkpt>

		<trkpt lat="42.873580" lon="-5.371183">
			<ele>1630.000000</ele>
		<time>2015-12-06T02:01:10Z</time>
		</trkpt>

		<trkpt lat="42.873532" lon="-5.371391">
			<ele>1623.000000</ele>
		<time>2015-12-06T02:01:13Z</time>
		</trkpt>

		<trkpt lat="42.873365" lon="-5.371357">
			<ele>1621.000000</ele>
		<time>2015-12-06T02:01:16Z</time>
		</trkpt>

		<trkpt lat="42.873165" lon="-5.371049">
			<ele>1623.000000</ele>
		<time>2015-12-06T02:01:19Z</time>
		</trkpt>

		<trkpt lat="42.873240" lon="-5.370593">
			<ele>1622.000000</ele>
		<time>2015-12-06T02:01:22Z</time>
		</trkpt>

		<trkpt lat="42.873234" lon="-5.370190">
			<ele>1624.000000</ele>
		<time>2015-12-06T02:01:25Z</time>
		</trkpt>

		<trkpt lat="42.873206" lon="-5.369847">
			<ele>1622.000000</ele>
		<time>2015-12-06T02:01:28Z</time>
		</trkpt>

		<trkpt lat="42.873178" lon="-5.369535">
			<ele>1618.000000</ele>
		<time>2015-12-06T02:01:31Z</time>
		</trkpt>

		<trkpt lat="42.873104" lon="-5.369287">
			<ele>1618.000000</ele>
		<time>2015-12-06T02:01:34Z</time>
		</trkpt>

		<trkpt lat="42.872990" lon="-5.369044">
			<ele>1617.000000</ele>
		<time>2015-12-06T02:01:37Z</time>
		</trkpt>

		<trkpt lat="42.872857" lon="-5.368954">
			<ele>1615.000000</ele>
		<time>2015-12-06T02:01:40Z</time>
		</trkpt>

		<trkpt lat="42.872738" lon="-5.369012">
			<ele>1613.000000</ele>
		<time>2015-12-06T02:01:43Z</time>
		</trkpt>

		<trkpt lat="42.872710" lon="-5.369237">
			<ele>1613.000000</ele>
		<time>2015-12-06T02:01:46Z</time>
		</trkpt>

		<trkpt lat="42.872743" lon="-5.369381">
			<ele>1613.000000</ele>
		<time>2015-12-06T02:01:49Z</time>
		</trkpt>

		<trkpt lat="42.872828" lon="-5.369671">
			<ele>1609.000000</ele>
		<time>2015-12-06T02:01:52Z</time>
		</trkpt>

		<trkpt lat="42.872959" lon="-5.369930">
			<ele>1609.000000</ele>
		<time>2015-12-06T02:01:55Z</time>
		</trkpt>

		<trkpt lat="42.873049" lon="-5.370147">
			<ele>1606.000000</ele>
		<time>2015-12-06T02:01:58Z</time>
		</trkpt>

		<trkpt lat="42.873179" lon="-5.370399">
			<ele>1607.000000</ele>
		<time>2015-12-06T02:02:01Z</time>
		</trkpt>

		<trkpt lat="42.873359" lon="-5.370694">
			<ele>1604.000000</ele>
		<time>2015-12-06T02:02:04Z</time>
		</trkpt>

		<trkpt lat="42.873598" lon="-5.371137">
			<ele>1606.000000</ele>
		<time>2015-12-06T02:02:10Z</time>
		</trkpt>

		<trkpt lat="42.873520" lon="-5.371308">
			<ele>1602.000000</ele>
		<time>2015-12-06T02:02:13Z</time>
		</trkpt>

		<trkpt lat="42.873377" lon="-5.371365">
			<ele>1603.000000</ele>
		<time>2015-12-06T02:02:16Z</time>
		</trkpt>

		<trkpt lat="42.873218" lon="-5.371300">
			<ele>1602.000000</ele>
		<time>2015-12-06T02:02:19Z</time>
		</trkpt>

		<trkpt lat="42.873115" lon="-5.371107">
			<ele>1600.000000</ele>
		<time>2015-12-06T02:02:22Z</time>
		</trkpt>

		<trkpt lat="42.873118" lon="-5.370789">
			<ele>1598.000000</ele>
		<time>2015-12-06T02:02:25Z</time>
		</trkpt>

		<trkpt lat="42.873224" lon="-5.370488">
			<ele>1597.000000</ele>
		<time>2015-12-06T02:02:28Z</time>
		</trkpt>

		<trkpt lat="42.873368" lon="-5.370129">
			<ele>1597.000000</ele>
		<time>2015-12-06T02:02:31Z</time>
		</trkpt>

		<trkpt lat="42.873417" lon="-5.369805">
			<ele>1595.000000</ele>
		<time>2015-12-06T02:02:34Z</time>
		</trkpt>

		<trkpt lat="42.873394" lon="-5.369497">
			<ele>1596.000000</ele>
		<time>2015-12-06T02:02:37Z</time>
		</trkpt>

		<trkpt lat="42.873365" lon="-5.369239">
			<ele>1595.000000</ele>
		<time>2015-12-06T02:02:40Z</time>
		</trkpt>

		<trkpt lat="42.873311" lon="-5.368928">
			<ele>1593.000000</ele>
		<time>2015-12-06T02:02:43Z</time>
		</trkpt>

		<trkpt lat="42.873229" lon="-5.368780">
			<ele>1590.000000</ele>
		<time>2015-12-06T02:02:46Z</time>
		</trkpt>

		<trkpt lat="42.873098" lon="-5.368746">
			<ele>1588.000000</ele>
		<time>2015-12-06T02:02:49Z</time>
		</trkpt>

		<trkpt lat="42.872991" lon="-5.368626">
			<ele>1587.000000</ele>
		<time>2015-12-06T02:02:52Z</time>
		</trkpt>

		<trkpt lat="42.872899" lon="-5.368495">
			<ele>1586.000000</ele>
		<time>2015-12-06T02:02:55Z</time>
		</trkpt>

		<trkpt lat="42.872744" lon="-5.368392">
			<ele>1581.000000</ele>
		<time>2015-12-06T02:02:58Z</time>
		</trkpt>

		<trkpt lat="42.872632" lon="-5.368285">
			<ele>1577.000000</ele>
		<time>2015-12-06T02:03:01Z</time>
		</trkpt>

		<trkpt lat="42.872542" lon="-5.368161">
			<ele>1575.000000</ele>
		<time>2015-12-06T02:03:04Z</time>
		</trkpt>

		<trkpt lat="42.872448" lon="-5.368035">
			<ele>1576.000000</ele>
		<time>2015-12-06T02:03:07Z</time>
		</trkpt>

		<trkpt lat="42.872371" lon="-5.367859">
			<ele>1574.000000</ele>
		<time>2015-12-06T02:03:10Z</time>
		</trkpt>

		<trkpt lat="42.872304" lon="-5.367636">
			<ele>1574.000000</ele>
		<time>2015-12-06T02:03:13Z</time>
		</trkpt>

		<trkpt lat="42.872227" lon="-5.367504">
			<ele>1574.000000</ele>
		<time>2015-12-06T02:03:16Z</time>
		</trkpt>

		<trkpt lat="42.872092" lon="-5.367434">
			<ele>1573.000000</ele>
		<time>2015-12-06T02:03:19Z</time>
		</trkpt>

		<trkpt lat="42.871987" lon="-5.367359">
			<ele>1575.000000</ele>
		<time>2015-12-06T02:03:22Z</time>
		</trkpt>

		<trkpt lat="42.871874" lon="-5.367372">
			<ele>1580.000000</ele>
		<time>2015-12-06T02:03:25Z</time>
		</trkpt>

		<trkpt lat="42.871798" lon="-5.367593">
			<ele>1583.000000</ele>
		<time>2015-12-06T02:03:28Z</time>
		</trkpt>

		<trkpt lat="42.871729" lon="-5.367918">
			<ele>1585.000000</ele>
		<time>2015-12-06T02:03:31Z</time>
		</trkpt>

		<trkpt lat="42.871714" lon="-5.368173">
			<ele>1587.000000</ele>
		<time>2015-12-06T02:03:34Z</time>
		</trkpt>

		<trkpt lat="42.871595" lon="-5.368213">
			<ele>1585.000000</ele>
		<time>2015-12-06T02:03:37Z</time>
		</trkpt>

		<trkpt lat="42.871573" lon="-5.367924">
			<ele>1585.000000</ele>
		<time>2015-12-06T02:03:40Z</time>
		</trkpt>

		<trkpt lat="42.871751" lon="-5.367684">
			<ele>1587.000000</ele>
		<time>2015-12-06T02:03:43Z</time>
		</trkpt>

		<trkpt lat="42.871948" lon="-5.367466">
			<ele>1588.000000</ele>
		<time>2015-12-06T02:03:46Z</time>
		</trkpt>

		<trkpt lat="42.872116" lon="-5.367188">
			<ele>1589.000000</ele>
		<time>2015-12-06T02:03:49Z</time>
		</trkpt>

		<trkpt lat="42.872119" lon="-5.366983">
			<ele>1590.000000</ele>
		<time>2015-12-06T02:03:52Z</time>
		</trkpt>

		<trkpt lat="42.872015" lon="-5.366968">
			<ele>1591.000000</ele>
		<time>2015-12-06T02:03:55Z</time>
		</trkpt>

		<trkpt lat="42.871909" lon="-5.367051">
			<ele>1589.000000</ele>
		<time>2015-12-06T02:03:58Z</time>
		</trkpt>

		<trkpt lat="42.871842" lon="-5.367327">
			<ele>1588.000000</ele>
		<time>2015-12-06T02:04:01Z</time>
		</trkpt>

		<trkpt lat="42.871864" lon="-5.367694">
			<ele>1588.000000</ele>
		<time>2015-12-06T02:04:04Z</time>
		</trkpt>

		<trkpt lat="42.871970" lon="-5.368111">
			<ele>1589.000000</ele>
		<time>2015-12-06T02:04:07Z</time>
		</trkpt>

		<trkpt lat="42.872076" lon="-5.368404">
			<ele>1593.000000</ele>
		<time>2015-12-06T02:04:10Z</time>
		</trkpt>

		<trkpt lat="42.872196" lon="-5.368715">
			<ele>1596.000000</ele>
		<time>2015-12-06T02:04:13Z</time>
		</trkpt>

		<trkpt lat="42.872312" lon="-5.368995">
			<ele>1597.000000</ele>
		<time>2015-12-06T02:04:16Z</time>
		</trkpt>

		<trkpt lat="42.872345" lon="-5.369346">
			<ele>1599.000000</ele>
		<time>2015-12-06T02:04:19Z</time>
		</trkpt>

		<trkpt lat="42.872208" lon="-5.369362">
			<ele>1606.000000</ele>
		<time>2015-12-06T02:04:22Z</time>
		</trkpt>

		<trkpt lat="42.872076" lon="-5.369119">
			<ele>1609.000000</ele>
		<time>2015-12-06T02:04:25Z</time>
		</trkpt>

		<trkpt lat="42.872032" lon="-5.368758">
			<ele>1609.000000</ele>
		<time>2015-12-06T02:04:28Z</time>
		</trkpt>

		<trkpt lat="42.872108" lon="-5.368342">
			<ele>1615.000000</ele>
		<time>2015-12-06T02:04:31Z</time>
		</trkpt>

		<trkpt lat="42.872181" lon="-5.367992">
			<ele>1618.000000</ele>
		<time>2015-12-06T02:04:34Z</time>
		</trkpt>

		<trkpt lat="42.872206" lon="-5.367672">
			<ele>1621.000000</ele>
		<time>2015-12-06T02:04:37Z</time>
		</trkpt>

		<trkpt lat="42.872212" lon="-5.367422">
			<ele>1623.000000</ele>
		<time>2015-12-06T02:04:40Z</time>
		</trkpt>

		<trkpt lat="42.872377" lon="-5.367066">
			<ele>1621.000000</ele>
		<time>2015-12-06T02:04:43Z</time>
		</trkpt>

		<trkpt lat="42.872536" lon="-5.366816">
			<ele>1621.000000</ele>
		<time>2015-12-06T02:04:46Z</time>
		</trkpt>

		<trkpt lat="42.872584" lon="-5.366523">
			<ele>1621.000000</ele>
		<time>2015-12-06T02:04:49Z</time>
		</trkpt>

		<trkpt lat="42.872467" lon="-5.366457">
			<ele>1620.000000</ele>
		<time>2015-12-06T02:04:52Z</time>
		</trkpt>

		<trkpt lat="42.872356" lon="-5.366602">
			<ele>1620.000000</ele>
		<time>2015-12-06T02:04:55Z</time>
		</trkpt>

		<trkpt lat="42.872315" lon="-5.366859">
			<ele>1618.000000</ele>
		<time>2015-12-06T02:04:58Z</time>
		</trkpt>

		<trkpt lat="42.872316" lon="-5.367166">
			<ele>1619.000000</ele>
		<time>2015-12-06T02:05:01Z</time>
		</trkpt>

		<trkpt lat="42.872378" lon="-5.367510">
			<ele>1619.000000</ele>
		<time>2015-12-06T02:05:04Z</time>
		</trkpt>

		<trkpt lat="42.872465" lon="-5.367822">
			<ele>1620.000000</ele>
		<time>2015-12-06T02:05:07Z</time>
		</trkpt>

		<trkpt lat="42.872600" lon="-5.368144">
			<ele>1623.000000</ele>
		<time>2015-12-06T02:05:10Z</time>
		</trkpt>

		<trkpt lat="42.872750" lon="-5.368460">
			<ele>1627.000000</ele>
		<time>2015-12-06T02:05:13Z</time>
		</trkpt>

		<trkpt lat="42.872915" lon="-5.368763">
			<ele>1633.000000</ele>
		<time>2015-12-06T02:05:16Z</time>
		</trkpt>

		<trkpt lat="42.873084" lon="-5.369051">
			<ele>1637.000000</ele>
		<time>2015-12-06T02:05:19Z</time>
		</trkpt>

		<trkpt lat="42.873268" lon="-5.369240">
			<ele>1638.000000</ele>
		<time>2015-12-06T02:05:22Z</time>
		</trkpt>

		<trkpt lat="42.873486" lon="-5.369457">
			<ele>1638.000000</ele>
		<time>2015-12-06T02:05:25Z</time>
		</trkpt>

		<trkpt lat="42.873685" lon="-5.369705">
			<ele>1640.000000</ele>
		<time>2015-12-06T02:05:28Z</time>
		</trkpt>

		<trkpt lat="42.873694" lon="-5.369921">
			<ele>1640.000000</ele>
		<time>2015-12-06T02:05:31Z</time>
		</trkpt>

		<trkpt lat="42.873545" lon="-5.369884">
			<ele>1637.000000</ele>
		<time>2015-12-06T02:05:34Z</time>
		</trkpt>

		<trkpt lat="42.873422" lon="-5.369744">
			<ele>1636.000000</ele>
		<time>2015-12-06T02:05:37Z</time>
		</trkpt>

		<trkpt lat="42.873267" lon="-5.369533">
			<ele>1636.000000</ele>
		<time>2015-12-06T02:05:40Z</time>
		</trkpt>

		<trkpt lat="42.873145" lon="-5.369378">
			<ele>1636.000000</ele>
		<time>2015-12-06T02:05:43Z</time>
		</trkpt>

		<trkpt lat="42.873043" lon="-5.369227">
			<ele>1633.000000</ele>
		<time>2015-12-06T02:05:46Z</time>
		</trkpt>

		<trkpt lat="42.872933" lon="-5.369073">
			<ele>1632.000000</ele>
		<time>2015-12-06T02:05:49Z</time>
		</trkpt>

		<trkpt lat="42.872806" lon="-5.368855">
			<ele>1629.000000</ele>
		<time>2015-12-06T02:05:52Z</time>
		</trkpt>

		<trkpt lat="42.872685" lon="-5.368631">
			<ele>1630.000000</ele>
		<time>2015-12-06T02:05:55Z</time>
		</trkpt>

		<trkpt lat="42.872563" lon="-5.368436">
			<ele>1629.000000</ele>
		<time>2015-12-06T02:05:58Z</time>
		</trkpt>

		<trkpt lat="42.872427" lon="-5.368257">
			<ele>1631.000000</ele>
		<time>2015-12-06T02:06:01Z</time>
		</trkpt>

		<trkpt lat="42.872280" lon="-5.368187">
			<ele>1634.000000</ele>
		<time>2015-12-06T02:06:04Z</time>
		</trkpt>

		<trkpt lat="42.872216" lon="-5.368367">
			<ele>1633.000000</ele>
		<time>2015-12-06T02:06:07Z</time>
		</trkpt>

		<trkpt lat="42.872244" lon="-5.368579">
			<ele>1633.000000</ele>
		<time>2015-12-06T02:06:10Z</time>
		</trkpt>

		<trkpt lat="42.872375" lon="-5.368817">
			<ele>1631.000000</ele>
		<time>2015-12-06T02:06:13Z</time>
		</trkpt>

		<trkpt lat="42.872585" lon="-5.368971">
			<ele>1630.000000</ele>
		<time>2015-12-06T02:06:16Z</time>
		</trkpt>

		<trkpt lat="42.872832" lon="-5.369102">
			<ele>1625.000000</ele>
		<time>2015-12-06T02:06:19Z</time>
		</trkpt>

		<trkpt lat="42.873067" lon="-5.369291">
			<ele>1622.000000</ele>
		<time>2015-12-06T02:06:22Z</time>
		</trkpt>

		<trkpt lat="42.873261" lon="-5.369444">
			<ele>1623.000000</ele>
		<time>2015-12-06T02:06:25Z</time>
		</trkpt>

		<trkpt lat="42.873419" lon="-5.369650">
			<ele>1624.000000</ele>
		<time>2015-12-06T02:06:28Z</time>
		</trkpt>

		<trkpt lat="42.873519" lon="-5.369895">
			<ele>1623.000000</ele>
		<time>2015-12-06T02:06:31Z</time>
		</trkpt>

		<trkpt lat="42.873566" lon="-5.370144">
			<ele>1620.000000</ele>
		<time>2015-12-06T02:06:34Z</time>
		</trkpt>

		<trkpt lat="42.873557" lon="-5.370379">
			<ele>1615.000000</ele>
		<time>2015-12-06T02:06:37Z</time>
		</trkpt>

		<trkpt lat="42.873448" lon="-5.370563">
			<ele>1614.000000</ele>
		<time>2015-12-06T02:06:40Z</time>
		</trkpt>

		<trkpt lat="42.873256" lon="-5.370587">
			<ele>1613.000000</ele>
		<time>2015-12-06T02:06:43Z</time>
		</trkpt>

		<trkpt lat="42.873102" lon="-5.370599">
			<ele>1610.000000</ele>
		<time>2015-12-06T02:06:46Z</time>
		</trkpt>

		<trkpt lat="42.872943" lon="-5.370503">
			<ele>1605.000000</ele>
		<time>2015-12-06T02:06:49Z</time>
		</trkpt>

		<trkpt lat="42.872781" lon="-5.370314">
			<ele>1603.000000</ele>
		<time>2015-12-06T02:06:52Z</time>
		</trkpt>

		<trkpt lat="42.872626" lon="-5.370092">
			<ele>1606.000000</ele>
		<time>2015-12-06T02:06:55Z</time>
		</trkpt>

		<trkpt lat="42.872551" lon="-5.369816">
			<ele>1611.000000</ele>
		<time>2015-12-06T02:06:58Z</time>
		</trkpt>

		<trkpt lat="42.872554" lon="-5.369453">
			<ele>1606.000000</ele>
		<time>2015-12-06T02:07:01Z</time>
		</trkpt>

		<trkpt lat="42.872761" lon="-5.369097">
			<ele>1605.000000</ele>
		<time>2015-12-06T02:07:04Z</time>
		</trkpt>

		<trkpt lat="42.873115" lon="-5.369088">
			<ele>1603.000000</ele>
		<time>2015-12-06T02:07:07Z</time>
		</trkpt>

		<trkpt lat="42.873319" lon="-5.369300">
			<ele>1603.000000</ele>
		<time>2015-12-06T02:07:10Z</time>
		</trkpt>

		<trkpt lat="42.873382" lon="-5.369572">
			<ele>1603.000000</ele>
		<time>2015-12-06T02:07:13Z</time>
		</trkpt>

		<trkpt lat="42.873311" lon="-5.369808">
			<ele>1601.000000</ele>
		<time>2015-12-06T02:07:16Z</time>
		</trkpt>

		<trkpt lat="42.873161" lon="-5.369837">
			<ele>1609.000000</ele>
		<time>2015-12-06T02:07:19Z</time>
		</trkpt>

		<trkpt lat="42.873016" lon="-5.369772">
			<ele>1610.000000</ele>
		<time>2015-12-06T02:07:22Z</time>
		</trkpt>

		<trkpt lat="42.872799" lon="-5.369705">
			<ele>1610.000000</ele>
		<time>2015-12-06T02:07:25Z</time>
		</trkpt>

		<trkpt lat="42.872671" lon="-5.369418">
			<ele>1614.000000</ele>
		<time>2015-12-06T02:07:28Z</time>
		</trkpt>

		<trkpt lat="42.872776" lon="-5.369032">
			<ele>1616.000000</ele>
		<time>2015-12-06T02:07:31Z</time>
		</trkpt>

		<trkpt lat="42.873053" lon="-5.368791">
			<ele>1615.000000</ele>
		<time>2015-12-06T02:07:34Z</time>
		</trkpt>

		<trkpt lat="42.873342" lon="-5.368931">
			<ele>1614.000000</ele>
		<time>2015-12-06T02:07:37Z</time>
		</trkpt>

		<trkpt lat="42.873425" lon="-5.369234">
			<ele>1614.000000</ele>
		<time>2015-12-06T02:07:40Z</time>
		</trkpt>

		<trkpt lat="42.873324" lon="-5.369391">
			<ele>1615.000000</ele>
		<time>2015-12-06T02:07:44Z</time>
		</trkpt>

		<trkpt lat="42.873178" lon="-5.369436">
			<ele>1615.000000</ele>
		<time>2015-12-06T02:07:47Z</time>
		</trkpt>

		<trkpt lat="42.873021" lon="-5.369362">
			<ele>1615.000000</ele>
		<time>2015-12-06T02:07:50Z</time>
		</trkpt>

		<trkpt lat="42.872859" lon="-5.369178">
			<ele>1613.000000</ele>
		<time>2015-12-06T02:07:53Z</time>
		</trkpt>

		<trkpt lat="42.872718" lon="-5.368970">
			<ele>1612.000000</ele>
		<time>2015-12-06T02:07:56Z</time>
		</trkpt>

		<trkpt lat="42.872618" lon="-5.368718">
			<ele>1610.000000</ele>
		<time>2015-12-06T02:07:59Z</time>
		</trkpt>

		<trkpt lat="42.872542" lon="-5.368451">
			<ele>1611.000000</ele>
		<time>2015-12-06T02:08:02Z</time>
		</trkpt>

		<trkpt lat="42.872477" lon="-5.368166">
			<ele>1613.000000</ele>
		<time>2015-12-06T02:08:05Z</time>
		</trkpt>

		<trkpt lat="42.872396" lon="-5.367890">
			<ele>1614.000000</ele>
		<time>2015-12-06T02:08:08Z</time>
		</trkpt>

		<trkpt lat="42.872319" lon="-5.367655">
			<ele>1619.000000</ele>
		<time>2015-12-06T02:08:11Z</time>
		</trkpt>

		<trkpt lat="42.872256" lon="-5.367431">
			<ele>1620.000000</ele>
		<time>2015-12-06T02:08:14Z</time>
		</trkpt>

		<trkpt lat="42.872127" lon="-5.367316">
			<ele>1623.000000</ele>
		<time>2015-12-06T02:08:17Z</time>
		</trkpt>

		<trkpt lat="42.872041" lon="-5.367479">
			<ele>1625.000000</ele>
		<time>2015-12-06T02:08:20Z</time>
		</trkpt>

		<trkpt lat="42.872122" lon="-5.367840">
			<ele>1625.000000</ele>
		<time>2015-12-06T02:08:23Z</time>
		</trkpt>

		<trkpt lat="42.872460" lon="-5.367977">
			<ele>1629.000000</ele>
		<time>2015-12-06T02:08:26Z</time>
		</trkpt>

		<trkpt lat="42.872720" lon="-5.367778">
			<ele>1627.000000</ele>
		<time>2015-12-06T02:08:29Z</time>
		</trkpt>

		<trkpt lat="42.872739" lon="-5.367498">
			<ele>1627.000000</ele>
		<time>2015-12-06T02:08:32Z</time>
		</trkpt>

		<trkpt lat="42.872600" lon="-5.367527">
			<ele>1625.000000</ele>
		<time>2015-12-06T02:08:35Z</time>
		</trkpt>

		<trkpt lat="42.872469" lon="-5.367585">
			<ele>1624.000000</ele>
		<time>2015-12-06T02:08:38Z</time>
		</trkpt>

		<trkpt lat="42.872318" lon="-5.367651">
			<ele>1634.000000</ele>
		<time>2015-12-06T02:08:41Z</time>
		</trkpt>

		<trkpt lat="42.872205" lon="-5.367696">
			<ele>1636.000000</ele>
		<time>2015-12-06T02:08:44Z</time>
		</trkpt>

		<trkpt lat="42.872052" lon="-5.367864">
			<ele>1640.000000</ele>
		<time>2015-12-06T02:08:47Z</time>
		</trkpt>

		<trkpt lat="42.871882" lon="-5.367947">
			<ele>1644.000000</ele>
		<time>2015-12-06T02:08:50Z</time>
		</trkpt>

		<trkpt lat="42.871686" lon="-5.367954">
			<ele>1651.000000</ele>
		<time>2015-12-06T02:08:53Z</time>
		</trkpt>

		<trkpt lat="42.871486" lon="-5.367812">
			<ele>1653.000000</ele>
		<time>2015-12-06T02:08:56Z</time>
		</trkpt>

		<trkpt lat="42.871406" lon="-5.367490">
			<ele>1652.000000</ele>
		<time>2015-12-06T02:08:59Z</time>
		</trkpt>

		<trkpt lat="42.871565" lon="-5.367098">
			<ele>1653.000000</ele>
		<time>2015-12-06T02:09:02Z</time>
		</trkpt>

		<trkpt lat="42.871869" lon="-5.366833">
			<ele>1654.000000</ele>
		<time>2015-12-06T02:09:05Z</time>
		</trkpt>

		<trkpt lat="42.872228" lon="-5.366900">
			<ele>1656.000000</ele>
		<time>2015-12-06T02:09:08Z</time>
		</trkpt>

		<trkpt lat="42.872405" lon="-5.367197">
			<ele>1658.000000</ele>
		<time>2015-12-06T02:09:11Z</time>
		</trkpt>

		<trkpt lat="42.872374" lon="-5.367425">
			<ele>1660.000000</ele>
		<time>2015-12-06T02:09:14Z</time>
		</trkpt>

		<trkpt lat="42.872256" lon="-5.367524">
			<ele>1664.000000</ele>
		<time>2015-12-06T02:09:17Z</time>
		</trkpt>

		<trkpt lat="42.872118" lon="-5.367589">
			<ele>1667.000000</ele>
		<time>2015-12-06T02:09:20Z</time>
		</trkpt>

		<trkpt lat="42.871969" lon="-5.367604">
			<ele>1666.000000</ele>
		<time>2015-12-06T02:09:23Z</time>
		</trkpt>

		<trkpt lat="42.871813" lon="-5.367392">
			<ele>1664.000000</ele>
		<time>2015-12-06T02:09:26Z</time>
		</trkpt>

		<trkpt lat="42.871861" lon="-5.367030">
			<ele>1666.000000</ele>
		<time>2015-12-06T02:09:29Z</time>
		</trkpt>

		<trkpt lat="42.872106" lon="-5.366777">
			<ele>1672.000000</ele>
		<time>2015-12-06T02:09:32Z</time>
		</trkpt>

		<trkpt lat="42.872450" lon="-5.366802">
			<ele>1676.000000</ele>
		<time>2015-12-06T02:09:35Z</time>
		</trkpt>

		<trkpt lat="42.872655" lon="-5.367047">
			<ele>1681.000000</ele>
		<time>2015-12-06T02:09:38Z</time>
		</trkpt>

		<trkpt lat="42.872709" lon="-5.367286">
			<ele>1682.000000</ele>
		<time>2015-12-06T02:09:41Z</time>
		</trkpt>

		<trkpt lat="42.872620" lon="-5.367445">
			<ele>1680.000000</ele>
		<time>2015-12-06T02:09:44Z</time>
		</trkpt>

		<trkpt lat="42.872447" lon="-5.367403">
			<ele>1682.000000</ele>
		<time>2015-12-06T02:09:47Z</time>
		</trkpt>

		<trkpt lat="42.872286" lon="-5.367283">
			<ele>1679.000000</ele>
		<time>2015-12-06T02:09:50Z</time>
		</trkpt>

		<trkpt lat="42.872230" lon="-5.366884">
			<ele>1677.000000</ele>
		<time>2015-12-06T02:09:53Z</time>
		</trkpt>

		<trkpt lat="42.872400" lon="-5.366506">
			<ele>1678.000000</ele>
		<time>2015-12-06T02:09:56Z</time>
		</trkpt>

		<trkpt lat="42.872655" lon="-5.366282">
			<ele>1682.000000</ele>
		<time>2015-12-06T02:09:59Z</time>
		</trkpt>

		<trkpt lat="42.872923" lon="-5.366091">
			<ele>1680.000000</ele>
		<time>2015-12-06T02:10:02Z</time>
		</trkpt>

		<trkpt lat="42.873265" lon="-5.366233">
			<ele>1678.000000</ele>
		<time>2015-12-06T02:10:05Z</time>
		</trkpt>

		<trkpt lat="42.873245" lon="-5.366520">
			<ele>1682.000000</ele>
		<time>2015-12-06T02:10:08Z</time>
		</trkpt>

		<trkpt lat="42.873276" lon="-5.366685">
			<ele>1679.000000</ele>
		<time>2015-12-06T02:10:11Z</time>
		</trkpt>

		<trkpt lat="42.873155" lon="-5.366820">
			<ele>1675.000000</ele>
		<time>2015-12-06T02:10:14Z</time>
		</trkpt>

		<trkpt lat="42.872993" lon="-5.366612">
			<ele>1679.000000</ele>
		<time>2015-12-06T02:10:17Z</time>
		</trkpt>

		<trkpt lat="42.872882" lon="-5.366268">
			<ele>1677.000000</ele>
		<time>2015-12-06T02:10:20Z</time>
		</trkpt>

		<trkpt lat="42.873019" lon="-5.365847">
			<ele>1680.000000</ele>
		<time>2015-12-06T02:10:23Z</time>
		</trkpt>

		<trkpt lat="42.873331" lon="-5.365684">
			<ele>1681.000000</ele>
		<time>2015-12-06T02:10:26Z</time>
		</trkpt>

		<trkpt lat="42.873647" lon="-5.365771">
			<ele>1688.000000</ele>
		<time>2015-12-06T02:10:29Z</time>
		</trkpt>

		<trkpt lat="42.873774" lon="-5.366060">
			<ele>1692.000000</ele>
		<time>2015-12-06T02:10:32Z</time>
		</trkpt>

		<trkpt lat="42.873781" lon="-5.366282">
			<ele>1695.000000</ele>
		<time>2015-12-06T02:10:35Z</time>
		</trkpt>

		<trkpt lat="42.873728" lon="-5.366494">
			<ele>1694.000000</ele>
		<time>2015-12-06T02:10:38Z</time>
		</trkpt>

		<trkpt lat="42.873607" lon="-5.366573">
			<ele>1691.000000</ele>
		<time>2015-12-06T02:10:41Z</time>
		</trkpt>

		<trkpt lat="42.873415" lon="-5.366474">
			<ele>1690.000000</ele>
		<time>2015-12-06T02:10:44Z</time>
		</trkpt>

		<trkpt lat="42.873262" lon="-5.366224">
			<ele>1692.000000</ele>
		<time>2015-12-06T02:10:47Z</time>
		</trkpt>

		<trkpt lat="42.873100" lon="-5.365955">
			<ele>1698.000000</ele>
		<time>2015-12-06T02:10:50Z</time>
		</trkpt>

		<trkpt lat="42.873005" lon="-5.365631">
			<ele>1703.000000</ele>
		<time>2015-12-06T02:10:53Z</time>
		</trkpt>

		<trkpt lat="42.872952" lon="-5.365328">
			<ele>1705.000000</ele>
		<time>2015-12-06T02:10:56Z</time>
		</trkpt>

		<trkpt lat="42.872923" lon="-5.364996">
			<ele>1712.000000</ele>
		<time>2015-12-06T02:10:59Z</time>
		</trkpt>

		<trkpt lat="42.872893" lon="-5.364692">
			<ele>1714.000000</ele>
		<time>2015-12-06T02:11:02Z</time>
		</trkpt>

		<trkpt lat="42.872784" lon="-5.364486">
			<ele>1717.000000</ele>
		<time>2015-12-06T02:11:05Z</time>
		</trkpt>

		<trkpt lat="42.872617" lon="-5.364576">
			<ele>1718.000000</ele>
		<time>2015-12-06T02:11:08Z</time>
		</trkpt>

		<trkpt lat="42.872692" lon="-5.364806">
			<ele>1724.000000</ele>
		<time>2015-12-06T02:11:11Z</time>
		</trkpt>

		<trkpt lat="42.872850" lon="-5.364969">
			<ele>1728.000000</ele>
		<time>2015-12-06T02:11:14Z</time>
		</trkpt>

		<trkpt lat="42.873226" lon="-5.364996">
			<ele>1730.000000</ele>
		<time>2015-12-06T02:11:17Z</time>
		</trkpt>

		<trkpt lat="42.873523" lon="-5.364715">
			<ele>1733.000000</ele>
		<time>2015-12-06T02:11:20Z</time>
		</trkpt>

		<trkpt lat="42.873702" lon="-5.364374">
			<ele>1739.000000</ele>
		<time>2015-12-06T02:11:23Z</time>
		</trkpt>

		<trkpt lat="42.873654" lon="-5.364050">
			<ele>1746.000000</ele>
		<time>2015-12-06T02:11:26Z</time>
		</trkpt>

		<trkpt lat="42.873525" lon="-5.363900">
			<ele>1752.000000</ele>
		<time>2015-12-06T02:11:29Z</time>
		</trkpt>

		<trkpt lat="42.873392" lon="-5.363908">
			<ele>1757.000000</ele>
		<time>2015-12-06T02:11:32Z</time>
		</trkpt>

		<trkpt lat="42.873344" lon="-5.364140">
			<ele>1766.000000</ele>
		<time>2015-12-06T02:11:35Z</time>
		</trkpt>

		<trkpt lat="42.873417" lon="-5.364365">
			<ele>1767.000000</ele>
		<time>2015-12-06T02:11:38Z</time>
		</trkpt>

		<trkpt lat="42.873597" lon="-5.364677">
			<ele>1773.000000</ele>
		<time>2015-12-06T02:11:41Z</time>
		</trkpt>

		<trkpt lat="42.873845" lon="-5.364808">
			<ele>1781.000000</ele>
		<time>2015-12-06T02:11:44Z</time>
		</trkpt>

		<trkpt lat="42.874172" lon="-5.364742">
			<ele>1789.000000</ele>
		<time>2015-12-06T02:11:47Z</time>
		</trkpt>

		<trkpt lat="42.874467" lon="-5.364506">
			<ele>1792.000000</ele>
		<time>2015-12-06T02:11:50Z</time>
		</trkpt>

		<trkpt lat="42.874699" lon="-5.364136">
			<ele>1796.000000</ele>
		<time>2015-12-06T02:11:53Z</time>
		</trkpt>

		<trkpt lat="42.874718" lon="-5.363839">
			<ele>1800.000000</ele>
		<time>2015-12-06T02:11:56Z</time>
		</trkpt>

		<trkpt lat="42.874608" lon="-5.363584">
			<ele>1809.000000</ele>
		<time>2015-12-06T02:11:59Z</time>
		</trkpt>

		<trkpt lat="42.874430" lon="-5.363448">
			<ele>1813.000000</ele>
		<time>2015-12-06T02:12:02Z</time>
		</trkpt>

		<trkpt lat="42.874318" lon="-5.363630">
			<ele>1813.000000</ele>
		<time>2015-12-06T02:12:05Z</time>
		</trkpt>

		<trkpt lat="42.874427" lon="-5.363936">
			<ele>1816.000000</ele>
		<time>2015-12-06T02:12:08Z</time>
		</trkpt>

		<trkpt lat="42.874637" lon="-5.364119">
			<ele>1822.000000</ele>
		<time>2015-12-06T02:12:11Z</time>
		</trkpt>

		<trkpt lat="42.874941" lon="-5.364302">
			<ele>1828.000000</ele>
		<time>2015-12-06T02:12:14Z</time>
		</trkpt>

		<trkpt lat="42.875258" lon="-5.364380">
			<ele>1836.000000</ele>
		<time>2015-12-06T02:12:17Z</time>
		</trkpt>

		<trkpt lat="42.875593" lon="-5.364361">
			<ele>1839.000000</ele>
		<time>2015-12-06T02:12:20Z</time>
		</trkpt>

		<trkpt lat="42.875849" lon="-5.364541">
			<ele>1846.000000</ele>
		<time>2015-12-06T02:12:23Z</time>
		</trkpt>

		<trkpt lat="42.876061" lon="-5.364663">
			<ele>1855.000000</ele>
		<time>2015-12-06T02:12:26Z</time>
		</trkpt>

		<trkpt lat="42.876333" lon="-5.364748">
			<ele>1856.000000</ele>
		<time>2015-12-06T02:12:29Z</time>
		</trkpt>

		<trkpt lat="42.876622" lon="-5.364688">
			<ele>1863.000000</ele>
		<time>2015-12-06T02:12:32Z</time>
		</trkpt>

		<trkpt lat="42.876872" lon="-5.364500">
			<ele>1866.000000</ele>
		<time>2015-12-06T02:12:35Z</time>
		</trkpt>

		<trkpt lat="42.876985" lon="-5.364188">
			<ele>1866.000000</ele>
		<time>2015-12-06T02:12:38Z</time>
		</trkpt>

		<trkpt lat="42.876910" lon="-5.363868">
			<ele>1873.000000</ele>
		<time>2015-12-06T02:12:41Z</time>
		</trkpt>

		<trkpt lat="42.876803" lon="-5.363727">
			<ele>1886.000000</ele>
		<time>2015-12-06T02:12:44Z</time>
		</trkpt>

		<trkpt lat="42.876693" lon="-5.363664">
			<ele>1891.000000</ele>
		<time>2015-12-06T02:12:47Z</time>
		</trkpt>

		<trkpt lat="42.876573" lon="-5.363625">
			<ele>1898.000000</ele>
		<time>2015-12-06T02:12:50Z</time>
		</trkpt>

		<trkpt lat="42.876472" lon="-5.363601">
			<ele>1900.000000</ele>
		<time>2015-12-06T02:12:53Z</time>
		</trkpt>

		<trkpt lat="42.876335" lon="-5.363599">
			<ele>1904.000000</ele>
		<time>2015-12-06T02:12:56Z</time>
		</trkpt>

		<trkpt lat="42.876186" lon="-5.363571">
			<ele>1908.000000</ele>
		<time>2015-12-06T02:12:59Z</time>
		</trkpt>

		<trkpt lat="42.876041" lon="-5.363483">
			<ele>1912.000000</ele>
		<time>2015-12-06T02:13:02Z</time>
		</trkpt>

		<trkpt lat="42.875937" lon="-5.363458">
			<ele>1917.000000</ele>
		<time>2015-12-06T02:13:05Z</time>
		</trkpt>

		<trkpt lat="42.875793" lon="-5.363451">
			<ele>1919.000000</ele>
		<time>2015-12-06T02:13:08Z</time>
		</trkpt>

		<trkpt lat="42.875691" lon="-5.363372">
			<ele>1922.000000</ele>
		<time>2015-12-06T02:13:11Z</time>
		</trkpt>

		<trkpt lat="42.875529" lon="-5.363391">
			<ele>1928.000000</ele>
		<time>2015-12-06T02:13:14Z</time>
		</trkpt>

		<trkpt lat="42.875403" lon="-5.363336">
			<ele>1932.000000</ele>
		<time>2015-12-06T02:13:17Z</time>
		</trkpt>

		<trkpt lat="42.875243" lon="-5.363234">
			<ele>1935.000000</ele>
		<time>2015-12-06T02:13:20Z</time>
		</trkpt>

		<trkpt lat="42.875092" lon="-5.363108">
			<ele>1938.000000</ele>
		<time>2015-12-06T02:13:23Z</time>
		</trkpt>

		<trkpt lat="42.874918" lon="-5.362996">
			<ele>1945.000000</ele>
		<time>2015-12-06T02:13:26Z</time>
		</trkpt>

		<trkpt lat="42.874782" lon="-5.362877">
			<ele>1946.000000</ele>
		<time>2015-12-06T02:13:29Z</time>
		</trkpt>

		<trkpt lat="42.874620" lon="-5.362758">
			<ele>1948.000000</ele>
		<time>2015-12-06T02:13:32Z</time>
		</trkpt>

		<trkpt lat="42.874485" lon="-5.362605">
			<ele>1952.000000</ele>
		<time>2015-12-06T02:13:35Z</time>
		</trkpt>

		<trkpt lat="42.874311" lon="-5.362429">
			<ele>1953.000000</ele>
		<time>2015-12-06T02:13:38Z</time>
		</trkpt>

		<trkpt lat="42.874176" lon="-5.362236">
			<ele>1954.000000</ele>
		<time>2015-12-06T02:13:41Z</time>
		</trkpt>

		<trkpt lat="42.874029" lon="-5.362110">
			<ele>1952.000000</ele>
		<time>2015-12-06T02:13:44Z</time>
		</trkpt>

		<trkpt lat="42.873871" lon="-5.362050">
			<ele>1953.000000</ele>
		<time>2015-12-06T02:13:47Z</time>
		</trkpt>

		<trkpt lat="42.873766" lon="-5.362015">
			<ele>1950.000000</ele>
		<time>2015-12-06T02:13:50Z</time>
		</trkpt>

		<trkpt lat="42.873594" lon="-5.362031">
			<ele>1945.000000</ele>
		<time>2015-12-06T02:13:53Z</time>
		</trkpt>

		<trkpt lat="42.873488" lon="-5.361986">
			<ele>1945.000000</ele>
		<time>2015-12-06T02:13:56Z</time>
		</trkpt>

		<trkpt lat="42.873357" lon="-5.362045">
			<ele>1939.000000</ele>
		<time>2015-12-06T02:13:59Z</time>
		</trkpt>

		<trkpt lat="42.873250" lon="-5.362092">
			<ele>1939.000000</ele>
		<time>2015-12-06T02:14:02Z</time>
		</trkpt>

		<trkpt lat="42.873127" lon="-5.362208">
			<ele>1935.000000</ele>
		<time>2015-12-06T02:14:05Z</time>
		</trkpt>

		<trkpt lat="42.873003" lon="-5.362322">
			<ele>1937.000000</ele>
		<time>2015-12-06T02:14:08Z</time>
		</trkpt>

		<trkpt lat="42.872939" lon="-5.362450">
			<ele>1935.000000</ele>
		<time>2015-12-06T02:14:11Z</time>
		</trkpt>

		<trkpt lat="42.872878" lon="-5.362645">
			<ele>1931.000000</ele>
		<time>2015-12-06T02:14:14Z</time>
		</trkpt>

		<trkpt lat="42.872801" lon="-5.362840">
			<ele>1932.000000</ele>
		<time>2015-12-06T02:14:17Z</time>
		</trkpt>

		<trkpt lat="42.872665" lon="-5.362961">
			<ele>1932.000000</ele>
		<time>2015-12-06T02:14:20Z</time>
		</trkpt>

		<trkpt lat="42.872511" lon="-5.363107">
			<ele>1929.000000</ele>
		<time>2015-12-06T02:14:23Z</time>
		</trkpt>

		<trkpt lat="42.870578" lon="-5.364207">
			<ele>1867.000000</ele>
		<time>2015-12-06T02:14:57Z</time>
		</trkpt>

		<trkpt lat="42.870305" lon="-5.364174">
			<ele>1860.000000</ele>
		<time>2015-12-06T02:15:00Z</time>
		</trkpt>

		<trkpt lat="42.870071" lon="-5.364005">
			<ele>1862.000000</ele>
		<time>2015-12-06T02:15:03Z</time>
		</trkpt>

		<trkpt lat="42.869875" lon="-5.363768">
			<ele>1853.000000</ele>
		<time>2015-12-06T02:15:06Z</time>
		</trkpt>

		<trkpt lat="42.869735" lon="-5.363447">
			<ele>1849.000000</ele>
		<time>2015-12-06T02:15:09Z</time>
		</trkpt>

		<trkpt lat="42.869592" lon="-5.363129">
			<ele>1845.000000</ele>
		<time>2015-12-06T02:15:12Z</time>
		</trkpt>

		<trkpt lat="42.869492" lon="-5.362790">
			<ele>1844.000000</ele>
		<time>2015-12-06T02:15:15Z</time>
		</trkpt>

		<trkpt lat="42.869375" lon="-5.362463">
			<ele>1841.000000</ele>
		<time>2015-12-06T02:15:18Z</time>
		</trkpt>

		<trkpt lat="42.869247" lon="-5.362128">
			<ele>1839.000000</ele>
		<time>2015-12-06T02:15:21Z</time>
		</trkpt>

		<trkpt lat="42.869099" lon="-5.361831">
			<ele>1837.000000</ele>
		<time>2015-12-06T02:15:24Z</time>
		</trkpt>

		<trkpt lat="42.868982" lon="-5.361510">
			<ele>1837.000000</ele>
		<time>2015-12-06T02:15:27Z</time>
		</trkpt>

		<trkpt lat="42.868907" lon="-5.361185">
			<ele>1837.000000</ele>
		<time>2015-12-06T02:15:30Z</time>
		</trkpt>

		<trkpt lat="42.868823" lon="-5.360851">
			<ele>1835.000000</ele>
		<time>2015-12-06T02:15:33Z</time>
		</trkpt>

		<trkpt lat="42.868696" lon="-5.360531">
			<ele>1833.000000</ele>
		<time>2015-12-06T02:15:36Z</time>
		</trkpt>

		<trkpt lat="42.868572" lon="-5.360255">
			<ele>1833.000000</ele>
		<time>2015-12-06T02:15:39Z</time>
		</trkpt>

		<trkpt lat="42.868447" lon="-5.359993">
			<ele>1833.000000</ele>
		<time>2015-12-06T02:15:42Z</time>
		</trkpt>

		<trkpt lat="42.868348" lon="-5.359712">
			<ele>1831.000000</ele>
		<time>2015-12-06T02:15:45Z</time>
		</trkpt>

		<trkpt lat="42.868247" lon="-5.359434">
			<ele>1832.000000</ele>
		<time>2015-12-06T02:15:48Z</time>
		</trkpt>

		<trkpt lat="42.868128" lon="-5.359105">
			<ele>1836.000000</ele>
		<time>2015-12-06T02:15:51Z</time>
		</trkpt>

		<trkpt lat="42.868014" lon="-5.358899">
			<ele>1839.000000</ele>
		<time>2015-12-06T02:15:54Z</time>
		</trkpt>

		<trkpt lat="42.867850" lon="-5.358812">
			<ele>1840.000000</ele>
		<time>2015-12-06T02:15:57Z</time>
		</trkpt>

		<trkpt lat="42.867775" lon="-5.359018">
			<ele>1843.000000</ele>
		<time>2015-12-06T02:16:00Z</time>
		</trkpt>

		<trkpt lat="42.867836" lon="-5.359175">
			<ele>1845.000000</ele>
		<time>2015-12-06T02:16:03Z</time>
		</trkpt>

		<trkpt lat="42.868024" lon="-5.359338">
			<ele>1844.000000</ele>
		<time>2015-12-06T02:16:06Z</time>
		</trkpt>

		<trkpt lat="42.868254" lon="-5.359503">
			<ele>1845.000000</ele>
		<time>2015-12-06T02:16:09Z</time>
		</trkpt>

		<trkpt lat="42.868510" lon="-5.359650">
			<ele>1848.000000</ele>
		<time>2015-12-06T02:16:12Z</time>
		</trkpt>

		<trkpt lat="42.868759" lon="-5.359797">
			<ele>1850.000000</ele>
		<time>2015-12-06T02:16:15Z</time>
		</trkpt>

		<trkpt lat="42.868992" lon="-5.359972">
			<ele>1851.000000</ele>
		<time>2015-12-06T02:16:18Z</time>
		</trkpt>

		<trkpt lat="42.869140" lon="-5.360249">
			<ele>1853.000000</ele>
		<time>2015-12-06T02:16:21Z</time>
		</trkpt>

		<trkpt lat="42.869192" lon="-5.360565">
			<ele>1853.000000</ele>
		<time>2015-12-06T02:16:24Z</time>
		</trkpt>

		<trkpt lat="42.869219" lon="-5.360847">
			<ele>1851.000000</ele>
		<time>2015-12-06T02:16:27Z</time>
		</trkpt>

		<trkpt lat="42.869230" lon="-5.361161">
			<ele>1848.000000</ele>
		<time>2015-12-06T02:16:30Z</time>
		</trkpt>

		<trkpt lat="42.869206" lon="-5.361458">
			<ele>1844.000000</ele>
		<time>2015-12-06T02:16:33Z</time>
		</trkpt>

		<trkpt lat="42.869231" lon="-5.361804">
			<ele>1841.000000</ele>
		<time>2015-12-06T02:16:36Z</time>
		</trkpt>

		<trkpt lat="42.869250" lon="-5.362144">
			<ele>1843.000000</ele>
		<time>2015-12-06T02:16:39Z</time>
		</trkpt>

		<trkpt lat="42.869271" lon="-5.362467">
			<ele>1842.000000</ele>
		<time>2015-12-06T02:16:42Z</time>
		</trkpt>

		<trkpt lat="42.869350" lon="-5.362828">
			<ele>1842.000000</ele>
		<time>2015-12-06T02:16:45Z</time>
		</trkpt>

		<trkpt lat="42.869362" lon="-5.363153">
			<ele>1839.000000</ele>
		<time>2015-12-06T02:16:48Z</time>
		</trkpt>

		<trkpt lat="42.869202" lon="-5.363411">
			<ele>1833.000000</ele>
		<time>2015-12-06T02:16:51Z</time>
		</trkpt>

		<trkpt lat="42.869017" lon="-5.363307">
			<ele>1831.000000</ele>
		<time>2015-12-06T02:16:54Z</time>
		</trkpt>

		<trkpt lat="42.868861" lon="-5.363039">
			<ele>1828.000000</ele>
		<time>2015-12-06T02:16:57Z</time>
		</trkpt>

		<trkpt lat="42.868724" lon="-5.362780">
			<ele>1827.000000</ele>
		<time>2015-12-06T02:17:00Z</time>
		</trkpt>

		<trkpt lat="42.868673" lon="-5.362509">
			<ele>1827.000000</ele>
		<time>2015-12-06T02:17:03Z</time>
		</trkpt>

		<trkpt lat="42.868620" lon="-5.362205">
			<ele>1823.000000</ele>
		<time>2015-12-06T02:17:06Z</time>
		</trkpt>

		<trkpt lat="42.868506" lon="-5.361939">
			<ele>1820.000000</ele>
		<time>2015-12-06T02:17:09Z</time>
		</trkpt>

		<trkpt lat="42.868347" lon="-5.361697">
			<ele>1820.000000</ele>
		<time>2015-12-06T02:17:12Z</time>
		</trkpt>

		<trkpt lat="42.868194" lon="-5.361489">
			<ele>1818.000000</ele>
		<time>2015-12-06T02:17:15Z</time>
		</trkpt>

		<trkpt lat="42.868039" lon="-5.361223">
			<ele>1815.000000</ele>
		<time>2015-12-06T02:17:18Z</time>
		</trkpt>

		<trkpt lat="42.867928" lon="-5.360934">
			<ele>1814.000000</ele>
		<time>2015-12-06T02:17:21Z</time>
		</trkpt>

		<trkpt lat="42.867829" lon="-5.360576">
			<ele>1814.000000</ele>
		<time>2015-12-06T02:17:24Z</time>
		</trkpt>

		<trkpt lat="42.867775" lon="-5.360190">
			<ele>1813.000000</ele>
		<time>2015-12-06T02:17:27Z</time>
		</trkpt>

		<trkpt lat="42.867730" lon="-5.359805">
			<ele>1813.000000</ele>
		<time>2015-12-06T02:17:30Z</time>
		</trkpt>

		<trkpt lat="42.867690" lon="-5.359402">
			<ele>1812.000000</ele>
		<time>2015-12-06T02:17:33Z</time>
		</trkpt>

		<trkpt lat="42.867699" lon="-5.359000">
			<ele>1814.000000</ele>
		<time>2015-12-06T02:17:36Z</time>
		</trkpt>

		<trkpt lat="42.867728" lon="-5.358618">
			<ele>1817.000000</ele>
		<time>2015-12-06T02:17:39Z</time>
		</trkpt>

		<trkpt lat="42.867752" lon="-5.358243">
			<ele>1818.000000</ele>
		<time>2015-12-06T02:17:42Z</time>
		</trkpt>

		<trkpt lat="42.867936" lon="-5.357840">
			<ele>1817.000000</ele>
		<time>2015-12-06T02:17:45Z</time>
		</trkpt>

		<trkpt lat="42.868214" lon="-5.357775">
			<ele>1817.000000</ele>
		<time>2015-12-06T02:17:48Z</time>
		</trkpt>

		<trkpt lat="42.868359" lon="-5.358058">
			<ele>1815.000000</ele>
		<time>2015-12-06T02:17:51Z</time>
		</trkpt>

		<trkpt lat="42.868381" lon="-5.358327">
			<ele>1814.000000</ele>
		<time>2015-12-06T02:17:54Z</time>
		</trkpt>

		<trkpt lat="42.868363" lon="-5.358558">
			<ele>1815.000000</ele>
		<time>2015-12-06T02:17:57Z</time>
		</trkpt>

		<trkpt lat="42.868334" lon="-5.358752">
			<ele>1817.000000</ele>
		<time>2015-12-06T02:18:00Z</time>
		</trkpt>

		<trkpt lat="42.868292" lon="-5.358987">
			<ele>1815.000000</ele>
		<time>2015-12-06T02:18:03Z</time>
		</trkpt>

		<trkpt lat="42.868243" lon="-5.359220">
			<ele>1815.000000</ele>
		<time>2015-12-06T02:18:06Z</time>
		</trkpt>

		<trkpt lat="42.868199" lon="-5.359511">
			<ele>1817.000000</ele>
		<time>2015-12-06T02:18:09Z</time>
		</trkpt>

		<trkpt lat="42.868053" lon="-5.359750">
			<ele>1815.000000</ele>
		<time>2015-12-06T02:18:12Z</time>
		</trkpt>

		<trkpt lat="42.867819" lon="-5.359819">
			<ele>1814.000000</ele>
		<time>2015-12-06T02:18:15Z</time>
		</trkpt>

		<trkpt lat="42.867547" lon="-5.359666">
			<ele>1814.000000</ele>
		<time>2015-12-06T02:18:18Z</time>
		</trkpt>

		<trkpt lat="42.867302" lon="-5.359393">
			<ele>1815.000000</ele>
		<time>2015-12-06T02:18:21Z</time>
		</trkpt>

		<trkpt lat="42.867118" lon="-5.359085">
			<ele>1819.000000</ele>
		<time>2015-12-06T02:18:24Z</time>
		</trkpt>

		<trkpt lat="42.866945" lon="-5.358772">
			<ele>1821.000000</ele>
		<time>2015-12-06T02:18:27Z</time>
		</trkpt>

		<trkpt lat="42.866790" lon="-5.358452">
			<ele>1823.000000</ele>
		<time>2015-12-06T02:18:30Z</time>
		</trkpt>

		<trkpt lat="42.866694" lon="-5.358112">
			<ele>1821.000000</ele>
		<time>2015-12-06T02:18:33Z</time>
		</trkpt>

		<trkpt lat="42.866570" lon="-5.357735">
			<ele>1817.000000</ele>
		<time>2015-12-06T02:18:36Z</time>
		</trkpt>

		<trkpt lat="42.866477" lon="-5.357283">
			<ele>1818.000000</ele>
		<time>2015-12-06T02:18:39Z</time>
		</trkpt>

		<trkpt lat="42.866431" lon="-5.356893">
			<ele>1822.000000</ele>
		<time>2015-12-06T02:18:42Z</time>
		</trkpt>

		<trkpt lat="42.866394" lon="-5.356457">
			<ele>1820.000000</ele>
		<time>2015-12-06T02:18:45Z</time>
		</trkpt>

		<trkpt lat="42.866401" lon="-5.356062">
			<ele>1820.000000</ele>
		<time>2015-12-06T02:18:48Z</time>
		</trkpt>

		<trkpt lat="42.866438" lon="-5.355639">
			<ele>1814.000000</ele>
		<time>2015-12-06T02:18:51Z</time>
		</trkpt>

		<trkpt lat="42.866507" lon="-5.355209">
			<ele>1812.000000</ele>
		<time>2015-12-06T02:18:54Z</time>
		</trkpt>

		<trkpt lat="42.866556" lon="-5.354777">
			<ele>1809.000000</ele>
		<time>2015-12-06T02:18:57Z</time>
		</trkpt>

		<trkpt lat="42.866569" lon="-5.354347">
			<ele>1803.000000</ele>
		<time>2015-12-06T02:19:00Z</time>
		</trkpt>

		<trkpt lat="42.866539" lon="-5.353927">
			<ele>1799.000000</ele>
		<time>2015-12-06T02:19:03Z</time>
		</trkpt>

		<trkpt lat="42.866505" lon="-5.353501">
			<ele>1794.000000</ele>
		<time>2015-12-06T02:19:06Z</time>
		</trkpt>

		<trkpt lat="42.866531" lon="-5.352996">
			<ele>1789.000000</ele>
		<time>2015-12-06T02:19:09Z</time>
		</trkpt>

		<trkpt lat="42.866731" lon="-5.352644">
			<ele>1787.000000</ele>
		<time>2015-12-06T02:19:12Z</time>
		</trkpt>

		<trkpt lat="42.866893" lon="-5.352218">
			<ele>1786.000000</ele>
		<time>2015-12-06T02:19:15Z</time>
		</trkpt>

		<trkpt lat="42.867185" lon="-5.351933">
			<ele>1784.000000</ele>
		<time>2015-12-06T02:19:18Z</time>
		</trkpt>

		<trkpt lat="42.867481" lon="-5.351810">
			<ele>1780.000000</ele>
		<time>2015-12-06T02:19:21Z</time>
		</trkpt>

		<trkpt lat="42.867790" lon="-5.351818">
			<ele>1771.000000</ele>
		<time>2015-12-06T02:19:24Z</time>
		</trkpt>

		<trkpt lat="42.868417" lon="-5.354710">
			<ele>1711.000000</ele>
		<time>2015-12-06T02:19:57Z</time>
		</trkpt>

		<trkpt lat="42.868429" lon="-5.355078">
			<ele>1704.000000</ele>
		<time>2015-12-06T02:20:00Z</time>
		</trkpt>

		<trkpt lat="42.868411" lon="-5.355403">
			<ele>1700.000000</ele>
		<time>2015-12-06T02:20:03Z</time>
		</trkpt>

		<trkpt lat="42.868364" lon="-5.355702">
			<ele>1699.000000</ele>
		<time>2015-12-06T02:20:06Z</time>
		</trkpt>

		<trkpt lat="42.868256" lon="-5.355915">
			<ele>1697.000000</ele>
		<time>2015-12-06T02:20:09Z</time>
		</trkpt>

		<trkpt lat="42.868104" lon="-5.356063">
			<ele>1695.000000</ele>
		<time>2015-12-06T02:20:12Z</time>
		</trkpt>

		<trkpt lat="42.867932" lon="-5.356247">
			<ele>1697.000000</ele>
		<time>2015-12-06T02:20:15Z</time>
		</trkpt>

		<trkpt lat="42.867803" lon="-5.356375">
			<ele>1699.000000</ele>
		<time>2015-12-06T02:20:18Z</time>
		</trkpt>

		<trkpt lat="42.867579" lon="-5.356417">
			<ele>1702.000000</ele>
		<time>2015-12-06T02:20:21Z</time>
		</trkpt>

		<trkpt lat="42.867411" lon="-5.356133">
			<ele>1702.000000</ele>
		<time>2015-12-06T02:20:24Z</time>
		</trkpt>

		<trkpt lat="42.867373" lon="-5.355777">
			<ele>1701.000000</ele>
		<time>2015-12-06T02:20:27Z</time>
		</trkpt>

		<trkpt lat="42.867548" lon="-5.355406">
			<ele>1701.000000</ele>
		<time>2015-12-06T02:20:30Z</time>
		</trkpt>

		<trkpt lat="42.867872" lon="-5.355338">
			<ele>1700.000000</ele>
		<time>2015-12-06T02:20:33Z</time>
		</trkpt>

		<trkpt lat="42.868115" lon="-5.355477">
			<ele>1700.000000</ele>
		<time>2015-12-06T02:20:36Z</time>
		</trkpt>

		<trkpt lat="42.868252" lon="-5.355770">
			<ele>1699.000000</ele>
		<time>2015-12-06T02:20:39Z</time>
		</trkpt>

		<trkpt lat="42.868329" lon="-5.356092">
			<ele>1698.000000</ele>
		<time>2015-12-06T02:20:42Z</time>
		</trkpt>

		<trkpt lat="42.868361" lon="-5.356367">
			<ele>1698.000000</ele>
		<time>2015-12-06T02:20:45Z</time>
		</trkpt>

		<trkpt lat="42.868389" lon="-5.356667">
			<ele>1699.000000</ele>
		<time>2015-12-06T02:20:48Z</time>
		</trkpt>

		<trkpt lat="42.868401" lon="-5.356925">
			<ele>1700.000000</ele>
		<time>2015-12-06T02:20:51Z</time>
		</trkpt>

		<trkpt lat="42.868428" lon="-5.357207">
			<ele>1700.000000</ele>
		<time>2015-12-06T02:20:54Z</time>
		</trkpt>

		<trkpt lat="42.868459" lon="-5.357497">
			<ele>1702.000000</ele>
		<time>2015-12-06T02:20:57Z</time>
		</trkpt>

		<trkpt lat="42.868516" lon="-5.357773">
			<ele>1705.000000</ele>
		<time>2015-12-06T02:21:00Z</time>
		</trkpt>

		<trkpt lat="42.868572" lon="-5.358029">
			<ele>1705.000000</ele>
		<time>2015-12-06T02:21:03Z</time>
		</trkpt>

		<trkpt lat="42.868689" lon="-5.358296">
			<ele>1710.000000</ele>
		<time>2015-12-06T02:21:06Z</time>
		</trkpt>

		<trkpt lat="42.868767" lon="-5.358498">
			<ele>1706.000000</ele>
		<time>2015-12-06T02:21:09Z</time>
		</trkpt>

		<trkpt lat="42.868834" lon="-5.358778">
			<ele>1706.000000</ele>
		<time>2015-12-06T02:21:12Z</time>
		</trkpt>

		<trkpt lat="42.868927" lon="-5.359036">
			<ele>1706.000000</ele>
		<time>2015-12-06T02:21:15Z</time>
		</trkpt>

		<trkpt lat="42.869075" lon="-5.359295">
			<ele>1706.000000</ele>
		<time>2015-12-06T02:21:18Z</time>
		</trkpt>

		<trkpt lat="42.869271" lon="-5.359535">
			<ele>1706.000000</ele>
		<time>2015-12-06T02:21:21Z</time>
		</trkpt>

		<trkpt lat="42.869470" lon="-5.359781">
			<ele>1708.000000</ele>
		<time>2015-12-06T02:21:24Z</time>
		</trkpt>

		<trkpt lat="42.869673" lon="-5.360009">
			<ele>1710.000000</ele>
		<time>2015-12-06T02:21:27Z</time>
		</trkpt>

		<trkpt lat="42.869927" lon="-5.360194">
			<ele>1715.000000</ele>
		<time>2015-12-06T02:21:30Z</time>
		</trkpt>

		<trkpt lat="42.870173" lon="-5.360370">
			<ele>1716.000000</ele>
		<time>2015-12-06T02:21:33Z</time>
		</trkpt>

		<trkpt lat="42.870459" lon="-5.360425">
			<ele>1718.000000</ele>
		<time>2015-12-06T02:21:36Z</time>
		</trkpt>

		<trkpt lat="42.870723" lon="-5.360229">
			<ele>1719.000000</ele>
		<time>2015-12-06T02:21:39Z</time>
		</trkpt>

		<trkpt lat="42.870856" lon="-5.359854">
			<ele>1717.000000</ele>
		<time>2015-12-06T02:21:42Z</time>
		</trkpt>

		<trkpt lat="42.870691" lon="-5.359579">
			<ele>1717.000000</ele>
		<time>2015-12-06T02:21:45Z</time>
		</trkpt>

		<trkpt lat="42.870535" lon="-5.359644">
			<ele>1721.000000</ele>
		<time>2015-12-06T02:21:48Z</time>
		</trkpt>

		<trkpt lat="42.870527" lon="-5.359892">
			<ele>1723.000000</ele>
		<time>2015-12-06T02:21:51Z</time>
		</trkpt>

		<trkpt lat="42.870601" lon="-5.360191">
			<ele>1725.000000</ele>
		<time>2015-12-06T02:21:54Z</time>
		</trkpt>

		<trkpt lat="42.870760" lon="-5.360454">
			<ele>1728.000000</ele>
		<time>2015-12-06T02:21:57Z</time>
		</trkpt>

		<trkpt lat="42.870939" lon="-5.360702">
			<ele>1731.000000</ele>
		<time>2015-12-06T02:22:00Z</time>
		</trkpt>

		<trkpt lat="42.871120" lon="-5.360968">
			<ele>1731.000000</ele>
		<time>2015-12-06T02:22:03Z</time>
		</trkpt>

		<trkpt lat="42.871286" lon="-5.361230">
			<ele>1732.000000</ele>
		<time>2015-12-06T02:22:06Z</time>
		</trkpt>

		<trkpt lat="42.871583" lon="-5.361364">
			<ele>1729.000000</ele>
		<time>2015-12-06T02:22:09Z</time>
		</trkpt>

		<trkpt lat="42.871890" lon="-5.361309">
			<ele>1725.000000</ele>
		<time>2015-12-06T02:22:12Z</time>
		</trkpt>

		<trkpt lat="42.872098" lon="-5.360945">
			<ele>1721.000000</ele>
		<time>2015-12-06T02:22:15Z</time>
		</trkpt>

		<trkpt lat="42.872112" lon="-5.360561">
			<ele>1719.000000</ele>
		<time>2015-12-06T02:22:18Z</time>
		</trkpt>

		<trkpt lat="42.872161" lon="-5.360154">
			<ele>1715.000000</ele>
		<time>2015-12-06T02:22:21Z</time>
		</trkpt>

		<trkpt lat="42.872196" lon="-5.359759">
			<ele>1716.000000</ele>
		<time>2015-12-06T02:22:24Z</time>
		</trkpt>

		<trkpt lat="42.872235" lon="-5.359372">
			<ele>1717.000000</ele>
		<time>2015-12-06T02:22:27Z</time>
		</trkpt>

		<trkpt lat="42.872190" lon="-5.358986">
			<ele>1719.000000</ele>
		<time>2015-12-06T02:22:30Z</time>
		</trkpt>

		<trkpt lat="42.872135" lon="-5.358702">
			<ele>1720.000000</ele>
		<time>2015-12-06T02:22:33Z</time>
		</trkpt>

		<trkpt lat="42.871968" lon="-5.358472">
			<ele>1720.000000</ele>
		<time>2015-12-06T02:22:36Z</time>
		</trkpt>

		<trkpt lat="42.871822" lon="-5.358373">
			<ele>1723.000000</ele>
		<time>2015-12-06T02:22:39Z</time>
		</trkpt>

		<trkpt lat="42.871649" lon="-5.358351">
			<ele>1725.000000</ele>
		<time>2015-12-06T02:22:42Z</time>
		</trkpt>

		<trkpt lat="42.871483" lon="-5.358352">
			<ele>1729.000000</ele>
		<time>2015-12-06T02:22:45Z</time>
		</trkpt>

		<trkpt lat="42.871374" lon="-5.358551">
			<ele>1732.000000</ele>
		<time>2015-12-06T02:22:48Z</time>
		</trkpt>

		<trkpt lat="42.871363" lon="-5.358789">
			<ele>1739.000000</ele>
		<time>2015-12-06T02:22:51Z</time>
		</trkpt>

		<trkpt lat="42.871461" lon="-5.359024">
			<ele>1740.000000</ele>
		<time>2015-12-06T02:22:54Z</time>
		</trkpt>

		<trkpt lat="42.871506" lon="-5.359344">
			<ele>1745.000000</ele>
		<time>2015-12-06T02:22:57Z</time>
		</trkpt>

		<trkpt lat="42.871551" lon="-5.359560">
			<ele>1746.000000</ele>
		<time>2015-12-06T02:23:00Z</time>
		</trkpt>

		<trkpt lat="42.871579" lon="-5.359822">
			<ele>1743.000000</ele>
		<time>2015-12-06T02:23:03Z</time>
		</trkpt>

		<trkpt lat="42.871611" lon="-5.360063">
			<ele>1742.000000</ele>
		<time>2015-12-06T02:23:06Z</time>
		</trkpt>

		<trkpt lat="42.871672" lon="-5.360320">
			<ele>1743.000000</ele>
		<time>2015-12-06T02:23:09Z</time>
		</trkpt>

		<trkpt lat="42.871827" lon="-5.360563">
			<ele>1746.000000</ele>
		<time>2015-12-06T02:23:12Z</time>
		</trkpt>

		<trkpt lat="42.872063" lon="-5.360739">
			<ele>1745.000000</ele>
		<time>2015-12-06T02:23:15Z</time>
		</trkpt>

		<trkpt lat="42.872378" lon="-5.360755">
			<ele>1741.000000</ele>
		<time>2015-12-06T02:23:18Z</time>
		</trkpt>

		<trkpt lat="42.872653" lon="-5.360483">
			<ele>1740.000000</ele>
		<time>2015-12-06T02:23:21Z</time>
		</trkpt>

		<trkpt lat="42.872744" lon="-5.360096">
			<ele>1740.000000</ele>
		<time>2015-12-06T02:23:24Z</time>
		</trkpt>

		<trkpt lat="42.872639" lon="-5.359783">
			<ele>1734.000000</ele>
		<time>2015-12-06T02:23:27Z</time>
		</trkpt>

		<trkpt lat="42.872455" lon="-5.359783">
			<ele>1733.000000</ele>
		<time>2015-12-06T02:23:30Z</time>
		</trkpt>

		<trkpt lat="42.872320" lon="-5.359944">
			<ele>1733.000000</ele>
		<time>2015-12-06T02:23:33Z</time>
		</trkpt>

		<trkpt lat="42.872202" lon="-5.360141">
			<ele>1730.000000</ele>
		<time>2015-12-06T02:23:36Z</time>
		</trkpt>

		<trkpt lat="42.872109" lon="-5.360374">
			<ele>1728.000000</ele>
		<time>2015-12-06T02:23:39Z</time>
		</trkpt>

		<trkpt lat="42.871998" lon="-5.360592">
			<ele>1722.000000</ele>
		<time>2015-12-06T02:23:42Z</time>
		</trkpt>

		<trkpt lat="42.871894" lon="-5.360790">
			<ele>1724.000000</ele>
		<time>2015-12-06T02:23:45Z</time>
		</trkpt>

		<trkpt lat="42.871817" lon="-5.361030">
			<ele>1722.000000</ele>
		<time>2015-12-06T02:23:48Z</time>
		</trkpt>

		<trkpt lat="42.871760" lon="-5.361317">
			<ele>1722.000000</ele>
		<time>2015-12-06T02:23:51Z</time>
		</trkpt>

		<trkpt lat="42.871715" lon="-5.361607">
			<ele>1719.000000</ele>
		<time>2015-12-06T02:23:54Z</time>
		</trkpt>

		<trkpt lat="42.871646" lon="-5.361873">
			<ele>1721.000000</ele>
		<time>2015-12-06T02:23:57Z</time>
		</trkpt>

		<trkpt lat="42.871643" lon="-5.362196">
			<ele>1720.000000</ele>
		<time>2015-12-06T02:24:00Z</time>
		</trkpt>

		<trkpt lat="42.871636" lon="-5.362490">
			<ele>1719.000000</ele>
		<time>2015-12-06T02:24:03Z</time>
		</trkpt>

		<trkpt lat="42.871637" lon="-5.362764">
			<ele>1721.000000</ele>
		<time>2015-12-06T02:24:06Z</time>
		</trkpt>

		<trkpt lat="42.871633" lon="-5.363087">
			<ele>1721.000000</ele>
		<time>2015-12-06T02:24:09Z</time>
		</trkpt>

		<trkpt lat="42.871606" lon="-5.363375">
			<ele>1720.000000</ele>
		<time>2015-12-06T02:24:12Z</time>
		</trkpt>

		<trkpt lat="42.871551" lon="-5.363708">
			<ele>1719.000000</ele>
		<time>2015-12-06T02:24:15Z</time>
		</trkpt>

		<trkpt lat="42.871476" lon="-5.363977">
			<ele>1714.000000</ele>
		<time>2015-12-06T02:24:18Z</time>
		</trkpt>

		<trkpt lat="42.871254" lon="-5.364003">
			<ele>1710.000000</ele>
		<time>2015-12-06T02:24:21Z</time>
		</trkpt>

		<trkpt lat="42.871066" lon="-5.363827">
			<ele>1710.000000</ele>
		<time>2015-12-06T02:24:24Z</time>
		</trkpt>

		<trkpt lat="42.869615" lon="-5.363330">
			<ele>1692.000000</ele>
		<time>2015-12-06T02:24:59Z</time>
		</trkpt>

		<trkpt lat="42.869442" lon="-5.363002">
			<ele>1697.000000</ele>
		<time>2015-12-06T02:25:02Z</time>
		</trkpt>

		<trkpt lat="42.869396" lon="-5.362686">
			<ele>1696.000000</ele>
		<time>2015-12-06T02:25:05Z</time>
		</trkpt>

		<trkpt lat="42.869545" lon="-5.362310">
			<ele>1696.000000</ele>
		<time>2015-12-06T02:25:08Z</time>
		</trkpt>

		<trkpt lat="42.869852" lon="-5.362183">
			<ele>1698.000000</ele>
		<time>2015-12-06T02:25:11Z</time>
		</trkpt>

		<trkpt lat="42.870099" lon="-5.362236">
			<ele>1701.000000</ele>
		<time>2015-12-06T02:25:14Z</time>
		</trkpt>

		<trkpt lat="42.870262" lon="-5.362467">
			<ele>1703.000000</ele>
		<time>2015-12-06T02:25:17Z</time>
		</trkpt>

		<trkpt lat="42.870276" lon="-5.362718">
			<ele>1705.000000</ele>
		<time>2015-12-06T02:25:20Z</time>
		</trkpt>

		<trkpt lat="42.870147" lon="-5.362907">
			<ele>1706.000000</ele>
		<time>2015-12-06T02:25:23Z</time>
		</trkpt>

		<trkpt lat="42.869961" lon="-5.362897">
			<ele>1706.000000</ele>
		<time>2015-12-06T02:25:26Z</time>
		</trkpt>

		<trkpt lat="42.869807" lon="-5.362640">
			<ele>1706.000000</ele>
		<time>2015-12-06T02:25:29Z</time>
		</trkpt>

		<trkpt lat="42.869823" lon="-5.362260">
			<ele>1703.000000</ele>
		<time>2015-12-06T02:25:32Z</time>
		</trkpt>

		<trkpt lat="42.870069" lon="-5.361987">
			<ele>1703.000000</ele>
		<time>2015-12-06T02:25:35Z</time>
		</trkpt>

		<trkpt lat="42.870352" lon="-5.361826">
			<ele>1705.000000</ele>
		<time>2015-12-06T02:25:38Z</time>
		</trkpt>

		<trkpt lat="42.870659" lon="-5.361781">
			<ele>1706.000000</ele>
		<time>2015-12-06T02:25:41Z</time>
		</trkpt>

		<trkpt lat="42.870879" lon="-5.361947">
			<ele>1710.000000</ele>
		<time>2015-12-06T02:25:44Z</time>
		</trkpt>

		<trkpt lat="42.870965" lon="-5.362161">
			<ele>1711.000000</ele>
		<time>2015-12-06T02:25:47Z</time>
		</trkpt>

		<trkpt lat="42.870873" lon="-5.362388">
			<ele>1710.000000</ele>
		<time>2015-12-06T02:25:50Z</time>
		</trkpt>

		<trkpt lat="42.870692" lon="-5.362436">
			<ele>1713.000000</ele>
		<time>2015-12-06T02:25:53Z</time>
		</trkpt>

		<trkpt lat="42.870500" lon="-5.362364">
			<ele>1715.000000</ele>
		<time>2015-12-06T02:25:56Z</time>
		</trkpt>

		<trkpt lat="42.870332" lon="-5.362227">
			<ele>1713.000000</ele>
		<time>2015-12-06T02:25:59Z</time>
		</trkpt>

		<trkpt lat="42.870214" lon="-5.361952">
			<ele>1711.000000</ele>
		<time>2015-12-06T02:26:02Z</time>
		</trkpt>

		<trkpt lat="42.870328" lon="-5.361565">
			<ele>1710.000000</ele>
		<time>2015-12-06T02:26:05Z</time>
		</trkpt>

		<trkpt lat="42.870642" lon="-5.361353">
			<ele>1709.000000</ele>
		<time>2015-12-06T02:26:08Z</time>
		</trkpt>

		<trkpt lat="42.870939" lon="-5.361481">
			<ele>1709.000000</ele>
		<time>2015-12-06T02:26:11Z</time>
		</trkpt>

		<trkpt lat="42.871116" lon="-5.361731">
			<ele>1711.000000</ele>
		<time>2015-12-06T02:26:14Z</time>
		</trkpt>

		<trkpt lat="42.871127" lon="-5.361995">
			<ele>1710.000000</ele>
		<time>2015-12-06T02:26:17Z</time>
		</trkpt>

		<trkpt lat="42.871039" lon="-5.362202">
			<ele>1710.000000</ele>
		<time>2015-12-06T02:26:20Z</time>
		</trkpt>

		<trkpt lat="42.870818" lon="-5.362140">
			<ele>1709.000000</ele>
		<time>2015-12-06T02:26:23Z</time>
		</trkpt>

		<trkpt lat="42.870655" lon="-5.361953">
			<ele>1707.000000</ele>
		<time>2015-12-06T02:26:26Z</time>
		</trkpt>

		<trkpt lat="42.870586" lon="-5.361611">
			<ele>1706.000000</ele>
		<time>2015-12-06T02:26:29Z</time>
		</trkpt>

		<trkpt lat="42.870589" lon="-5.361205">
			<ele>1705.000000</ele>
		<time>2015-12-06T02:26:32Z</time>
		</trkpt>

		<trkpt lat="42.870696" lon="-5.360806">
			<ele>1706.000000</ele>
		<time>2015-12-06T02:26:35Z</time>
		</trkpt>

		<trkpt lat="42.870918" lon="-5.360474">
			<ele>1704.000000</ele>
		<time>2015-12-06T02:26:38Z</time>
		</trkpt>

		<trkpt lat="42.871215" lon="-5.360231">
			<ele>1702.000000</ele>
		<time>2015-12-06T02:26:41Z</time>
		</trkpt>

		<trkpt lat="42.871540" lon="-5.360273">
			<ele>1701.000000</ele>
		<time>2015-12-06T02:26:44Z</time>
		</trkpt>

		<trkpt lat="42.871717" lon="-5.360528">
			<ele>1706.000000</ele>
		<time>2015-12-06T02:26:47Z</time>
		</trkpt>

		<trkpt lat="42.871792" lon="-5.360730">
			<ele>1711.000000</ele>
		<time>2015-12-06T02:26:50Z</time>
		</trkpt>

		<trkpt lat="42.871734" lon="-5.360914">
			<ele>1710.000000</ele>
		<time>2015-12-06T02:26:53Z</time>
		</trkpt>

		<trkpt lat="42.871592" lon="-5.360930">
			<ele>1709.000000</ele>
		<time>2015-12-06T02:26:56Z</time>
		</trkpt>

		<trkpt lat="42.871444" lon="-5.360650">
			<ele>1704.000000</ele>
		<time>2015-12-06T02:26:59Z</time>
		</trkpt>

		<trkpt lat="42.871458" lon="-5.360253">
			<ele>1708.000000</ele>
		<time>2015-12-06T02:27:02Z</time>
		</trkpt>

		<trkpt lat="42.871508" lon="-5.359809">
			<ele>1706.000000</ele>
		<time>2015-12-06T02:27:05Z</time>
		</trkpt>

		<trkpt lat="42.871812" lon="-5.359378">
			<ele>1707.000000</ele>
		<time>2015-12-06T02:27:08Z</time>
		</trkpt>

		<trkpt lat="42.872170" lon="-5.359461">
			<ele>1705.000000</ele>
		<time>2015-12-06T02:27:11Z</time>
		</trkpt>

		<trkpt lat="42.872366" lon="-5.359708">
			<ele>1706.000000</ele>
		<time>2015-12-06T02:27:14Z</time>
		</trkpt>

		<trkpt lat="42.872330" lon="-5.359858">
			<ele>1712.000000</ele>
		<time>2015-12-06T02:27:18Z</time>
		</trkpt>

		<trkpt lat="42.872161" lon="-5.359766">
			<ele>1715.000000</ele>
		<time>2015-12-06T02:27:21Z</time>
		</trkpt>

		<trkpt lat="42.872104" lon="-5.359353">
			<ele>1719.000000</ele>
		<time>2015-12-06T02:27:24Z</time>
		</trkpt>

		<trkpt lat="42.872287" lon="-5.358923">
			<ele>1724.000000</ele>
		<time>2015-12-06T02:27:27Z</time>
		</trkpt>

		<trkpt lat="42.872610" lon="-5.358730">
			<ele>1716.000000</ele>
		<time>2015-12-06T02:27:30Z</time>
		</trkpt>

		<trkpt lat="42.872964" lon="-5.358834">
			<ele>1713.000000</ele>
		<time>2015-12-06T02:27:33Z</time>
		</trkpt>

		<trkpt lat="42.873061" lon="-5.359139">
			<ele>1713.000000</ele>
		<time>2015-12-06T02:27:36Z</time>
		</trkpt>

		<trkpt lat="42.872996" lon="-5.359337">
			<ele>1714.000000</ele>
		<time>2015-12-06T02:27:39Z</time>
		</trkpt>

		<trkpt lat="42.872872" lon="-5.359317">
			<ele>1720.000000</ele>
		<time>2015-12-06T02:27:42Z</time>
		</trkpt>

		<trkpt lat="42.872722" lon="-5.359168">
			<ele>1722.000000</ele>
		<time>2015-12-06T02:27:45Z</time>
		</trkpt>

		<trkpt lat="42.872596" lon="-5.359038">
			<ele>1724.000000</ele>
		<time>2015-12-06T02:27:48Z</time>
		</trkpt>

		<trkpt lat="42.872484" lon="-5.358818">
			<ele>1724.000000</ele>
		<time>2015-12-06T02:27:51Z</time>
		</trkpt>

		<trkpt lat="42.872349" lon="-5.358664">
			<ele>1726.000000</ele>
		<time>2015-12-06T02:27:54Z</time>
		</trkpt>

		<trkpt lat="42.872230" lon="-5.358474">
			<ele>1725.000000</ele>
		<time>2015-12-06T02:27:57Z</time>
		</trkpt>

		<trkpt lat="42.872104" lon="-5.358282">
			<ele>1725.000000</ele>
		<time>2015-12-06T02:28:00Z</time>
		</trkpt>

		<trkpt lat="42.871957" lon="-5.358157">
			<ele>1725.000000</ele>
		<time>2015-12-06T02:28:03Z</time>
		</trkpt>

		<trkpt lat="42.871824" lon="-5.358071">
			<ele>1727.000000</ele>
		<time>2015-12-06T02:28:06Z</time>
		</trkpt>

		<trkpt lat="42.871679" lon="-5.358012">
			<ele>1728.000000</ele>
		<time>2015-12-06T02:28:09Z</time>
		</trkpt>

		<trkpt lat="42.871541" lon="-5.357921">
			<ele>1730.000000</ele>
		<time>2015-12-06T02:28:12Z</time>
		</trkpt>

		<trkpt lat="42.871408" lon="-5.357793">
			<ele>1729.000000</ele>
		<time>2015-12-06T02:28:15Z</time>
		</trkpt>

		<trkpt lat="42.871298" lon="-5.357619">
			<ele>1728.000000</ele>
		<time>2015-12-06T02:28:18Z</time>
		</trkpt>

		<trkpt lat="42.871180" lon="-5.357417">
			<ele>1728.000000</ele>
		<time>2015-12-06T02:28:21Z</time>
		</trkpt>

		<trkpt lat="42.871055" lon="-5.357190">
			<ele>1730.000000</ele>
		<time>2015-12-06T02:28:24Z</time>
		</trkpt>

		<trkpt lat="42.870927" lon="-5.356969">
			<ele>1730.000000</ele>
		<time>2015-12-06T02:28:27Z</time>
		</trkpt>

		<trkpt lat="42.870808" lon="-5.356749">
			<ele>1729.000000</ele>
		<time>2015-12-06T02:28:30Z</time>
		</trkpt>

		<trkpt lat="42.870682" lon="-5.356507">
			<ele>1727.000000</ele>
		<time>2015-12-06T02:28:33Z</time>
		</trkpt>

		<trkpt lat="42.870441" lon="-5.356218">
			<ele>1722.000000</ele>
		<time>2015-12-06T02:28:38Z</time>
		</trkpt>

		<trkpt lat="42.870286" lon="-5.356049">
			<ele>1716.000000</ele>
		<time>2015-12-06T02:28:41Z</time>
		</trkpt>

		<trkpt lat="42.870141" lon="-5.355948">
			<ele>1708.000000</ele>
		<time>2015-12-06T02:28:44Z</time>
		</trkpt>

		<trkpt lat="42.869944" lon="-5.355898">
			<ele>1701.000000</ele>
		<time>2015-12-06T02:28:47Z</time>
		</trkpt>

		<trkpt lat="42.869776" lon="-5.355816">
			<ele>1698.000000</ele>
		<time>2015-12-06T02:28:50Z</time>
		</trkpt>

		<trkpt lat="42.869581" lon="-5.355652">
			<ele>1692.000000</ele>
		<time>2015-12-06T02:28:54Z</time>
		</trkpt>

		<trkpt lat="42.869450" lon="-5.355599">
			<ele>1688.000000</ele>
		<time>2015-12-06T02:28:57Z</time>
		</trkpt>

		<trkpt lat="42.869256" lon="-5.355626">
			<ele>1681.000000</ele>
		<time>2015-12-06T02:29:00Z</time>
		</trkpt>

		<trkpt lat="42.869099" lon="-5.355694">
			<ele>1677.000000</ele>
		<time>2015-12-06T02:29:03Z</time>
		</trkpt>

		<trkpt lat="42.868906" lon="-5.355751">
			<ele>1674.000000</ele>
		<time>2015-12-06T02:29:06Z</time>
		</trkpt>

		<trkpt lat="42.868703" lon="-5.355761">
			<ele>1672.000000</ele>
		<time>2015-12-06T02:29:09Z</time>
		</trkpt>

		<trkpt lat="42.868511" lon="-5.355777">
			<ele>1669.000000</ele>
		<time>2015-12-06T02:29:12Z</time>
		</trkpt>

		<trkpt lat="42.868315" lon="-5.355737">
			<ele>1668.000000</ele>
		<time>2015-12-06T02:29:15Z</time>
		</trkpt>

		<trkpt lat="42.868156" lon="-5.355749">
			<ele>1667.000000</ele>
		<time>2015-12-06T02:29:18Z</time>
		</trkpt>

		<trkpt lat="42.867978" lon="-5.355812">
			<ele>1666.000000</ele>
		<time>2015-12-06T02:29:21Z</time>
		</trkpt>

		<trkpt lat="42.867815" lon="-5.355909">
			<ele>1664.000000</ele>
		<time>2015-12-06T02:29:24Z</time>
		</trkpt>

		<trkpt lat="42.867640" lon="-5.355980">
			<ele>1662.000000</ele>
		<time>2015-12-06T02:29:27Z</time>
		</trkpt>

		<trkpt lat="42.865816" lon="-5.356577">
			<ele>1642.000000</ele>
		<time>2015-12-06T02:29:59Z</time>
		</trkpt>

		<trkpt lat="42.865668" lon="-5.356548">
			<ele>1642.000000</ele>
		<time>2015-12-06T02:30:02Z</time>
		</trkpt>

		<trkpt lat="42.865509" lon="-5.356592">
			<ele>1638.000000</ele>
		<time>2015-12-06T02:30:05Z</time>
		</trkpt>

		<trkpt lat="42.865348" lon="-5.356655">
			<ele>1636.000000</ele>
		<time>2015-12-06T02:30:08Z</time>
		</trkpt>

		<trkpt lat="42.865185" lon="-5.356764">
			<ele>1638.000000</ele>
		<time>2015-12-06T02:30:11Z</time>
		</trkpt>

		<trkpt lat="42.865026" lon="-5.356848">
			<ele>1638.000000</ele>
		<time>2015-12-06T02:30:14Z</time>
		</trkpt>

		<trkpt lat="42.864848" lon="-5.356938">
			<ele>1640.000000</ele>
		<time>2015-12-06T02:30:17Z</time>
		</trkpt>

		<trkpt lat="42.864695" lon="-5.357062">
			<ele>1639.000000</ele>
		<time>2015-12-06T02:30:20Z</time>
		</trkpt>

		<trkpt lat="42.864553" lon="-5.357225">
			<ele>1639.000000</ele>
		<time>2015-12-06T02:30:23Z</time>
		</trkpt>

		<trkpt lat="42.864433" lon="-5.357395">
			<ele>1639.000000</ele>
		<time>2015-12-06T02:30:26Z</time>
		</trkpt>

		<trkpt lat="42.864313" lon="-5.357559">
			<ele>1640.000000</ele>
		<time>2015-12-06T02:30:29Z</time>
		</trkpt>

		<trkpt lat="42.864184" lon="-5.357725">
			<ele>1641.000000</ele>
		<time>2015-12-06T02:30:32Z</time>
		</trkpt>

		<trkpt lat="42.864048" lon="-5.357875">
			<ele>1641.000000</ele>
		<time>2015-12-06T02:30:35Z</time>
		</trkpt>

		<trkpt lat="42.863927" lon="-5.358017">
			<ele>1640.000000</ele>
		<time>2015-12-06T02:30:38Z</time>
		</trkpt>

		<trkpt lat="42.863875" lon="-5.358206">
			<ele>1639.000000</ele>
		<time>2015-12-06T02:30:41Z</time>
		</trkpt>

		<trkpt lat="42.863893" lon="-5.358497">
			<ele>1639.000000</ele>
		<time>2015-12-06T02:30:44Z</time>
		</trkpt>

		<trkpt lat="42.863978" lon="-5.358776">
			<ele>1641.000000</ele>
		<time>2015-12-06T02:30:47Z</time>
		</trkpt>

		<trkpt lat="42.864113" lon="-5.359169">
			<ele>1644.000000</ele>
		<time>2015-12-06T02:30:51Z</time>
		</trkpt>

		<trkpt lat="42.864387" lon="-5.359370">
			<ele>1645.000000</ele>
		<time>2015-12-06T02:30:54Z</time>
		</trkpt>

		<trkpt lat="42.864692" lon="-5.359380">
			<ele>1649.000000</ele>
		<time>2015-12-06T02:30:57Z</time>
		</trkpt>

		<trkpt lat="42.864992" lon="-5.359219">
			<ele>1646.000000</ele>
		<time>2015-12-06T02:31:00Z</time>
		</trkpt>

		<trkpt lat="42.865176" lon="-5.358890">
			<ele>1646.000000</ele>
		<time>2015-12-06T02:31:03Z</time>
		</trkpt>

		<trkpt lat="42.865141" lon="-5.358597">
			<ele>1647.000000</ele>
		<time>2015-12-06T02:31:06Z</time>
		</trkpt>

		<trkpt lat="42.864976" lon="-5.358515">
			<ele>1645.000000</ele>
		<time>2015-12-06T02:31:09Z</time>
		</trkpt>

		<trkpt lat="42.864870" lon="-5.358700">
			<ele>1643.000000</ele>
		<time>2015-12-06T02:31:12Z</time>
		</trkpt>

		<trkpt lat="42.864858" lon="-5.358979">
			<ele>1641.000000</ele>
		<time>2015-12-06T02:31:15Z</time>
		</trkpt>

		<trkpt lat="42.864916" lon="-5.359290">
			<ele>1644.000000</ele>
		<time>2015-12-06T02:31:18Z</time>
		</trkpt>

		<trkpt lat="42.864986" lon="-5.359606">
			<ele>1646.000000</ele>
		<time>2015-12-06T02:31:21Z</time>
		</trkpt>

		<trkpt lat="42.865023" lon="-5.359937">
			<ele>1652.000000</ele>
		<time>2015-12-06T02:31:24Z</time>
		</trkpt>

		<trkpt lat="42.865046" lon="-5.360241">
			<ele>1655.000000</ele>
		<time>2015-12-06T02:31:27Z</time>
		</trkpt>

		<trkpt lat="42.864914" lon="-5.360521">
			<ele>1659.000000</ele>
		<time>2015-12-06T02:31:30Z</time>
		</trkpt>

		<trkpt lat="42.864707" lon="-5.360387">
			<ele>1660.000000</ele>
		<time>2015-12-06T02:31:33Z</time>
		</trkpt>

		<trkpt lat="42.864618" lon="-5.360110">
			<ele>1665.000000</ele>
		<time>2015-12-06T02:31:36Z</time>
		</trkpt>

		<trkpt lat="42.864832" lon="-5.359723">
			<ele>1667.000000</ele>
		<time>2015-12-06T02:31:40Z</time>
		</trkpt>

		<trkpt lat="42.865128" lon="-5.359664">
			<ele>1669.000000</ele>
		<time>2015-12-06T02:31:43Z</time>
		</trkpt>

		<trkpt lat="42.865338" lon="-5.359895">
			<ele>1674.000000</ele>
		<time>2015-12-06T02:31:46Z</time>
		</trkpt>

		<trkpt lat="42.865426" lon="-5.360173">
			<ele>1675.000000</ele>
		<time>2015-12-06T02:31:49Z</time>
		</trkpt>

		<trkpt lat="42.865356" lon="-5.360495">
			<ele>1680.000000</ele>
		<time>2015-12-06T02:31:52Z</time>
		</trkpt>

		<trkpt lat="42.865149" lon="-5.360585">
			<ele>1677.000000</ele>
		<time>2015-12-06T02:31:55Z</time>
		</trkpt>

		<trkpt lat="42.864908" lon="-5.360396">
			<ele>1683.000000</ele>
		<time>2015-12-06T02:31:58Z</time>
		</trkpt>

		<trkpt lat="42.864805" lon="-5.360126">
			<ele>1684.000000</ele>
		<time>2015-12-06T02:32:01Z</time>
		</trkpt>

		<trkpt lat="42.864850" lon="-5.359751">
			<ele>1683.000000</ele>
		<time>2015-12-06T02:32:04Z</time>
		</trkpt>

		<trkpt lat="42.865081" lon="-5.359474">
			<ele>1686.000000</ele>
		<time>2015-12-06T02:32:07Z</time>
		</trkpt>

		<trkpt lat="42.865365" lon="-5.359377">
			<ele>1685.000000</ele>
		<time>2015-12-06T02:32:10Z</time>
		</trkpt>

		<trkpt lat="42.865672" lon="-5.359560">
			<ele>1687.000000</ele>
		<time>2015-12-06T02:32:13Z</time>
		</trkpt>

		<trkpt lat="42.865825" lon="-5.359842">
			<ele>1691.000000</ele>
		<time>2015-12-06T02:32:16Z</time>
		</trkpt>

		<trkpt lat="42.865781" lon="-5.360143">
			<ele>1688.000000</ele>
		<time>2015-12-06T02:32:19Z</time>
		</trkpt>

		<trkpt lat="42.865557" lon="-5.360206">
			<ele>1689.000000</ele>
		<time>2015-12-06T02:32:22Z</time>
		</trkpt>

		<trkpt lat="42.865364" lon="-5.359988">
			<ele>1688.000000</ele>
		<time>2015-12-06T02:32:25Z</time>
		</trkpt>

		<trkpt lat="42.865267" lon="-5.359658">
			<ele>1689.000000</ele>
		<time>2015-12-06T02:32:28Z</time>
		</trkpt>

		<trkpt lat="42.865281" lon="-5.359270">
			<ele>1687.000000</ele>
		<time>2015-12-06T02:32:31Z</time>
		</trkpt>

		<trkpt lat="42.865467" lon="-5.358941">
			<ele>1688.000000</ele>
		<time>2015-12-06T02:32:34Z</time>
		</trkpt>

		<trkpt lat="42.865774" lon="-5.358806">
			<ele>1693.000000</ele>
		<time>2015-12-06T02:32:37Z</time>
		</trkpt>

		<trkpt lat="42.866092" lon="-5.358844">
			<ele>1694.000000</ele>
		<time>2015-12-06T02:32:40Z</time>
		</trkpt>

		<trkpt lat="42.866420" lon="-5.358927">
			<ele>1696.000000</ele>
		<time>2015-12-06T02:32:43Z</time>
		</trkpt>

		<trkpt lat="42.866710" lon="-5.359007">
			<ele>1696.000000</ele>
		<time>2015-12-06T02:32:46Z</time>
		</trkpt>

		<trkpt lat="42.866982" lon="-5.359166">
			<ele>1697.000000</ele>
		<time>2015-12-06T02:32:49Z</time>
		</trkpt>

		<trkpt lat="42.867114" lon="-5.359401">
			<ele>1697.000000</ele>
		<time>2015-12-06T02:32:52Z</time>
		</trkpt>

		<trkpt lat="42.866986" lon="-5.359614">
			<ele>1697.000000</ele>
		<time>2015-12-06T02:32:55Z</time>
		</trkpt>

		<trkpt lat="42.866775" lon="-5.359610">
			<ele>1696.000000</ele>
		<time>2015-12-06T02:32:58Z</time>
		</trkpt>

		<trkpt lat="42.866560" lon="-5.359521">
			<ele>1696.000000</ele>
		<time>2015-12-06T02:33:01Z</time>
		</trkpt>

		<trkpt lat="42.866408" lon="-5.359306">
			<ele>1696.000000</ele>
		<time>2015-12-06T02:33:04Z</time>
		</trkpt>

		<trkpt lat="42.866315" lon="-5.358995">
			<ele>1695.000000</ele>
		<time>2015-12-06T02:33:07Z</time>
		</trkpt>

		<trkpt lat="42.866356" lon="-5.358620">
			<ele>1695.000000</ele>
		<time>2015-12-06T02:33:10Z</time>
		</trkpt>

		<trkpt lat="42.866519" lon="-5.358296">
			<ele>1697.000000</ele>
		<time>2015-12-06T02:33:13Z</time>
		</trkpt>

		<trkpt lat="42.866810" lon="-5.358115">
			<ele>1694.000000</ele>
		<time>2015-12-06T02:33:16Z</time>
		</trkpt>

		<trkpt lat="42.867083" lon="-5.358176">
			<ele>1696.000000</ele>
		<time>2015-12-06T02:33:19Z</time>
		</trkpt>

		<trkpt lat="42.867240" lon="-5.358397">
			<ele>1691.000000</ele>
		<time>2015-12-06T02:33:22Z</time>
		</trkpt>

		<trkpt lat="42.867209" lon="-5.358676">
			<ele>1691.000000</ele>
		<time>2015-12-06T02:33:25Z</time>
		</trkpt>

		<trkpt lat="42.867052" lon="-5.358950">
			<ele>1693.000000</ele>
		<time>2015-12-06T02:33:29Z</time>
		</trkpt>

		<trkpt lat="42.866842" lon="-5.359077">
			<ele>1693.000000</ele>
		<time>2015-12-06T02:33:32Z</time>
		</trkpt>

		<trkpt lat="42.866604" lon="-5.359045">
			<ele>1696.000000</ele>
		<time>2015-12-06T02:33:35Z</time>
		</trkpt>

		<trkpt lat="42.866465" lon="-5.358810">
			<ele>1694.000000</ele>
		<time>2015-12-06T02:33:38Z</time>
		</trkpt>

		<trkpt lat="42.866506" lon="-5.358416">
			<ele>1691.000000</ele>
		<time>2015-12-06T02:33:41Z</time>
		</trkpt>

		<trkpt lat="42.866736" lon="-5.358119">
			<ele>1689.000000</ele>
		<time>2015-12-06T02:33:44Z</time>
		</trkpt>

		<trkpt lat="42.867006" lon="-5.358092">
			<ele>1690.000000</ele>
		<time>2015-12-06T02:33:47Z</time>
		</trkpt>

		<trkpt lat="42.867199" lon="-5.358272">
			<ele>1686.000000</ele>
		<time>2015-12-06T02:33:50Z</time>
		</trkpt>

		<trkpt lat="42.867298" lon="-5.358534">
			<ele>1686.000000</ele>
		<time>2015-12-06T02:33:53Z</time>
		</trkpt>

		<trkpt lat="42.867375" lon="-5.358799">
			<ele>1685.000000</ele>
		<time>2015-12-06T02:33:56Z</time>
		</trkpt>

		<trkpt lat="42.867525" lon="-5.359068">
			<ele>1683.000000</ele>
		<time>2015-12-06T02:33:59Z</time>
		</trkpt>

		<trkpt lat="42.867698" lon="-5.359356">
			<ele>1685.000000</ele>
		<time>2015-12-06T02:34:02Z</time>
		</trkpt>

		<trkpt lat="42.867877" lon="-5.359586">
			<ele>1689.000000</ele>
		<time>2015-12-06T02:34:05Z</time>
		</trkpt>

		<trkpt lat="42.868068" lon="-5.359802">
			<ele>1692.000000</ele>
		<time>2015-12-06T02:34:08Z</time>
		</trkpt>

		<trkpt lat="42.868263" lon="-5.360030">
			<ele>1696.000000</ele>
		<time>2015-12-06T02:34:11Z</time>
		</trkpt>

		<trkpt lat="42.868466" lon="-5.360156">
			<ele>1697.000000</ele>
		<time>2015-12-06T02:34:14Z</time>
		</trkpt>

		<trkpt lat="42.868712" lon="-5.360262">
			<ele>1697.000000</ele>
		<time>2015-12-06T02:34:17Z</time>
		</trkpt>

		<trkpt lat="42.868991" lon="-5.360153">
			<ele>1704.000000</ele>
		<time>2015-12-06T02:34:20Z</time>
		</trkpt>

		<trkpt lat="42.869203" lon="-5.359748">
			<ele>1711.000000</ele>
		<time>2015-12-06T02:34:24Z</time>
		</trkpt>

		<trkpt lat="42.869159" lon="-5.359374">
			<ele>1714.000000</ele>
		<time>2015-12-06T02:34:27Z</time>
		</trkpt>

		<trkpt lat="42.868967" lon="-5.359250">
			<ele>1717.000000</ele>
		<time>2015-12-06T02:34:30Z</time>
		</trkpt>

		<trkpt lat="42.868833" lon="-5.359358">
			<ele>1719.000000</ele>
		<time>2015-12-06T02:34:33Z</time>
		</trkpt>

		<trkpt lat="42.868836" lon="-5.359615">
			<ele>1720.000000</ele>
		<time>2015-12-06T02:34:36Z</time>
		</trkpt>

		<trkpt lat="42.868983" lon="-5.359792">
			<ele>1721.000000</ele>
		<time>2015-12-06T02:34:39Z</time>
		</trkpt>

		<trkpt lat="42.869177" lon="-5.359903">
			<ele>1722.000000</ele>
		<time>2015-12-06T02:34:42Z</time>
		</trkpt>

		<trkpt lat="42.869399" lon="-5.360011">
			<ele>1722.000000</ele>
		<time>2015-12-06T02:34:45Z</time>
		</trkpt>

		<trkpt lat="42.869625" lon="-5.360081">
			<ele>1724.000000</ele>
		<time>2015-12-06T02:34:48Z</time>
		</trkpt>

		<trkpt lat="42.869855" lon="-5.360167">
			<ele>1728.000000</ele>
		<time>2015-12-06T02:34:51Z</time>
		</trkpt>

		<trkpt lat="42.870187" lon="-5.360257">
			<ele>1731.000000</ele>
		<time>2015-12-06T02:34:55Z</time>
		</trkpt>

		<trkpt lat="42.870431" lon="-5.360302">
			<ele>1734.000000</ele>
		<time>2015-12-06T02:34:58Z</time>
		</trkpt>

		<trkpt lat="42.870784" lon="-5.360306">
			<ele>1737.000000</ele>
		<time>2015-12-06T02:35:02Z</time>
		</trkpt>

		<trkpt lat="42.871000" lon="-5.360046">
			<ele>1737.000000</ele>
		<time>2015-12-06T02:35:05Z</time>
		</trkpt>

		<trkpt lat="42.871049" lon="-5.359697">
			<ele>1740.000000</ele>
		<time>2015-12-06T02:35:08Z</time>
		</trkpt>

		<trkpt lat="42.870951" lon="-5.359434">
			<ele>1738.000000</ele>
		<time>2015-12-06T02:35:11Z</time>
		</trkpt>

		<trkpt lat="42.870765" lon="-5.359386">
			<ele>1740.000000</ele>
		<time>2015-12-06T02:35:14Z</time>
		</trkpt>

		<trkpt lat="42.870663" lon="-5.359489">
			<ele>1743.000000</ele>
		<time>2015-12-06T02:35:17Z</time>
		</trkpt>

		<trkpt lat="42.870633" lon="-5.359711">
			<ele>1743.000000</ele>
		<time>2015-12-06T02:35:20Z</time>
		</trkpt>

		<trkpt lat="42.870785" lon="-5.359952">
			<ele>1745.000000</ele>
		<time>2015-12-06T02:35:23Z</time>
		</trkpt>

		<trkpt lat="42.870930" lon="-5.360176">
			<ele>1746.000000</ele>
		<time>2015-12-06T02:35:26Z</time>
		</trkpt>

		<trkpt lat="42.871147" lon="-5.360333">
			<ele>1748.000000</ele>
		<time>2015-12-06T02:35:29Z</time>
		</trkpt>

		<trkpt lat="42.871335" lon="-5.360487">
			<ele>1751.000000</ele>
		<time>2015-12-06T02:35:32Z</time>
		</trkpt>

		<trkpt lat="42.871517" lon="-5.360668">
			<ele>1752.000000</ele>
		<time>2015-12-06T02:35:35Z</time>
		</trkpt>

		<trkpt lat="42.871741" lon="-5.360785">
			<ele>1755.000000</ele>
		<time>2015-12-06T02:35:38Z</time>
		</trkpt>

		<trkpt lat="42.872028" lon="-5.360784">
			<ele>1758.000000</ele>
		<time>2015-12-06T02:35:41Z</time>
		</trkpt>

		<trkpt lat="42.872280" lon="-5.360602">
			<ele>1759.000000</ele>
		<time>2015-12-06T02:35:44Z</time>
		</trkpt>

		<trkpt lat="42.872468" lon="-5.360266">
			<ele>1757.000000</ele>
		<time>2015-12-06T02:35:47Z</time>
		</trkpt>

		<trkpt lat="42.872584" lon="-5.359901">
			<ele>1761.000000</ele>
		<time>2015-12-06T02:35:50Z</time>
		</trkpt>

		<trkpt lat="42.872737" lon="-5.359568">
			<ele>1758.000000</ele>
		<time>2015-12-06T02:35:53Z</time>
		</trkpt>

		<trkpt lat="42.872866" lon="-5.359177">
			<ele>1756.000000</ele>
		<time>2015-12-06T02:35:56Z</time>
		</trkpt>

		<trkpt lat="42.873177" lon="-5.358962">
			<ele>1752.000000</ele>
		<time>2015-12-06T02:35:59Z</time>
		</trkpt>

		<trkpt lat="42.873458" lon="-5.359089">
			<ele>1752.000000</ele>
		<time>2015-12-06T02:36:02Z</time>
		</trkpt>

		<trkpt lat="42.873532" lon="-5.359309">
			<ele>1749.000000</ele>
		<time>2015-12-06T02:36:05Z</time>
		</trkpt>

		<trkpt lat="42.873467" lon="-5.359486">
			<ele>1747.000000</ele>
		<time>2015-12-06T02:36:08Z</time>
		</trkpt>

		<trkpt lat="42.873293" lon="-5.359634">
			<ele>1745.000000</ele>
		<time>2015-12-06T02:36:12Z</time>
		</trkpt>

		<trkpt lat="42.873120" lon="-5.359664">
			<ele>1745.000000</ele>
		<time>2015-12-06T02:36:15Z</time>
		</trkpt>

		<trkpt lat="42.872957" lon="-5.359660">
			<ele>1742.000000</ele>
		<time>2015-12-06T02:36:18Z</time>
		</trkpt>

		<trkpt lat="42.872744" lon="-5.359726">
			<ele>1743.000000</ele>
		<time>2015-12-06T02:36:22Z</time>
		</trkpt>

		<trkpt lat="42.872585" lon="-5.359780">
			<ele>1745.000000</ele>
		<time>2015-12-06T02:36:25Z</time>
		</trkpt>

		<trkpt lat="42.872430" lon="-5.359838">
			<ele>1744.000000</ele>
		<time>2015-12-06T02:36:28Z</time>
		</trkpt>

		<trkpt lat="42.872269" lon="-5.359892">
			<ele>1745.000000</ele>
		<time>2015-12-06T02:36:31Z</time>
		</trkpt>

		<trkpt lat="42.872165" lon="-5.359970">
			<ele>1752.000000</ele>
		<time>2015-12-06T02:36:35Z</time>
		</trkpt>

		<trkpt lat="42.872111" lon="-5.360111">
			<ele>1755.000000</ele>
		<time>2015-12-06T02:36:38Z</time>
		</trkpt>

		<trkpt lat="42.872315" lon="-5.360366">
			<ele>1760.000000</ele>
		<time>2015-12-06T02:36:41Z</time>
		</trkpt>

		<trkpt lat="42.872625" lon="-5.360368">
			<ele>1771.000000</ele>
		<time>2015-12-06T02:36:44Z</time>
		</trkpt>

		<trkpt lat="42.872905" lon="-5.360125">
			<ele>1773.000000</ele>
		<time>2015-12-06T02:36:47Z</time>
		</trkpt>

		<trkpt lat="42.872972" lon="-5.359789">
			<ele>1776.000000</ele>
		<time>2015-12-06T02:36:50Z</time>
		</trkpt>

		<trkpt lat="42.872857" lon="-5.359585">
			<ele>1779.000000</ele>
		<time>2015-12-06T02:36:53Z</time>
		</trkpt>

		<trkpt lat="42.872710" lon="-5.359573">
			<ele>1788.000000</ele>
		<time>2015-12-06T02:36:57Z</time>
		</trkpt>

		<trkpt lat="42.872606" lon="-5.359642">
			<ele>1792.000000</ele>
		<time>2015-12-06T02:37:00Z</time>
		</trkpt>

		<trkpt lat="42.872542" lon="-5.359672">
			<ele>1792.000000</ele>
		<time>2015-12-06T02:37:03Z</time>
		</trkpt>

		<trkpt lat="42.872528" lon="-5.359882">
			<ele>1786.000000</ele>
		<time>2015-12-06T02:37:07Z</time>
		</trkpt>

		<trkpt lat="42.872873" lon="-5.360112">
			<ele>1784.000000</ele>
		<time>2015-12-06T02:37:11Z</time>
		</trkpt>

		<trkpt lat="42.873218" lon="-5.360170">
			<ele>1788.000000</ele>
		<time>2015-12-06T02:37:14Z</time>
		</trkpt>

		<trkpt lat="42.873503" lon="-5.359946">
			<ele>1795.000000</ele>
		<time>2015-12-06T02:37:17Z</time>
		</trkpt>

		<trkpt lat="42.873623" lon="-5.359668">
			<ele>1795.000000</ele>
		<time>2015-12-06T02:37:20Z</time>
		</trkpt>

		<trkpt lat="42.873550" lon="-5.359374">
			<ele>1793.000000</ele>
		<time>2015-12-06T02:37:23Z</time>
		</trkpt>

		<trkpt lat="42.873392" lon="-5.359340">
			<ele>1799.000000</ele>
		<time>2015-12-06T02:37:26Z</time>
		</trkpt>

		<trkpt lat="42.873291" lon="-5.359340">
			<ele>1803.000000</ele>
		<time>2015-12-06T02:37:29Z</time>
		</trkpt>

		<trkpt lat="42.873172" lon="-5.359406">
			<ele>1804.000000</ele>
		<time>2015-12-06T02:37:32Z</time>
		</trkpt>

		<trkpt lat="42.873056" lon="-5.359419">
			<ele>1802.000000</ele>
		<time>2015-12-06T02:37:35Z</time>
		</trkpt>

		<trkpt lat="42.872910" lon="-5.359353">
			<ele>1792.000000</ele>
		<time>2015-12-06T02:37:38Z</time>
		</trkpt>

		<trkpt lat="42.872772" lon="-5.359073">
			<ele>1791.000000</ele>
		<time>2015-12-06T02:37:41Z</time>
		</trkpt>

		<trkpt lat="42.872811" lon="-5.358686">
			<ele>1788.000000</ele>
		<time>2015-12-06T02:37:44Z</time>
		</trkpt>

		<trkpt lat="42.873114" lon="-5.358421">
			<ele>1788.000000</ele>
		<time>2015-12-06T02:37:47Z</time>
		</trkpt>

		<trkpt lat="42.873435" lon="-5.358460">
			<ele>1791.000000</ele>
		<time>2015-12-06T02:37:50Z</time>
		</trkpt>

		<trkpt lat="42.873575" lon="-5.358750">
			<ele>1792.000000</ele>
		<time>2015-12-06T02:37:53Z</time>
		</trkpt>

		<trkpt lat="42.873565" lon="-5.358931">
			<ele>1791.000000</ele>
		<time>2015-12-06T02:37:56Z</time>
		</trkpt>

		<trkpt lat="42.873483" lon="-5.359003">
			<ele>1788.000000</ele>
		<time>2015-12-06T02:37:59Z</time>
		</trkpt>

		<trkpt lat="42.873329" lon="-5.359054">
			<ele>1786.000000</ele>
		<time>2015-12-06T02:38:02Z</time>
		</trkpt>

		<trkpt lat="42.873204" lon="-5.359074">
			<ele>1789.000000</ele>
		<time>2015-12-06T02:38:05Z</time>
		</trkpt>

		<trkpt lat="42.873087" lon="-5.359109">
			<ele>1785.000000</ele>
		<time>2015-12-06T02:38:08Z</time>
		</trkpt>

		<trkpt lat="42.872948" lon="-5.359218">
			<ele>1789.000000</ele>
		<time>2015-12-06T02:38:11Z</time>
		</trkpt>

		<trkpt lat="42.872859" lon="-5.359292">
			<ele>1789.000000</ele>
		<time>2015-12-06T02:38:14Z</time>
		</trkpt>

		<trkpt lat="42.872727" lon="-5.359456">
			<ele>1792.000000</ele>
		<time>2015-12-06T02:38:17Z</time>
		</trkpt>

		<trkpt lat="42.872625" lon="-5.359570">
			<ele>1791.000000</ele>
		<time>2015-12-06T02:38:20Z</time>
		</trkpt>

		<trkpt lat="42.872481" lon="-5.359728">
			<ele>1789.000000</ele>
		<time>2015-12-06T02:38:23Z</time>
		</trkpt>

		<trkpt lat="42.872316" lon="-5.359991">
			<ele>1787.000000</ele>
		<time>2015-12-06T02:38:27Z</time>
		</trkpt>

		<trkpt lat="42.872194" lon="-5.360185">
			<ele>1789.000000</ele>
		<time>2015-12-06T02:38:30Z</time>
		</trkpt>

		<trkpt lat="42.872094" lon="-5.360320">
			<ele>1786.000000</ele>
		<time>2015-12-06T02:38:33Z</time>
		</trkpt>

		<trkpt lat="42.872000" lon="-5.360505">
			<ele>1783.000000</ele>
		<time>2015-12-06T02:38:36Z</time>
		</trkpt>

		<trkpt lat="42.871922" lon="-5.360697">
			<ele>1784.000000</ele>
		<time>2015-12-06T02:38:39Z</time>
		</trkpt>

		<trkpt lat="42.871858" lon="-5.360943">
			<ele>1786.000000</ele>
		<time>2015-12-06T02:38:42Z</time>
		</trkpt>

		<trkpt lat="42.871787" lon="-5.361219">
			<ele>1787.000000</ele>
		<time>2015-12-06T02:38:45Z</time>
		</trkpt>

		<trkpt lat="42.871712" lon="-5.361481">
			<ele>1787.000000</ele>
		<time>2015-12-06T02:38:48Z</time>
		</trkpt>

		<trkpt lat="42.871668" lon="-5.361715">
			<ele>1785.000000</ele>
		<time>2015-12-06T02:38:51Z</time>
		</trkpt>

		<trkpt lat="42.871620" lon="-5.362016">
			<ele>1782.000000</ele>
		<time>2015-12-06T02:38:54Z</time>
		</trkpt>

		<trkpt lat="42.871622" lon="-5.362314">
			<ele>1779.000000</ele>
		<time>2015-12-06T02:38:57Z</time>
		</trkpt>

		<trkpt lat="42.871640" lon="-5.362643">
			<ele>1774.000000</ele>
		<time>2015-12-06T02:39:00Z</time>
		</trkpt>

		<trkpt lat="42.871650" lon="-5.362935">
			<ele>1770.000000</ele>
		<time>2015-12-06T02:39:03Z</time>
		</trkpt>

		<trkpt lat="42.871652" lon="-5.363288">
			<ele>1766.000000</ele>
		<time>2015-12-06T02:39:06Z</time>
		</trkpt>

		<trkpt lat="42.871684" lon="-5.363639">
			<ele>1766.000000</ele>
		<time>2015-12-06T02:39:09Z</time>
		</trkpt>

		<trkpt lat="42.871742" lon="-5.363970">
			<ele>1765.000000</ele>
		<time>2015-12-06T02:39:12Z</time>
		</trkpt>

		<trkpt lat="42.871806" lon="-5.364241">
			<ele>1762.000000</ele>
		<time>2015-12-06T02:39:15Z</time>
		</trkpt>

		<trkpt lat="42.871893" lon="-5.364568">
			<ele>1759.000000</ele>
		<time>2015-12-06T02:39:18Z</time>
		</trkpt>

		<trkpt lat="42.871954" lon="-5.364883">
			<ele>1757.000000</ele>
		<time>2015-12-06T02:39:21Z</time>
		</trkpt>

		<trkpt lat="42.871994" lon="-5.365222">
			<ele>1755.000000</ele>
		<time>2015-12-06T02:39:24Z</time>
		</trkpt>

		<trkpt lat="42.872051" lon="-5.365551">
			<ele>1752.000000</ele>
		<time>2015-12-06T02:39:27Z</time>
		</trkpt>

		<trkpt lat="42.872114" lon="-5.365872">
			<ele>1750.000000</ele>
		<time>2015-12-06T02:39:30Z</time>
		</trkpt>

		<trkpt lat="42.872178" lon="-5.366169">
			<ele>1747.000000</ele>
		<time>2015-12-06T02:39:33Z</time>
		</trkpt>

		<trkpt lat="42.872230" lon="-5.366498">
			<ele>1740.000000</ele>
		<time>2015-12-06T02:39:36Z</time>
		</trkpt>

		<trkpt lat="42.872327" lon="-5.366868">
			<ele>1741.000000</ele>
		<time>2015-12-06T02:39:39Z</time>
		</trkpt>

		<trkpt lat="42.872392" lon="-5.367128">
			<ele>1740.000000</ele>
		<time>2015-12-06T02:39:42Z</time>
		</trkpt>

		<trkpt lat="42.872466" lon="-5.367468">
			<ele>1736.000000</ele>
		<time>2015-12-06T02:39:45Z</time>
		</trkpt>

		<trkpt lat="42.872541" lon="-5.367823">
			<ele>1737.000000</ele>
		<time>2015-12-06T02:39:48Z</time>
		</trkpt>

		<trkpt lat="42.872544" lon="-5.368146">
			<ele>1734.000000</ele>
		<time>2015-12-06T02:39:51Z</time>
		</trkpt>

		<trkpt lat="42.872375" lon="-5.368302">
			<ele>1733.000000</ele>
		<time>2015-12-06T02:39:54Z</time>
		</trkpt>

		<trkpt lat="42.872191" lon="-5.368174">
			<ele>1732.000000</ele>
		<time>2015-12-06T02:39:57Z</time>
		</trkpt>

		<trkpt lat="42.872113" lon="-5.367840">
			<ele>1728.000000</ele>
		<time>2015-12-06T02:40:00Z</time>
		</trkpt>

		<trkpt lat="42.872186" lon="-5.367510">
			<ele>1728.000000</ele>
		<time>2015-12-06T02:40:03Z</time>
		</trkpt>

		<trkpt lat="42.872259" lon="-5.367168">
			<ele>1724.000000</ele>
		<time>2015-12-06T02:40:06Z</time>
		</trkpt>

		<trkpt lat="42.872289" lon="-5.366832">
			<ele>1721.000000</ele>
		<time>2015-12-06T02:40:09Z</time>
		</trkpt>

		<trkpt lat="42.872229" lon="-5.366546">
			<ele>1718.000000</ele>
		<time>2015-12-06T02:40:12Z</time>
		</trkpt>

		<trkpt lat="42.872081" lon="-5.366330">
			<ele>1715.000000</ele>
		<time>2015-12-06T02:40:15Z</time>
		</trkpt>

		<trkpt lat="42.871879" lon="-5.366270">
			<ele>1714.000000</ele>
		<time>2015-12-06T02:40:18Z</time>
		</trkpt>

		<trkpt lat="42.871682" lon="-5.366310">
			<ele>1710.000000</ele>
		<time>2015-12-06T02:40:21Z</time>
		</trkpt>

		<trkpt lat="42.871535" lon="-5.366462">
			<ele>1709.000000</ele>
		<time>2015-12-06T02:40:24Z</time>
		</trkpt>

		<trkpt lat="42.871432" lon="-5.366722">
			<ele>1704.000000</ele>
		<time>2015-12-06T02:40:27Z</time>
		</trkpt>

		<trkpt lat="42.871446" lon="-5.367046">
			<ele>1701.000000</ele>
		<time>2015-12-06T02:40:30Z</time>
		</trkpt>

		<trkpt lat="42.871525" lon="-5.367347">
			<ele>1697.000000</ele>
		<time>2015-12-06T02:40:33Z</time>
		</trkpt>

		<trkpt lat="42.871630" lon="-5.367698">
			<ele>1694.000000</ele>
		<time>2015-12-06T02:40:36Z</time>
		</trkpt>

		<trkpt lat="42.873058" lon="-5.370895">
			<ele>1670.000000</ele>
		<time>2015-12-06T02:41:08Z</time>
		</trkpt>

		<trkpt lat="42.873058" lon="-5.370677">
			<ele>1640.000000</ele>
		<time>2015-12-06T02:41:11Z</time>
		</trkpt>

		<trkpt lat="42.872921" lon="-5.370643">
			<ele>1634.000000</ele>
		<time>2015-12-06T02:41:14Z</time>
		</trkpt>

		<trkpt lat="42.872714" lon="-5.370376">
			<ele>1632.000000</ele>
		<time>2015-12-06T02:41:18Z</time>
		</trkpt>

		<trkpt lat="42.872617" lon="-5.370079">
			<ele>1630.000000</ele>
		<time>2015-12-06T02:41:21Z</time>
		</trkpt>

		<trkpt lat="42.872553" lon="-5.369740">
			<ele>1627.000000</ele>
		<time>2015-12-06T02:41:24Z</time>
		</trkpt>

		<trkpt lat="42.872552" lon="-5.369330">
			<ele>1626.000000</ele>
		<time>2015-12-06T02:41:27Z</time>
		</trkpt>

		<trkpt lat="42.872600" lon="-5.368938">
			<ele>1623.000000</ele>
		<time>2015-12-06T02:41:30Z</time>
		</trkpt>

		<trkpt lat="42.872639" lon="-5.368488">
			<ele>1619.000000</ele>
		<time>2015-12-06T02:41:33Z</time>
		</trkpt>

		<trkpt lat="42.872657" lon="-5.368126">
			<ele>1619.000000</ele>
		<time>2015-12-06T02:41:36Z</time>
		</trkpt>

		<trkpt lat="42.872644" lon="-5.367750">
			<ele>1617.000000</ele>
		<time>2015-12-06T02:41:39Z</time>
		</trkpt>

		<trkpt lat="42.872576" lon="-5.367416">
			<ele>1615.000000</ele>
		<time>2015-12-06T02:41:42Z</time>
		</trkpt>

		<trkpt lat="42.872454" lon="-5.367118">
			<ele>1617.000000</ele>
		<time>2015-12-06T02:41:45Z</time>
		</trkpt>

		<trkpt lat="42.872342" lon="-5.366823">
			<ele>1621.000000</ele>
		<time>2015-12-06T02:41:48Z</time>
		</trkpt>

		<trkpt lat="42.872278" lon="-5.366488">
			<ele>1625.000000</ele>
		<time>2015-12-06T02:41:51Z</time>
		</trkpt>

		<trkpt lat="42.872267" lon="-5.366086">
			<ele>1628.000000</ele>
		<time>2015-12-06T02:41:54Z</time>
		</trkpt>

		<trkpt lat="42.872648" lon="-5.365833">
			<ele>1624.000000</ele>
		<time>2015-12-06T02:41:57Z</time>
		</trkpt>

		<trkpt lat="42.873014" lon="-5.366002">
			<ele>1619.000000</ele>
		<time>2015-12-06T02:42:01Z</time>
		</trkpt>

		<trkpt lat="42.872898" lon="-5.366218">
			<ele>1629.000000</ele>
		<time>2015-12-06T02:42:05Z</time>
		</trkpt>

		<trkpt lat="42.872839" lon="-5.366287">
			<ele>1633.000000</ele>
		<time>2015-12-06T02:42:08Z</time>
		</trkpt>

		<trkpt lat="42.872680" lon="-5.366386">
			<ele>1638.000000</ele>
		<time>2015-12-06T02:42:11Z</time>
		</trkpt>

		<trkpt lat="42.872559" lon="-5.366418">
			<ele>1642.000000</ele>
		<time>2015-12-06T02:42:14Z</time>
		</trkpt>

		<trkpt lat="42.872419" lon="-5.366384">
			<ele>1643.000000</ele>
		<time>2015-12-06T02:42:17Z</time>
		</trkpt>

		<trkpt lat="42.872279" lon="-5.366280">
			<ele>1646.000000</ele>
		<time>2015-12-06T02:42:20Z</time>
		</trkpt>

		<trkpt lat="42.872137" lon="-5.366273">
			<ele>1642.000000</ele>
		<time>2015-12-06T02:42:23Z</time>
		</trkpt>

		<trkpt lat="42.872123" lon="-5.365972">
			<ele>1641.000000</ele>
		<time>2015-12-06T02:42:26Z</time>
		</trkpt>

		<trkpt lat="42.872234" lon="-5.365591">
			<ele>1641.000000</ele>
		<time>2015-12-06T02:42:29Z</time>
		</trkpt>

		<trkpt lat="42.872435" lon="-5.365521">
			<ele>1642.000000</ele>
		<time>2015-12-06T02:42:32Z</time>
		</trkpt>

		<trkpt lat="42.872745" lon="-5.365860">
			<ele>1641.000000</ele>
		<time>2015-12-06T02:42:35Z</time>
		</trkpt>

		<trkpt lat="42.872793" lon="-5.366079">
			<ele>1640.000000</ele>
		<time>2015-12-06T02:42:39Z</time>
		</trkpt>

		<trkpt lat="42.872685" lon="-5.366230">
			<ele>1638.000000</ele>
		<time>2015-12-06T02:42:43Z</time>
		</trkpt>

		<trkpt lat="42.872563" lon="-5.366369">
			<ele>1635.000000</ele>
		<time>2015-12-06T02:42:46Z</time>
		</trkpt>

		<trkpt lat="42.872436" lon="-5.366452">
			<ele>1630.000000</ele>
		<time>2015-12-06T02:42:49Z</time>
		</trkpt>

		<trkpt lat="42.872290" lon="-5.366468">
			<ele>1627.000000</ele>
		<time>2015-12-06T02:42:52Z</time>
		</trkpt>

		<trkpt lat="42.872180" lon="-5.366490">
			<ele>1624.000000</ele>
		<time>2015-12-06T02:42:55Z</time>
		</trkpt>

		<trkpt lat="42.871994" lon="-5.366355">
			<ele>1619.000000</ele>
		<time>2015-12-06T02:42:58Z</time>
		</trkpt>

		<trkpt lat="42.871874" lon="-5.366053">
			<ele>1620.000000</ele>
		<time>2015-12-06T02:43:01Z</time>
		</trkpt>

		<trkpt lat="42.871827" lon="-5.365710">
			<ele>1622.000000</ele>
		<time>2015-12-06T02:43:04Z</time>
		</trkpt>

		<trkpt lat="42.871808" lon="-5.365326">
			<ele>1620.000000</ele>
		<time>2015-12-06T02:43:07Z</time>
		</trkpt>

		<trkpt lat="42.871830" lon="-5.364945">
			<ele>1621.000000</ele>
		<time>2015-12-06T02:43:10Z</time>
		</trkpt>

		<trkpt lat="42.871968" lon="-5.364469">
			<ele>1620.000000</ele>
		<time>2015-12-06T02:43:14Z</time>
		</trkpt>

		<trkpt lat="42.872253" lon="-5.364240">
			<ele>1618.000000</ele>
		<time>2015-12-06T02:43:17Z</time>
		</trkpt>

		<trkpt lat="42.872560" lon="-5.364334">
			<ele>1610.000000</ele>
		<time>2015-12-06T02:43:20Z</time>
		</trkpt>

		<trkpt lat="42.872670" lon="-5.364625">
			<ele>1608.000000</ele>
		<time>2015-12-06T02:43:23Z</time>
		</trkpt>

		<trkpt lat="42.872623" lon="-5.364855">
			<ele>1601.000000</ele>
		<time>2015-12-06T02:43:26Z</time>
		</trkpt>

		<trkpt lat="42.872507" lon="-5.364944">
			<ele>1592.000000</ele>
		<time>2015-12-06T02:43:30Z</time>
		</trkpt>

		<trkpt lat="42.872369" lon="-5.365110">
			<ele>1588.000000</ele>
		<time>2015-12-06T02:43:33Z</time>
		</trkpt>

		<trkpt lat="42.872301" lon="-5.365258">
			<ele>1587.000000</ele>
		<time>2015-12-06T02:43:36Z</time>
		</trkpt>

		<trkpt lat="42.872209" lon="-5.365422">
			<ele>1585.000000</ele>
		<time>2015-12-06T02:43:39Z</time>
		</trkpt>

		<trkpt lat="42.872205" lon="-5.365588">
			<ele>1581.000000</ele>
		<time>2015-12-06T02:43:42Z</time>
		</trkpt>

		<trkpt lat="42.872129" lon="-5.365773">
			<ele>1577.000000</ele>
		<time>2015-12-06T02:43:45Z</time>
		</trkpt>

		<trkpt lat="42.872110" lon="-5.365979">
			<ele>1577.000000</ele>
		<time>2015-12-06T02:43:48Z</time>
		</trkpt>

		<trkpt lat="42.872041" lon="-5.366179">
			<ele>1578.000000</ele>
		<time>2015-12-06T02:43:51Z</time>
		</trkpt>

		<trkpt lat="42.872002" lon="-5.366341">
			<ele>1578.000000</ele>
		<time>2015-12-06T02:43:54Z</time>
		</trkpt>

		<trkpt lat="42.871970" lon="-5.366588">
			<ele>1576.000000</ele>
		<time>2015-12-06T02:43:57Z</time>
		</trkpt>

		<trkpt lat="42.871980" lon="-5.366814">
			<ele>1575.000000</ele>
		<time>2015-12-06T02:44:00Z</time>
		</trkpt>

		<trkpt lat="42.871959" lon="-5.367029">
			<ele>1572.000000</ele>
		<time>2015-12-06T02:44:03Z</time>
		</trkpt>

		<trkpt lat="42.871961" lon="-5.367266">
			<ele>1571.000000</ele>
		<time>2015-12-06T02:44:06Z</time>
		</trkpt>

		<trkpt lat="42.871925" lon="-5.367484">
			<ele>1565.000000</ele>
		<time>2015-12-06T02:44:09Z</time>
		</trkpt>

		<trkpt lat="42.871742" lon="-5.367560">
			<ele>1564.000000</ele>
		<time>2015-12-06T02:44:12Z</time>
		</trkpt>

		<trkpt lat="42.871607" lon="-5.367441">
			<ele>1561.000000</ele>
		<time>2015-12-06T02:44:15Z</time>
		</trkpt>

		<trkpt lat="42.871502" lon="-5.366994">
			<ele>1563.000000</ele>
		<time>2015-12-06T02:44:19Z</time>
		</trkpt>

		<trkpt lat="42.871533" lon="-5.366595">
			<ele>1564.000000</ele>
		<time>2015-12-06T02:44:22Z</time>
		</trkpt>

		<trkpt lat="42.871673" lon="-5.366201">
			<ele>1567.000000</ele>
		<time>2015-12-06T02:44:25Z</time>
		</trkpt>

		<trkpt lat="42.871845" lon="-5.365790">
			<ele>1570.000000</ele>
		<time>2015-12-06T02:44:28Z</time>
		</trkpt>

		<trkpt lat="42.871972" lon="-5.365412">
			<ele>1570.000000</ele>
		<time>2015-12-06T02:44:31Z</time>
		</trkpt>

		<trkpt lat="42.871989" lon="-5.365067">
			<ele>1567.000000</ele>
		<time>2015-12-06T02:44:34Z</time>
		</trkpt>

		<trkpt lat="42.871843" lon="-5.364851">
			<ele>1566.000000</ele>
		<time>2015-12-06T02:44:37Z</time>
		</trkpt>

		<trkpt lat="42.871751" lon="-5.365015">
			<ele>1562.000000</ele>
		<time>2015-12-06T02:44:40Z</time>
		</trkpt>

		<trkpt lat="42.871764" lon="-5.365288">
			<ele>1561.000000</ele>
		<time>2015-12-06T02:44:43Z</time>
		</trkpt>

		<trkpt lat="42.871756" lon="-5.365527">
			<ele>1563.000000</ele>
		<time>2015-12-06T02:44:46Z</time>
		</trkpt>

		<trkpt lat="42.871784" lon="-5.365825">
			<ele>1562.000000</ele>
		<time>2015-12-06T02:44:49Z</time>
		</trkpt>

		<trkpt lat="42.871841" lon="-5.366089">
			<ele>1561.000000</ele>
		<time>2015-12-06T02:44:52Z</time>
		</trkpt>

		<trkpt lat="42.871840" lon="-5.366325">
			<ele>1563.000000</ele>
		<time>2015-12-06T02:44:55Z</time>
		</trkpt>

		<trkpt lat="42.871826" lon="-5.366517">
			<ele>1564.000000</ele>
		<time>2015-12-06T02:44:58Z</time>
		</trkpt>

		<trkpt lat="42.871852" lon="-5.366777">
			<ele>1564.000000</ele>
		<time>2015-12-06T02:45:01Z</time>
		</trkpt>

		<trkpt lat="42.871851" lon="-5.366943">
			<ele>1562.000000</ele>
		<time>2015-12-06T02:45:04Z</time>
		</trkpt>

		<trkpt lat="42.871859" lon="-5.367183">
			<ele>1562.000000</ele>
		<time>2015-12-06T02:45:07Z</time>
		</trkpt>

		<trkpt lat="42.871929" lon="-5.367436">
			<ele>1561.000000</ele>
		<time>2015-12-06T02:45:10Z</time>
		</trkpt>

		<trkpt lat="42.871940" lon="-5.367723">
			<ele>1561.000000</ele>
		<time>2015-12-06T02:45:13Z</time>
		</trkpt>

		<trkpt lat="42.871900" lon="-5.367960">
			<ele>1562.000000</ele>
		<time>2015-12-06T02:45:16Z</time>
		</trkpt>

		<trkpt lat="42.871732" lon="-5.368072">
			<ele>1562.000000</ele>
		<time>2015-12-06T02:45:19Z</time>
		</trkpt>

		<trkpt lat="42.871592" lon="-5.367973">
			<ele>1564.000000</ele>
		<time>2015-12-06T02:45:22Z</time>
		</trkpt>

		<trkpt lat="42.871494" lon="-5.367614">
			<ele>1566.000000</ele>
		<time>2015-12-06T02:45:25Z</time>
		</trkpt>

		<trkpt lat="42.871644" lon="-5.367190">
			<ele>1569.000000</ele>
		<time>2015-12-06T02:45:29Z</time>
		</trkpt>

		<trkpt lat="42.871947" lon="-5.367081">
			<ele>1568.000000</ele>
		<time>2015-12-06T02:45:32Z</time>
		</trkpt>

		<trkpt lat="42.872166" lon="-5.367309">
			<ele>1566.000000</ele>
		<time>2015-12-06T02:45:35Z</time>
		</trkpt>

		<trkpt lat="42.872109" lon="-5.367535">
			<ele>1569.000000</ele>
		<time>2015-12-06T02:45:38Z</time>
		</trkpt>

		<trkpt lat="42.871998" lon="-5.367667">
			<ele>1571.000000</ele>
		<time>2015-12-06T02:45:41Z</time>
		</trkpt>

		<trkpt lat="42.871861" lon="-5.367681">
			<ele>1575.000000</ele>
		<time>2015-12-06T02:45:44Z</time>
		</trkpt>

		<trkpt lat="42.871731" lon="-5.367782">
			<ele>1579.000000</ele>
		<time>2015-12-06T02:45:47Z</time>
		</trkpt>

		<trkpt lat="42.871586" lon="-5.367723">
			<ele>1582.000000</ele>
		<time>2015-12-06T02:45:50Z</time>
		</trkpt>

		<trkpt lat="42.871427" lon="-5.367631">
			<ele>1584.000000</ele>
		<time>2015-12-06T02:45:53Z</time>
		</trkpt>

		<trkpt lat="42.871347" lon="-5.367372">
			<ele>1581.000000</ele>
		<time>2015-12-06T02:45:56Z</time>
		</trkpt>

		<trkpt lat="42.871423" lon="-5.366983">
			<ele>1581.000000</ele>
		<time>2015-12-06T02:45:59Z</time>
		</trkpt>

		<trkpt lat="42.871557" lon="-5.366719">
			<ele>1580.000000</ele>
		<time>2015-12-06T02:46:02Z</time>
		</trkpt>

		<trkpt lat="42.872009" lon="-5.366793">
			<ele>1579.000000</ele>
		<time>2015-12-06T02:46:05Z</time>
		</trkpt>

		<trkpt lat="42.872098" lon="-5.367259">
			<ele>1580.000000</ele>
		<time>2015-12-06T02:46:08Z</time>
		</trkpt>

		<trkpt lat="42.872116" lon="-5.367417">
			<ele>1581.000000</ele>
		<time>2015-12-06T02:46:11Z</time>
		</trkpt>

		<trkpt lat="42.872029" lon="-5.367630">
			<ele>1585.000000</ele>
		<time>2015-12-06T02:46:14Z</time>
		</trkpt>

		<trkpt lat="42.871941" lon="-5.367788">
			<ele>1593.000000</ele>
		<time>2015-12-06T02:46:17Z</time>
		</trkpt>

		<trkpt lat="42.871856" lon="-5.367904">
			<ele>1595.000000</ele>
		<time>2015-12-06T02:46:20Z</time>
		</trkpt>

		<trkpt lat="42.871723" lon="-5.367973">
			<ele>1593.000000</ele>
		<time>2015-12-06T02:46:23Z</time>
		</trkpt>

		<trkpt lat="42.871481" lon="-5.367767">
			<ele>1590.000000</ele>
		<time>2015-12-06T02:46:27Z</time>
		</trkpt>

		<trkpt lat="42.871512" lon="-5.367333">
			<ele>1589.000000</ele>
		<time>2015-12-06T02:46:30Z</time>
		</trkpt>

		<trkpt lat="42.871764" lon="-5.367063">
			<ele>1587.000000</ele>
		<time>2015-12-06T02:46:33Z</time>
		</trkpt>

		<trkpt lat="42.872137" lon="-5.367143">
			<ele>1588.000000</ele>
		<time>2015-12-06T02:46:36Z</time>
		</trkpt>

		<trkpt lat="42.872294" lon="-5.367398">
			<ele>1588.000000</ele>
		<time>2015-12-06T02:46:39Z</time>
		</trkpt>

		<trkpt lat="42.872250" lon="-5.367722">
			<ele>1588.000000</ele>
		<time>2015-12-06T02:46:43Z</time>
		</trkpt>

		<trkpt lat="42.872145" lon="-5.367871">
			<ele>1593.000000</ele>
		<time>2015-12-06T02:46:46Z</time>
		</trkpt>

		<trkpt lat="42.872022" lon="-5.367931">
			<ele>1595.000000</ele>
		<time>2015-12-06T02:46:49Z</time>
		</trkpt>

		<trkpt lat="42.871917" lon="-5.367964">
			<ele>1597.000000</ele>
		<time>2015-12-06T02:46:52Z</time>
		</trkpt>

		<trkpt lat="42.871795" lon="-5.367902">
			<ele>1599.000000</ele>
		<time>2015-12-06T02:46:55Z</time>
		</trkpt>

		<trkpt lat="42.871667" lon="-5.367956">
			<ele>1600.000000</ele>
		<time>2015-12-06T02:46:58Z</time>
		</trkpt>

		<trkpt lat="42.871521" lon="-5.367937">
			<ele>1605.000000</ele>
		<time>2015-12-06T02:47:01Z</time>
		</trkpt>

		<trkpt lat="42.871358" lon="-5.367921">
			<ele>1612.000000</ele>
		<time>2015-12-06T02:47:04Z</time>
		</trkpt>

		<trkpt lat="42.871197" lon="-5.367881">
			<ele>1615.000000</ele>
		<time>2015-12-06T02:47:07Z</time>
		</trkpt>

		<trkpt lat="42.871067" lon="-5.367772">
			<ele>1615.000000</ele>
		<time>2015-12-06T02:47:10Z</time>
		</trkpt>

		<trkpt lat="42.871037" lon="-5.367533">
			<ele>1614.000000</ele>
		<time>2015-12-06T02:47:13Z</time>
		</trkpt>

		<trkpt lat="42.871212" lon="-5.367133">
			<ele>1615.000000</ele>
		<time>2015-12-06T02:47:16Z</time>
		</trkpt>

		<trkpt lat="42.871508" lon="-5.366948">
			<ele>1613.000000</ele>
		<time>2015-12-06T02:47:19Z</time>
		</trkpt>

		<trkpt lat="42.871918" lon="-5.367207">
			<ele>1608.000000</ele>
		<time>2015-12-06T02:47:23Z</time>
		</trkpt>

		<trkpt lat="42.871939" lon="-5.367450">
			<ele>1614.000000</ele>
		<time>2015-12-06T02:47:26Z</time>
		</trkpt>

		<trkpt lat="42.871836" lon="-5.367591">
			<ele>1620.000000</ele>
		<time>2015-12-06T02:47:29Z</time>
		</trkpt>

		<trkpt lat="42.871709" lon="-5.367660">
			<ele>1625.000000</ele>
		<time>2015-12-06T02:47:33Z</time>
		</trkpt>

		<trkpt lat="42.871552" lon="-5.367711">
			<ele>1620.000000</ele>
		<time>2015-12-06T02:47:36Z</time>
		</trkpt>

		<trkpt lat="42.871451" lon="-5.367444">
			<ele>1618.000000</ele>
		<time>2015-12-06T02:47:39Z</time>
		</trkpt>

		<trkpt lat="42.871620" lon="-5.367112">
			<ele>1614.000000</ele>
		<time>2015-12-06T02:47:42Z</time>
		</trkpt>

		<trkpt lat="42.871982" lon="-5.366955">
			<ele>1615.000000</ele>
		<time>2015-12-06T02:47:45Z</time>
		</trkpt>

		<trkpt lat="42.872234" lon="-5.367131">
			<ele>1616.000000</ele>
		<time>2015-12-06T02:47:48Z</time>
		</trkpt>

		<trkpt lat="42.872310" lon="-5.367386">
			<ele>1622.000000</ele>
		<time>2015-12-06T02:47:51Z</time>
		</trkpt>

		<trkpt lat="42.872204" lon="-5.367572">
			<ele>1623.000000</ele>
		<time>2015-12-06T02:47:54Z</time>
		</trkpt>

		<trkpt lat="42.872117" lon="-5.367668">
			<ele>1622.000000</ele>
		<time>2015-12-06T02:47:57Z</time>
		</trkpt>

		<trkpt lat="42.871947" lon="-5.367719">
			<ele>1621.000000</ele>
		<time>2015-12-06T02:48:00Z</time>
		</trkpt>

		<trkpt lat="42.871870" lon="-5.367385">
			<ele>1626.000000</ele>
		<time>2015-12-06T02:48:03Z</time>
		</trkpt>

		<trkpt lat="42.871989" lon="-5.367064">
			<ele>1628.000000</ele>
		<time>2015-12-06T02:48:06Z</time>
		</trkpt>

		<trkpt lat="42.872194" lon="-5.366860">
			<ele>1627.000000</ele>
		<time>2015-12-06T02:48:09Z</time>
		</trkpt>

		<trkpt lat="42.872477" lon="-5.366969">
			<ele>1627.000000</ele>
		<time>2015-12-06T02:48:12Z</time>
		</trkpt>

		<trkpt lat="42.872562" lon="-5.367305">
			<ele>1626.000000</ele>
		<time>2015-12-06T02:48:15Z</time>
		</trkpt>

		<trkpt lat="42.872523" lon="-5.367460">
			<ele>1625.000000</ele>
		<time>2015-12-06T02:48:18Z</time>
		</trkpt>

		<trkpt lat="42.872375" lon="-5.367504">
			<ele>1623.000000</ele>
		<time>2015-12-06T02:48:21Z</time>
		</trkpt>

		<trkpt lat="42.872194" lon="-5.367556">
			<ele>1627.000000</ele>
		<time>2015-12-06T02:48:25Z</time>
		</trkpt>

		<trkpt lat="42.872025" lon="-5.367577">
			<ele>1629.000000</ele>
		<time>2015-12-06T02:48:29Z</time>
		</trkpt>

		<trkpt lat="42.871862" lon="-5.367638">
			<ele>1632.000000</ele>
		<time>2015-12-06T02:48:32Z</time>
		</trkpt>

		<trkpt lat="42.871707" lon="-5.367684">
			<ele>1629.000000</ele>
		<time>2015-12-06T02:48:35Z</time>
		</trkpt>

		<trkpt lat="42.871528" lon="-5.367640">
			<ele>1629.000000</ele>
		<time>2015-12-06T02:48:38Z</time>
		</trkpt>

		<trkpt lat="42.871504" lon="-5.367242">
			<ele>1629.000000</ele>
		<time>2015-12-06T02:48:41Z</time>
		</trkpt>

		<trkpt lat="42.871672" lon="-5.367069">
			<ele>1629.000000</ele>
		<time>2015-12-06T02:48:44Z</time>
		</trkpt>

		<trkpt lat="42.872007" lon="-5.367127">
			<ele>1628.000000</ele>
		<time>2015-12-06T02:48:47Z</time>
		</trkpt>

		<trkpt lat="42.872212" lon="-5.367465">
			<ele>1629.000000</ele>
		<time>2015-12-06T02:48:50Z</time>
		</trkpt>

		<trkpt lat="42.872135" lon="-5.367631">
			<ele>1632.000000</ele>
		<time>2015-12-06T02:48:53Z</time>
		</trkpt>

		<trkpt lat="42.872040" lon="-5.367776">
			<ele>1628.000000</ele>
		<time>2015-12-06T02:48:56Z</time>
		</trkpt>

		<trkpt lat="42.871894" lon="-5.367939">
			<ele>1625.000000</ele>
		<time>2015-12-06T02:48:59Z</time>
		</trkpt>

		<trkpt lat="42.871754" lon="-5.367930">
			<ele>1620.000000</ele>
		<time>2015-12-06T02:49:02Z</time>
		</trkpt>

		<trkpt lat="42.871607" lon="-5.367693">
			<ele>1616.000000</ele>
		<time>2015-12-06T02:49:05Z</time>
		</trkpt>

		<trkpt lat="42.871574" lon="-5.367382">
			<ele>1613.000000</ele>
		<time>2015-12-06T02:49:08Z</time>
		</trkpt>

		<trkpt lat="42.871580" lon="-5.367002">
			<ele>1608.000000</ele>
		<time>2015-12-06T02:49:11Z</time>
		</trkpt>

		<trkpt lat="42.871610" lon="-5.366598">
			<ele>1609.000000</ele>
		<time>2015-12-06T02:49:14Z</time>
		</trkpt>

		<trkpt lat="42.871665" lon="-5.366204">
			<ele>1607.000000</ele>
		<time>2015-12-06T02:49:17Z</time>
		</trkpt>

		<trkpt lat="42.871693" lon="-5.365828">
			<ele>1608.000000</ele>
		<time>2015-12-06T02:49:20Z</time>
		</trkpt>

		<trkpt lat="42.871726" lon="-5.365488">
			<ele>1605.000000</ele>
		<time>2015-12-06T02:49:23Z</time>
		</trkpt>

		<trkpt lat="42.871793" lon="-5.365081">
			<ele>1604.000000</ele>
		<time>2015-12-06T02:49:26Z</time>
		</trkpt>

		<trkpt lat="42.871836" lon="-5.364804">
			<ele>1603.000000</ele>
		<time>2015-12-06T02:49:29Z</time>
		</trkpt>

		<trkpt lat="42.871830" lon="-5.364429">
			<ele>1606.000000</ele>
		<time>2015-12-06T02:49:32Z</time>
		</trkpt>

		<trkpt lat="42.871845" lon="-5.364083">
			<ele>1607.000000</ele>
		<time>2015-12-06T02:49:35Z</time>
		</trkpt>

		<trkpt lat="42.871911" lon="-5.363712">
			<ele>1606.000000</ele>
		<time>2015-12-06T02:49:38Z</time>
		</trkpt>

		<trkpt lat="42.871981" lon="-5.363374">
			<ele>1605.000000</ele>
		<time>2015-12-06T02:49:41Z</time>
		</trkpt>

		<trkpt lat="42.872080" lon="-5.363021">
			<ele>1604.000000</ele>
		<time>2015-12-06T02:49:44Z</time>
		</trkpt>

		<trkpt lat="42.872196" lon="-5.362670">
			<ele>1601.000000</ele>
		<time>2015-12-06T02:49:47Z</time>
		</trkpt>

		<trkpt lat="42.872315" lon="-5.362258">
			<ele>1602.000000</ele>
		<time>2015-12-06T02:49:50Z</time>
		</trkpt>

		<trkpt lat="42.872390" lon="-5.361917">
			<ele>1602.000000</ele>
		<time>2015-12-06T02:49:53Z</time>
		</trkpt>

		<trkpt lat="42.872462" lon="-5.361527">
			<ele>1600.000000</ele>
		<time>2015-12-06T02:49:56Z</time>
		</trkpt>

		<trkpt lat="42.872527" lon="-5.361168">
			<ele>1600.000000</ele>
		<time>2015-12-06T02:49:59Z</time>
		</trkpt>

		<trkpt lat="42.872615" lon="-5.360830">
			<ele>1604.000000</ele>
		<time>2015-12-06T02:50:02Z</time>
		</trkpt>

		<trkpt lat="42.872702" lon="-5.360532">
			<ele>1603.000000</ele>
		<time>2015-12-06T02:50:05Z</time>
		</trkpt>

		<trkpt lat="42.872833" lon="-5.360203">
			<ele>1604.000000</ele>
		<time>2015-12-06T02:50:08Z</time>
		</trkpt>

		<trkpt lat="42.872990" lon="-5.359935">
			<ele>1604.000000</ele>
		<time>2015-12-06T02:50:11Z</time>
		</trkpt>

		<trkpt lat="42.873122" lon="-5.359676">
			<ele>1602.000000</ele>
		<time>2015-12-06T02:50:14Z</time>
		</trkpt>

		<trkpt lat="42.873230" lon="-5.359362">
			<ele>1600.000000</ele>
		<time>2015-12-06T02:50:17Z</time>
		</trkpt>

		<trkpt lat="42.873301" lon="-5.359064">
			<ele>1599.000000</ele>
		<time>2015-12-06T02:50:20Z</time>
		</trkpt>

		<trkpt lat="42.873372" lon="-5.358738">
			<ele>1597.000000</ele>
		<time>2015-12-06T02:50:23Z</time>
		</trkpt>

		<trkpt lat="42.873371" lon="-5.358442">
			<ele>1599.000000</ele>
		<time>2015-12-06T02:50:26Z</time>
		</trkpt>

		<trkpt lat="42.873333" lon="-5.358262">
			<ele>1597.000000</ele>
		<time>2015-12-06T02:50:29Z</time>
		</trkpt>

		<trkpt lat="42.873216" lon="-5.358200">
			<ele>1595.000000</ele>
		<time>2015-12-06T02:50:32Z</time>
		</trkpt>

		<trkpt lat="42.873124" lon="-5.358273">
			<ele>1596.000000</ele>
		<time>2015-12-06T02:50:35Z</time>
		</trkpt>

		<trkpt lat="42.873027" lon="-5.358341">
			<ele>1597.000000</ele>
		<time>2015-12-06T02:50:38Z</time>
		</trkpt>

		<trkpt lat="42.872919" lon="-5.358352">
			<ele>1596.000000</ele>
		<time>2015-12-06T02:50:42Z</time>
		</trkpt>

		<trkpt lat="42.872831" lon="-5.358369">
			<ele>1594.000000</ele>
		<time>2015-12-06T02:50:45Z</time>
		</trkpt>

		<trkpt lat="42.872727" lon="-5.358412">
			<ele>1595.000000</ele>
		<time>2015-12-06T02:50:48Z</time>
		</trkpt>

		<trkpt lat="42.872637" lon="-5.358464">
			<ele>1596.000000</ele>
		<time>2015-12-06T02:50:51Z</time>
		</trkpt>

		<trkpt lat="42.872549" lon="-5.358314">
			<ele>1596.000000</ele>
		<time>2015-12-06T02:50:54Z</time>
		</trkpt>

		<trkpt lat="42.872568" lon="-5.358032">
			<ele>1598.000000</ele>
		<time>2015-12-06T02:50:57Z</time>
		</trkpt>

		<trkpt lat="42.872626" lon="-5.357745">
			<ele>1599.000000</ele>
		<time>2015-12-06T02:51:00Z</time>
		</trkpt>

		<trkpt lat="42.872623" lon="-5.357527">
			<ele>1599.000000</ele>
		<time>2015-12-06T02:51:03Z</time>
		</trkpt>

		<trkpt lat="42.872533" lon="-5.357407">
			<ele>1602.000000</ele>
		<time>2015-12-06T02:51:06Z</time>
		</trkpt>

		<trkpt lat="42.872428" lon="-5.357377">
			<ele>1603.000000</ele>
		<time>2015-12-06T02:51:09Z</time>
		</trkpt>

		<trkpt lat="42.872315" lon="-5.357380">
			<ele>1603.000000</ele>
		<time>2015-12-06T02:51:12Z</time>
		</trkpt>

		<trkpt lat="42.872219" lon="-5.357352">
			<ele>1600.000000</ele>
		<time>2015-12-06T02:51:15Z</time>
		</trkpt>

		<trkpt lat="42.872105" lon="-5.357368">
			<ele>1601.000000</ele>
		<time>2015-12-06T02:51:18Z</time>
		</trkpt>

		<trkpt lat="42.871991" lon="-5.357258">
			<ele>1599.000000</ele>
		<time>2015-12-06T02:51:21Z</time>
		</trkpt>

		<trkpt lat="42.871926" lon="-5.357007">
			<ele>1601.000000</ele>
		<time>2015-12-06T02:51:24Z</time>
		</trkpt>

		<trkpt lat="42.871966" lon="-5.356679">
			<ele>1601.000000</ele>
		<time>2015-12-06T02:51:27Z</time>
		</trkpt>

		<trkpt lat="42.872065" lon="-5.356320">
			<ele>1600.000000</ele>
		<time>2015-12-06T02:51:30Z</time>
		</trkpt>

		<trkpt lat="42.872226" lon="-5.356004">
			<ele>1602.000000</ele>
		<time>2015-12-06T02:51:33Z</time>
		</trkpt>

		<trkpt lat="42.872386" lon="-5.355668">
			<ele>1599.000000</ele>
		<time>2015-12-06T02:51:36Z</time>
		</trkpt>

		<trkpt lat="42.872524" lon="-5.355338">
			<ele>1596.000000</ele>
		<time>2015-12-06T02:51:39Z</time>
		</trkpt>

		<trkpt lat="42.872582" lon="-5.354985">
			<ele>1594.000000</ele>
		<time>2015-12-06T02:51:42Z</time>
		</trkpt>

		<trkpt lat="42.872556" lon="-5.354696">
			<ele>1593.000000</ele>
		<time>2015-12-06T02:51:45Z</time>
		</trkpt>

		<trkpt lat="42.872452" lon="-5.354598">
			<ele>1592.000000</ele>
		<time>2015-12-06T02:51:48Z</time>
		</trkpt>

		<trkpt lat="42.872297" lon="-5.354668">
			<ele>1592.000000</ele>
		<time>2015-12-06T02:51:51Z</time>
		</trkpt>

		<trkpt lat="42.872176" lon="-5.354764">
			<ele>1589.000000</ele>
		<time>2015-12-06T02:51:54Z</time>
		</trkpt>

		<trkpt lat="42.872052" lon="-5.354892">
			<ele>1586.000000</ele>
		<time>2015-12-06T02:51:57Z</time>
		</trkpt>

		<trkpt lat="42.871929" lon="-5.355074">
			<ele>1582.000000</ele>
		<time>2015-12-06T02:52:00Z</time>
		</trkpt>

		<trkpt lat="42.871789" lon="-5.355261">
			<ele>1576.000000</ele>
		<time>2015-12-06T02:52:03Z</time>
		</trkpt>

		<trkpt lat="42.871683" lon="-5.355442">
			<ele>1577.000000</ele>
		<time>2015-12-06T02:52:06Z</time>
		</trkpt>

		<trkpt lat="42.871566" lon="-5.355633">
			<ele>1580.000000</ele>
		<time>2015-12-06T02:52:09Z</time>
		</trkpt>

		<trkpt lat="42.871422" lon="-5.355706">
			<ele>1580.000000</ele>
		<time>2015-12-06T02:52:12Z</time>
		</trkpt>

		<trkpt lat="42.871319" lon="-5.355833">
			<ele>1584.000000</ele>
		<time>2015-12-06T02:52:15Z</time>
		</trkpt>

		<trkpt lat="42.871211" lon="-5.355950">
			<ele>1583.000000</ele>
		<time>2015-12-06T02:52:18Z</time>
		</trkpt>

		<trkpt lat="42.871081" lon="-5.356069">
			<ele>1581.000000</ele>
		<time>2015-12-06T02:52:21Z</time>
		</trkpt>

		<trkpt lat="42.870905" lon="-5.356147">
			<ele>1579.000000</ele>
		<time>2015-12-06T02:52:24Z</time>
		</trkpt>

		<trkpt lat="42.870771" lon="-5.356222">
			<ele>1580.000000</ele>
		<time>2015-12-06T02:52:27Z</time>
		</trkpt>

		<trkpt lat="42.870608" lon="-5.356346">
			<ele>1582.000000</ele>
		<time>2015-12-06T02:52:30Z</time>
		</trkpt>

		<trkpt lat="42.870502" lon="-5.356387">
			<ele>1582.000000</ele>
		<time>2015-12-06T02:52:33Z</time>
		</trkpt>

		<trkpt lat="42.870345" lon="-5.356487">
			<ele>1581.000000</ele>
		<time>2015-12-06T02:52:36Z</time>
		</trkpt>

		<trkpt lat="42.870167" lon="-5.356616">
			<ele>1582.000000</ele>
		<time>2015-12-06T02:52:40Z</time>
		</trkpt>

		<trkpt lat="42.870038" lon="-5.356707">
			<ele>1583.000000</ele>
		<time>2015-12-06T02:52:43Z</time>
		</trkpt>

		<trkpt lat="42.869914" lon="-5.356804">
			<ele>1583.000000</ele>
		<time>2015-12-06T02:52:46Z</time>
		</trkpt>

		<trkpt lat="42.869758" lon="-5.356879">
			<ele>1580.000000</ele>
		<time>2015-12-06T02:52:49Z</time>
		</trkpt>

		<trkpt lat="42.869580" lon="-5.356967">
			<ele>1579.000000</ele>
		<time>2015-12-06T02:52:53Z</time>
		</trkpt>

		<trkpt lat="42.869468" lon="-5.357002">
			<ele>1577.000000</ele>
		<time>2015-12-06T02:52:56Z</time>
		</trkpt>

		<trkpt lat="42.869310" lon="-5.357039">
			<ele>1580.000000</ele>
		<time>2015-12-06T02:52:59Z</time>
		</trkpt>

		<trkpt lat="42.869180" lon="-5.357105">
			<ele>1581.000000</ele>
		<time>2015-12-06T02:53:02Z</time>
		</trkpt>

		<trkpt lat="42.869008" lon="-5.357188">
			<ele>1587.000000</ele>
		<time>2015-12-06T02:53:05Z</time>
		</trkpt>

		<trkpt lat="42.868862" lon="-5.357227">
			<ele>1590.000000</ele>
		<time>2015-12-06T02:53:08Z</time>
		</trkpt>

		<trkpt lat="42.868709" lon="-5.357280">
			<ele>1594.000000</ele>
		<time>2015-12-06T02:53:11Z</time>
		</trkpt>

		<trkpt lat="42.868556" lon="-5.357282">
			<ele>1596.000000</ele>
		<time>2015-12-06T02:53:14Z</time>
		</trkpt>

		<trkpt lat="42.868420" lon="-5.357325">
			<ele>1599.000000</ele>
		<time>2015-12-06T02:53:17Z</time>
		</trkpt>

		<trkpt lat="42.868253" lon="-5.357434">
			<ele>1599.000000</ele>
		<time>2015-12-06T02:53:20Z</time>
		</trkpt>

		<trkpt lat="42.868102" lon="-5.357564">
			<ele>1594.000000</ele>
		<time>2015-12-06T02:53:23Z</time>
		</trkpt>

		<trkpt lat="42.867945" lon="-5.357643">
			<ele>1590.000000</ele>
		<time>2015-12-06T02:53:26Z</time>
		</trkpt>

		<trkpt lat="42.867781" lon="-5.357724">
			<ele>1590.000000</ele>
		<time>2015-12-06T02:53:29Z</time>
		</trkpt>

		<trkpt lat="42.867641" lon="-5.357825">
			<ele>1591.000000</ele>
		<time>2015-12-06T02:53:32Z</time>
		</trkpt>

		<trkpt lat="42.867559" lon="-5.358056">
			<ele>1588.000000</ele>
		<time>2015-12-06T02:53:35Z</time>
		</trkpt>

		<trkpt lat="42.867597" lon="-5.358356">
			<ele>1588.000000</ele>
		<time>2015-12-06T02:53:38Z</time>
		</trkpt>

		<trkpt lat="42.867846" lon="-5.358729">
			<ele>1588.000000</ele>
		<time>2015-12-06T02:53:42Z</time>
		</trkpt>

		<trkpt lat="42.868108" lon="-5.358906">
			<ele>1588.000000</ele>
		<time>2015-12-06T02:53:45Z</time>
		</trkpt>

		<trkpt lat="42.868436" lon="-5.358899">
			<ele>1585.000000</ele>
		<time>2015-12-06T02:53:48Z</time>
		</trkpt>

		<trkpt lat="42.868704" lon="-5.358644">
			<ele>1584.000000</ele>
		<time>2015-12-06T02:53:51Z</time>
		</trkpt>

		<trkpt lat="42.868835" lon="-5.358291">
			<ele>1584.000000</ele>
		<time>2015-12-06T02:53:54Z</time>
		</trkpt>

		<trkpt lat="42.868837" lon="-5.357927">
			<ele>1583.000000</ele>
		<time>2015-12-06T02:53:57Z</time>
		</trkpt>

		<trkpt lat="42.868708" lon="-5.357670">
			<ele>1580.000000</ele>
		<time>2015-12-06T02:54:00Z</time>
		</trkpt>

		<trkpt lat="42.868501" lon="-5.357614">
			<ele>1581.000000</ele>
		<time>2015-12-06T02:54:03Z</time>
		</trkpt>

		<trkpt lat="42.868330" lon="-5.357589">
			<ele>1580.000000</ele>
		<time>2015-12-06T02:54:06Z</time>
		</trkpt>

		<trkpt lat="42.868081" lon="-5.357593">
			<ele>1578.000000</ele>
		<time>2015-12-06T02:54:10Z</time>
		</trkpt>

		<trkpt lat="42.867914" lon="-5.357603">
			<ele>1577.000000</ele>
		<time>2015-12-06T02:54:13Z</time>
		</trkpt>

		<trkpt lat="42.867747" lon="-5.357682">
			<ele>1576.000000</ele>
		<time>2015-12-06T02:54:16Z</time>
		</trkpt>

		<trkpt lat="42.867613" lon="-5.357778">
			<ele>1572.000000</ele>
		<time>2015-12-06T02:54:19Z</time>
		</trkpt>

		<trkpt lat="42.867446" lon="-5.357921">
			<ele>1569.000000</ele>
		<time>2015-12-06T02:54:22Z</time>
		</trkpt>

		<trkpt lat="42.867296" lon="-5.358042">
			<ele>1567.000000</ele>
		<time>2015-12-06T02:54:25Z</time>
		</trkpt>

		<trkpt lat="42.867152" lon="-5.358172">
			<ele>1565.000000</ele>
		<time>2015-12-06T02:54:28Z</time>
		</trkpt>

		<trkpt lat="42.867012" lon="-5.358261">
			<ele>1564.000000</ele>
		<time>2015-12-06T02:54:31Z</time>
		</trkpt>

		<trkpt lat="42.866892" lon="-5.358366">
			<ele>1569.000000</ele>
		<time>2015-12-06T02:54:34Z</time>
		</trkpt>

		<trkpt lat="42.866751" lon="-5.358475">
			<ele>1570.000000</ele>
		<time>2015-12-06T02:54:38Z</time>
		</trkpt>

		<trkpt lat="42.866617" lon="-5.358408">
			<ele>1570.000000</ele>
		<time>2015-12-06T02:54:41Z</time>
		</trkpt>

		<trkpt lat="42.866576" lon="-5.358085">
			<ele>1572.000000</ele>
		<time>2015-12-06T02:54:44Z</time>
		</trkpt>

		<trkpt lat="42.866704" lon="-5.357683">
			<ele>1572.000000</ele>
		<time>2015-12-06T02:54:47Z</time>
		</trkpt>

		<trkpt lat="42.866965" lon="-5.357473">
			<ele>1570.000000</ele>
		<time>2015-12-06T02:54:50Z</time>
		</trkpt>

		<trkpt lat="42.867280" lon="-5.357474">
			<ele>1568.000000</ele>
		<time>2015-12-06T02:54:53Z</time>
		</trkpt>

		<trkpt lat="42.867507" lon="-5.357739">
			<ele>1567.000000</ele>
		<time>2015-12-06T02:54:56Z</time>
		</trkpt>

		<trkpt lat="42.867576" lon="-5.358080">
			<ele>1565.000000</ele>
		<time>2015-12-06T02:54:59Z</time>
		</trkpt>

		<trkpt lat="42.867519" lon="-5.358329">
			<ele>1565.000000</ele>
		<time>2015-12-06T02:55:02Z</time>
		</trkpt>

		<trkpt lat="42.867356" lon="-5.358459">
			<ele>1567.000000</ele>
		<time>2015-12-06T02:55:05Z</time>
		</trkpt>

		<trkpt lat="42.867231" lon="-5.358611">
			<ele>1569.000000</ele>
		<time>2015-12-06T02:55:08Z</time>
		</trkpt>

		<trkpt lat="42.867132" lon="-5.358731">
			<ele>1573.000000</ele>
		<time>2015-12-06T02:55:11Z</time>
		</trkpt>

		<trkpt lat="42.867035" lon="-5.358800">
			<ele>1576.000000</ele>
		<time>2015-12-06T02:55:14Z</time>
		</trkpt>

		<trkpt lat="42.866909" lon="-5.358874">
			<ele>1576.000000</ele>
		<time>2015-12-06T02:55:17Z</time>
		</trkpt>

		<trkpt lat="42.866774" lon="-5.358928">
			<ele>1579.000000</ele>
		<time>2015-12-06T02:55:20Z</time>
		</trkpt>

		<trkpt lat="42.866637" lon="-5.358917">
			<ele>1579.000000</ele>
		<time>2015-12-06T02:55:23Z</time>
		</trkpt>

		<trkpt lat="42.866478" lon="-5.358853">
			<ele>1579.000000</ele>
		<time>2015-12-06T02:55:26Z</time>
		</trkpt>

		<trkpt lat="42.866311" lon="-5.358772">
			<ele>1578.000000</ele>
		<time>2015-12-06T02:55:29Z</time>
		</trkpt>

		<trkpt lat="42.866151" lon="-5.358695">
			<ele>1577.000000</ele>
		<time>2015-12-06T02:55:32Z</time>
		</trkpt>

		<trkpt lat="42.865933" lon="-5.358584">
			<ele>1575.000000</ele>
		<time>2015-12-06T02:55:36Z</time>
		</trkpt>

		<trkpt lat="42.865775" lon="-5.358540">
			<ele>1576.000000</ele>
		<time>2015-12-06T02:55:39Z</time>
		</trkpt>

		<trkpt lat="42.865582" lon="-5.358436">
			<ele>1576.000000</ele>
		<time>2015-12-06T02:55:42Z</time>
		</trkpt>

		<trkpt lat="42.865405" lon="-5.358325">
			<ele>1576.000000</ele>
		<time>2015-12-06T02:55:45Z</time>
		</trkpt>

		<trkpt lat="42.865221" lon="-5.358134">
			<ele>1576.000000</ele>
		<time>2015-12-06T02:55:48Z</time>
		</trkpt>

		<trkpt lat="42.865022" lon="-5.357899">
			<ele>1575.000000</ele>
		<time>2015-12-06T02:55:52Z</time>
		</trkpt>

		<trkpt lat="42.864843" lon="-5.357717">
			<ele>1575.000000</ele>
		<time>2015-12-06T02:55:55Z</time>
		</trkpt>

		<trkpt lat="42.864698" lon="-5.357544">
			<ele>1576.000000</ele>
		<time>2015-12-06T02:55:58Z</time>
		</trkpt>

		<trkpt lat="42.864475" lon="-5.357327">
			<ele>1579.000000</ele>
		<time>2015-12-06T02:56:02Z</time>
		</trkpt>

		<trkpt lat="42.864313" lon="-5.357187">
			<ele>1583.000000</ele>
		<time>2015-12-06T02:56:05Z</time>
		</trkpt>

		<trkpt lat="42.864175" lon="-5.357092">
			<ele>1583.000000</ele>
		<time>2015-12-06T02:56:08Z</time>
		</trkpt>

		<trkpt lat="42.863996" lon="-5.356942">
			<ele>1581.000000</ele>
		<time>2015-12-06T02:56:11Z</time>
		</trkpt>

		<trkpt lat="42.863804" lon="-5.356729">
			<ele>1582.000000</ele>
		<time>2015-12-06T02:56:14Z</time>
		</trkpt>

		<trkpt lat="42.863669" lon="-5.356461">
			<ele>1585.000000</ele>
		<time>2015-12-06T02:56:17Z</time>
		</trkpt>

		<trkpt lat="42.863505" lon="-5.356052">
			<ele>1586.000000</ele>
		<time>2015-12-06T02:56:21Z</time>
		</trkpt>

		<trkpt lat="42.863371" lon="-5.355791">
			<ele>1585.000000</ele>
		<time>2015-12-06T02:56:24Z</time>
		</trkpt>

		<trkpt lat="42.863209" lon="-5.355669">
			<ele>1583.000000</ele>
		<time>2015-12-06T02:56:27Z</time>
		</trkpt>

		<trkpt lat="42.863036" lon="-5.355628">
			<ele>1580.000000</ele>
		<time>2015-12-06T02:56:30Z</time>
		</trkpt>

		<trkpt lat="42.862885" lon="-5.355719">
			<ele>1578.000000</ele>
		<time>2015-12-06T02:56:33Z</time>
		</trkpt>

		<trkpt lat="42.862728" lon="-5.355884">
			<ele>1576.000000</ele>
		<time>2015-12-06T02:56:36Z</time>
		</trkpt>

		<trkpt lat="42.862595" lon="-5.356071">
			<ele>1576.000000</ele>
		<time>2015-12-06T02:56:39Z</time>
		</trkpt>

		<trkpt lat="42.862483" lon="-5.356276">
			<ele>1573.000000</ele>
		<time>2015-12-06T02:56:42Z</time>
		</trkpt>

		<trkpt lat="42.862420" lon="-5.356458">
			<ele>1573.000000</ele>
		<time>2015-12-06T02:56:45Z</time>
		</trkpt>

		<trkpt lat="42.862394" lon="-5.356742">
			<ele>1572.000000</ele>
		<time>2015-12-06T02:56:48Z</time>
		</trkpt>

		<trkpt lat="42.862431" lon="-5.357048">
			<ele>1572.000000</ele>
		<time>2015-12-06T02:56:51Z</time>
		</trkpt>

		<trkpt lat="42.862564" lon="-5.357333">
			<ele>1572.000000</ele>
		<time>2015-12-06T02:56:54Z</time>
		</trkpt>

		<trkpt lat="42.862745" lon="-5.357553">
			<ele>1570.000000</ele>
		<time>2015-12-06T02:56:57Z</time>
		</trkpt>

		<trkpt lat="42.863059" lon="-5.357773">
			<ele>1572.000000</ele>
		<time>2015-12-06T02:57:01Z</time>
		</trkpt>

		<trkpt lat="42.863298" lon="-5.357898">
			<ele>1571.000000</ele>
		<time>2015-12-06T02:57:04Z</time>
		</trkpt>

		<trkpt lat="42.863564" lon="-5.358041">
			<ele>1569.000000</ele>
		<time>2015-12-06T02:57:07Z</time>
		</trkpt>

		<trkpt lat="42.863817" lon="-5.358126">
			<ele>1567.000000</ele>
		<time>2015-12-06T02:57:10Z</time>
		</trkpt>

		<trkpt lat="42.864093" lon="-5.358232">
			<ele>1568.000000</ele>
		<time>2015-12-06T02:57:13Z</time>
		</trkpt>

		<trkpt lat="42.864378" lon="-5.358339">
			<ele>1567.000000</ele>
		<time>2015-12-06T02:57:16Z</time>
		</trkpt>

		<trkpt lat="42.864653" lon="-5.358464">
			<ele>1568.000000</ele>
		<time>2015-12-06T02:57:19Z</time>
		</trkpt>

		<trkpt lat="42.864955" lon="-5.358513">
			<ele>1566.000000</ele>
		<time>2015-12-06T02:57:22Z</time>
		</trkpt>

		<trkpt lat="42.865205" lon="-5.358543">
			<ele>1566.000000</ele>
		<time>2015-12-06T02:57:25Z</time>
		</trkpt>

		<trkpt lat="42.865617" lon="-5.358552">
			<ele>1564.000000</ele>
		<time>2015-12-06T02:57:29Z</time>
		</trkpt>

		<trkpt lat="42.865878" lon="-5.358551">
			<ele>1558.000000</ele>
		<time>2015-12-06T02:57:32Z</time>
		</trkpt>

		<trkpt lat="42.866185" lon="-5.358530">
			<ele>1555.000000</ele>
		<time>2015-12-06T02:57:35Z</time>
		</trkpt>

		<trkpt lat="42.866462" lon="-5.358516">
			<ele>1553.000000</ele>
		<time>2015-12-06T02:57:38Z</time>
		</trkpt>

		<trkpt lat="42.866756" lon="-5.358490">
			<ele>1552.000000</ele>
		<time>2015-12-06T02:57:41Z</time>
		</trkpt>

		<trkpt lat="42.867034" lon="-5.358467">
			<ele>1549.000000</ele>
		<time>2015-12-06T02:57:44Z</time>
		</trkpt>

		<trkpt lat="42.867354" lon="-5.358494">
			<ele>1547.000000</ele>
		<time>2015-12-06T02:57:47Z</time>
		</trkpt>

		<trkpt lat="42.867617" lon="-5.358541">
			<ele>1549.000000</ele>
		<time>2015-12-06T02:57:50Z</time>
		</trkpt>

		<trkpt lat="42.867893" lon="-5.358650">
			<ele>1547.000000</ele>
		<time>2015-12-06T02:57:53Z</time>
		</trkpt>

		<trkpt lat="42.868038" lon="-5.358837">
			<ele>1546.000000</ele>
		<time>2015-12-06T02:57:56Z</time>
		</trkpt>

		<trkpt lat="42.868184" lon="-5.359040">
			<ele>1549.000000</ele>
		<time>2015-12-06T02:57:59Z</time>
		</trkpt>

		<trkpt lat="42.868279" lon="-5.359370">
			<ele>1548.000000</ele>
		<time>2015-12-06T02:58:03Z</time>
		</trkpt>

		<trkpt lat="42.868274" lon="-5.359647">
			<ele>1543.000000</ele>
		<time>2015-12-06T02:58:06Z</time>
		</trkpt>

		<trkpt lat="42.868226" lon="-5.359953">
			<ele>1540.000000</ele>
		<time>2015-12-06T02:58:09Z</time>
		</trkpt>

		<trkpt lat="42.868169" lon="-5.360116">
			<ele>1537.000000</ele>
		<time>2015-12-06T02:58:12Z</time>
		</trkpt>

		<trkpt lat="42.868100" lon="-5.360329">
			<ele>1534.000000</ele>
		<time>2015-12-06T02:58:15Z</time>
		</trkpt>

		<trkpt lat="42.868045" lon="-5.360575">
			<ele>1533.000000</ele>
		<time>2015-12-06T02:58:18Z</time>
		</trkpt>

		<trkpt lat="42.868020" lon="-5.360850">
			<ele>1530.000000</ele>
		<time>2015-12-06T02:58:21Z</time>
		</trkpt>

		<trkpt lat="42.868008" lon="-5.361087">
			<ele>1528.000000</ele>
		<time>2015-12-06T02:58:24Z</time>
		</trkpt>

		<trkpt lat="42.868036" lon="-5.361361">
			<ele>1525.000000</ele>
		<time>2015-12-06T02:58:27Z</time>
		</trkpt>

		<trkpt lat="42.868090" lon="-5.361627">
			<ele>1523.000000</ele>
		<time>2015-12-06T02:58:30Z</time>
		</trkpt>

		<trkpt lat="42.868168" lon="-5.361897">
			<ele>1519.000000</ele>
		<time>2015-12-06T02:58:33Z</time>
		</trkpt>

		<trkpt lat="42.868249" lon="-5.362171">
			<ele>1514.000000</ele>
		<time>2015-12-06T02:58:36Z</time>
		</trkpt>

		<trkpt lat="42.868375" lon="-5.362475">
			<ele>1513.000000</ele>
		<time>2015-12-06T02:58:39Z</time>
		</trkpt>

		<trkpt lat="42.868525" lon="-5.362748">
			<ele>1514.000000</ele>
		<time>2015-12-06T02:58:42Z</time>
		</trkpt>

		<trkpt lat="42.868605" lon="-5.362978">
			<ele>1510.000000</ele>
		<time>2015-12-06T02:58:45Z</time>
		</trkpt>

		<trkpt lat="42.868700" lon="-5.363244">
			<ele>1509.000000</ele>
		<time>2015-12-06T02:58:48Z</time>
		</trkpt>

		<trkpt lat="42.868778" lon="-5.363488">
			<ele>1508.000000</ele>
		<time>2015-12-06T02:58:51Z</time>
		</trkpt>

		<trkpt lat="42.868882" lon="-5.363709">
			<ele>1505.000000</ele>
		<time>2015-12-06T02:58:54Z</time>
		</trkpt>

		<trkpt lat="42.868986" lon="-5.363949">
			<ele>1501.000000</ele>
		<time>2015-12-06T02:58:57Z</time>
		</trkpt>

		<trkpt lat="42.869082" lon="-5.364181">
			<ele>1499.000000</ele>
		<time>2015-12-06T02:59:00Z</time>
		</trkpt>

		<trkpt lat="42.869237" lon="-5.364504">
			<ele>1496.000000</ele>
		<time>2015-12-06T02:59:04Z</time>
		</trkpt>

		<trkpt lat="42.869330" lon="-5.364693">
			<ele>1491.000000</ele>
		<time>2015-12-06T02:59:07Z</time>
		</trkpt>

		<trkpt lat="42.869473" lon="-5.364919">
			<ele>1489.000000</ele>
		<time>2015-12-06T02:59:10Z</time>
		</trkpt>

		<trkpt lat="42.869608" lon="-5.365138">
			<ele>1487.000000</ele>
		<time>2015-12-06T02:59:13Z</time>
		</trkpt>

		<trkpt lat="42.869699" lon="-5.365369">
			<ele>1486.000000</ele>
		<time>2015-12-06T02:59:16Z</time>
		</trkpt>

		<trkpt lat="42.869780" lon="-5.365608">
			<ele>1484.000000</ele>
		<time>2015-12-06T02:59:19Z</time>
		</trkpt>

		<trkpt lat="42.869830" lon="-5.365869">
			<ele>1481.000000</ele>
		<time>2015-12-06T02:59:22Z</time>
		</trkpt>

		<trkpt lat="42.869868" lon="-5.366101">
			<ele>1479.000000</ele>
		<time>2015-12-06T02:59:25Z</time>
		</trkpt>

		<trkpt lat="42.869890" lon="-5.366362">
			<ele>1476.000000</ele>
		<time>2015-12-06T02:59:28Z</time>
		</trkpt>

		<trkpt lat="42.869918" lon="-5.366572">
			<ele>1477.000000</ele>
		<time>2015-12-06T02:59:31Z</time>
		</trkpt>

		<trkpt lat="42.869984" lon="-5.366809">
			<ele>1476.000000</ele>
		<time>2015-12-06T02:59:34Z</time>
		</trkpt>

		<trkpt lat="42.870043" lon="-5.367053">
			<ele>1476.000000</ele>
		<time>2015-12-06T02:59:37Z</time>
		</trkpt>

		<trkpt lat="42.870072" lon="-5.367277">
			<ele>1474.000000</ele>
		<time>2015-12-06T02:59:40Z</time>
		</trkpt>

		<trkpt lat="42.869984" lon="-5.367465">
			<ele>1473.000000</ele>
		<time>2015-12-06T02:59:43Z</time>
		</trkpt>

		<trkpt lat="42.869848" lon="-5.367533">
			<ele>1469.000000</ele>
		<time>2015-12-06T02:59:46Z</time>
		</trkpt>

		<trkpt lat="42.869658" lon="-5.367550">
			<ele>1464.000000</ele>
		<time>2015-12-06T02:59:49Z</time>
		</trkpt>

		<trkpt lat="42.869490" lon="-5.367547">
			<ele>1461.000000</ele>
		<time>2015-12-06T02:59:52Z</time>
		</trkpt>

		<trkpt lat="42.869331" lon="-5.367536">
			<ele>1460.000000</ele>
		<time>2015-12-06T02:59:55Z</time>
		</trkpt>

		<trkpt lat="42.869159" lon="-5.367452">
			<ele>1459.000000</ele>
		<time>2015-12-06T02:59:58Z</time>
		</trkpt>

		<trkpt lat="42.868978" lon="-5.367331">
			<ele>1456.000000</ele>
		<time>2015-12-06T03:00:01Z</time>
		</trkpt>

		<trkpt lat="42.868829" lon="-5.367123">
			<ele>1457.000000</ele>
		<time>2015-12-06T03:00:04Z</time>
		</trkpt>

		<trkpt lat="42.868705" lon="-5.366927">
			<ele>1454.000000</ele>
		<time>2015-12-06T03:00:07Z</time>
		</trkpt>

		<trkpt lat="42.868503" lon="-5.366740">
			<ele>1450.000000</ele>
		<time>2015-12-06T03:00:10Z</time>
		</trkpt>

		<trkpt lat="42.868323" lon="-5.366589">
			<ele>1449.000000</ele>
		<time>2015-12-06T03:00:13Z</time>
		</trkpt>

		<trkpt lat="42.868151" lon="-5.366450">
			<ele>1446.000000</ele>
		<time>2015-12-06T03:00:16Z</time>
		</trkpt>

		<trkpt lat="42.867997" lon="-5.366273">
			<ele>1441.000000</ele>
		<time>2015-12-06T03:00:19Z</time>
		</trkpt>

		<trkpt lat="42.867791" lon="-5.366059">
			<ele>1440.000000</ele>
		<time>2015-12-06T03:00:23Z</time>
		</trkpt>

		<trkpt lat="42.867579" lon="-5.365764">
			<ele>1435.000000</ele>
		<time>2015-12-06T03:00:27Z</time>
		</trkpt>

		<trkpt lat="42.867423" lon="-5.365481">
			<ele>1432.000000</ele>
		<time>2015-12-06T03:00:30Z</time>
		</trkpt>

		<trkpt lat="42.867266" lon="-5.365278">
			<ele>1427.000000</ele>
		<time>2015-12-06T03:00:33Z</time>
		</trkpt>

		<trkpt lat="42.867107" lon="-5.365061">
			<ele>1424.000000</ele>
		<time>2015-12-06T03:00:36Z</time>
		</trkpt>

		<trkpt lat="42.866971" lon="-5.364881">
			<ele>1425.000000</ele>
		<time>2015-12-06T03:00:39Z</time>
		</trkpt>

		<trkpt lat="42.866781" lon="-5.364674">
			<ele>1424.000000</ele>
		<time>2015-12-06T03:00:42Z</time>
		</trkpt>

		<trkpt lat="42.866614" lon="-5.364488">
			<ele>1425.000000</ele>
		<time>2015-12-06T03:00:45Z</time>
		</trkpt>

		<trkpt lat="42.866425" lon="-5.364243">
			<ele>1426.000000</ele>
		<time>2015-12-06T03:00:48Z</time>
		</trkpt>

		<trkpt lat="42.866274" lon="-5.363954">
			<ele>1424.000000</ele>
		<time>2015-12-06T03:00:51Z</time>
		</trkpt>

		<trkpt lat="42.866156" lon="-5.363673">
			<ele>1423.000000</ele>
		<time>2015-12-06T03:00:54Z</time>
		</trkpt>

		<trkpt lat="42.866050" lon="-5.363413">
			<ele>1420.000000</ele>
		<time>2015-12-06T03:00:57Z</time>
		</trkpt>

		<trkpt lat="42.865895" lon="-5.363168">
			<ele>1418.000000</ele>
		<time>2015-12-06T03:01:00Z</time>
		</trkpt>

		<trkpt lat="42.865786" lon="-5.362896">
			<ele>1418.000000</ele>
		<time>2015-12-06T03:01:03Z</time>
		</trkpt>

		<trkpt lat="42.865667" lon="-5.362652">
			<ele>1417.000000</ele>
		<time>2015-12-06T03:01:06Z</time>
		</trkpt>

		<trkpt lat="42.865497" lon="-5.362368">
			<ele>1413.000000</ele>
		<time>2015-12-06T03:01:09Z</time>
		</trkpt>

		<trkpt lat="42.865352" lon="-5.362120">
			<ele>1410.000000</ele>
		<time>2015-12-06T03:01:12Z</time>
		</trkpt>

		<trkpt lat="42.865176" lon="-5.361878">
			<ele>1408.000000</ele>
		<time>2015-12-06T03:01:15Z</time>
		</trkpt>

		<trkpt lat="42.865017" lon="-5.361663">
			<ele>1401.000000</ele>
		<time>2015-12-06T03:01:18Z</time>
		</trkpt>

		<trkpt lat="42.864856" lon="-5.361480">
			<ele>1397.000000</ele>
		<time>2015-12-06T03:01:21Z</time>
		</trkpt>

		<trkpt lat="42.864700" lon="-5.361330">
			<ele>1392.000000</ele>
		<time>2015-12-06T03:01:24Z</time>
		</trkpt>

		<trkpt lat="42.864513" lon="-5.361124">
			<ele>1389.000000</ele>
		<time>2015-12-06T03:01:27Z</time>
		</trkpt>

		<trkpt lat="42.864342" lon="-5.360946">
			<ele>1388.000000</ele>
		<time>2015-12-06T03:01:30Z</time>
		</trkpt>

		<trkpt lat="42.864185" lon="-5.360757">
			<ele>1386.000000</ele>
		<time>2015-12-06T03:01:33Z</time>
		</trkpt>

		<trkpt lat="42.864035" lon="-5.360604">
			<ele>1384.000000</ele>
		<time>2015-12-06T03:01:36Z</time>
		</trkpt>

		<trkpt lat="42.863915" lon="-5.360453">
			<ele>1380.000000</ele>
		<time>2015-12-06T03:01:39Z</time>
		</trkpt>

		<trkpt lat="42.863809" lon="-5.360242">
			<ele>1374.000000</ele>
		<time>2015-12-06T03:01:42Z</time>
		</trkpt>

		<trkpt lat="42.863723" lon="-5.359969">
			<ele>1372.000000</ele>
		<time>2015-12-06T03:01:45Z</time>
		</trkpt>

		<trkpt lat="42.863646" lon="-5.359656">
			<ele>1369.000000</ele>
		<time>2015-12-06T03:01:48Z</time>
		</trkpt>

		<trkpt lat="42.863587" lon="-5.359304">
			<ele>1367.000000</ele>
		<time>2015-12-06T03:01:51Z</time>
		</trkpt>

		<trkpt lat="42.863487" lon="-5.358967">
			<ele>1366.000000</ele>
		<time>2015-12-06T03:01:54Z</time>
		</trkpt>

		<trkpt lat="42.863391" lon="-5.358675">
			<ele>1366.000000</ele>
		<time>2015-12-06T03:01:57Z</time>
		</trkpt>

		<trkpt lat="42.863299" lon="-5.358387">
			<ele>1369.000000</ele>
		<time>2015-12-06T03:02:00Z</time>
		</trkpt>

		<trkpt lat="42.863196" lon="-5.358112">
			<ele>1366.000000</ele>
		<time>2015-12-06T03:02:03Z</time>
		</trkpt>

		<trkpt lat="42.863036" lon="-5.357950">
			<ele>1367.000000</ele>
		<time>2015-12-06T03:02:06Z</time>
		</trkpt>

		<trkpt lat="42.862900" lon="-5.358031">
			<ele>1368.000000</ele>
		<time>2015-12-06T03:02:10Z</time>
		</trkpt>

		<trkpt lat="42.862959" lon="-5.358262">
			<ele>1367.000000</ele>
		<time>2015-12-06T03:02:13Z</time>
		</trkpt>

		<trkpt lat="42.863199" lon="-5.358376">
			<ele>1367.000000</ele>
		<time>2015-12-06T03:02:16Z</time>
		</trkpt>

		<trkpt lat="42.863480" lon="-5.358343">
			<ele>1365.000000</ele>
		<time>2015-12-06T03:02:19Z</time>
		</trkpt>

		<trkpt lat="42.863683" lon="-5.358061">
			<ele>1364.000000</ele>
		<time>2015-12-06T03:02:22Z</time>
		</trkpt>

		<trkpt lat="42.863739" lon="-5.357671">
			<ele>1364.000000</ele>
		<time>2015-12-06T03:02:25Z</time>
		</trkpt>

		<trkpt lat="42.863695" lon="-5.357421">
			<ele>1368.000000</ele>
		<time>2015-12-06T03:02:28Z</time>
		</trkpt>

		<trkpt lat="42.863593" lon="-5.357097">
			<ele>1363.000000</ele>
		<time>2015-12-06T03:02:31Z</time>
		</trkpt>

		<trkpt lat="42.863522" lon="-5.356737">
			<ele>1366.000000</ele>
		<time>2015-12-06T03:02:34Z</time>
		</trkpt>

		<trkpt lat="42.863543" lon="-5.356352">
			<ele>1368.000000</ele>
		<time>2015-12-06T03:02:37Z</time>
		</trkpt>

		<trkpt lat="42.863528" lon="-5.356004">
			<ele>1369.000000</ele>
		<time>2015-12-06T03:02:40Z</time>
		</trkpt>

		<trkpt lat="42.863526" lon="-5.355670">
			<ele>1370.000000</ele>
		<time>2015-12-06T03:02:43Z</time>
		</trkpt>

		<trkpt lat="42.863494" lon="-5.355362">
			<ele>1370.000000</ele>
		<time>2015-12-06T03:02:46Z</time>
		</trkpt>

		<trkpt lat="42.863342" lon="-5.355177">
			<ele>1366.000000</ele>
		<time>2015-12-06T03:02:49Z</time>
		</trkpt>

		<trkpt lat="42.863171" lon="-5.355169">
			<ele>1364.000000</ele>
		<time>2015-12-06T03:02:52Z</time>
		</trkpt>

		<trkpt lat="42.863039" lon="-5.355217">
			<ele>1365.000000</ele>
		<time>2015-12-06T03:02:55Z</time>
		</trkpt>

		<trkpt lat="42.862904" lon="-5.355278">
			<ele>1365.000000</ele>
		<time>2015-12-06T03:02:58Z</time>
		</trkpt>

		<trkpt lat="42.862767" lon="-5.355395">
			<ele>1365.000000</ele>
		<time>2015-12-06T03:03:01Z</time>
		</trkpt>

		<trkpt lat="42.862647" lon="-5.355483">
			<ele>1368.000000</ele>
		<time>2015-12-06T03:03:04Z</time>
		</trkpt>

		<trkpt lat="42.862468" lon="-5.355528">
			<ele>1364.000000</ele>
		<time>2015-12-06T03:03:07Z</time>
		</trkpt>

		<trkpt lat="42.862299" lon="-5.355497">
			<ele>1363.000000</ele>
		<time>2015-12-06T03:03:10Z</time>
		</trkpt>

		<trkpt lat="42.862124" lon="-5.355330">
			<ele>1364.000000</ele>
		<time>2015-12-06T03:03:13Z</time>
		</trkpt>

		<trkpt lat="42.861964" lon="-5.355171">
			<ele>1365.000000</ele>
		<time>2015-12-06T03:03:16Z</time>
		</trkpt>

		<trkpt lat="42.861782" lon="-5.355009">
			<ele>1367.000000</ele>
		<time>2015-12-06T03:03:19Z</time>
		</trkpt>

		<trkpt lat="42.861609" lon="-5.354899">
			<ele>1372.000000</ele>
		<time>2015-12-06T03:03:22Z</time>
		</trkpt>

		<trkpt lat="42.861469" lon="-5.354875">
			<ele>1376.000000</ele>
		<time>2015-12-06T03:03:25Z</time>
		</trkpt>

		<trkpt lat="42.861327" lon="-5.355134">
			<ele>1378.000000</ele>
		<time>2015-12-06T03:03:29Z</time>
		</trkpt>

		<trkpt lat="42.861349" lon="-5.355393">
			<ele>1379.000000</ele>
		<time>2015-12-06T03:03:32Z</time>
		</trkpt>

		<trkpt lat="42.861472" lon="-5.355611">
			<ele>1380.000000</ele>
		<time>2015-12-06T03:03:35Z</time>
		</trkpt>

		<trkpt lat="42.861702" lon="-5.355754">
			<ele>1382.000000</ele>
		<time>2015-12-06T03:03:38Z</time>
		</trkpt>

		<trkpt lat="42.861975" lon="-5.355761">
			<ele>1382.000000</ele>
		<time>2015-12-06T03:03:41Z</time>
		</trkpt>

		<trkpt lat="42.862252" lon="-5.355640">
			<ele>1381.000000</ele>
		<time>2015-12-06T03:03:44Z</time>
		</trkpt>

		<trkpt lat="42.862485" lon="-5.355345">
			<ele>1381.000000</ele>
		<time>2015-12-06T03:03:47Z</time>
		</trkpt>

		<trkpt lat="42.862583" lon="-5.354948">
			<ele>1384.000000</ele>
		<time>2015-12-06T03:03:50Z</time>
		</trkpt>

		<trkpt lat="42.862581" lon="-5.354582">
			<ele>1382.000000</ele>
		<time>2015-12-06T03:03:53Z</time>
		</trkpt>

		<trkpt lat="42.862379" lon="-5.354432">
			<ele>1382.000000</ele>
		<time>2015-12-06T03:03:56Z</time>
		</trkpt>

		<trkpt lat="42.862243" lon="-5.354495">
			<ele>1385.000000</ele>
		<time>2015-12-06T03:03:59Z</time>
		</trkpt>

		<trkpt lat="42.862147" lon="-5.354592">
			<ele>1386.000000</ele>
		<time>2015-12-06T03:04:02Z</time>
		</trkpt>

		<trkpt lat="42.862025" lon="-5.354719">
			<ele>1387.000000</ele>
		<time>2015-12-06T03:04:05Z</time>
		</trkpt>

		<trkpt lat="42.861881" lon="-5.354870">
			<ele>1386.000000</ele>
		<time>2015-12-06T03:04:08Z</time>
		</trkpt>

		<trkpt lat="42.861756" lon="-5.355054">
			<ele>1384.000000</ele>
		<time>2015-12-06T03:04:11Z</time>
		</trkpt>

		<trkpt lat="42.861607" lon="-5.355185">
			<ele>1387.000000</ele>
		<time>2015-12-06T03:04:14Z</time>
		</trkpt>

		<trkpt lat="42.861478" lon="-5.355231">
			<ele>1384.000000</ele>
		<time>2015-12-06T03:04:17Z</time>
		</trkpt>

		<trkpt lat="42.861360" lon="-5.355328">
			<ele>1386.000000</ele>
		<time>2015-12-06T03:04:20Z</time>
		</trkpt>

		<trkpt lat="42.861215" lon="-5.355407">
			<ele>1385.000000</ele>
		<time>2015-12-06T03:04:23Z</time>
		</trkpt>

		<trkpt lat="42.861019" lon="-5.355429">
			<ele>1390.000000</ele>
		<time>2015-12-06T03:04:26Z</time>
		</trkpt>

		<trkpt lat="42.860848" lon="-5.355425">
			<ele>1391.000000</ele>
		<time>2015-12-06T03:04:29Z</time>
		</trkpt>

		<trkpt lat="42.860705" lon="-5.355497">
			<ele>1392.000000</ele>
		<time>2015-12-06T03:04:32Z</time>
		</trkpt>

		<trkpt lat="42.860606" lon="-5.355674">
			<ele>1394.000000</ele>
		<time>2015-12-06T03:04:35Z</time>
		</trkpt>

		<trkpt lat="42.860459" lon="-5.355878">
			<ele>1396.000000</ele>
		<time>2015-12-06T03:04:38Z</time>
		</trkpt>

		<trkpt lat="42.860354" lon="-5.356042">
			<ele>1397.000000</ele>
		<time>2015-12-06T03:04:42Z</time>
		</trkpt>

		<trkpt lat="42.860337" lon="-5.356290">
			<ele>1398.000000</ele>
		<time>2015-12-06T03:04:45Z</time>
		</trkpt>

		<trkpt lat="42.860437" lon="-5.356507">
			<ele>1399.000000</ele>
		<time>2015-12-06T03:04:48Z</time>
		</trkpt>

		<trkpt lat="42.860650" lon="-5.356719">
			<ele>1398.000000</ele>
		<time>2015-12-06T03:04:51Z</time>
		</trkpt>

		<trkpt lat="42.860942" lon="-5.356776">
			<ele>1398.000000</ele>
		<time>2015-12-06T03:04:54Z</time>
		</trkpt>

		<trkpt lat="42.861255" lon="-5.356727">
			<ele>1399.000000</ele>
		<time>2015-12-06T03:04:57Z</time>
		</trkpt>

		<trkpt lat="42.861549" lon="-5.356601">
			<ele>1399.000000</ele>
		<time>2015-12-06T03:05:00Z</time>
		</trkpt>

		<trkpt lat="42.861822" lon="-5.356352">
			<ele>1400.000000</ele>
		<time>2015-12-06T03:05:03Z</time>
		</trkpt>

		<trkpt lat="42.862011" lon="-5.355994">
			<ele>1399.000000</ele>
		<time>2015-12-06T03:05:06Z</time>
		</trkpt>

		<trkpt lat="42.862049" lon="-5.355557">
			<ele>1400.000000</ele>
		<time>2015-12-06T03:05:09Z</time>
		</trkpt>

		<trkpt lat="42.862069" lon="-5.355155">
			<ele>1405.000000</ele>
		<time>2015-12-06T03:05:12Z</time>
		</trkpt>

		<trkpt lat="42.862054" lon="-5.354822">
			<ele>1406.000000</ele>
		<time>2015-12-06T03:05:15Z</time>
		</trkpt>

		<trkpt lat="42.862035" lon="-5.354435">
			<ele>1407.000000</ele>
		<time>2015-12-06T03:05:18Z</time>
		</trkpt>

		<trkpt lat="42.861994" lon="-5.354111">
			<ele>1407.000000</ele>
		<time>2015-12-06T03:05:21Z</time>
		</trkpt>

		<trkpt lat="42.861928" lon="-5.353793">
			<ele>1405.000000</ele>
		<time>2015-12-06T03:05:24Z</time>
		</trkpt>

		<trkpt lat="42.861865" lon="-5.353491">
			<ele>1407.000000</ele>
		<time>2015-12-06T03:05:27Z</time>
		</trkpt>

		<trkpt lat="42.861794" lon="-5.353136">
			<ele>1407.000000</ele>
		<time>2015-12-06T03:05:30Z</time>
		</trkpt>

		<trkpt lat="42.861752" lon="-5.352820">
			<ele>1409.000000</ele>
		<time>2015-12-06T03:05:33Z</time>
		</trkpt>

		<trkpt lat="42.861699" lon="-5.352509">
			<ele>1405.000000</ele>
		<time>2015-12-06T03:05:36Z</time>
		</trkpt>

		<trkpt lat="42.861617" lon="-5.352311">
			<ele>1403.000000</ele>
		<time>2015-12-06T03:05:39Z</time>
		</trkpt>

		<trkpt lat="42.861499" lon="-5.352152">
			<ele>1400.000000</ele>
		<time>2015-12-06T03:05:42Z</time>
		</trkpt>

		<trkpt lat="42.861378" lon="-5.352070">
			<ele>1399.000000</ele>
		<time>2015-12-06T03:05:45Z</time>
		</trkpt>

		<trkpt lat="42.861276" lon="-5.352024">
			<ele>1394.000000</ele>
		<time>2015-12-06T03:05:48Z</time>
		</trkpt>

		<trkpt lat="42.861115" lon="-5.352102">
			<ele>1391.000000</ele>
		<time>2015-12-06T03:05:51Z</time>
		</trkpt>

		<trkpt lat="42.861012" lon="-5.352210">
			<ele>1390.000000</ele>
		<time>2015-12-06T03:05:54Z</time>
		</trkpt>

		<trkpt lat="42.860948" lon="-5.352395">
			<ele>1389.000000</ele>
		<time>2015-12-06T03:05:57Z</time>
		</trkpt>

		<trkpt lat="42.860911" lon="-5.352590">
			<ele>1388.000000</ele>
		<time>2015-12-06T03:06:00Z</time>
		</trkpt>

		<trkpt lat="42.860904" lon="-5.352819">
			<ele>1388.000000</ele>
		<time>2015-12-06T03:06:03Z</time>
		</trkpt>

		<trkpt lat="42.860911" lon="-5.353107">
			<ele>1384.000000</ele>
		<time>2015-12-06T03:06:07Z</time>
		</trkpt>

		<trkpt lat="42.860910" lon="-5.353319">
			<ele>1385.000000</ele>
		<time>2015-12-06T03:06:10Z</time>
		</trkpt>

		<trkpt lat="42.860943" lon="-5.353515">
			<ele>1386.000000</ele>
		<time>2015-12-06T03:06:13Z</time>
		</trkpt>

		<trkpt lat="42.861013" lon="-5.353725">
			<ele>1388.000000</ele>
		<time>2015-12-06T03:06:16Z</time>
		</trkpt>

		<trkpt lat="42.861045" lon="-5.353915">
			<ele>1387.000000</ele>
		<time>2015-12-06T03:06:19Z</time>
		</trkpt>

		<trkpt lat="42.861034" lon="-5.354130">
			<ele>1389.000000</ele>
		<time>2015-12-06T03:06:22Z</time>
		</trkpt>

		<trkpt lat="42.861027" lon="-5.354324">
			<ele>1390.000000</ele>
		<time>2015-12-06T03:06:25Z</time>
		</trkpt>

		<trkpt lat="42.861008" lon="-5.354547">
			<ele>1388.000000</ele>
		<time>2015-12-06T03:06:28Z</time>
		</trkpt>

		<trkpt lat="42.861035" lon="-5.354809">
			<ele>1390.000000</ele>
		<time>2015-12-06T03:06:31Z</time>
		</trkpt>

		<trkpt lat="42.861122" lon="-5.355047">
			<ele>1386.000000</ele>
		<time>2015-12-06T03:06:34Z</time>
		</trkpt>

		<trkpt lat="42.861262" lon="-5.355315">
			<ele>1382.000000</ele>
		<time>2015-12-06T03:06:37Z</time>
		</trkpt>

		<trkpt lat="42.861414" lon="-5.355537">
			<ele>1382.000000</ele>
		<time>2015-12-06T03:06:40Z</time>
		</trkpt>

		<trkpt lat="42.861567" lon="-5.355809">
			<ele>1380.000000</ele>
		<time>2015-12-06T03:06:43Z</time>
		</trkpt>

		<trkpt lat="42.861652" lon="-5.356073">
			<ele>1377.000000</ele>
		<time>2015-12-06T03:06:46Z</time>
		</trkpt>

		<trkpt lat="42.861683" lon="-5.356321">
			<ele>1373.000000</ele>
		<time>2015-12-06T03:06:49Z</time>
		</trkpt>

		<trkpt lat="42.861693" lon="-5.356556">
			<ele>1371.000000</ele>
		<time>2015-12-06T03:06:52Z</time>
		</trkpt>

		<trkpt lat="42.861649" lon="-5.356769">
			<ele>1370.000000</ele>
		<time>2015-12-06T03:06:55Z</time>
		</trkpt>

		<trkpt lat="42.861569" lon="-5.356972">
			<ele>1369.000000</ele>
		<time>2015-12-06T03:06:58Z</time>
		</trkpt>

		<trkpt lat="42.861428" lon="-5.357062">
			<ele>1365.000000</ele>
		<time>2015-12-06T03:07:01Z</time>
		</trkpt>

		<trkpt lat="42.861232" lon="-5.356920">
			<ele>1365.000000</ele>
		<time>2015-12-06T03:07:04Z</time>
		</trkpt>

		<trkpt lat="42.861095" lon="-5.356690">
			<ele>1363.000000</ele>
		<time>2015-12-06T03:07:07Z</time>
		</trkpt>

		<trkpt lat="42.860986" lon="-5.356414">
			<ele>1360.000000</ele>
		<time>2015-12-06T03:07:10Z</time>
		</trkpt>

		<trkpt lat="42.860896" lon="-5.356132">
			<ele>1359.000000</ele>
		<time>2015-12-06T03:07:13Z</time>
		</trkpt>

		<trkpt lat="42.860886" lon="-5.355775">
			<ele>1358.000000</ele>
		<time>2015-12-06T03:07:16Z</time>
		</trkpt>

		<trkpt lat="42.860872" lon="-5.355479">
			<ele>1356.000000</ele>
		<time>2015-12-06T03:07:19Z</time>
		</trkpt>

		<trkpt lat="42.860893" lon="-5.355165">
			<ele>1355.000000</ele>
		<time>2015-12-06T03:07:22Z</time>
		</trkpt>

		<trkpt lat="42.860885" lon="-5.354803">
			<ele>1352.000000</ele>
		<time>2015-12-06T03:07:25Z</time>
		</trkpt>

		<trkpt lat="42.860901" lon="-5.354450">
			<ele>1354.000000</ele>
		<time>2015-12-06T03:07:28Z</time>
		</trkpt>

		<trkpt lat="42.860933" lon="-5.353975">
			<ele>1356.000000</ele>
		<time>2015-12-06T03:07:32Z</time>
		</trkpt>

		<trkpt lat="42.860999" lon="-5.353623">
			<ele>1359.000000</ele>
		<time>2015-12-06T03:07:35Z</time>
		</trkpt>

		<trkpt lat="42.861251" lon="-5.353330">
			<ele>1360.000000</ele>
		<time>2015-12-06T03:07:38Z</time>
		</trkpt>

		<trkpt lat="42.861550" lon="-5.353341">
			<ele>1359.000000</ele>
		<time>2015-12-06T03:07:41Z</time>
		</trkpt>

		<trkpt lat="42.861764" lon="-5.353502">
			<ele>1359.000000</ele>
		<time>2015-12-06T03:07:44Z</time>
		</trkpt>

		<trkpt lat="42.861836" lon="-5.353787">
			<ele>1357.000000</ele>
		<time>2015-12-06T03:07:47Z</time>
		</trkpt>

		<trkpt lat="42.861737" lon="-5.354006">
			<ele>1357.000000</ele>
		<time>2015-12-06T03:07:50Z</time>
		</trkpt>

		<trkpt lat="42.861596" lon="-5.354131">
			<ele>1360.000000</ele>
		<time>2015-12-06T03:07:53Z</time>
		</trkpt>

		<trkpt lat="42.861480" lon="-5.354329">
			<ele>1362.000000</ele>
		<time>2015-12-06T03:07:56Z</time>
		</trkpt>

		<trkpt lat="42.861367" lon="-5.354488">
			<ele>1364.000000</ele>
		<time>2015-12-06T03:07:59Z</time>
		</trkpt>

		<trkpt lat="42.861283" lon="-5.354691">
			<ele>1367.000000</ele>
		<time>2015-12-06T03:08:02Z</time>
		</trkpt>

		<trkpt lat="42.861204" lon="-5.354875">
			<ele>1367.000000</ele>
		<time>2015-12-06T03:08:05Z</time>
		</trkpt>

		<trkpt lat="42.861012" lon="-5.354963">
			<ele>1364.000000</ele>
		<time>2015-12-06T03:08:08Z</time>
		</trkpt>

		<trkpt lat="42.860871" lon="-5.354791">
			<ele>1366.000000</ele>
		<time>2015-12-06T03:08:11Z</time>
		</trkpt>

		<trkpt lat="42.860830" lon="-5.354487">
			<ele>1367.000000</ele>
		<time>2015-12-06T03:08:14Z</time>
		</trkpt>

		<trkpt lat="42.860986" lon="-5.354123">
			<ele>1368.000000</ele>
		<time>2015-12-06T03:08:17Z</time>
		</trkpt>

		<trkpt lat="42.861300" lon="-5.353967">
			<ele>1369.000000</ele>
		<time>2015-12-06T03:08:20Z</time>
		</trkpt>

		<trkpt lat="42.861604" lon="-5.354090">
			<ele>1371.000000</ele>
		<time>2015-12-06T03:08:23Z</time>
		</trkpt>

		<trkpt lat="42.861755" lon="-5.354385">
			<ele>1366.000000</ele>
		<time>2015-12-06T03:08:26Z</time>
		</trkpt>

		<trkpt lat="42.861753" lon="-5.354685">
			<ele>1369.000000</ele>
		<time>2015-12-06T03:08:29Z</time>
		</trkpt>

		<trkpt lat="42.861741" lon="-5.354917">
			<ele>1366.000000</ele>
		<time>2015-12-06T03:08:32Z</time>
		</trkpt>

		<trkpt lat="42.861649" lon="-5.355140">
			<ele>1366.000000</ele>
		<time>2015-12-06T03:08:35Z</time>
		</trkpt>

		<trkpt lat="42.861524" lon="-5.355228">
			<ele>1365.000000</ele>
		<time>2015-12-06T03:08:38Z</time>
		</trkpt>

		<trkpt lat="42.861362" lon="-5.355253">
			<ele>1363.000000</ele>
		<time>2015-12-06T03:08:41Z</time>
		</trkpt>

		<trkpt lat="42.861167" lon="-5.355169">
			<ele>1358.000000</ele>
		<time>2015-12-06T03:08:44Z</time>
		</trkpt>

		<trkpt lat="42.860987" lon="-5.354945">
			<ele>1356.000000</ele>
		<time>2015-12-06T03:08:47Z</time>
		</trkpt>

		<trkpt lat="42.860907" lon="-5.354599">
			<ele>1355.000000</ele>
		<time>2015-12-06T03:08:50Z</time>
		</trkpt>

		<trkpt lat="42.860889" lon="-5.354224">
			<ele>1354.000000</ele>
		<time>2015-12-06T03:08:53Z</time>
		</trkpt>

		<trkpt lat="42.860993" lon="-5.353870">
			<ele>1352.000000</ele>
		<time>2015-12-06T03:08:56Z</time>
		</trkpt>

		<trkpt lat="42.861191" lon="-5.353550">
			<ele>1350.000000</ele>
		<time>2015-12-06T03:08:59Z</time>
		</trkpt>

		<trkpt lat="42.861429" lon="-5.353308">
			<ele>1353.000000</ele>
		<time>2015-12-06T03:09:02Z</time>
		</trkpt>

		<trkpt lat="42.861701" lon="-5.353035">
			<ele>1353.000000</ele>
		<time>2015-12-06T03:09:05Z</time>
		</trkpt>

		<trkpt lat="42.861987" lon="-5.352818">
			<ele>1353.000000</ele>
		<time>2015-12-06T03:09:08Z</time>
		</trkpt>

		<trkpt lat="42.862306" lon="-5.352738">
			<ele>1353.000000</ele>
		<time>2015-12-06T03:09:11Z</time>
		</trkpt>

		<trkpt lat="42.862688" lon="-5.352831">
			<ele>1355.000000</ele>
		<time>2015-12-06T03:09:15Z</time>
		</trkpt>

		<trkpt lat="42.862884" lon="-5.352961">
			<ele>1353.000000</ele>
		<time>2015-12-06T03:09:18Z</time>
		</trkpt>

		<trkpt lat="42.863097" lon="-5.353112">
			<ele>1348.000000</ele>
		<time>2015-12-06T03:09:21Z</time>
		</trkpt>

		<trkpt lat="42.863285" lon="-5.353309">
			<ele>1344.000000</ele>
		<time>2015-12-06T03:09:24Z</time>
		</trkpt>

		<trkpt lat="42.863367" lon="-5.353593">
			<ele>1343.000000</ele>
		<time>2015-12-06T03:09:27Z</time>
		</trkpt>

		<trkpt lat="42.863230" lon="-5.353803">
			<ele>1348.000000</ele>
		<time>2015-12-06T03:09:31Z</time>
		</trkpt>

		<trkpt lat="42.863036" lon="-5.353762">
			<ele>1347.000000</ele>
		<time>2015-12-06T03:09:34Z</time>
		</trkpt>

		<trkpt lat="42.862859" lon="-5.353552">
			<ele>1346.000000</ele>
		<time>2015-12-06T03:09:37Z</time>
		</trkpt>

		<trkpt lat="42.862700" lon="-5.353326">
			<ele>1343.000000</ele>
		<time>2015-12-06T03:09:40Z</time>
		</trkpt>

		<trkpt lat="42.862531" lon="-5.353137">
			<ele>1339.000000</ele>
		<time>2015-12-06T03:09:43Z</time>
		</trkpt>

		<trkpt lat="42.862380" lon="-5.352986">
			<ele>1331.000000</ele>
		<time>2015-12-06T03:09:46Z</time>
		</trkpt>

		<trkpt lat="42.862201" lon="-5.352869">
			<ele>1326.000000</ele>
		<time>2015-12-06T03:09:49Z</time>
		</trkpt>

		<trkpt lat="42.861962" lon="-5.352761">
			<ele>1321.000000</ele>
		<time>2015-12-06T03:09:53Z</time>
		</trkpt>

		<trkpt lat="42.861792" lon="-5.352780">
			<ele>1319.000000</ele>
		<time>2015-12-06T03:09:56Z</time>
		</trkpt>

		<trkpt lat="42.861637" lon="-5.352889">
			<ele>1318.000000</ele>
		<time>2015-12-06T03:09:59Z</time>
		</trkpt>

		<trkpt lat="42.861511" lon="-5.353015">
			<ele>1313.000000</ele>
		<time>2015-12-06T03:10:02Z</time>
		</trkpt>

		<trkpt lat="42.861462" lon="-5.353232">
			<ele>1309.000000</ele>
		<time>2015-12-06T03:10:05Z</time>
		</trkpt>

		<trkpt lat="42.861467" lon="-5.353451">
			<ele>1308.000000</ele>
		<time>2015-12-06T03:10:08Z</time>
		</trkpt>

		<trkpt lat="42.861541" lon="-5.353779">
			<ele>1307.000000</ele>
		<time>2015-12-06T03:10:12Z</time>
		</trkpt>

		<trkpt lat="42.861604" lon="-5.353996">
			<ele>1307.000000</ele>
		<time>2015-12-06T03:10:15Z</time>
		</trkpt>

		<trkpt lat="42.861680" lon="-5.354232">
			<ele>1306.000000</ele>
		<time>2015-12-06T03:10:18Z</time>
		</trkpt>

		<trkpt lat="42.861758" lon="-5.354409">
			<ele>1305.000000</ele>
		<time>2015-12-06T03:10:21Z</time>
		</trkpt>

		<trkpt lat="42.861863" lon="-5.354615">
			<ele>1303.000000</ele>
		<time>2015-12-06T03:10:24Z</time>
		</trkpt>

		<trkpt lat="42.861980" lon="-5.354822">
			<ele>1305.000000</ele>
		<time>2015-12-06T03:10:27Z</time>
		</trkpt>

		<trkpt lat="42.862122" lon="-5.354987">
			<ele>1308.000000</ele>
		<time>2015-12-06T03:10:30Z</time>
		</trkpt>

		<trkpt lat="42.862291" lon="-5.355266">
			<ele>1307.000000</ele>
		<time>2015-12-06T03:10:34Z</time>
		</trkpt>

		<trkpt lat="42.862390" lon="-5.355485">
			<ele>1302.000000</ele>
		<time>2015-12-06T03:10:37Z</time>
		</trkpt>

		<trkpt lat="42.862430" lon="-5.355707">
			<ele>1305.000000</ele>
		<time>2015-12-06T03:10:40Z</time>
		</trkpt>

		<trkpt lat="42.862499" lon="-5.355910">
			<ele>1300.000000</ele>
		<time>2015-12-06T03:10:43Z</time>
		</trkpt>

		<trkpt lat="42.862642" lon="-5.356157">
			<ele>1304.000000</ele>
		<time>2015-12-06T03:10:46Z</time>
		</trkpt>

		<trkpt lat="42.862819" lon="-5.356345">
			<ele>1304.000000</ele>
		<time>2015-12-06T03:10:49Z</time>
		</trkpt>

		<trkpt lat="42.862958" lon="-5.356604">
			<ele>1306.000000</ele>
		<time>2015-12-06T03:10:52Z</time>
		</trkpt>

		<trkpt lat="42.862921" lon="-5.356821">
			<ele>1304.000000</ele>
		<time>2015-12-06T03:10:55Z</time>
		</trkpt>

		<trkpt lat="42.862888" lon="-5.357048">
			<ele>1300.000000</ele>
		<time>2015-12-06T03:10:58Z</time>
		</trkpt>

		<trkpt lat="42.862880" lon="-5.357279">
			<ele>1296.000000</ele>
		<time>2015-12-06T03:11:01Z</time>
		</trkpt>

		<trkpt lat="42.862903" lon="-5.357538">
			<ele>1294.000000</ele>
		<time>2015-12-06T03:11:04Z</time>
		</trkpt>

		<trkpt lat="42.862921" lon="-5.357762">
			<ele>1293.000000</ele>
		<time>2015-12-06T03:11:07Z</time>
		</trkpt>

		<trkpt lat="42.863006" lon="-5.358013">
			<ele>1291.000000</ele>
		<time>2015-12-06T03:11:10Z</time>
		</trkpt>

		<trkpt lat="42.863143" lon="-5.358233">
			<ele>1287.000000</ele>
		<time>2015-12-06T03:11:13Z</time>
		</trkpt>

		<trkpt lat="42.863294" lon="-5.358404">
			<ele>1282.000000</ele>
		<time>2015-12-06T03:11:16Z</time>
		</trkpt>

		<trkpt lat="42.863656" lon="-5.358532">
			<ele>1278.000000</ele>
		<time>2015-12-06T03:11:20Z</time>
		</trkpt>

		<trkpt lat="42.863967" lon="-5.358399">
			<ele>1274.000000</ele>
		<time>2015-12-06T03:11:23Z</time>
		</trkpt>

		<trkpt lat="42.864161" lon="-5.358045">
			<ele>1268.000000</ele>
		<time>2015-12-06T03:11:26Z</time>
		</trkpt>

		<trkpt lat="42.864220" lon="-5.357645">
			<ele>1264.000000</ele>
		<time>2015-12-06T03:11:29Z</time>
		</trkpt>

		<trkpt lat="42.864161" lon="-5.357262">
			<ele>1259.000000</ele>
		<time>2015-12-06T03:11:32Z</time>
		</trkpt>

		<trkpt lat="42.864025" lon="-5.357008">
			<ele>1257.000000</ele>
		<time>2015-12-06T03:11:35Z</time>
		</trkpt>

		<trkpt lat="42.863851" lon="-5.356929">
			<ele>1254.000000</ele>
		<time>2015-12-06T03:11:38Z</time>
		</trkpt>

		<trkpt lat="42.863703" lon="-5.356982">
			<ele>1251.000000</ele>
		<time>2015-12-06T03:11:41Z</time>
		</trkpt>

		<trkpt lat="42.863522" lon="-5.357012">
			<ele>1248.000000</ele>
		<time>2015-12-06T03:11:45Z</time>
		</trkpt>

		<trkpt lat="42.863348" lon="-5.356803">
			<ele>1247.000000</ele>
		<time>2015-12-06T03:11:48Z</time>
		</trkpt>

		<trkpt lat="42.863169" lon="-5.356621">
			<ele>1241.000000</ele>
		<time>2015-12-06T03:11:51Z</time>
		</trkpt>

		<trkpt lat="42.862994" lon="-5.356472">
			<ele>1240.000000</ele>
		<time>2015-12-06T03:11:54Z</time>
		</trkpt>

		<trkpt lat="42.862860" lon="-5.356248">
			<ele>1236.000000</ele>
		<time>2015-12-06T03:11:57Z</time>
		</trkpt>

		<trkpt lat="42.862641" lon="-5.355886">
			<ele>1234.000000</ele>
		<time>2015-12-06T03:12:01Z</time>
		</trkpt>

		<trkpt lat="42.862483" lon="-5.355650">
			<ele>1226.000000</ele>
		<time>2015-12-06T03:12:04Z</time>
		</trkpt>

		<trkpt lat="42.862296" lon="-5.355473">
			<ele>1219.000000</ele>
		<time>2015-12-06T03:12:07Z</time>
		</trkpt>

		<trkpt lat="42.862147" lon="-5.355447">
			<ele>1209.000000</ele>
		<time>2015-12-06T03:12:10Z</time>
		</trkpt>

		<trkpt lat="42.862007" lon="-5.355649">
			<ele>1205.000000</ele>
		<time>2015-12-06T03:12:13Z</time>
		</trkpt>

		<trkpt lat="42.861916" lon="-5.355840">
			<ele>1201.000000</ele>
		<time>2015-12-06T03:12:16Z</time>
		</trkpt>

		<trkpt lat="42.861842" lon="-5.356017">
			<ele>1197.000000</ele>
		<time>2015-12-06T03:12:19Z</time>
		</trkpt>

		<trkpt lat="42.861729" lon="-5.356199">
			<ele>1194.000000</ele>
		<time>2015-12-06T03:12:22Z</time>
		</trkpt>

		<trkpt lat="42.861642" lon="-5.356390">
			<ele>1190.000000</ele>
		<time>2015-12-06T03:12:25Z</time>
		</trkpt>

		<trkpt lat="42.861550" lon="-5.356602">
			<ele>1185.000000</ele>
		<time>2015-12-06T03:12:28Z</time>
		</trkpt>

		<trkpt lat="42.861476" lon="-5.356801">
			<ele>1178.000000</ele>
		<time>2015-12-06T03:12:31Z</time>
		</trkpt>

		<trkpt lat="42.861359" lon="-5.356854">
			<ele>1173.000000</ele>
		<time>2015-12-06T03:12:34Z</time>
		</trkpt>

		<trkpt lat="42.861259" lon="-5.357040">
			<ele>1170.000000</ele>
		<time>2015-12-06T03:12:37Z</time>
		</trkpt>

		<trkpt lat="42.861116" lon="-5.357182">
			<ele>1166.000000</ele>
		<time>2015-12-06T03:12:40Z</time>
		</trkpt>

		<trkpt lat="42.860971" lon="-5.357300">
			<ele>1160.000000</ele>
		<time>2015-12-06T03:12:43Z</time>
		</trkpt>

		<trkpt lat="42.860824" lon="-5.357439">
			<ele>1154.000000</ele>
		<time>2015-12-06T03:12:46Z</time>
		</trkpt>

		<trkpt lat="42.860672" lon="-5.357475">
			<ele>1149.000000</ele>
		<time>2015-12-06T03:12:49Z</time>
		</trkpt>

		<trkpt lat="42.860502" lon="-5.357517">
			<ele>1146.000000</ele>
		<time>2015-12-06T03:12:52Z</time>
		</trkpt>

		<trkpt lat="42.860305" lon="-5.357528">
			<ele>1142.000000</ele>
		<time>2015-12-06T03:12:55Z</time>
		</trkpt>

		<trkpt lat="42.860127" lon="-5.357557">
			<ele>1137.000000</ele>
		<time>2015-12-06T03:12:58Z</time>
		</trkpt>

		<trkpt lat="42.859951" lon="-5.357704">
			<ele>1132.000000</ele>
		<time>2015-12-06T03:13:01Z</time>
		</trkpt>

		<trkpt lat="42.859786" lon="-5.357801">
			<ele>1127.000000</ele>
		<time>2015-12-06T03:13:04Z</time>
		</trkpt>

		<trkpt lat="42.859636" lon="-5.357921">
			<ele>1126.000000</ele>
		<time>2015-12-06T03:13:07Z</time>
		</trkpt>

		<trkpt lat="42.859506" lon="-5.358039">
			<ele>1123.000000</ele>
		<time>2015-12-06T03:13:10Z</time>
		</trkpt>

		<trkpt lat="42.859364" lon="-5.358237">
			<ele>1120.000000</ele>
		<time>2015-12-06T03:13:13Z</time>
		</trkpt>

		<trkpt lat="42.859220" lon="-5.358374">
			<ele>1119.000000</ele>
		<time>2015-12-06T03:13:16Z</time>
		</trkpt>

		<trkpt lat="42.859064" lon="-5.358546">
			<ele>1117.000000</ele>
		<time>2015-12-06T03:13:19Z</time>
		</trkpt>

		<trkpt lat="42.858905" lon="-5.358657">
			<ele>1115.000000</ele>
		<time>2015-12-06T03:13:22Z</time>
		</trkpt>

		<trkpt lat="42.858698" lon="-5.358618">
			<ele>1113.000000</ele>
		<time>2015-12-06T03:13:25Z</time>
		</trkpt>

		<trkpt lat="42.858624" lon="-5.358346">
			<ele>1113.000000</ele>
		<time>2015-12-06T03:13:28Z</time>
		</trkpt>

		<trkpt lat="42.858509" lon="-5.357979">
			<ele>1111.000000</ele>
		<time>2015-12-06T03:13:32Z</time>
		</trkpt>

		<trkpt lat="42.858492" lon="-5.357896">
			<ele>1109.000000</ele>
		<time>2015-12-06T03:13:35Z</time>
		</trkpt>

		<trkpt lat="42.858479" lon="-5.357863">
			<ele>1103.000000</ele>
		<time>2015-12-06T03:15:27Z</time>
		</trkpt>

	</trkseg>
</trk>
</gpx>

